<?xml version="1.0" encoding="UTF-8" standalone="no" ?>
<gpx xmlns="http://www.topografix.com/GPX/1/1" xmlns:xsi="http://www.w3.org/2001/XMLSchema-instance" xsi:schemaLocation="http://www.topografix.com/GPX/1/1 http://www.topografix.com/GPX/1/1/gpx.xsd" version="1.1" creator="VisuGPX - https://www.visugpx.com">
  <metadata>
    <name>2018-04-07 Bike ride-Val d-Azergues 31km</name>
    <desc><![CDATA[2018-04-07 Bike ride-Val d-Azergues 31km]]></desc>
  </metadata>
  <wpt lat="45.92454" lon="4.73705">
    <ele>174</ele>
    <name><![CDATA[2018-04-07 10:53 (Start)]]></name>
  </wpt>
  <wpt lat="45.92461" lon="4.73711">
    <ele>174</ele>
    <name><![CDATA[2018-04-07 10:53 (End)]]></name>
  </wpt>
  <trk>
    <name><![CDATA[2018-04-07 10:53]]></name>
    <trkseg>
      <trkpt lat="45.92454" lon="4.73705">
        <ele>174</ele>
        <time>2018-04-07T08:53:39.198Z</time>
      </trkpt>
      <trkpt lat="45.92462" lon="4.73706">
        <ele>174</ele>
        <time>2018-04-07T08:54:00Z</time>
      </trkpt>
      <trkpt lat="45.92463" lon="4.73704">
        <ele>174</ele>
        <time>2018-04-07T08:54:01Z</time>
      </trkpt>
      <trkpt lat="45.92466" lon="4.73696">
        <ele>174</ele>
        <time>2018-04-07T08:54:04Z</time>
      </trkpt>
      <trkpt lat="45.92466" lon="4.73692">
        <ele>174</ele>
        <time>2018-04-07T08:54:05Z</time>
      </trkpt>
      <trkpt lat="45.92467" lon="4.73683">
        <ele>174</ele>
        <time>2018-04-07T08:54:07Z</time>
      </trkpt>
      <trkpt lat="45.92468" lon="4.73679">
        <ele>174</ele>
        <time>2018-04-07T08:54:08Z</time>
      </trkpt>
      <trkpt lat="45.92469" lon="4.7367">
        <ele>174</ele>
        <time>2018-04-07T08:54:10Z</time>
      </trkpt>
      <trkpt lat="45.9247" lon="4.73665">
        <ele>174</ele>
        <time>2018-04-07T08:54:11Z</time>
      </trkpt>
      <trkpt lat="45.92472" lon="4.73656">
        <ele>174</ele>
        <time>2018-04-07T08:54:13Z</time>
      </trkpt>
      <trkpt lat="45.92473" lon="4.73652">
        <ele>174</ele>
        <time>2018-04-07T08:54:14Z</time>
      </trkpt>
      <trkpt lat="45.92476" lon="4.73644">
        <ele>174</ele>
        <time>2018-04-07T08:54:16Z</time>
      </trkpt>
      <trkpt lat="45.92484" lon="4.73637">
        <ele>174</ele>
        <time>2018-04-07T08:54:17Z</time>
      </trkpt>
      <trkpt lat="45.92493" lon="4.73638">
        <ele>174</ele>
        <time>2018-04-07T08:54:19Z</time>
      </trkpt>
      <trkpt lat="45.92497" lon="4.73638">
        <ele>174</ele>
        <time>2018-04-07T08:54:20Z</time>
      </trkpt>
      <trkpt lat="45.92505" lon="4.73639">
        <ele>174</ele>
        <time>2018-04-07T08:54:22Z</time>
      </trkpt>
      <trkpt lat="45.9251" lon="4.73639">
        <ele>174</ele>
        <time>2018-04-07T08:54:23Z</time>
      </trkpt>
      <trkpt lat="45.92514" lon="4.73638">
        <ele>173</ele>
        <time>2018-04-07T08:54:24Z</time>
      </trkpt>
      <trkpt lat="45.92519" lon="4.73638">
        <ele>173</ele>
        <time>2018-04-07T08:54:25Z</time>
      </trkpt>
      <trkpt lat="45.92523" lon="4.73638">
        <ele>173</ele>
        <time>2018-04-07T08:54:26Z</time>
      </trkpt>
      <trkpt lat="45.92528" lon="4.73639">
        <ele>173</ele>
        <time>2018-04-07T08:54:27Z</time>
      </trkpt>
      <trkpt lat="45.92533" lon="4.73637">
        <ele>173</ele>
        <time>2018-04-07T08:54:28Z</time>
      </trkpt>
      <trkpt lat="45.92539" lon="4.73635">
        <ele>173</ele>
        <time>2018-04-07T08:54:29Z</time>
      </trkpt>
      <trkpt lat="45.92543" lon="4.73634">
        <ele>173</ele>
        <time>2018-04-07T08:54:30Z</time>
      </trkpt>
      <trkpt lat="45.92551" lon="4.73633">
        <ele>173</ele>
        <time>2018-04-07T08:54:31Z</time>
      </trkpt>
      <trkpt lat="45.92556" lon="4.73633">
        <ele>173</ele>
        <time>2018-04-07T08:54:32Z</time>
      </trkpt>
      <trkpt lat="45.9256" lon="4.7363">
        <ele>173</ele>
        <time>2018-04-07T08:54:33Z</time>
      </trkpt>
      <trkpt lat="45.92565" lon="4.73631">
        <ele>173</ele>
        <time>2018-04-07T08:54:34Z</time>
      </trkpt>
      <trkpt lat="45.92569" lon="4.73628">
        <ele>173</ele>
        <time>2018-04-07T08:54:35Z</time>
      </trkpt>
      <trkpt lat="45.92578" lon="4.73629">
        <ele>173</ele>
        <time>2018-04-07T08:54:37Z</time>
      </trkpt>
      <trkpt lat="45.92582" lon="4.73626">
        <ele>173</ele>
        <time>2018-04-07T08:54:38Z</time>
      </trkpt>
      <trkpt lat="45.92588" lon="4.73626">
        <ele>172</ele>
        <time>2018-04-07T08:54:39Z</time>
      </trkpt>
      <trkpt lat="45.92594" lon="4.73625">
        <ele>173</ele>
        <time>2018-04-07T08:54:40Z</time>
      </trkpt>
      <trkpt lat="45.926" lon="4.73626">
        <ele>173</ele>
        <time>2018-04-07T08:54:41Z</time>
      </trkpt>
      <trkpt lat="45.92605" lon="4.73626">
        <ele>173</ele>
        <time>2018-04-07T08:54:42Z</time>
      </trkpt>
      <trkpt lat="45.9261" lon="4.73626">
        <ele>173</ele>
        <time>2018-04-07T08:54:43Z</time>
      </trkpt>
      <trkpt lat="45.92616" lon="4.73632">
        <ele>173</ele>
        <time>2018-04-07T08:54:44Z</time>
      </trkpt>
      <trkpt lat="45.92619" lon="4.73637">
        <ele>173</ele>
        <time>2018-04-07T08:54:45Z</time>
      </trkpt>
      <trkpt lat="45.92622" lon="4.73644">
        <ele>173</ele>
        <time>2018-04-07T08:54:46Z</time>
      </trkpt>
      <trkpt lat="45.92625" lon="4.73651">
        <ele>173</ele>
        <time>2018-04-07T08:54:47Z</time>
      </trkpt>
      <trkpt lat="45.92628" lon="4.73659">
        <ele>173</ele>
        <time>2018-04-07T08:54:48Z</time>
      </trkpt>
      <trkpt lat="45.92631" lon="4.73666">
        <ele>173</ele>
        <time>2018-04-07T08:54:49Z</time>
      </trkpt>
      <trkpt lat="45.92635" lon="4.73672">
        <ele>173</ele>
        <time>2018-04-07T08:54:50Z</time>
      </trkpt>
      <trkpt lat="45.92638" lon="4.73678">
        <ele>173</ele>
        <time>2018-04-07T08:54:51Z</time>
      </trkpt>
      <trkpt lat="45.92642" lon="4.73685">
        <ele>173</ele>
        <time>2018-04-07T08:54:52Z</time>
      </trkpt>
      <trkpt lat="45.92646" lon="4.73691">
        <ele>173</ele>
        <time>2018-04-07T08:54:53Z</time>
      </trkpt>
      <trkpt lat="45.92651" lon="4.73697">
        <ele>173</ele>
        <time>2018-04-07T08:54:54Z</time>
      </trkpt>
      <trkpt lat="45.92656" lon="4.73702">
        <ele>173</ele>
        <time>2018-04-07T08:54:55Z</time>
      </trkpt>
      <trkpt lat="45.92661" lon="4.73705">
        <ele>173</ele>
        <time>2018-04-07T08:54:56Z</time>
      </trkpt>
      <trkpt lat="45.92667" lon="4.73707">
        <ele>173</ele>
        <time>2018-04-07T08:54:57Z</time>
      </trkpt>
      <trkpt lat="45.92673" lon="4.73709">
        <ele>174</ele>
        <time>2018-04-07T08:54:58Z</time>
      </trkpt>
      <trkpt lat="45.92679" lon="4.73712">
        <ele>173</ele>
        <time>2018-04-07T08:54:59Z</time>
      </trkpt>
      <trkpt lat="45.92685" lon="4.73712">
        <ele>173</ele>
        <time>2018-04-07T08:55:00Z</time>
      </trkpt>
      <trkpt lat="45.92692" lon="4.73711">
        <ele>173</ele>
        <time>2018-04-07T08:55:01Z</time>
      </trkpt>
      <trkpt lat="45.92698" lon="4.73714">
        <ele>173</ele>
        <time>2018-04-07T08:55:02Z</time>
      </trkpt>
      <trkpt lat="45.92705" lon="4.73716">
        <ele>173</ele>
        <time>2018-04-07T08:55:03Z</time>
      </trkpt>
      <trkpt lat="45.9271" lon="4.73715">
        <ele>173</ele>
        <time>2018-04-07T08:55:04Z</time>
      </trkpt>
      <trkpt lat="45.92716" lon="4.73717">
        <ele>173</ele>
        <time>2018-04-07T08:55:05Z</time>
      </trkpt>
      <trkpt lat="45.92721" lon="4.73719">
        <ele>173</ele>
        <time>2018-04-07T08:55:06Z</time>
      </trkpt>
      <trkpt lat="45.92727" lon="4.7372">
        <ele>173</ele>
        <time>2018-04-07T08:55:07Z</time>
      </trkpt>
      <trkpt lat="45.92733" lon="4.73721">
        <ele>173</ele>
        <time>2018-04-07T08:55:08Z</time>
      </trkpt>
      <trkpt lat="45.92739" lon="4.73723">
        <ele>173</ele>
        <time>2018-04-07T08:55:09Z</time>
      </trkpt>
      <trkpt lat="45.92745" lon="4.73724">
        <ele>173</ele>
        <time>2018-04-07T08:55:10Z</time>
      </trkpt>
      <trkpt lat="45.9275" lon="4.73725">
        <ele>172</ele>
        <time>2018-04-07T08:55:11Z</time>
      </trkpt>
      <trkpt lat="45.92756" lon="4.73727">
        <ele>172</ele>
        <time>2018-04-07T08:55:12Z</time>
      </trkpt>
      <trkpt lat="45.92761" lon="4.73729">
        <ele>172</ele>
        <time>2018-04-07T08:55:13Z</time>
      </trkpt>
      <trkpt lat="45.92765" lon="4.73729">
        <ele>172</ele>
        <time>2018-04-07T08:55:14Z</time>
      </trkpt>
      <trkpt lat="45.9277" lon="4.73732">
        <ele>172</ele>
        <time>2018-04-07T08:55:15Z</time>
      </trkpt>
      <trkpt lat="45.92774" lon="4.73734">
        <ele>172</ele>
        <time>2018-04-07T08:55:16Z</time>
      </trkpt>
      <trkpt lat="45.92779" lon="4.73742">
        <ele>172</ele>
        <time>2018-04-07T08:55:18Z</time>
      </trkpt>
      <trkpt lat="45.92781" lon="4.73747">
        <ele>172</ele>
        <time>2018-04-07T08:55:19Z</time>
      </trkpt>
      <trkpt lat="45.92788" lon="4.73754">
        <ele>173</ele>
        <time>2018-04-07T08:55:21Z</time>
      </trkpt>
      <trkpt lat="45.92792" lon="4.73756">
        <ele>173</ele>
        <time>2018-04-07T08:55:22Z</time>
      </trkpt>
      <trkpt lat="45.92799" lon="4.73762">
        <ele>173</ele>
        <time>2018-04-07T08:55:24Z</time>
      </trkpt>
      <trkpt lat="45.92804" lon="4.73765">
        <ele>173</ele>
        <time>2018-04-07T08:55:25Z</time>
      </trkpt>
      <trkpt lat="45.92808" lon="4.73767">
        <ele>173</ele>
        <time>2018-04-07T08:55:26Z</time>
      </trkpt>
      <trkpt lat="45.92813" lon="4.73769">
        <ele>173</ele>
        <time>2018-04-07T08:55:27Z</time>
      </trkpt>
      <trkpt lat="45.92819" lon="4.73772">
        <ele>173</ele>
        <time>2018-04-07T08:55:28Z</time>
      </trkpt>
      <trkpt lat="45.92824" lon="4.73777">
        <ele>173</ele>
        <time>2018-04-07T08:55:29Z</time>
      </trkpt>
      <trkpt lat="45.92829" lon="4.73781">
        <ele>173</ele>
        <time>2018-04-07T08:55:30Z</time>
      </trkpt>
      <trkpt lat="45.92836" lon="4.73783">
        <ele>173</ele>
        <time>2018-04-07T08:55:31Z</time>
      </trkpt>
      <trkpt lat="45.92841" lon="4.73787">
        <ele>173</ele>
        <time>2018-04-07T08:55:32Z</time>
      </trkpt>
      <trkpt lat="45.92846" lon="4.73792">
        <ele>173</ele>
        <time>2018-04-07T08:55:33Z</time>
      </trkpt>
      <trkpt lat="45.92851" lon="4.73798">
        <ele>173</ele>
        <time>2018-04-07T08:55:34Z</time>
      </trkpt>
      <trkpt lat="45.92856" lon="4.73803">
        <ele>173</ele>
        <time>2018-04-07T08:55:35Z</time>
      </trkpt>
      <trkpt lat="45.9286" lon="4.73809">
        <ele>173</ele>
        <time>2018-04-07T08:55:36Z</time>
      </trkpt>
      <trkpt lat="45.92861" lon="4.73818">
        <ele>173</ele>
        <time>2018-04-07T08:55:37Z</time>
      </trkpt>
      <trkpt lat="45.92863" lon="4.73826">
        <ele>173</ele>
        <time>2018-04-07T08:55:38Z</time>
      </trkpt>
      <trkpt lat="45.92865" lon="4.73834">
        <ele>173</ele>
        <time>2018-04-07T08:55:39Z</time>
      </trkpt>
      <trkpt lat="45.92866" lon="4.73843">
        <ele>173</ele>
        <time>2018-04-07T08:55:40Z</time>
      </trkpt>
      <trkpt lat="45.92868" lon="4.73852">
        <ele>173</ele>
        <time>2018-04-07T08:55:41Z</time>
      </trkpt>
      <trkpt lat="45.92877" lon="4.7388">
        <ele>173</ele>
        <time>2018-04-07T08:55:45Z</time>
      </trkpt>
      <trkpt lat="45.92877" lon="4.7389">
        <ele>173</ele>
        <time>2018-04-07T08:55:46Z</time>
      </trkpt>
      <trkpt lat="45.92878" lon="4.73898">
        <ele>173</ele>
        <time>2018-04-07T08:55:47Z</time>
      </trkpt>
      <trkpt lat="45.9288" lon="4.73908">
        <ele>173</ele>
        <time>2018-04-07T08:55:48Z</time>
      </trkpt>
      <trkpt lat="45.9288" lon="4.73917">
        <ele>172</ele>
        <time>2018-04-07T08:55:49Z</time>
      </trkpt>
      <trkpt lat="45.9288" lon="4.73926">
        <ele>172</ele>
        <time>2018-04-07T08:55:50Z</time>
      </trkpt>
      <trkpt lat="45.92883" lon="4.73933">
        <ele>172</ele>
        <time>2018-04-07T08:55:51Z</time>
      </trkpt>
      <trkpt lat="45.92883" lon="4.73941">
        <ele>172</ele>
        <time>2018-04-07T08:55:52Z</time>
      </trkpt>
      <trkpt lat="45.92884" lon="4.73948">
        <ele>172</ele>
        <time>2018-04-07T08:55:53Z</time>
      </trkpt>
      <trkpt lat="45.92884" lon="4.73957">
        <ele>172</ele>
        <time>2018-04-07T08:55:54Z</time>
      </trkpt>
      <trkpt lat="45.92884" lon="4.73963">
        <ele>172</ele>
        <time>2018-04-07T08:55:55Z</time>
      </trkpt>
      <trkpt lat="45.92886" lon="4.73971">
        <ele>172</ele>
        <time>2018-04-07T08:55:56Z</time>
      </trkpt>
      <trkpt lat="45.92884" lon="4.73978">
        <ele>172</ele>
        <time>2018-04-07T08:55:57Z</time>
      </trkpt>
      <trkpt lat="45.92884" lon="4.73991">
        <ele>172</ele>
        <time>2018-04-07T08:55:58Z</time>
      </trkpt>
      <trkpt lat="45.9288" lon="4.74003">
        <ele>172</ele>
        <time>2018-04-07T08:56:00Z</time>
      </trkpt>
      <trkpt lat="45.92878" lon="4.74009">
        <ele>172</ele>
        <time>2018-04-07T08:56:01Z</time>
      </trkpt>
      <trkpt lat="45.92877" lon="4.74016">
        <ele>172</ele>
        <time>2018-04-07T08:56:02Z</time>
      </trkpt>
      <trkpt lat="45.92875" lon="4.74024">
        <ele>172</ele>
        <time>2018-04-07T08:56:03Z</time>
      </trkpt>
      <trkpt lat="45.92872" lon="4.74034">
        <ele>172</ele>
        <time>2018-04-07T08:56:05Z</time>
      </trkpt>
      <trkpt lat="45.9287" lon="4.7404">
        <ele>172</ele>
        <time>2018-04-07T08:56:06Z</time>
      </trkpt>
      <trkpt lat="45.92866" lon="4.74045">
        <ele>172</ele>
        <time>2018-04-07T08:56:07Z</time>
      </trkpt>
      <trkpt lat="45.92863" lon="4.7405">
        <ele>172</ele>
        <time>2018-04-07T08:56:08Z</time>
      </trkpt>
      <trkpt lat="45.92859" lon="4.74056">
        <ele>172</ele>
        <time>2018-04-07T08:56:09Z</time>
      </trkpt>
      <trkpt lat="45.92855" lon="4.74061">
        <ele>172</ele>
        <time>2018-04-07T08:56:10Z</time>
      </trkpt>
      <trkpt lat="45.92852" lon="4.74066">
        <ele>172</ele>
        <time>2018-04-07T08:56:11Z</time>
      </trkpt>
      <trkpt lat="45.92848" lon="4.74072">
        <ele>172</ele>
        <time>2018-04-07T08:56:12Z</time>
      </trkpt>
      <trkpt lat="45.92844" lon="4.74075">
        <ele>172</ele>
        <time>2018-04-07T08:56:13Z</time>
      </trkpt>
      <trkpt lat="45.9284" lon="4.7408">
        <ele>171</ele>
        <time>2018-04-07T08:56:14Z</time>
      </trkpt>
      <trkpt lat="45.92836" lon="4.74085">
        <ele>171</ele>
        <time>2018-04-07T08:56:15Z</time>
      </trkpt>
      <trkpt lat="45.92832" lon="4.7409">
        <ele>171</ele>
        <time>2018-04-07T08:56:16Z</time>
      </trkpt>
      <trkpt lat="45.92829" lon="4.74094">
        <ele>171</ele>
        <time>2018-04-07T08:56:17Z</time>
      </trkpt>
      <trkpt lat="45.92824" lon="4.74098">
        <ele>171</ele>
        <time>2018-04-07T08:56:18Z</time>
      </trkpt>
      <trkpt lat="45.9282" lon="4.74103">
        <ele>171</ele>
        <time>2018-04-07T08:56:19Z</time>
      </trkpt>
      <trkpt lat="45.92816" lon="4.74107">
        <ele>172</ele>
        <time>2018-04-07T08:56:20Z</time>
      </trkpt>
      <trkpt lat="45.92811" lon="4.74111">
        <ele>172</ele>
        <time>2018-04-07T08:56:21Z</time>
      </trkpt>
      <trkpt lat="45.92807" lon="4.74115">
        <ele>172</ele>
        <time>2018-04-07T08:56:22Z</time>
      </trkpt>
      <trkpt lat="45.92803" lon="4.74119">
        <ele>172</ele>
        <time>2018-04-07T08:56:23Z</time>
      </trkpt>
      <trkpt lat="45.92799" lon="4.74124">
        <ele>172</ele>
        <time>2018-04-07T08:56:24Z</time>
      </trkpt>
      <trkpt lat="45.92795" lon="4.74129">
        <ele>172</ele>
        <time>2018-04-07T08:56:25Z</time>
      </trkpt>
      <trkpt lat="45.92792" lon="4.74133">
        <ele>172</ele>
        <time>2018-04-07T08:56:26Z</time>
      </trkpt>
      <trkpt lat="45.92787" lon="4.74135">
        <ele>172</ele>
        <time>2018-04-07T08:56:27Z</time>
      </trkpt>
      <trkpt lat="45.92783" lon="4.74139">
        <ele>172</ele>
        <time>2018-04-07T08:56:28Z</time>
      </trkpt>
      <trkpt lat="45.92779" lon="4.74142">
        <ele>172</ele>
        <time>2018-04-07T08:56:29Z</time>
      </trkpt>
      <trkpt lat="45.92776" lon="4.74148">
        <ele>172</ele>
        <time>2018-04-07T08:56:30Z</time>
      </trkpt>
      <trkpt lat="45.92771" lon="4.74153">
        <ele>172</ele>
        <time>2018-04-07T08:56:31Z</time>
      </trkpt>
      <trkpt lat="45.92767" lon="4.74157">
        <ele>172</ele>
        <time>2018-04-07T08:56:32Z</time>
      </trkpt>
      <trkpt lat="45.92763" lon="4.74161">
        <ele>172</ele>
        <time>2018-04-07T08:56:33Z</time>
      </trkpt>
      <trkpt lat="45.92758" lon="4.74165">
        <ele>172</ele>
        <time>2018-04-07T08:56:34Z</time>
      </trkpt>
      <trkpt lat="45.92754" lon="4.74169">
        <ele>172</ele>
        <time>2018-04-07T08:56:35Z</time>
      </trkpt>
      <trkpt lat="45.9275" lon="4.74174">
        <ele>172</ele>
        <time>2018-04-07T08:56:36Z</time>
      </trkpt>
      <trkpt lat="45.92745" lon="4.74178">
        <ele>172</ele>
        <time>2018-04-07T08:56:37Z</time>
      </trkpt>
      <trkpt lat="45.92742" lon="4.74183">
        <ele>172</ele>
        <time>2018-04-07T08:56:38Z</time>
      </trkpt>
      <trkpt lat="45.92738" lon="4.74188">
        <ele>172</ele>
        <time>2018-04-07T08:56:39Z</time>
      </trkpt>
      <trkpt lat="45.92734" lon="4.74192">
        <ele>171</ele>
        <time>2018-04-07T08:56:40Z</time>
      </trkpt>
      <trkpt lat="45.92731" lon="4.742">
        <ele>171</ele>
        <time>2018-04-07T08:56:41Z</time>
      </trkpt>
      <trkpt lat="45.92727" lon="4.74205">
        <ele>171</ele>
        <time>2018-04-07T08:56:42Z</time>
      </trkpt>
      <trkpt lat="45.92723" lon="4.7421">
        <ele>171</ele>
        <time>2018-04-07T08:56:43Z</time>
      </trkpt>
      <trkpt lat="45.9272" lon="4.74215">
        <ele>171</ele>
        <time>2018-04-07T08:56:44Z</time>
      </trkpt>
      <trkpt lat="45.92716" lon="4.74221">
        <ele>171</ele>
        <time>2018-04-07T08:56:45Z</time>
      </trkpt>
      <trkpt lat="45.92712" lon="4.74226">
        <ele>171</ele>
        <time>2018-04-07T08:56:46Z</time>
      </trkpt>
      <trkpt lat="45.92708" lon="4.74232">
        <ele>171</ele>
        <time>2018-04-07T08:56:47Z</time>
      </trkpt>
      <trkpt lat="45.92704" lon="4.74238">
        <ele>171</ele>
        <time>2018-04-07T08:56:48Z</time>
      </trkpt>
      <trkpt lat="45.92701" lon="4.74244">
        <ele>171</ele>
        <time>2018-04-07T08:56:49Z</time>
      </trkpt>
      <trkpt lat="45.92699" lon="4.7425">
        <ele>171</ele>
        <time>2018-04-07T08:56:50Z</time>
      </trkpt>
      <trkpt lat="45.92695" lon="4.74257">
        <ele>171</ele>
        <time>2018-04-07T08:56:51Z</time>
      </trkpt>
      <trkpt lat="45.92692" lon="4.74262">
        <ele>171</ele>
        <time>2018-04-07T08:56:52Z</time>
      </trkpt>
      <trkpt lat="45.92688" lon="4.74266">
        <ele>171</ele>
        <time>2018-04-07T08:56:53Z</time>
      </trkpt>
      <trkpt lat="45.92685" lon="4.74271">
        <ele>171</ele>
        <time>2018-04-07T08:56:54Z</time>
      </trkpt>
      <trkpt lat="45.92681" lon="4.74277">
        <ele>171</ele>
        <time>2018-04-07T08:56:55Z</time>
      </trkpt>
      <trkpt lat="45.92678" lon="4.74283">
        <ele>171</ele>
        <time>2018-04-07T08:56:56Z</time>
      </trkpt>
      <trkpt lat="45.92675" lon="4.7429">
        <ele>171</ele>
        <time>2018-04-07T08:56:57Z</time>
      </trkpt>
      <trkpt lat="45.92672" lon="4.74296">
        <ele>171</ele>
        <time>2018-04-07T08:56:58Z</time>
      </trkpt>
      <trkpt lat="45.92668" lon="4.74303">
        <ele>171</ele>
        <time>2018-04-07T08:56:59Z</time>
      </trkpt>
      <trkpt lat="45.92665" lon="4.74309">
        <ele>171</ele>
        <time>2018-04-07T08:57:00Z</time>
      </trkpt>
      <trkpt lat="45.92662" lon="4.74315">
        <ele>171</ele>
        <time>2018-04-07T08:57:01Z</time>
      </trkpt>
      <trkpt lat="45.92658" lon="4.74322">
        <ele>171</ele>
        <time>2018-04-07T08:57:02Z</time>
      </trkpt>
      <trkpt lat="45.92654" lon="4.74328">
        <ele>171</ele>
        <time>2018-04-07T08:57:03Z</time>
      </trkpt>
      <trkpt lat="45.92652" lon="4.74334">
        <ele>171</ele>
        <time>2018-04-07T08:57:04Z</time>
      </trkpt>
      <trkpt lat="45.92648" lon="4.74341">
        <ele>171</ele>
        <time>2018-04-07T08:57:05Z</time>
      </trkpt>
      <trkpt lat="45.92645" lon="4.74349">
        <ele>171</ele>
        <time>2018-04-07T08:57:06Z</time>
      </trkpt>
      <trkpt lat="45.92641" lon="4.74356">
        <ele>171</ele>
        <time>2018-04-07T08:57:07Z</time>
      </trkpt>
      <trkpt lat="45.92637" lon="4.74362">
        <ele>171</ele>
        <time>2018-04-07T08:57:08Z</time>
      </trkpt>
      <trkpt lat="45.92633" lon="4.74369">
        <ele>171</ele>
        <time>2018-04-07T08:57:09Z</time>
      </trkpt>
      <trkpt lat="45.92629" lon="4.74376">
        <ele>170</ele>
        <time>2018-04-07T08:57:10Z</time>
      </trkpt>
      <trkpt lat="45.92625" lon="4.74383">
        <ele>170</ele>
        <time>2018-04-07T08:57:11Z</time>
      </trkpt>
      <trkpt lat="45.92621" lon="4.74389">
        <ele>170</ele>
        <time>2018-04-07T08:57:12Z</time>
      </trkpt>
      <trkpt lat="45.92617" lon="4.74396">
        <ele>170</ele>
        <time>2018-04-07T08:57:13Z</time>
      </trkpt>
      <trkpt lat="45.92613" lon="4.74404">
        <ele>170</ele>
        <time>2018-04-07T08:57:14Z</time>
      </trkpt>
      <trkpt lat="45.9261" lon="4.74411">
        <ele>170</ele>
        <time>2018-04-07T08:57:15Z</time>
      </trkpt>
      <trkpt lat="45.92606" lon="4.74417">
        <ele>170</ele>
        <time>2018-04-07T08:57:16Z</time>
      </trkpt>
      <trkpt lat="45.92602" lon="4.74423">
        <ele>170</ele>
        <time>2018-04-07T08:57:17Z</time>
      </trkpt>
      <trkpt lat="45.92598" lon="4.7443">
        <ele>170</ele>
        <time>2018-04-07T08:57:18Z</time>
      </trkpt>
      <trkpt lat="45.92594" lon="4.74438">
        <ele>170</ele>
        <time>2018-04-07T08:57:19Z</time>
      </trkpt>
      <trkpt lat="45.9259" lon="4.74445">
        <ele>170</ele>
        <time>2018-04-07T08:57:20Z</time>
      </trkpt>
      <trkpt lat="45.92586" lon="4.7445">
        <ele>170</ele>
        <time>2018-04-07T08:57:21Z</time>
      </trkpt>
      <trkpt lat="45.92582" lon="4.74457">
        <ele>170</ele>
        <time>2018-04-07T08:57:22Z</time>
      </trkpt>
      <trkpt lat="45.92578" lon="4.74464">
        <ele>170</ele>
        <time>2018-04-07T08:57:23Z</time>
      </trkpt>
      <trkpt lat="45.92575" lon="4.74471">
        <ele>170</ele>
        <time>2018-04-07T08:57:24Z</time>
      </trkpt>
      <trkpt lat="45.92571" lon="4.74478">
        <ele>170</ele>
        <time>2018-04-07T08:57:25Z</time>
      </trkpt>
      <trkpt lat="45.92568" lon="4.74485">
        <ele>170</ele>
        <time>2018-04-07T08:57:26Z</time>
      </trkpt>
      <trkpt lat="45.92564" lon="4.74491">
        <ele>170</ele>
        <time>2018-04-07T08:57:27Z</time>
      </trkpt>
      <trkpt lat="45.9256" lon="4.74499">
        <ele>170</ele>
        <time>2018-04-07T08:57:28Z</time>
      </trkpt>
      <trkpt lat="45.92556" lon="4.74506">
        <ele>170</ele>
        <time>2018-04-07T08:57:29Z</time>
      </trkpt>
      <trkpt lat="45.92552" lon="4.74512">
        <ele>170</ele>
        <time>2018-04-07T08:57:30Z</time>
      </trkpt>
      <trkpt lat="45.92548" lon="4.74518">
        <ele>170</ele>
        <time>2018-04-07T08:57:31Z</time>
      </trkpt>
      <trkpt lat="45.92545" lon="4.74525">
        <ele>170</ele>
        <time>2018-04-07T08:57:32Z</time>
      </trkpt>
      <trkpt lat="45.92541" lon="4.74531">
        <ele>171</ele>
        <time>2018-04-07T08:57:33Z</time>
      </trkpt>
      <trkpt lat="45.92537" lon="4.74538">
        <ele>171</ele>
        <time>2018-04-07T08:57:34Z</time>
      </trkpt>
      <trkpt lat="45.92533" lon="4.74545">
        <ele>171</ele>
        <time>2018-04-07T08:57:35Z</time>
      </trkpt>
      <trkpt lat="45.92529" lon="4.74552">
        <ele>171</ele>
        <time>2018-04-07T08:57:36Z</time>
      </trkpt>
      <trkpt lat="45.92524" lon="4.74558">
        <ele>171</ele>
        <time>2018-04-07T08:57:37Z</time>
      </trkpt>
      <trkpt lat="45.92519" lon="4.74564">
        <ele>171</ele>
        <time>2018-04-07T08:57:38Z</time>
      </trkpt>
      <trkpt lat="45.92514" lon="4.74569">
        <ele>171</ele>
        <time>2018-04-07T08:57:39Z</time>
      </trkpt>
      <trkpt lat="45.92511" lon="4.74578">
        <ele>171</ele>
        <time>2018-04-07T08:57:40Z</time>
      </trkpt>
      <trkpt lat="45.92507" lon="4.74583">
        <ele>171</ele>
        <time>2018-04-07T08:57:41Z</time>
      </trkpt>
      <trkpt lat="45.92502" lon="4.74588">
        <ele>171</ele>
        <time>2018-04-07T08:57:42Z</time>
      </trkpt>
      <trkpt lat="45.92498" lon="4.74593">
        <ele>171</ele>
        <time>2018-04-07T08:57:43Z</time>
      </trkpt>
      <trkpt lat="45.92494" lon="4.74599">
        <ele>171</ele>
        <time>2018-04-07T08:57:44Z</time>
      </trkpt>
      <trkpt lat="45.9249" lon="4.74603">
        <ele>171</ele>
        <time>2018-04-07T08:57:45Z</time>
      </trkpt>
      <trkpt lat="45.92485" lon="4.74609">
        <ele>171</ele>
        <time>2018-04-07T08:57:46Z</time>
      </trkpt>
      <trkpt lat="45.92481" lon="4.74613">
        <ele>171</ele>
        <time>2018-04-07T08:57:47Z</time>
      </trkpt>
      <trkpt lat="45.92477" lon="4.74619">
        <ele>171</ele>
        <time>2018-04-07T08:57:48Z</time>
      </trkpt>
      <trkpt lat="45.92473" lon="4.74625">
        <ele>171</ele>
        <time>2018-04-07T08:57:49Z</time>
      </trkpt>
      <trkpt lat="45.9247" lon="4.74631">
        <ele>171</ele>
        <time>2018-04-07T08:57:50Z</time>
      </trkpt>
      <trkpt lat="45.92466" lon="4.74637">
        <ele>171</ele>
        <time>2018-04-07T08:57:51Z</time>
      </trkpt>
      <trkpt lat="45.92462" lon="4.74642">
        <ele>171</ele>
        <time>2018-04-07T08:57:52Z</time>
      </trkpt>
      <trkpt lat="45.92458" lon="4.74648">
        <ele>171</ele>
        <time>2018-04-07T08:57:53Z</time>
      </trkpt>
      <trkpt lat="45.92455" lon="4.74653">
        <ele>171</ele>
        <time>2018-04-07T08:57:54Z</time>
      </trkpt>
      <trkpt lat="45.92451" lon="4.74656">
        <ele>171</ele>
        <time>2018-04-07T08:57:55Z</time>
      </trkpt>
      <trkpt lat="45.92448" lon="4.74661">
        <ele>171</ele>
        <time>2018-04-07T08:57:56Z</time>
      </trkpt>
      <trkpt lat="45.92443" lon="4.74669">
        <ele>171</ele>
        <time>2018-04-07T08:57:57Z</time>
      </trkpt>
      <trkpt lat="45.9244" lon="4.74675">
        <ele>171</ele>
        <time>2018-04-07T08:57:58Z</time>
      </trkpt>
      <trkpt lat="45.92438" lon="4.74683">
        <ele>171</ele>
        <time>2018-04-07T08:57:59Z</time>
      </trkpt>
      <trkpt lat="45.92435" lon="4.74689">
        <ele>171</ele>
        <time>2018-04-07T08:58:00Z</time>
      </trkpt>
      <trkpt lat="45.92433" lon="4.74696">
        <ele>171</ele>
        <time>2018-04-07T08:58:01Z</time>
      </trkpt>
      <trkpt lat="45.9243" lon="4.74703">
        <ele>171</ele>
        <time>2018-04-07T08:58:02Z</time>
      </trkpt>
      <trkpt lat="45.92427" lon="4.74709">
        <ele>171</ele>
        <time>2018-04-07T08:58:03Z</time>
      </trkpt>
      <trkpt lat="45.92424" lon="4.74716">
        <ele>171</ele>
        <time>2018-04-07T08:58:04Z</time>
      </trkpt>
      <trkpt lat="45.92422" lon="4.74724">
        <ele>171</ele>
        <time>2018-04-07T08:58:05Z</time>
      </trkpt>
      <trkpt lat="45.92419" lon="4.74732">
        <ele>171</ele>
        <time>2018-04-07T08:58:06Z</time>
      </trkpt>
      <trkpt lat="45.92417" lon="4.7474">
        <ele>172</ele>
        <time>2018-04-07T08:58:07Z</time>
      </trkpt>
      <trkpt lat="45.92414" lon="4.74747">
        <ele>172</ele>
        <time>2018-04-07T08:58:08Z</time>
      </trkpt>
      <trkpt lat="45.92412" lon="4.74755">
        <ele>172</ele>
        <time>2018-04-07T08:58:09Z</time>
      </trkpt>
      <trkpt lat="45.92409" lon="4.74762">
        <ele>172</ele>
        <time>2018-04-07T08:58:10Z</time>
      </trkpt>
      <trkpt lat="45.92408" lon="4.74771">
        <ele>171</ele>
        <time>2018-04-07T08:58:11Z</time>
      </trkpt>
      <trkpt lat="45.92406" lon="4.74779">
        <ele>171</ele>
        <time>2018-04-07T08:58:12Z</time>
      </trkpt>
      <trkpt lat="45.92404" lon="4.74787">
        <ele>171</ele>
        <time>2018-04-07T08:58:13Z</time>
      </trkpt>
      <trkpt lat="45.92402" lon="4.74796">
        <ele>171</ele>
        <time>2018-04-07T08:58:14Z</time>
      </trkpt>
      <trkpt lat="45.92401" lon="4.74804">
        <ele>171</ele>
        <time>2018-04-07T08:58:15Z</time>
      </trkpt>
      <trkpt lat="45.92399" lon="4.74813">
        <ele>171</ele>
        <time>2018-04-07T08:58:16Z</time>
      </trkpt>
      <trkpt lat="45.92398" lon="4.74822">
        <ele>171</ele>
        <time>2018-04-07T08:58:17Z</time>
      </trkpt>
      <trkpt lat="45.92396" lon="4.74832">
        <ele>171</ele>
        <time>2018-04-07T08:58:18Z</time>
      </trkpt>
      <trkpt lat="45.92394" lon="4.74842">
        <ele>171</ele>
        <time>2018-04-07T08:58:19Z</time>
      </trkpt>
      <trkpt lat="45.92391" lon="4.74851">
        <ele>171</ele>
        <time>2018-04-07T08:58:20Z</time>
      </trkpt>
      <trkpt lat="45.92388" lon="4.74859">
        <ele>171</ele>
        <time>2018-04-07T08:58:21Z</time>
      </trkpt>
      <trkpt lat="45.92385" lon="4.74865">
        <ele>171</ele>
        <time>2018-04-07T08:58:22Z</time>
      </trkpt>
      <trkpt lat="45.92382" lon="4.74873">
        <ele>171</ele>
        <time>2018-04-07T08:58:23Z</time>
      </trkpt>
      <trkpt lat="45.9238" lon="4.74882">
        <ele>171</ele>
        <time>2018-04-07T08:58:24Z</time>
      </trkpt>
      <trkpt lat="45.92376" lon="4.7489">
        <ele>171</ele>
        <time>2018-04-07T08:58:25Z</time>
      </trkpt>
      <trkpt lat="45.92373" lon="4.74898">
        <ele>171</ele>
        <time>2018-04-07T08:58:26Z</time>
      </trkpt>
      <trkpt lat="45.9237" lon="4.74906">
        <ele>171</ele>
        <time>2018-04-07T08:58:27Z</time>
      </trkpt>
      <trkpt lat="45.92368" lon="4.74914">
        <ele>171</ele>
        <time>2018-04-07T08:58:28Z</time>
      </trkpt>
      <trkpt lat="45.92365" lon="4.74922">
        <ele>170</ele>
        <time>2018-04-07T08:58:29Z</time>
      </trkpt>
      <trkpt lat="45.92362" lon="4.7493">
        <ele>170</ele>
        <time>2018-04-07T08:58:30Z</time>
      </trkpt>
      <trkpt lat="45.92359" lon="4.74937">
        <ele>170</ele>
        <time>2018-04-07T08:58:31Z</time>
      </trkpt>
      <trkpt lat="45.92356" lon="4.74944">
        <ele>170</ele>
        <time>2018-04-07T08:58:32Z</time>
      </trkpt>
      <trkpt lat="45.92354" lon="4.74952">
        <ele>170</ele>
        <time>2018-04-07T08:58:33Z</time>
      </trkpt>
      <trkpt lat="45.92351" lon="4.74959">
        <ele>170</ele>
        <time>2018-04-07T08:58:34Z</time>
      </trkpt>
      <trkpt lat="45.92348" lon="4.74966">
        <ele>170</ele>
        <time>2018-04-07T08:58:35Z</time>
      </trkpt>
      <trkpt lat="45.92345" lon="4.74974">
        <ele>170</ele>
        <time>2018-04-07T08:58:36Z</time>
      </trkpt>
      <trkpt lat="45.92342" lon="4.74981">
        <ele>170</ele>
        <time>2018-04-07T08:58:37Z</time>
      </trkpt>
      <trkpt lat="45.92339" lon="4.74988">
        <ele>170</ele>
        <time>2018-04-07T08:58:38Z</time>
      </trkpt>
      <trkpt lat="45.92336" lon="4.74995">
        <ele>170</ele>
        <time>2018-04-07T08:58:39Z</time>
      </trkpt>
      <trkpt lat="45.92337" lon="4.75013">
        <ele>170</ele>
        <time>2018-04-07T08:58:40Z</time>
      </trkpt>
      <trkpt lat="45.92334" lon="4.75022">
        <ele>170</ele>
        <time>2018-04-07T08:58:41Z</time>
      </trkpt>
      <trkpt lat="45.9233" lon="4.75029">
        <ele>171</ele>
        <time>2018-04-07T08:58:42Z</time>
      </trkpt>
      <trkpt lat="45.92327" lon="4.75036">
        <ele>171</ele>
        <time>2018-04-07T08:58:43Z</time>
      </trkpt>
      <trkpt lat="45.92323" lon="4.75043">
        <ele>172</ele>
        <time>2018-04-07T08:58:44Z</time>
      </trkpt>
      <trkpt lat="45.92318" lon="4.75049">
        <ele>172</ele>
        <time>2018-04-07T08:58:45Z</time>
      </trkpt>
      <trkpt lat="45.92315" lon="4.75055">
        <ele>172</ele>
        <time>2018-04-07T08:58:46Z</time>
      </trkpt>
      <trkpt lat="45.9231" lon="4.75061">
        <ele>172</ele>
        <time>2018-04-07T08:58:47Z</time>
      </trkpt>
      <trkpt lat="45.92306" lon="4.75067">
        <ele>172</ele>
        <time>2018-04-07T08:58:48Z</time>
      </trkpt>
      <trkpt lat="45.92302" lon="4.75073">
        <ele>172</ele>
        <time>2018-04-07T08:58:49Z</time>
      </trkpt>
      <trkpt lat="45.92297" lon="4.75078">
        <ele>172</ele>
        <time>2018-04-07T08:58:50Z</time>
      </trkpt>
      <trkpt lat="45.92292" lon="4.75083">
        <ele>173</ele>
        <time>2018-04-07T08:58:51Z</time>
      </trkpt>
      <trkpt lat="45.92288" lon="4.75089">
        <ele>173</ele>
        <time>2018-04-07T08:58:52Z</time>
      </trkpt>
      <trkpt lat="45.92284" lon="4.75094">
        <ele>173</ele>
        <time>2018-04-07T08:58:53Z</time>
      </trkpt>
      <trkpt lat="45.92279" lon="4.75097">
        <ele>173</ele>
        <time>2018-04-07T08:58:54Z</time>
      </trkpt>
      <trkpt lat="45.92275" lon="4.75101">
        <ele>173</ele>
        <time>2018-04-07T08:58:55Z</time>
      </trkpt>
      <trkpt lat="45.92271" lon="4.75106">
        <ele>174</ele>
        <time>2018-04-07T08:58:56Z</time>
      </trkpt>
      <trkpt lat="45.92266" lon="4.7511">
        <ele>174</ele>
        <time>2018-04-07T08:58:57Z</time>
      </trkpt>
      <trkpt lat="45.92262" lon="4.75114">
        <ele>174</ele>
        <time>2018-04-07T08:58:58Z</time>
      </trkpt>
      <trkpt lat="45.92258" lon="4.75118">
        <ele>174</ele>
        <time>2018-04-07T08:58:59Z</time>
      </trkpt>
      <trkpt lat="45.92254" lon="4.75122">
        <ele>174</ele>
        <time>2018-04-07T08:59:00Z</time>
      </trkpt>
      <trkpt lat="45.9225" lon="4.75127">
        <ele>174</ele>
        <time>2018-04-07T08:59:01Z</time>
      </trkpt>
      <trkpt lat="45.92246" lon="4.75132">
        <ele>174</ele>
        <time>2018-04-07T08:59:02Z</time>
      </trkpt>
      <trkpt lat="45.92242" lon="4.75137">
        <ele>174</ele>
        <time>2018-04-07T08:59:03Z</time>
      </trkpt>
      <trkpt lat="45.92237" lon="4.75141">
        <ele>174</ele>
        <time>2018-04-07T08:59:04Z</time>
      </trkpt>
      <trkpt lat="45.92234" lon="4.75147">
        <ele>174</ele>
        <time>2018-04-07T08:59:05Z</time>
      </trkpt>
      <trkpt lat="45.92231" lon="4.75154">
        <ele>174</ele>
        <time>2018-04-07T08:59:06Z</time>
      </trkpt>
      <trkpt lat="45.92228" lon="4.75161">
        <ele>174</ele>
        <time>2018-04-07T08:59:07Z</time>
      </trkpt>
      <trkpt lat="45.92225" lon="4.75168">
        <ele>175</ele>
        <time>2018-04-07T08:59:08Z</time>
      </trkpt>
      <trkpt lat="45.92222" lon="4.75174">
        <ele>175</ele>
        <time>2018-04-07T08:59:09Z</time>
      </trkpt>
      <trkpt lat="45.9222" lon="4.75181">
        <ele>175</ele>
        <time>2018-04-07T08:59:10Z</time>
      </trkpt>
      <trkpt lat="45.92217" lon="4.75187">
        <ele>175</ele>
        <time>2018-04-07T08:59:11Z</time>
      </trkpt>
      <trkpt lat="45.92215" lon="4.75193">
        <ele>175</ele>
        <time>2018-04-07T08:59:12Z</time>
      </trkpt>
      <trkpt lat="45.92214" lon="4.752">
        <ele>175</ele>
        <time>2018-04-07T08:59:13Z</time>
      </trkpt>
      <trkpt lat="45.92212" lon="4.75206">
        <ele>175</ele>
        <time>2018-04-07T08:59:14Z</time>
      </trkpt>
      <trkpt lat="45.92211" lon="4.75213">
        <ele>175</ele>
        <time>2018-04-07T08:59:15Z</time>
      </trkpt>
      <trkpt lat="45.9221" lon="4.7522">
        <ele>175</ele>
        <time>2018-04-07T08:59:16Z</time>
      </trkpt>
      <trkpt lat="45.9221" lon="4.75227">
        <ele>175</ele>
        <time>2018-04-07T08:59:17Z</time>
      </trkpt>
      <trkpt lat="45.92211" lon="4.75235">
        <ele>175</ele>
        <time>2018-04-07T08:59:18Z</time>
      </trkpt>
      <trkpt lat="45.92209" lon="4.75247">
        <ele>175</ele>
        <time>2018-04-07T08:59:20Z</time>
      </trkpt>
      <trkpt lat="45.9221" lon="4.75254">
        <ele>175</ele>
        <time>2018-04-07T08:59:21Z</time>
      </trkpt>
      <trkpt lat="45.9221" lon="4.75267">
        <ele>176</ele>
        <time>2018-04-07T08:59:23Z</time>
      </trkpt>
      <trkpt lat="45.9221" lon="4.75274">
        <ele>176</ele>
        <time>2018-04-07T08:59:24Z</time>
      </trkpt>
      <trkpt lat="45.92209" lon="4.7528">
        <ele>176</ele>
        <time>2018-04-07T08:59:25Z</time>
      </trkpt>
      <trkpt lat="45.9221" lon="4.75289">
        <ele>176</ele>
        <time>2018-04-07T08:59:26Z</time>
      </trkpt>
      <trkpt lat="45.9221" lon="4.75296">
        <ele>176</ele>
        <time>2018-04-07T08:59:27Z</time>
      </trkpt>
      <trkpt lat="45.9221" lon="4.75304">
        <ele>176</ele>
        <time>2018-04-07T08:59:28Z</time>
      </trkpt>
      <trkpt lat="45.92208" lon="4.75311">
        <ele>176</ele>
        <time>2018-04-07T08:59:29Z</time>
      </trkpt>
      <trkpt lat="45.92207" lon="4.75316">
        <ele>176</ele>
        <time>2018-04-07T08:59:30Z</time>
      </trkpt>
      <trkpt lat="45.92205" lon="4.75322">
        <ele>176</ele>
        <time>2018-04-07T08:59:31Z</time>
      </trkpt>
      <trkpt lat="45.92204" lon="4.75329">
        <ele>176</ele>
        <time>2018-04-07T08:59:32Z</time>
      </trkpt>
      <trkpt lat="45.92202" lon="4.75336">
        <ele>177</ele>
        <time>2018-04-07T08:59:33Z</time>
      </trkpt>
      <trkpt lat="45.92201" lon="4.75343">
        <ele>177</ele>
        <time>2018-04-07T08:59:34Z</time>
      </trkpt>
      <trkpt lat="45.92198" lon="4.75349">
        <ele>177</ele>
        <time>2018-04-07T08:59:35Z</time>
      </trkpt>
      <trkpt lat="45.92196" lon="4.75355">
        <ele>177</ele>
        <time>2018-04-07T08:59:36Z</time>
      </trkpt>
      <trkpt lat="45.92195" lon="4.75363">
        <ele>177</ele>
        <time>2018-04-07T08:59:37Z</time>
      </trkpt>
      <trkpt lat="45.92192" lon="4.75369">
        <ele>177</ele>
        <time>2018-04-07T08:59:38Z</time>
      </trkpt>
      <trkpt lat="45.92189" lon="4.75375">
        <ele>177</ele>
        <time>2018-04-07T08:59:39Z</time>
      </trkpt>
      <trkpt lat="45.92187" lon="4.75384">
        <ele>177</ele>
        <time>2018-04-07T08:59:40Z</time>
      </trkpt>
      <trkpt lat="45.92184" lon="4.75393">
        <ele>177</ele>
        <time>2018-04-07T08:59:41Z</time>
      </trkpt>
      <trkpt lat="45.92183" lon="4.75403">
        <ele>177</ele>
        <time>2018-04-07T08:59:42Z</time>
      </trkpt>
      <trkpt lat="45.9218" lon="4.75409">
        <ele>177</ele>
        <time>2018-04-07T08:59:43Z</time>
      </trkpt>
      <trkpt lat="45.92178" lon="4.75417">
        <ele>177</ele>
        <time>2018-04-07T08:59:44Z</time>
      </trkpt>
      <trkpt lat="45.92175" lon="4.75424">
        <ele>177</ele>
        <time>2018-04-07T08:59:45Z</time>
      </trkpt>
      <trkpt lat="45.92171" lon="4.75432">
        <ele>177</ele>
        <time>2018-04-07T08:59:46Z</time>
      </trkpt>
      <trkpt lat="45.92168" lon="4.7544">
        <ele>177</ele>
        <time>2018-04-07T08:59:47Z</time>
      </trkpt>
      <trkpt lat="45.92163" lon="4.75448">
        <ele>176</ele>
        <time>2018-04-07T08:59:48Z</time>
      </trkpt>
      <trkpt lat="45.92159" lon="4.75455">
        <ele>176</ele>
        <time>2018-04-07T08:59:49Z</time>
      </trkpt>
      <trkpt lat="45.92157" lon="4.75461">
        <ele>176</ele>
        <time>2018-04-07T08:59:50Z</time>
      </trkpt>
      <trkpt lat="45.92155" lon="4.75469">
        <ele>176</ele>
        <time>2018-04-07T08:59:51Z</time>
      </trkpt>
      <trkpt lat="45.92151" lon="4.75475">
        <ele>176</ele>
        <time>2018-04-07T08:59:52Z</time>
      </trkpt>
      <trkpt lat="45.92148" lon="4.75483">
        <ele>176</ele>
        <time>2018-04-07T08:59:53Z</time>
      </trkpt>
      <trkpt lat="45.92145" lon="4.75491">
        <ele>176</ele>
        <time>2018-04-07T08:59:54Z</time>
      </trkpt>
      <trkpt lat="45.92142" lon="4.75498">
        <ele>175</ele>
        <time>2018-04-07T08:59:55Z</time>
      </trkpt>
      <trkpt lat="45.92139" lon="4.75505">
        <ele>174</ele>
        <time>2018-04-07T08:59:56Z</time>
      </trkpt>
      <trkpt lat="45.92135" lon="4.75511">
        <ele>174</ele>
        <time>2018-04-07T08:59:57Z</time>
      </trkpt>
      <trkpt lat="45.92132" lon="4.75518">
        <ele>174</ele>
        <time>2018-04-07T08:59:58Z</time>
      </trkpt>
      <trkpt lat="45.92128" lon="4.75526">
        <ele>174</ele>
        <time>2018-04-07T08:59:59Z</time>
      </trkpt>
      <trkpt lat="45.92125" lon="4.75533">
        <ele>174</ele>
        <time>2018-04-07T09:00:00Z</time>
      </trkpt>
      <trkpt lat="45.92121" lon="4.75539">
        <ele>174</ele>
        <time>2018-04-07T09:00:01Z</time>
      </trkpt>
      <trkpt lat="45.92118" lon="4.75547">
        <ele>174</ele>
        <time>2018-04-07T09:00:02Z</time>
      </trkpt>
      <trkpt lat="45.92114" lon="4.75553">
        <ele>174</ele>
        <time>2018-04-07T09:00:03Z</time>
      </trkpt>
      <trkpt lat="45.9211" lon="4.75559">
        <ele>174</ele>
        <time>2018-04-07T09:00:04Z</time>
      </trkpt>
      <trkpt lat="45.92107" lon="4.75566">
        <ele>174</ele>
        <time>2018-04-07T09:00:05Z</time>
      </trkpt>
      <trkpt lat="45.92103" lon="4.75572">
        <ele>174</ele>
        <time>2018-04-07T09:00:06Z</time>
      </trkpt>
      <trkpt lat="45.921" lon="4.75579">
        <ele>174</ele>
        <time>2018-04-07T09:00:07Z</time>
      </trkpt>
      <trkpt lat="45.92096" lon="4.75586">
        <ele>174</ele>
        <time>2018-04-07T09:00:08Z</time>
      </trkpt>
      <trkpt lat="45.92093" lon="4.75592">
        <ele>174</ele>
        <time>2018-04-07T09:00:09Z</time>
      </trkpt>
      <trkpt lat="45.92091" lon="4.75604">
        <ele>174</ele>
        <time>2018-04-07T09:00:10Z</time>
      </trkpt>
      <trkpt lat="45.92087" lon="4.7561">
        <ele>174</ele>
        <time>2018-04-07T09:00:11Z</time>
      </trkpt>
      <trkpt lat="45.92084" lon="4.75616">
        <ele>174</ele>
        <time>2018-04-07T09:00:12Z</time>
      </trkpt>
      <trkpt lat="45.9208" lon="4.75623">
        <ele>175</ele>
        <time>2018-04-07T09:00:13Z</time>
      </trkpt>
      <trkpt lat="45.92078" lon="4.7563">
        <ele>175</ele>
        <time>2018-04-07T09:00:14Z</time>
      </trkpt>
      <trkpt lat="45.92073" lon="4.75636">
        <ele>175</ele>
        <time>2018-04-07T09:00:15Z</time>
      </trkpt>
      <trkpt lat="45.9207" lon="4.75643">
        <ele>175</ele>
        <time>2018-04-07T09:00:16Z</time>
      </trkpt>
      <trkpt lat="45.92067" lon="4.75649">
        <ele>175</ele>
        <time>2018-04-07T09:00:17Z</time>
      </trkpt>
      <trkpt lat="45.92064" lon="4.75656">
        <ele>175</ele>
        <time>2018-04-07T09:00:18Z</time>
      </trkpt>
      <trkpt lat="45.9206" lon="4.75663">
        <ele>175</ele>
        <time>2018-04-07T09:00:19Z</time>
      </trkpt>
      <trkpt lat="45.92058" lon="4.75672">
        <ele>175</ele>
        <time>2018-04-07T09:00:20Z</time>
      </trkpt>
      <trkpt lat="45.92055" lon="4.75679">
        <ele>175</ele>
        <time>2018-04-07T09:00:21Z</time>
      </trkpt>
      <trkpt lat="45.92051" lon="4.75685">
        <ele>175</ele>
        <time>2018-04-07T09:00:22Z</time>
      </trkpt>
      <trkpt lat="45.92046" lon="4.75689">
        <ele>175</ele>
        <time>2018-04-07T09:00:23Z</time>
      </trkpt>
      <trkpt lat="45.92043" lon="4.75697">
        <ele>175</ele>
        <time>2018-04-07T09:00:24Z</time>
      </trkpt>
      <trkpt lat="45.92039" lon="4.75705">
        <ele>175</ele>
        <time>2018-04-07T09:00:25Z</time>
      </trkpt>
      <trkpt lat="45.92036" lon="4.75712">
        <ele>175</ele>
        <time>2018-04-07T09:00:26Z</time>
      </trkpt>
      <trkpt lat="45.92032" lon="4.75716">
        <ele>175</ele>
        <time>2018-04-07T09:00:27Z</time>
      </trkpt>
      <trkpt lat="45.92029" lon="4.75722">
        <ele>175</ele>
        <time>2018-04-07T09:00:28Z</time>
      </trkpt>
      <trkpt lat="45.92025" lon="4.75729">
        <ele>175</ele>
        <time>2018-04-07T09:00:29Z</time>
      </trkpt>
      <trkpt lat="45.92022" lon="4.75736">
        <ele>175</ele>
        <time>2018-04-07T09:00:30Z</time>
      </trkpt>
      <trkpt lat="45.92018" lon="4.75741">
        <ele>174</ele>
        <time>2018-04-07T09:00:31Z</time>
      </trkpt>
      <trkpt lat="45.92015" lon="4.75748">
        <ele>174</ele>
        <time>2018-04-07T09:00:32Z</time>
      </trkpt>
      <trkpt lat="45.92011" lon="4.75753">
        <ele>174</ele>
        <time>2018-04-07T09:00:33Z</time>
      </trkpt>
      <trkpt lat="45.92008" lon="4.7576">
        <ele>174</ele>
        <time>2018-04-07T09:00:34Z</time>
      </trkpt>
      <trkpt lat="45.92005" lon="4.75766">
        <ele>173</ele>
        <time>2018-04-07T09:00:35Z</time>
      </trkpt>
      <trkpt lat="45.92001" lon="4.75773">
        <ele>173</ele>
        <time>2018-04-07T09:00:36Z</time>
      </trkpt>
      <trkpt lat="45.91997" lon="4.75778">
        <ele>174</ele>
        <time>2018-04-07T09:00:37Z</time>
      </trkpt>
      <trkpt lat="45.91993" lon="4.75784">
        <ele>173</ele>
        <time>2018-04-07T09:00:38Z</time>
      </trkpt>
      <trkpt lat="45.9199" lon="4.7579">
        <ele>173</ele>
        <time>2018-04-07T09:00:39Z</time>
      </trkpt>
      <trkpt lat="45.91987" lon="4.75797">
        <ele>173</ele>
        <time>2018-04-07T09:00:40Z</time>
      </trkpt>
      <trkpt lat="45.91983" lon="4.75803">
        <ele>173</ele>
        <time>2018-04-07T09:00:41Z</time>
      </trkpt>
      <trkpt lat="45.9198" lon="4.7581">
        <ele>173</ele>
        <time>2018-04-07T09:00:42Z</time>
      </trkpt>
      <trkpt lat="45.91976" lon="4.75816">
        <ele>173</ele>
        <time>2018-04-07T09:00:43Z</time>
      </trkpt>
      <trkpt lat="45.91973" lon="4.75822">
        <ele>173</ele>
        <time>2018-04-07T09:00:44Z</time>
      </trkpt>
      <trkpt lat="45.91969" lon="4.75828">
        <ele>173</ele>
        <time>2018-04-07T09:00:45Z</time>
      </trkpt>
      <trkpt lat="45.91965" lon="4.75834">
        <ele>172</ele>
        <time>2018-04-07T09:00:46Z</time>
      </trkpt>
      <trkpt lat="45.91963" lon="4.75839">
        <ele>172</ele>
        <time>2018-04-07T09:00:47Z</time>
      </trkpt>
      <trkpt lat="45.91959" lon="4.75845">
        <ele>172</ele>
        <time>2018-04-07T09:00:48Z</time>
      </trkpt>
      <trkpt lat="45.91956" lon="4.75851">
        <ele>172</ele>
        <time>2018-04-07T09:00:49Z</time>
      </trkpt>
      <trkpt lat="45.91952" lon="4.75857">
        <ele>172</ele>
        <time>2018-04-07T09:00:50Z</time>
      </trkpt>
      <trkpt lat="45.91949" lon="4.75862">
        <ele>172</ele>
        <time>2018-04-07T09:00:51Z</time>
      </trkpt>
      <trkpt lat="45.91946" lon="4.75868">
        <ele>172</ele>
        <time>2018-04-07T09:00:52Z</time>
      </trkpt>
      <trkpt lat="45.91943" lon="4.75874">
        <ele>172</ele>
        <time>2018-04-07T09:00:53Z</time>
      </trkpt>
      <trkpt lat="45.91939" lon="4.7588">
        <ele>172</ele>
        <time>2018-04-07T09:00:54Z</time>
      </trkpt>
      <trkpt lat="45.9194" lon="4.75893">
        <ele>172</ele>
        <time>2018-04-07T09:00:55Z</time>
      </trkpt>
      <trkpt lat="45.91937" lon="4.759">
        <ele>172</ele>
        <time>2018-04-07T09:00:56Z</time>
      </trkpt>
      <trkpt lat="45.91934" lon="4.75907">
        <ele>172</ele>
        <time>2018-04-07T09:00:57Z</time>
      </trkpt>
      <trkpt lat="45.91932" lon="4.75913">
        <ele>172</ele>
        <time>2018-04-07T09:00:58Z</time>
      </trkpt>
      <trkpt lat="45.9193" lon="4.75921">
        <ele>172</ele>
        <time>2018-04-07T09:00:59Z</time>
      </trkpt>
      <trkpt lat="45.91928" lon="4.75928">
        <ele>172</ele>
        <time>2018-04-07T09:01:00Z</time>
      </trkpt>
      <trkpt lat="45.91925" lon="4.75935">
        <ele>172</ele>
        <time>2018-04-07T09:01:01Z</time>
      </trkpt>
      <trkpt lat="45.91924" lon="4.75942">
        <ele>172</ele>
        <time>2018-04-07T09:01:02Z</time>
      </trkpt>
      <trkpt lat="45.91922" lon="4.7595">
        <ele>172</ele>
        <time>2018-04-07T09:01:03Z</time>
      </trkpt>
      <trkpt lat="45.9192" lon="4.75957">
        <ele>172</ele>
        <time>2018-04-07T09:01:04Z</time>
      </trkpt>
      <trkpt lat="45.91918" lon="4.75964">
        <ele>172</ele>
        <time>2018-04-07T09:01:05Z</time>
      </trkpt>
      <trkpt lat="45.91916" lon="4.75971">
        <ele>173</ele>
        <time>2018-04-07T09:01:06Z</time>
      </trkpt>
      <trkpt lat="45.91914" lon="4.75978">
        <ele>173</ele>
        <time>2018-04-07T09:01:07Z</time>
      </trkpt>
      <trkpt lat="45.91912" lon="4.75986">
        <ele>173</ele>
        <time>2018-04-07T09:01:08Z</time>
      </trkpt>
      <trkpt lat="45.9191" lon="4.75992">
        <ele>173</ele>
        <time>2018-04-07T09:01:09Z</time>
      </trkpt>
      <trkpt lat="45.91909" lon="4.75999">
        <ele>172</ele>
        <time>2018-04-07T09:01:10Z</time>
      </trkpt>
      <trkpt lat="45.91906" lon="4.76005">
        <ele>172</ele>
        <time>2018-04-07T09:01:11Z</time>
      </trkpt>
      <trkpt lat="45.91904" lon="4.76011">
        <ele>173</ele>
        <time>2018-04-07T09:01:12Z</time>
      </trkpt>
      <trkpt lat="45.91902" lon="4.76017">
        <ele>173</ele>
        <time>2018-04-07T09:01:13Z</time>
      </trkpt>
      <trkpt lat="45.919" lon="4.76023">
        <ele>173</ele>
        <time>2018-04-07T09:01:14Z</time>
      </trkpt>
      <trkpt lat="45.91899" lon="4.7603">
        <ele>173</ele>
        <time>2018-04-07T09:01:15Z</time>
      </trkpt>
      <trkpt lat="45.91897" lon="4.76038">
        <ele>173</ele>
        <time>2018-04-07T09:01:16Z</time>
      </trkpt>
      <trkpt lat="45.91895" lon="4.76045">
        <ele>173</ele>
        <time>2018-04-07T09:01:17Z</time>
      </trkpt>
      <trkpt lat="45.91893" lon="4.76052">
        <ele>173</ele>
        <time>2018-04-07T09:01:18Z</time>
      </trkpt>
      <trkpt lat="45.91891" lon="4.7606">
        <ele>173</ele>
        <time>2018-04-07T09:01:19Z</time>
      </trkpt>
      <trkpt lat="45.9189" lon="4.76069">
        <ele>173</ele>
        <time>2018-04-07T09:01:20Z</time>
      </trkpt>
      <trkpt lat="45.91887" lon="4.76076">
        <ele>173</ele>
        <time>2018-04-07T09:01:21Z</time>
      </trkpt>
      <trkpt lat="45.91886" lon="4.76084">
        <ele>172</ele>
        <time>2018-04-07T09:01:22Z</time>
      </trkpt>
      <trkpt lat="45.91884" lon="4.76092">
        <ele>172</ele>
        <time>2018-04-07T09:01:23Z</time>
      </trkpt>
      <trkpt lat="45.91882" lon="4.761">
        <ele>172</ele>
        <time>2018-04-07T09:01:24Z</time>
      </trkpt>
      <trkpt lat="45.9188" lon="4.76109">
        <ele>172</ele>
        <time>2018-04-07T09:01:25Z</time>
      </trkpt>
      <trkpt lat="45.91878" lon="4.76116">
        <ele>172</ele>
        <time>2018-04-07T09:01:26Z</time>
      </trkpt>
      <trkpt lat="45.91876" lon="4.76123">
        <ele>172</ele>
        <time>2018-04-07T09:01:27Z</time>
      </trkpt>
      <trkpt lat="45.91875" lon="4.76131">
        <ele>172</ele>
        <time>2018-04-07T09:01:28Z</time>
      </trkpt>
      <trkpt lat="45.91872" lon="4.76137">
        <ele>172</ele>
        <time>2018-04-07T09:01:29Z</time>
      </trkpt>
      <trkpt lat="45.9187" lon="4.76145">
        <ele>172</ele>
        <time>2018-04-07T09:01:30Z</time>
      </trkpt>
      <trkpt lat="45.91868" lon="4.76152">
        <ele>172</ele>
        <time>2018-04-07T09:01:31Z</time>
      </trkpt>
      <trkpt lat="45.91866" lon="4.7616">
        <ele>172</ele>
        <time>2018-04-07T09:01:32Z</time>
      </trkpt>
      <trkpt lat="45.91865" lon="4.76167">
        <ele>172</ele>
        <time>2018-04-07T09:01:33Z</time>
      </trkpt>
      <trkpt lat="45.91863" lon="4.76176">
        <ele>172</ele>
        <time>2018-04-07T09:01:34Z</time>
      </trkpt>
      <trkpt lat="45.91862" lon="4.76183">
        <ele>172</ele>
        <time>2018-04-07T09:01:35Z</time>
      </trkpt>
      <trkpt lat="45.91859" lon="4.76188">
        <ele>172</ele>
        <time>2018-04-07T09:01:36Z</time>
      </trkpt>
      <trkpt lat="45.91857" lon="4.76195">
        <ele>172</ele>
        <time>2018-04-07T09:01:37Z</time>
      </trkpt>
      <trkpt lat="45.91855" lon="4.76201">
        <ele>172</ele>
        <time>2018-04-07T09:01:38Z</time>
      </trkpt>
      <trkpt lat="45.91852" lon="4.76207">
        <ele>172</ele>
        <time>2018-04-07T09:01:39Z</time>
      </trkpt>
      <trkpt lat="45.9185" lon="4.76215">
        <ele>172</ele>
        <time>2018-04-07T09:01:40Z</time>
      </trkpt>
      <trkpt lat="45.91849" lon="4.76222">
        <ele>172</ele>
        <time>2018-04-07T09:01:41Z</time>
      </trkpt>
      <trkpt lat="45.91847" lon="4.76228">
        <ele>172</ele>
        <time>2018-04-07T09:01:42Z</time>
      </trkpt>
      <trkpt lat="45.91845" lon="4.76237">
        <ele>173</ele>
        <time>2018-04-07T09:01:43Z</time>
      </trkpt>
      <trkpt lat="45.91844" lon="4.76244">
        <ele>173</ele>
        <time>2018-04-07T09:01:44Z</time>
      </trkpt>
      <trkpt lat="45.91842" lon="4.76252">
        <ele>173</ele>
        <time>2018-04-07T09:01:45Z</time>
      </trkpt>
      <trkpt lat="45.9184" lon="4.76259">
        <ele>173</ele>
        <time>2018-04-07T09:01:46Z</time>
      </trkpt>
      <trkpt lat="45.91838" lon="4.76267">
        <ele>172</ele>
        <time>2018-04-07T09:01:47Z</time>
      </trkpt>
      <trkpt lat="45.91835" lon="4.76274">
        <ele>172</ele>
        <time>2018-04-07T09:01:48Z</time>
      </trkpt>
      <trkpt lat="45.91833" lon="4.76282">
        <ele>174</ele>
        <time>2018-04-07T09:01:49Z</time>
      </trkpt>
      <trkpt lat="45.91827" lon="4.76291">
        <ele>174</ele>
        <time>2018-04-07T09:01:51Z</time>
      </trkpt>
      <trkpt lat="45.91825" lon="4.76299">
        <ele>174</ele>
        <time>2018-04-07T09:01:52Z</time>
      </trkpt>
      <trkpt lat="45.91825" lon="4.76309">
        <ele>174</ele>
        <time>2018-04-07T09:01:53Z</time>
      </trkpt>
      <trkpt lat="45.91825" lon="4.76323">
        <ele>174</ele>
        <time>2018-04-07T09:01:54Z</time>
      </trkpt>
      <trkpt lat="45.91824" lon="4.7633">
        <ele>174</ele>
        <time>2018-04-07T09:01:55Z</time>
      </trkpt>
      <trkpt lat="45.91823" lon="4.76337">
        <ele>173</ele>
        <time>2018-04-07T09:01:56Z</time>
      </trkpt>
      <trkpt lat="45.91821" lon="4.76345">
        <ele>173</ele>
        <time>2018-04-07T09:01:57Z</time>
      </trkpt>
      <trkpt lat="45.9182" lon="4.76352">
        <ele>174</ele>
        <time>2018-04-07T09:01:58Z</time>
      </trkpt>
      <trkpt lat="45.91819" lon="4.76359">
        <ele>174</ele>
        <time>2018-04-07T09:01:59Z</time>
      </trkpt>
      <trkpt lat="45.91817" lon="4.76365">
        <ele>174</ele>
        <time>2018-04-07T09:02:00Z</time>
      </trkpt>
      <trkpt lat="45.91816" lon="4.76373">
        <ele>174</ele>
        <time>2018-04-07T09:02:01Z</time>
      </trkpt>
      <trkpt lat="45.91815" lon="4.7638">
        <ele>174</ele>
        <time>2018-04-07T09:02:02Z</time>
      </trkpt>
      <trkpt lat="45.91815" lon="4.76387">
        <ele>173</ele>
        <time>2018-04-07T09:02:03Z</time>
      </trkpt>
      <trkpt lat="45.91813" lon="4.76396">
        <ele>173</ele>
        <time>2018-04-07T09:02:04Z</time>
      </trkpt>
      <trkpt lat="45.91813" lon="4.76404">
        <ele>173</ele>
        <time>2018-04-07T09:02:05Z</time>
      </trkpt>
      <trkpt lat="45.91813" lon="4.76413">
        <ele>173</ele>
        <time>2018-04-07T09:02:06Z</time>
      </trkpt>
      <trkpt lat="45.91812" lon="4.76419">
        <ele>173</ele>
        <time>2018-04-07T09:02:07Z</time>
      </trkpt>
      <trkpt lat="45.91812" lon="4.76427">
        <ele>173</ele>
        <time>2018-04-07T09:02:08Z</time>
      </trkpt>
      <trkpt lat="45.91811" lon="4.76435">
        <ele>173</ele>
        <time>2018-04-07T09:02:09Z</time>
      </trkpt>
      <trkpt lat="45.91811" lon="4.76443">
        <ele>173</ele>
        <time>2018-04-07T09:02:10Z</time>
      </trkpt>
      <trkpt lat="45.9181" lon="4.76451">
        <ele>173</ele>
        <time>2018-04-07T09:02:11Z</time>
      </trkpt>
      <trkpt lat="45.9181" lon="4.76458">
        <ele>173</ele>
        <time>2018-04-07T09:02:12Z</time>
      </trkpt>
      <trkpt lat="45.9181" lon="4.76466">
        <ele>173</ele>
        <time>2018-04-07T09:02:13Z</time>
      </trkpt>
      <trkpt lat="45.9181" lon="4.76475">
        <ele>173</ele>
        <time>2018-04-07T09:02:14Z</time>
      </trkpt>
      <trkpt lat="45.91809" lon="4.76482">
        <ele>173</ele>
        <time>2018-04-07T09:02:15Z</time>
      </trkpt>
      <trkpt lat="45.91808" lon="4.76491">
        <ele>173</ele>
        <time>2018-04-07T09:02:16Z</time>
      </trkpt>
      <trkpt lat="45.91806" lon="4.76497">
        <ele>173</ele>
        <time>2018-04-07T09:02:17Z</time>
      </trkpt>
      <trkpt lat="45.91805" lon="4.76507">
        <ele>173</ele>
        <time>2018-04-07T09:02:18Z</time>
      </trkpt>
      <trkpt lat="45.91804" lon="4.76513">
        <ele>173</ele>
        <time>2018-04-07T09:02:19Z</time>
      </trkpt>
      <trkpt lat="45.91804" lon="4.76521">
        <ele>173</ele>
        <time>2018-04-07T09:02:20Z</time>
      </trkpt>
      <trkpt lat="45.91804" lon="4.76529">
        <ele>173</ele>
        <time>2018-04-07T09:02:21Z</time>
      </trkpt>
      <trkpt lat="45.91803" lon="4.76536">
        <ele>173</ele>
        <time>2018-04-07T09:02:22Z</time>
      </trkpt>
      <trkpt lat="45.91801" lon="4.76543">
        <ele>173</ele>
        <time>2018-04-07T09:02:23Z</time>
      </trkpt>
      <trkpt lat="45.91801" lon="4.7655">
        <ele>173</ele>
        <time>2018-04-07T09:02:24Z</time>
      </trkpt>
      <trkpt lat="45.91798" lon="4.76562">
        <ele>173</ele>
        <time>2018-04-07T09:02:26Z</time>
      </trkpt>
      <trkpt lat="45.91796" lon="4.76568">
        <ele>173</ele>
        <time>2018-04-07T09:02:27Z</time>
      </trkpt>
      <trkpt lat="45.91796" lon="4.76578">
        <ele>173</ele>
        <time>2018-04-07T09:02:28Z</time>
      </trkpt>
      <trkpt lat="45.91795" lon="4.76589">
        <ele>173</ele>
        <time>2018-04-07T09:02:29Z</time>
      </trkpt>
      <trkpt lat="45.91795" lon="4.76595">
        <ele>173</ele>
        <time>2018-04-07T09:02:30Z</time>
      </trkpt>
      <trkpt lat="45.91793" lon="4.76603">
        <ele>173</ele>
        <time>2018-04-07T09:02:31Z</time>
      </trkpt>
      <trkpt lat="45.91792" lon="4.76611">
        <ele>173</ele>
        <time>2018-04-07T09:02:32Z</time>
      </trkpt>
      <trkpt lat="45.91792" lon="4.76618">
        <ele>173</ele>
        <time>2018-04-07T09:02:33Z</time>
      </trkpt>
      <trkpt lat="45.9179" lon="4.76627">
        <ele>173</ele>
        <time>2018-04-07T09:02:34Z</time>
      </trkpt>
      <trkpt lat="45.9179" lon="4.76636">
        <ele>173</ele>
        <time>2018-04-07T09:02:35Z</time>
      </trkpt>
      <trkpt lat="45.91789" lon="4.76645">
        <ele>173</ele>
        <time>2018-04-07T09:02:36Z</time>
      </trkpt>
      <trkpt lat="45.91787" lon="4.76652">
        <ele>173</ele>
        <time>2018-04-07T09:02:37Z</time>
      </trkpt>
      <trkpt lat="45.91786" lon="4.76659">
        <ele>173</ele>
        <time>2018-04-07T09:02:38Z</time>
      </trkpt>
      <trkpt lat="45.91785" lon="4.76666">
        <ele>173</ele>
        <time>2018-04-07T09:02:39Z</time>
      </trkpt>
      <trkpt lat="45.91784" lon="4.76674">
        <ele>172</ele>
        <time>2018-04-07T09:02:40Z</time>
      </trkpt>
      <trkpt lat="45.91783" lon="4.76682">
        <ele>172</ele>
        <time>2018-04-07T09:02:41Z</time>
      </trkpt>
      <trkpt lat="45.91782" lon="4.76691">
        <ele>172</ele>
        <time>2018-04-07T09:02:42Z</time>
      </trkpt>
      <trkpt lat="45.9178" lon="4.76699">
        <ele>172</ele>
        <time>2018-04-07T09:02:43Z</time>
      </trkpt>
      <trkpt lat="45.91778" lon="4.76706">
        <ele>172</ele>
        <time>2018-04-07T09:02:44Z</time>
      </trkpt>
      <trkpt lat="45.91777" lon="4.76715">
        <ele>172</ele>
        <time>2018-04-07T09:02:45Z</time>
      </trkpt>
      <trkpt lat="45.91776" lon="4.76723">
        <ele>172</ele>
        <time>2018-04-07T09:02:46Z</time>
      </trkpt>
      <trkpt lat="45.91775" lon="4.76731">
        <ele>172</ele>
        <time>2018-04-07T09:02:47Z</time>
      </trkpt>
      <trkpt lat="45.91775" lon="4.7674">
        <ele>172</ele>
        <time>2018-04-07T09:02:48Z</time>
      </trkpt>
      <trkpt lat="45.91775" lon="4.76748">
        <ele>172</ele>
        <time>2018-04-07T09:02:49Z</time>
      </trkpt>
      <trkpt lat="45.91775" lon="4.76756">
        <ele>171</ele>
        <time>2018-04-07T09:02:50Z</time>
      </trkpt>
      <trkpt lat="45.91774" lon="4.76764">
        <ele>171</ele>
        <time>2018-04-07T09:02:51Z</time>
      </trkpt>
      <trkpt lat="45.91774" lon="4.76771">
        <ele>171</ele>
        <time>2018-04-07T09:02:52Z</time>
      </trkpt>
      <trkpt lat="45.91773" lon="4.76779">
        <ele>171</ele>
        <time>2018-04-07T09:02:53Z</time>
      </trkpt>
      <trkpt lat="45.91774" lon="4.76789">
        <ele>171</ele>
        <time>2018-04-07T09:02:54Z</time>
      </trkpt>
      <trkpt lat="45.91774" lon="4.76797">
        <ele>171</ele>
        <time>2018-04-07T09:02:55Z</time>
      </trkpt>
      <trkpt lat="45.91773" lon="4.76805">
        <ele>171</ele>
        <time>2018-04-07T09:02:56Z</time>
      </trkpt>
      <trkpt lat="45.91774" lon="4.76816">
        <ele>171</ele>
        <time>2018-04-07T09:02:57Z</time>
      </trkpt>
      <trkpt lat="45.91774" lon="4.76824">
        <ele>171</ele>
        <time>2018-04-07T09:02:58Z</time>
      </trkpt>
      <trkpt lat="45.91775" lon="4.76834">
        <ele>171</ele>
        <time>2018-04-07T09:02:59Z</time>
      </trkpt>
      <trkpt lat="45.91775" lon="4.76843">
        <ele>171</ele>
        <time>2018-04-07T09:03:00Z</time>
      </trkpt>
      <trkpt lat="45.91774" lon="4.76852">
        <ele>170</ele>
        <time>2018-04-07T09:03:01Z</time>
      </trkpt>
      <trkpt lat="45.91774" lon="4.76862">
        <ele>170</ele>
        <time>2018-04-07T09:03:02Z</time>
      </trkpt>
      <trkpt lat="45.91774" lon="4.76871">
        <ele>170</ele>
        <time>2018-04-07T09:03:03Z</time>
      </trkpt>
      <trkpt lat="45.91773" lon="4.76878">
        <ele>170</ele>
        <time>2018-04-07T09:03:04Z</time>
      </trkpt>
      <trkpt lat="45.91776" lon="4.76892">
        <ele>170</ele>
        <time>2018-04-07T09:03:05Z</time>
      </trkpt>
      <trkpt lat="45.91775" lon="4.769">
        <ele>170</ele>
        <time>2018-04-07T09:03:06Z</time>
      </trkpt>
      <trkpt lat="45.91774" lon="4.7691">
        <ele>170</ele>
        <time>2018-04-07T09:03:07Z</time>
      </trkpt>
      <trkpt lat="45.91773" lon="4.76918">
        <ele>170</ele>
        <time>2018-04-07T09:03:08Z</time>
      </trkpt>
      <trkpt lat="45.91772" lon="4.76928">
        <ele>170</ele>
        <time>2018-04-07T09:03:09Z</time>
      </trkpt>
      <trkpt lat="45.91771" lon="4.76935">
        <ele>170</ele>
        <time>2018-04-07T09:03:10Z</time>
      </trkpt>
      <trkpt lat="45.9177" lon="4.76944">
        <ele>169</ele>
        <time>2018-04-07T09:03:11Z</time>
      </trkpt>
      <trkpt lat="45.9177" lon="4.76952">
        <ele>169</ele>
        <time>2018-04-07T09:03:12Z</time>
      </trkpt>
      <trkpt lat="45.91769" lon="4.7696">
        <ele>169</ele>
        <time>2018-04-07T09:03:13Z</time>
      </trkpt>
      <trkpt lat="45.91768" lon="4.76968">
        <ele>169</ele>
        <time>2018-04-07T09:03:14Z</time>
      </trkpt>
      <trkpt lat="45.91767" lon="4.76977">
        <ele>169</ele>
        <time>2018-04-07T09:03:15Z</time>
      </trkpt>
      <trkpt lat="45.91766" lon="4.76986">
        <ele>169</ele>
        <time>2018-04-07T09:03:16Z</time>
      </trkpt>
      <trkpt lat="45.91764" lon="4.76995">
        <ele>169</ele>
        <time>2018-04-07T09:03:17Z</time>
      </trkpt>
      <trkpt lat="45.91762" lon="4.77002">
        <ele>169</ele>
        <time>2018-04-07T09:03:18Z</time>
      </trkpt>
      <trkpt lat="45.91762" lon="4.77011">
        <ele>169</ele>
        <time>2018-04-07T09:03:19Z</time>
      </trkpt>
      <trkpt lat="45.9176" lon="4.77019">
        <ele>169</ele>
        <time>2018-04-07T09:03:20Z</time>
      </trkpt>
      <trkpt lat="45.91759" lon="4.77027">
        <ele>169</ele>
        <time>2018-04-07T09:03:21Z</time>
      </trkpt>
      <trkpt lat="45.91758" lon="4.77035">
        <ele>169</ele>
        <time>2018-04-07T09:03:22Z</time>
      </trkpt>
      <trkpt lat="45.91755" lon="4.7704">
        <ele>169</ele>
        <time>2018-04-07T09:03:23Z</time>
      </trkpt>
      <trkpt lat="45.91754" lon="4.77048">
        <ele>169</ele>
        <time>2018-04-07T09:03:24Z</time>
      </trkpt>
      <trkpt lat="45.91753" lon="4.77059">
        <ele>169</ele>
        <time>2018-04-07T09:03:25Z</time>
      </trkpt>
      <trkpt lat="45.91752" lon="4.77068">
        <ele>169</ele>
        <time>2018-04-07T09:03:26Z</time>
      </trkpt>
      <trkpt lat="45.9175" lon="4.77076">
        <ele>169</ele>
        <time>2018-04-07T09:03:27Z</time>
      </trkpt>
      <trkpt lat="45.91749" lon="4.77084">
        <ele>169</ele>
        <time>2018-04-07T09:03:28Z</time>
      </trkpt>
      <trkpt lat="45.91748" lon="4.77093">
        <ele>169</ele>
        <time>2018-04-07T09:03:29Z</time>
      </trkpt>
      <trkpt lat="45.91747" lon="4.77101">
        <ele>170</ele>
        <time>2018-04-07T09:03:30Z</time>
      </trkpt>
      <trkpt lat="45.91746" lon="4.77111">
        <ele>170</ele>
        <time>2018-04-07T09:03:31Z</time>
      </trkpt>
      <trkpt lat="45.91745" lon="4.77119">
        <ele>170</ele>
        <time>2018-04-07T09:03:32Z</time>
      </trkpt>
      <trkpt lat="45.91743" lon="4.77126">
        <ele>170</ele>
        <time>2018-04-07T09:03:33Z</time>
      </trkpt>
      <trkpt lat="45.91742" lon="4.77133">
        <ele>170</ele>
        <time>2018-04-07T09:03:34Z</time>
      </trkpt>
      <trkpt lat="45.9174" lon="4.7714">
        <ele>170</ele>
        <time>2018-04-07T09:03:35Z</time>
      </trkpt>
      <trkpt lat="45.91739" lon="4.77148">
        <ele>170</ele>
        <time>2018-04-07T09:03:36Z</time>
      </trkpt>
      <trkpt lat="45.91737" lon="4.77154">
        <ele>170</ele>
        <time>2018-04-07T09:03:37Z</time>
      </trkpt>
      <trkpt lat="45.91732" lon="4.77164">
        <ele>170</ele>
        <time>2018-04-07T09:03:39Z</time>
      </trkpt>
      <trkpt lat="45.91729" lon="4.77169">
        <ele>170</ele>
        <time>2018-04-07T09:03:40Z</time>
      </trkpt>
      <trkpt lat="45.91723" lon="4.77178">
        <ele>170</ele>
        <time>2018-04-07T09:03:42Z</time>
      </trkpt>
      <trkpt lat="45.9172" lon="4.77183">
        <ele>170</ele>
        <time>2018-04-07T09:03:43Z</time>
      </trkpt>
      <trkpt lat="45.91715" lon="4.77191">
        <ele>170</ele>
        <time>2018-04-07T09:03:45Z</time>
      </trkpt>
      <trkpt lat="45.91712" lon="4.77198">
        <ele>170</ele>
        <time>2018-04-07T09:03:46Z</time>
      </trkpt>
      <trkpt lat="45.9171" lon="4.77205">
        <ele>170</ele>
        <time>2018-04-07T09:03:47Z</time>
      </trkpt>
      <trkpt lat="45.91707" lon="4.77212">
        <ele>170</ele>
        <time>2018-04-07T09:03:48Z</time>
      </trkpt>
      <trkpt lat="45.91704" lon="4.7722">
        <ele>170</ele>
        <time>2018-04-07T09:03:49Z</time>
      </trkpt>
      <trkpt lat="45.91701" lon="4.77226">
        <ele>170</ele>
        <time>2018-04-07T09:03:50Z</time>
      </trkpt>
      <trkpt lat="45.91698" lon="4.77231">
        <ele>170</ele>
        <time>2018-04-07T09:03:51Z</time>
      </trkpt>
      <trkpt lat="45.91696" lon="4.77237">
        <ele>170</ele>
        <time>2018-04-07T09:03:52Z</time>
      </trkpt>
      <trkpt lat="45.91693" lon="4.77244">
        <ele>170</ele>
        <time>2018-04-07T09:03:53Z</time>
      </trkpt>
      <trkpt lat="45.91691" lon="4.7725">
        <ele>170</ele>
        <time>2018-04-07T09:03:54Z</time>
      </trkpt>
      <trkpt lat="45.91689" lon="4.7726">
        <ele>170</ele>
        <time>2018-04-07T09:03:55Z</time>
      </trkpt>
      <trkpt lat="45.91686" lon="4.77267">
        <ele>170</ele>
        <time>2018-04-07T09:03:56Z</time>
      </trkpt>
      <trkpt lat="45.91684" lon="4.77274">
        <ele>170</ele>
        <time>2018-04-07T09:03:57Z</time>
      </trkpt>
      <trkpt lat="45.91683" lon="4.77281">
        <ele>170</ele>
        <time>2018-04-07T09:03:58Z</time>
      </trkpt>
      <trkpt lat="45.91681" lon="4.77288">
        <ele>170</ele>
        <time>2018-04-07T09:03:59Z</time>
      </trkpt>
      <trkpt lat="45.91679" lon="4.77295">
        <ele>170</ele>
        <time>2018-04-07T09:04:00Z</time>
      </trkpt>
      <trkpt lat="45.91677" lon="4.773">
        <ele>170</ele>
        <time>2018-04-07T09:04:01Z</time>
      </trkpt>
      <trkpt lat="45.91675" lon="4.77307">
        <ele>171</ele>
        <time>2018-04-07T09:04:02Z</time>
      </trkpt>
      <trkpt lat="45.91673" lon="4.77315">
        <ele>171</ele>
        <time>2018-04-07T09:04:03Z</time>
      </trkpt>
      <trkpt lat="45.91672" lon="4.77322">
        <ele>171</ele>
        <time>2018-04-07T09:04:04Z</time>
      </trkpt>
      <trkpt lat="45.9167" lon="4.7733">
        <ele>172</ele>
        <time>2018-04-07T09:04:05Z</time>
      </trkpt>
      <trkpt lat="45.91668" lon="4.77335">
        <ele>172</ele>
        <time>2018-04-07T09:04:06Z</time>
      </trkpt>
      <trkpt lat="45.91663" lon="4.77346">
        <ele>172</ele>
        <time>2018-04-07T09:04:08Z</time>
      </trkpt>
      <trkpt lat="45.9166" lon="4.77351">
        <ele>172</ele>
        <time>2018-04-07T09:04:09Z</time>
      </trkpt>
      <trkpt lat="45.91658" lon="4.77357">
        <ele>172</ele>
        <time>2018-04-07T09:04:10Z</time>
      </trkpt>
      <trkpt lat="45.91657" lon="4.77369">
        <ele>172</ele>
        <time>2018-04-07T09:04:11Z</time>
      </trkpt>
      <trkpt lat="45.91655" lon="4.77376">
        <ele>172</ele>
        <time>2018-04-07T09:04:12Z</time>
      </trkpt>
      <trkpt lat="45.91653" lon="4.77382">
        <ele>172</ele>
        <time>2018-04-07T09:04:13Z</time>
      </trkpt>
      <trkpt lat="45.91651" lon="4.7739">
        <ele>172</ele>
        <time>2018-04-07T09:04:14Z</time>
      </trkpt>
      <trkpt lat="45.91649" lon="4.77397">
        <ele>172</ele>
        <time>2018-04-07T09:04:15Z</time>
      </trkpt>
      <trkpt lat="45.91648" lon="4.77406">
        <ele>172</ele>
        <time>2018-04-07T09:04:16Z</time>
      </trkpt>
      <trkpt lat="45.91646" lon="4.77413">
        <ele>172</ele>
        <time>2018-04-07T09:04:17Z</time>
      </trkpt>
      <trkpt lat="45.91643" lon="4.77419">
        <ele>172</ele>
        <time>2018-04-07T09:04:18Z</time>
      </trkpt>
      <trkpt lat="45.91642" lon="4.77426">
        <ele>172</ele>
        <time>2018-04-07T09:04:19Z</time>
      </trkpt>
      <trkpt lat="45.9164" lon="4.77433">
        <ele>172</ele>
        <time>2018-04-07T09:04:20Z</time>
      </trkpt>
      <trkpt lat="45.91638" lon="4.77439">
        <ele>172</ele>
        <time>2018-04-07T09:04:21Z</time>
      </trkpt>
      <trkpt lat="45.91635" lon="4.7745">
        <ele>172</ele>
        <time>2018-04-07T09:04:23Z</time>
      </trkpt>
      <trkpt lat="45.91633" lon="4.77456">
        <ele>171</ele>
        <time>2018-04-07T09:04:24Z</time>
      </trkpt>
      <trkpt lat="45.91632" lon="4.77462">
        <ele>171</ele>
        <time>2018-04-07T09:04:25Z</time>
      </trkpt>
      <trkpt lat="45.91631" lon="4.77469">
        <ele>171</ele>
        <time>2018-04-07T09:04:26Z</time>
      </trkpt>
      <trkpt lat="45.91629" lon="4.77476">
        <ele>171</ele>
        <time>2018-04-07T09:04:27Z</time>
      </trkpt>
      <trkpt lat="45.91627" lon="4.77482">
        <ele>171</ele>
        <time>2018-04-07T09:04:28Z</time>
      </trkpt>
      <trkpt lat="45.91625" lon="4.77494">
        <ele>171</ele>
        <time>2018-04-07T09:04:30Z</time>
      </trkpt>
      <trkpt lat="45.91625" lon="4.775">
        <ele>171</ele>
        <time>2018-04-07T09:04:31Z</time>
      </trkpt>
      <trkpt lat="45.91624" lon="4.77507">
        <ele>171</ele>
        <time>2018-04-07T09:04:32Z</time>
      </trkpt>
      <trkpt lat="45.91622" lon="4.77513">
        <ele>171</ele>
        <time>2018-04-07T09:04:33Z</time>
      </trkpt>
      <trkpt lat="45.91617" lon="4.77523">
        <ele>171</ele>
        <time>2018-04-07T09:04:35Z</time>
      </trkpt>
      <trkpt lat="45.91613" lon="4.77527">
        <ele>171</ele>
        <time>2018-04-07T09:04:36Z</time>
      </trkpt>
      <trkpt lat="45.9161" lon="4.77533">
        <ele>171</ele>
        <time>2018-04-07T09:04:37Z</time>
      </trkpt>
      <trkpt lat="45.91607" lon="4.77538">
        <ele>171</ele>
        <time>2018-04-07T09:04:38Z</time>
      </trkpt>
      <trkpt lat="45.91603" lon="4.77544">
        <ele>171</ele>
        <time>2018-04-07T09:04:39Z</time>
      </trkpt>
      <trkpt lat="45.916" lon="4.77549">
        <ele>171</ele>
        <time>2018-04-07T09:04:40Z</time>
      </trkpt>
      <trkpt lat="45.91596" lon="4.77559">
        <ele>172</ele>
        <time>2018-04-07T09:04:42Z</time>
      </trkpt>
      <trkpt lat="45.91593" lon="4.77565">
        <ele>172</ele>
        <time>2018-04-07T09:04:43Z</time>
      </trkpt>
      <trkpt lat="45.9159" lon="4.77569">
        <ele>172</ele>
        <time>2018-04-07T09:04:44Z</time>
      </trkpt>
      <trkpt lat="45.91586" lon="4.77574">
        <ele>172</ele>
        <time>2018-04-07T09:04:45Z</time>
      </trkpt>
      <trkpt lat="45.91584" lon="4.77578">
        <ele>173</ele>
        <time>2018-04-07T09:04:46Z</time>
      </trkpt>
      <trkpt lat="45.91581" lon="4.77585">
        <ele>173</ele>
        <time>2018-04-07T09:04:47Z</time>
      </trkpt>
      <trkpt lat="45.91574" lon="4.77594">
        <ele>173</ele>
        <time>2018-04-07T09:04:49Z</time>
      </trkpt>
      <trkpt lat="45.91573" lon="4.77598">
        <ele>173</ele>
        <time>2018-04-07T09:04:50Z</time>
      </trkpt>
      <trkpt lat="45.91568" lon="4.77608">
        <ele>174</ele>
        <time>2018-04-07T09:04:52Z</time>
      </trkpt>
      <trkpt lat="45.91565" lon="4.77613">
        <ele>174</ele>
        <time>2018-04-07T09:04:53Z</time>
      </trkpt>
      <trkpt lat="45.91561" lon="4.77616">
        <ele>174</ele>
        <time>2018-04-07T09:04:54Z</time>
      </trkpt>
      <trkpt lat="45.91557" lon="4.7762">
        <ele>174</ele>
        <time>2018-04-07T09:04:55Z</time>
      </trkpt>
      <trkpt lat="45.91551" lon="4.77627">
        <ele>174</ele>
        <time>2018-04-07T09:04:57Z</time>
      </trkpt>
      <trkpt lat="45.91548" lon="4.7763">
        <ele>174</ele>
        <time>2018-04-07T09:04:58Z</time>
      </trkpt>
      <trkpt lat="45.91542" lon="4.77636">
        <ele>174</ele>
        <time>2018-04-07T09:05:00Z</time>
      </trkpt>
      <trkpt lat="45.91539" lon="4.77639">
        <ele>174</ele>
        <time>2018-04-07T09:05:01Z</time>
      </trkpt>
      <trkpt lat="45.91536" lon="4.77645">
        <ele>174</ele>
        <time>2018-04-07T09:05:03Z</time>
      </trkpt>
      <trkpt lat="45.91532" lon="4.7765">
        <ele>174</ele>
        <time>2018-04-07T09:05:04Z</time>
      </trkpt>
      <trkpt lat="45.91528" lon="4.77657">
        <ele>174</ele>
        <time>2018-04-07T09:05:07Z</time>
      </trkpt>
      <trkpt lat="45.91524" lon="4.77665">
        <ele>175</ele>
        <time>2018-04-07T09:05:08Z</time>
      </trkpt>
      <trkpt lat="45.9152" lon="4.77673">
        <ele>175</ele>
        <time>2018-04-07T09:05:11Z</time>
      </trkpt>
      <trkpt lat="45.91518" lon="4.77675">
        <ele>176</ele>
        <time>2018-04-07T09:05:12Z</time>
      </trkpt>
      <trkpt lat="45.91513" lon="4.77685">
        <ele>176</ele>
        <time>2018-04-07T09:05:15Z</time>
      </trkpt>
      <trkpt lat="45.91511" lon="4.77688">
        <ele>176</ele>
        <time>2018-04-07T09:05:16Z</time>
      </trkpt>
      <trkpt lat="45.91506" lon="4.77692">
        <ele>176</ele>
        <time>2018-04-07T09:05:18Z</time>
      </trkpt>
      <trkpt lat="45.91503" lon="4.77694">
        <ele>176</ele>
        <time>2018-04-07T09:05:19Z</time>
      </trkpt>
      <trkpt lat="45.91495" lon="4.77697">
        <ele>177</ele>
        <time>2018-04-07T09:05:22Z</time>
      </trkpt>
      <trkpt lat="45.91484" lon="4.77697">
        <ele>177</ele>
        <time>2018-04-07T09:05:23Z</time>
      </trkpt>
      <trkpt lat="45.91479" lon="4.77697">
        <ele>177</ele>
        <time>2018-04-07T09:05:26Z</time>
      </trkpt>
      <trkpt lat="45.91471" lon="4.77696">
        <ele>177</ele>
        <time>2018-04-07T09:05:27Z</time>
      </trkpt>
      <trkpt lat="45.91463" lon="4.77698">
        <ele>177</ele>
        <time>2018-04-07T09:05:31Z</time>
      </trkpt>
      <trkpt lat="45.9146" lon="4.77699">
        <ele>177</ele>
        <time>2018-04-07T09:05:32Z</time>
      </trkpt>
      <trkpt lat="45.91452" lon="4.777">
        <ele>177</ele>
        <time>2018-04-07T09:05:33Z</time>
      </trkpt>
      <trkpt lat="45.91448" lon="4.77701">
        <ele>177</ele>
        <time>2018-04-07T09:05:34Z</time>
      </trkpt>
      <trkpt lat="45.91441" lon="4.77704">
        <ele>177</ele>
        <time>2018-04-07T09:05:36Z</time>
      </trkpt>
      <trkpt lat="45.91436" lon="4.77708">
        <ele>177</ele>
        <time>2018-04-07T09:05:37Z</time>
      </trkpt>
      <trkpt lat="45.91431" lon="4.77709">
        <ele>177</ele>
        <time>2018-04-07T09:05:38Z</time>
      </trkpt>
      <trkpt lat="45.91426" lon="4.77712">
        <ele>177</ele>
        <time>2018-04-07T09:05:39Z</time>
      </trkpt>
      <trkpt lat="45.91421" lon="4.77712">
        <ele>177</ele>
        <time>2018-04-07T09:05:40Z</time>
      </trkpt>
      <trkpt lat="45.91416" lon="4.77713">
        <ele>177</ele>
        <time>2018-04-07T09:05:41Z</time>
      </trkpt>
      <trkpt lat="45.91412" lon="4.77714">
        <ele>177</ele>
        <time>2018-04-07T09:05:42Z</time>
      </trkpt>
      <trkpt lat="45.91407" lon="4.77715">
        <ele>177</ele>
        <time>2018-04-07T09:05:43Z</time>
      </trkpt>
      <trkpt lat="45.91403" lon="4.77715">
        <ele>177</ele>
        <time>2018-04-07T09:05:44Z</time>
      </trkpt>
      <trkpt lat="45.91398" lon="4.77718">
        <ele>177</ele>
        <time>2018-04-07T09:05:45Z</time>
      </trkpt>
      <trkpt lat="45.91392" lon="4.77718">
        <ele>177</ele>
        <time>2018-04-07T09:05:46Z</time>
      </trkpt>
      <trkpt lat="45.91386" lon="4.77719">
        <ele>177</ele>
        <time>2018-04-07T09:05:47Z</time>
      </trkpt>
      <trkpt lat="45.91378" lon="4.77718">
        <ele>176</ele>
        <time>2018-04-07T09:05:49Z</time>
      </trkpt>
      <trkpt lat="45.91373" lon="4.77717">
        <ele>176</ele>
        <time>2018-04-07T09:05:50Z</time>
      </trkpt>
      <trkpt lat="45.91369" lon="4.77718">
        <ele>176</ele>
        <time>2018-04-07T09:05:51Z</time>
      </trkpt>
      <trkpt lat="45.91363" lon="4.77717">
        <ele>176</ele>
        <time>2018-04-07T09:05:52Z</time>
      </trkpt>
      <trkpt lat="45.91358" lon="4.77718">
        <ele>176</ele>
        <time>2018-04-07T09:05:53Z</time>
      </trkpt>
      <trkpt lat="45.91353" lon="4.77717">
        <ele>176</ele>
        <time>2018-04-07T09:05:54Z</time>
      </trkpt>
      <trkpt lat="45.91347" lon="4.77716">
        <ele>176</ele>
        <time>2018-04-07T09:05:55Z</time>
      </trkpt>
      <trkpt lat="45.91342" lon="4.77714">
        <ele>176</ele>
        <time>2018-04-07T09:05:56Z</time>
      </trkpt>
      <trkpt lat="45.91336" lon="4.77713">
        <ele>176</ele>
        <time>2018-04-07T09:05:57Z</time>
      </trkpt>
      <trkpt lat="45.91332" lon="4.77713">
        <ele>176</ele>
        <time>2018-04-07T09:05:58Z</time>
      </trkpt>
      <trkpt lat="45.91327" lon="4.77713">
        <ele>176</ele>
        <time>2018-04-07T09:05:59Z</time>
      </trkpt>
      <trkpt lat="45.91321" lon="4.77712">
        <ele>176</ele>
        <time>2018-04-07T09:06:00Z</time>
      </trkpt>
      <trkpt lat="45.91314" lon="4.7771">
        <ele>176</ele>
        <time>2018-04-07T09:06:02Z</time>
      </trkpt>
      <trkpt lat="45.91311" lon="4.77708">
        <ele>176</ele>
        <time>2018-04-07T09:06:03Z</time>
      </trkpt>
      <trkpt lat="45.91307" lon="4.77706">
        <ele>176</ele>
        <time>2018-04-07T09:06:04Z</time>
      </trkpt>
      <trkpt lat="45.91301" lon="4.77704">
        <ele>176</ele>
        <time>2018-04-07T09:06:05Z</time>
      </trkpt>
      <trkpt lat="45.91296" lon="4.77701">
        <ele>176</ele>
        <time>2018-04-07T09:06:06Z</time>
      </trkpt>
      <trkpt lat="45.91291" lon="4.77698">
        <ele>176</ele>
        <time>2018-04-07T09:06:07Z</time>
      </trkpt>
      <trkpt lat="45.91287" lon="4.77695">
        <ele>176</ele>
        <time>2018-04-07T09:06:08Z</time>
      </trkpt>
      <trkpt lat="45.91282" lon="4.77692">
        <ele>176</ele>
        <time>2018-04-07T09:06:09Z</time>
      </trkpt>
      <trkpt lat="45.91277" lon="4.77688">
        <ele>176</ele>
        <time>2018-04-07T09:06:10Z</time>
      </trkpt>
      <trkpt lat="45.91272" lon="4.77684">
        <ele>176</ele>
        <time>2018-04-07T09:06:11Z</time>
      </trkpt>
      <trkpt lat="45.91266" lon="4.77683">
        <ele>176</ele>
        <time>2018-04-07T09:06:12Z</time>
      </trkpt>
      <trkpt lat="45.9126" lon="4.7768">
        <ele>176</ele>
        <time>2018-04-07T09:06:13Z</time>
      </trkpt>
      <trkpt lat="45.91255" lon="4.77679">
        <ele>175</ele>
        <time>2018-04-07T09:06:14Z</time>
      </trkpt>
      <trkpt lat="45.9125" lon="4.77678">
        <ele>176</ele>
        <time>2018-04-07T09:06:15Z</time>
      </trkpt>
      <trkpt lat="45.91244" lon="4.77678">
        <ele>176</ele>
        <time>2018-04-07T09:06:16Z</time>
      </trkpt>
      <trkpt lat="45.91238" lon="4.77681">
        <ele>176</ele>
        <time>2018-04-07T09:06:17Z</time>
      </trkpt>
      <trkpt lat="45.91232" lon="4.77682">
        <ele>176</ele>
        <time>2018-04-07T09:06:18Z</time>
      </trkpt>
      <trkpt lat="45.91227" lon="4.77683">
        <ele>176</ele>
        <time>2018-04-07T09:06:19Z</time>
      </trkpt>
      <trkpt lat="45.91222" lon="4.77684">
        <ele>176</ele>
        <time>2018-04-07T09:06:20Z</time>
      </trkpt>
      <trkpt lat="45.91218" lon="4.77686">
        <ele>176</ele>
        <time>2018-04-07T09:06:21Z</time>
      </trkpt>
      <trkpt lat="45.9121" lon="4.77689">
        <ele>176</ele>
        <time>2018-04-07T09:06:23Z</time>
      </trkpt>
      <trkpt lat="45.91205" lon="4.77691">
        <ele>176</ele>
        <time>2018-04-07T09:06:24Z</time>
      </trkpt>
      <trkpt lat="45.912" lon="4.77692">
        <ele>176</ele>
        <time>2018-04-07T09:06:25Z</time>
      </trkpt>
      <trkpt lat="45.91196" lon="4.77693">
        <ele>176</ele>
        <time>2018-04-07T09:06:26Z</time>
      </trkpt>
      <trkpt lat="45.91191" lon="4.77695">
        <ele>176</ele>
        <time>2018-04-07T09:06:27Z</time>
      </trkpt>
      <trkpt lat="45.91186" lon="4.77696">
        <ele>176</ele>
        <time>2018-04-07T09:06:28Z</time>
      </trkpt>
      <trkpt lat="45.91181" lon="4.77697">
        <ele>176</ele>
        <time>2018-04-07T09:06:29Z</time>
      </trkpt>
      <trkpt lat="45.91176" lon="4.77699">
        <ele>176</ele>
        <time>2018-04-07T09:06:30Z</time>
      </trkpt>
      <trkpt lat="45.91172" lon="4.777">
        <ele>176</ele>
        <time>2018-04-07T09:06:31Z</time>
      </trkpt>
      <trkpt lat="45.91167" lon="4.77701">
        <ele>176</ele>
        <time>2018-04-07T09:06:32Z</time>
      </trkpt>
      <trkpt lat="45.91162" lon="4.77703">
        <ele>177</ele>
        <time>2018-04-07T09:06:33Z</time>
      </trkpt>
      <trkpt lat="45.91157" lon="4.77706">
        <ele>177</ele>
        <time>2018-04-07T09:06:34Z</time>
      </trkpt>
      <trkpt lat="45.91153" lon="4.77708">
        <ele>177</ele>
        <time>2018-04-07T09:06:35Z</time>
      </trkpt>
      <trkpt lat="45.91147" lon="4.77709">
        <ele>177</ele>
        <time>2018-04-07T09:06:36Z</time>
      </trkpt>
      <trkpt lat="45.91142" lon="4.77711">
        <ele>177</ele>
        <time>2018-04-07T09:06:37Z</time>
      </trkpt>
      <trkpt lat="45.91138" lon="4.77713">
        <ele>177</ele>
        <time>2018-04-07T09:06:38Z</time>
      </trkpt>
      <trkpt lat="45.91132" lon="4.77714">
        <ele>177</ele>
        <time>2018-04-07T09:06:39Z</time>
      </trkpt>
      <trkpt lat="45.91128" lon="4.77715">
        <ele>177</ele>
        <time>2018-04-07T09:06:40Z</time>
      </trkpt>
      <trkpt lat="45.91123" lon="4.77717">
        <ele>177</ele>
        <time>2018-04-07T09:06:41Z</time>
      </trkpt>
      <trkpt lat="45.91118" lon="4.7772">
        <ele>177</ele>
        <time>2018-04-07T09:06:42Z</time>
      </trkpt>
      <trkpt lat="45.91114" lon="4.77722">
        <ele>178</ele>
        <time>2018-04-07T09:06:43Z</time>
      </trkpt>
      <trkpt lat="45.91109" lon="4.77725">
        <ele>178</ele>
        <time>2018-04-07T09:06:44Z</time>
      </trkpt>
      <trkpt lat="45.91105" lon="4.77729">
        <ele>178</ele>
        <time>2018-04-07T09:06:45Z</time>
      </trkpt>
      <trkpt lat="45.91101" lon="4.77732">
        <ele>178</ele>
        <time>2018-04-07T09:06:46Z</time>
      </trkpt>
      <trkpt lat="45.91097" lon="4.77736">
        <ele>178</ele>
        <time>2018-04-07T09:06:47Z</time>
      </trkpt>
      <trkpt lat="45.91093" lon="4.77739">
        <ele>178</ele>
        <time>2018-04-07T09:06:48Z</time>
      </trkpt>
      <trkpt lat="45.91085" lon="4.77745">
        <ele>179</ele>
        <time>2018-04-07T09:06:50Z</time>
      </trkpt>
      <trkpt lat="45.91081" lon="4.77747">
        <ele>179</ele>
        <time>2018-04-07T09:06:51Z</time>
      </trkpt>
      <trkpt lat="45.91077" lon="4.7775">
        <ele>179</ele>
        <time>2018-04-07T09:06:52Z</time>
      </trkpt>
      <trkpt lat="45.91073" lon="4.77754">
        <ele>179</ele>
        <time>2018-04-07T09:06:53Z</time>
      </trkpt>
      <trkpt lat="45.91067" lon="4.77757">
        <ele>179</ele>
        <time>2018-04-07T09:06:54Z</time>
      </trkpt>
      <trkpt lat="45.91063" lon="4.77758">
        <ele>178</ele>
        <time>2018-04-07T09:06:55Z</time>
      </trkpt>
      <trkpt lat="45.91058" lon="4.7776">
        <ele>178</ele>
        <time>2018-04-07T09:06:56Z</time>
      </trkpt>
      <trkpt lat="45.91054" lon="4.77763">
        <ele>178</ele>
        <time>2018-04-07T09:06:57Z</time>
      </trkpt>
      <trkpt lat="45.9105" lon="4.77765">
        <ele>178</ele>
        <time>2018-04-07T09:06:58Z</time>
      </trkpt>
      <trkpt lat="45.91046" lon="4.77767">
        <ele>178</ele>
        <time>2018-04-07T09:06:59Z</time>
      </trkpt>
      <trkpt lat="45.91037" lon="4.77771">
        <ele>178</ele>
        <time>2018-04-07T09:07:01Z</time>
      </trkpt>
      <trkpt lat="45.91033" lon="4.77773">
        <ele>178</ele>
        <time>2018-04-07T09:07:02Z</time>
      </trkpt>
      <trkpt lat="45.91025" lon="4.77776">
        <ele>178</ele>
        <time>2018-04-07T09:07:04Z</time>
      </trkpt>
      <trkpt lat="45.9102" lon="4.77777">
        <ele>178</ele>
        <time>2018-04-07T09:07:05Z</time>
      </trkpt>
      <trkpt lat="45.91016" lon="4.77778">
        <ele>178</ele>
        <time>2018-04-07T09:07:06Z</time>
      </trkpt>
      <trkpt lat="45.91011" lon="4.77779">
        <ele>178</ele>
        <time>2018-04-07T09:07:07Z</time>
      </trkpt>
      <trkpt lat="45.91003" lon="4.77781">
        <ele>178</ele>
        <time>2018-04-07T09:07:09Z</time>
      </trkpt>
      <trkpt lat="45.90999" lon="4.77782">
        <ele>177</ele>
        <time>2018-04-07T09:07:10Z</time>
      </trkpt>
      <trkpt lat="45.90991" lon="4.77783">
        <ele>177</ele>
        <time>2018-04-07T09:07:12Z</time>
      </trkpt>
      <trkpt lat="45.90987" lon="4.77783">
        <ele>177</ele>
        <time>2018-04-07T09:07:13Z</time>
      </trkpt>
      <trkpt lat="45.90982" lon="4.77782">
        <ele>177</ele>
        <time>2018-04-07T09:07:14Z</time>
      </trkpt>
      <trkpt lat="45.90976" lon="4.7778">
        <ele>177</ele>
        <time>2018-04-07T09:07:15Z</time>
      </trkpt>
      <trkpt lat="45.90972" lon="4.77781">
        <ele>177</ele>
        <time>2018-04-07T09:07:16Z</time>
      </trkpt>
      <trkpt lat="45.90967" lon="4.77781">
        <ele>177</ele>
        <time>2018-04-07T09:07:17Z</time>
      </trkpt>
      <trkpt lat="45.90963" lon="4.7778">
        <ele>177</ele>
        <time>2018-04-07T09:07:18Z</time>
      </trkpt>
      <trkpt lat="45.90958" lon="4.77779">
        <ele>177</ele>
        <time>2018-04-07T09:07:19Z</time>
      </trkpt>
      <trkpt lat="45.90951" lon="4.77773">
        <ele>177</ele>
        <time>2018-04-07T09:07:21Z</time>
      </trkpt>
      <trkpt lat="45.90947" lon="4.7777">
        <ele>177</ele>
        <time>2018-04-07T09:07:22Z</time>
      </trkpt>
      <trkpt lat="45.90939" lon="4.77766">
        <ele>177</ele>
        <time>2018-04-07T09:07:24Z</time>
      </trkpt>
      <trkpt lat="45.90934" lon="4.77766">
        <ele>177</ele>
        <time>2018-04-07T09:07:25Z</time>
      </trkpt>
      <trkpt lat="45.90925" lon="4.77763">
        <ele>177</ele>
        <time>2018-04-07T09:07:27Z</time>
      </trkpt>
      <trkpt lat="45.90922" lon="4.7776">
        <ele>176</ele>
        <time>2018-04-07T09:07:28Z</time>
      </trkpt>
      <trkpt lat="45.90917" lon="4.7775">
        <ele>176</ele>
        <time>2018-04-07T09:07:30Z</time>
      </trkpt>
      <trkpt lat="45.90914" lon="4.77746">
        <ele>176</ele>
        <time>2018-04-07T09:07:31Z</time>
      </trkpt>
      <trkpt lat="45.90911" lon="4.77741">
        <ele>177</ele>
        <time>2018-04-07T09:07:32Z</time>
      </trkpt>
      <trkpt lat="45.90907" lon="4.77737">
        <ele>177</ele>
        <time>2018-04-07T09:07:33Z</time>
      </trkpt>
      <trkpt lat="45.909" lon="4.77729">
        <ele>177</ele>
        <time>2018-04-07T09:07:35Z</time>
      </trkpt>
      <trkpt lat="45.90898" lon="4.77726">
        <ele>177</ele>
        <time>2018-04-07T09:07:36Z</time>
      </trkpt>
      <trkpt lat="45.90892" lon="4.77719">
        <ele>177</ele>
        <time>2018-04-07T09:07:38Z</time>
      </trkpt>
      <trkpt lat="45.90891" lon="4.77717">
        <ele>177</ele>
        <time>2018-04-07T09:07:39Z</time>
      </trkpt>
      <trkpt lat="45.90886" lon="4.77713">
        <ele>177</ele>
        <time>2018-04-07T09:07:40Z</time>
      </trkpt>
      <trkpt lat="45.90882" lon="4.7771">
        <ele>177</ele>
        <time>2018-04-07T09:07:41Z</time>
      </trkpt>
      <trkpt lat="45.90878" lon="4.77704">
        <ele>177</ele>
        <time>2018-04-07T09:07:43Z</time>
      </trkpt>
      <trkpt lat="45.90871" lon="4.777">
        <ele>178</ele>
        <time>2018-04-07T09:07:44Z</time>
      </trkpt>
      <trkpt lat="45.90868" lon="4.77697">
        <ele>178</ele>
        <time>2018-04-07T09:07:46Z</time>
      </trkpt>
      <trkpt lat="45.90862" lon="4.77693">
        <ele>178</ele>
        <time>2018-04-07T09:07:47Z</time>
      </trkpt>
      <trkpt lat="45.90857" lon="4.77689">
        <ele>178</ele>
        <time>2018-04-07T09:07:50Z</time>
      </trkpt>
      <trkpt lat="45.9085" lon="4.77685">
        <ele>178</ele>
        <time>2018-04-07T09:07:51Z</time>
      </trkpt>
      <trkpt lat="45.90843" lon="4.77681">
        <ele>178</ele>
        <time>2018-04-07T09:07:53Z</time>
      </trkpt>
      <trkpt lat="45.90841" lon="4.7768">
        <ele>178</ele>
        <time>2018-04-07T09:07:54Z</time>
      </trkpt>
      <trkpt lat="45.90833" lon="4.77677">
        <ele>179</ele>
        <time>2018-04-07T09:07:56Z</time>
      </trkpt>
      <trkpt lat="45.90831" lon="4.77676">
        <ele>179</ele>
        <time>2018-04-07T09:07:57Z</time>
      </trkpt>
      <trkpt lat="45.90823" lon="4.77674">
        <ele>179</ele>
        <time>2018-04-07T09:08:00Z</time>
      </trkpt>
      <trkpt lat="45.9082" lon="4.77673">
        <ele>179</ele>
        <time>2018-04-07T09:08:01Z</time>
      </trkpt>
      <trkpt lat="45.90811" lon="4.7767">
        <ele>179</ele>
        <time>2018-04-07T09:08:02Z</time>
      </trkpt>
      <trkpt lat="45.90803" lon="4.77667">
        <ele>179</ele>
        <time>2018-04-07T09:08:04Z</time>
      </trkpt>
      <trkpt lat="45.90799" lon="4.77665">
        <ele>179</ele>
        <time>2018-04-07T09:08:05Z</time>
      </trkpt>
      <trkpt lat="45.90791" lon="4.77663">
        <ele>179</ele>
        <time>2018-04-07T09:08:07Z</time>
      </trkpt>
      <trkpt lat="45.90787" lon="4.77662">
        <ele>179</ele>
        <time>2018-04-07T09:08:08Z</time>
      </trkpt>
      <trkpt lat="45.90779" lon="4.7766">
        <ele>180</ele>
        <time>2018-04-07T09:08:10Z</time>
      </trkpt>
      <trkpt lat="45.90775" lon="4.77659">
        <ele>180</ele>
        <time>2018-04-07T09:08:11Z</time>
      </trkpt>
      <trkpt lat="45.90769" lon="4.77657">
        <ele>180</ele>
        <time>2018-04-07T09:08:12Z</time>
      </trkpt>
      <trkpt lat="45.90764" lon="4.77654">
        <ele>180</ele>
        <time>2018-04-07T09:08:13Z</time>
      </trkpt>
      <trkpt lat="45.90761" lon="4.7765">
        <ele>180</ele>
        <time>2018-04-07T09:08:14Z</time>
      </trkpt>
      <trkpt lat="45.90755" lon="4.77646">
        <ele>180</ele>
        <time>2018-04-07T09:08:15Z</time>
      </trkpt>
      <trkpt lat="45.9075" lon="4.77643">
        <ele>180</ele>
        <time>2018-04-07T09:08:16Z</time>
      </trkpt>
      <trkpt lat="45.90745" lon="4.77643">
        <ele>180</ele>
        <time>2018-04-07T09:08:17Z</time>
      </trkpt>
      <trkpt lat="45.90739" lon="4.77643">
        <ele>180</ele>
        <time>2018-04-07T09:08:18Z</time>
      </trkpt>
      <trkpt lat="45.90733" lon="4.77643">
        <ele>180</ele>
        <time>2018-04-07T09:08:19Z</time>
      </trkpt>
      <trkpt lat="45.90726" lon="4.77642">
        <ele>180</ele>
        <time>2018-04-07T09:08:20Z</time>
      </trkpt>
      <trkpt lat="45.9072" lon="4.77641">
        <ele>180</ele>
        <time>2018-04-07T09:08:21Z</time>
      </trkpt>
      <trkpt lat="45.90715" lon="4.77639">
        <ele>179</ele>
        <time>2018-04-07T09:08:22Z</time>
      </trkpt>
      <trkpt lat="45.90709" lon="4.77637">
        <ele>179</ele>
        <time>2018-04-07T09:08:23Z</time>
      </trkpt>
      <trkpt lat="45.90704" lon="4.77635">
        <ele>179</ele>
        <time>2018-04-07T09:08:24Z</time>
      </trkpt>
      <trkpt lat="45.90697" lon="4.77633">
        <ele>179</ele>
        <time>2018-04-07T09:08:25Z</time>
      </trkpt>
      <trkpt lat="45.90691" lon="4.7763">
        <ele>179</ele>
        <time>2018-04-07T09:08:26Z</time>
      </trkpt>
      <trkpt lat="45.90683" lon="4.77628">
        <ele>179</ele>
        <time>2018-04-07T09:08:27Z</time>
      </trkpt>
      <trkpt lat="45.90677" lon="4.77627">
        <ele>179</ele>
        <time>2018-04-07T09:08:28Z</time>
      </trkpt>
      <trkpt lat="45.90671" lon="4.77626">
        <ele>179</ele>
        <time>2018-04-07T09:08:29Z</time>
      </trkpt>
      <trkpt lat="45.90664" lon="4.77625">
        <ele>179</ele>
        <time>2018-04-07T09:08:30Z</time>
      </trkpt>
      <trkpt lat="45.90657" lon="4.77624">
        <ele>179</ele>
        <time>2018-04-07T09:08:31Z</time>
      </trkpt>
      <trkpt lat="45.9065" lon="4.77623">
        <ele>179</ele>
        <time>2018-04-07T09:08:32Z</time>
      </trkpt>
      <trkpt lat="45.90643" lon="4.77623">
        <ele>179</ele>
        <time>2018-04-07T09:08:33Z</time>
      </trkpt>
      <trkpt lat="45.90636" lon="4.77623">
        <ele>179</ele>
        <time>2018-04-07T09:08:34Z</time>
      </trkpt>
      <trkpt lat="45.90629" lon="4.77623">
        <ele>179</ele>
        <time>2018-04-07T09:08:35Z</time>
      </trkpt>
      <trkpt lat="45.90623" lon="4.77624">
        <ele>179</ele>
        <time>2018-04-07T09:08:36Z</time>
      </trkpt>
      <trkpt lat="45.90615" lon="4.77623">
        <ele>179</ele>
        <time>2018-04-07T09:08:37Z</time>
      </trkpt>
      <trkpt lat="45.90609" lon="4.77624">
        <ele>179</ele>
        <time>2018-04-07T09:08:38Z</time>
      </trkpt>
      <trkpt lat="45.90603" lon="4.77624">
        <ele>179</ele>
        <time>2018-04-07T09:08:39Z</time>
      </trkpt>
      <trkpt lat="45.90597" lon="4.77625">
        <ele>179</ele>
        <time>2018-04-07T09:08:40Z</time>
      </trkpt>
      <trkpt lat="45.9059" lon="4.77625">
        <ele>179</ele>
        <time>2018-04-07T09:08:41Z</time>
      </trkpt>
      <trkpt lat="45.90584" lon="4.77627">
        <ele>179</ele>
        <time>2018-04-07T09:08:42Z</time>
      </trkpt>
      <trkpt lat="45.90577" lon="4.77628">
        <ele>178</ele>
        <time>2018-04-07T09:08:43Z</time>
      </trkpt>
      <trkpt lat="45.90571" lon="4.7763">
        <ele>178</ele>
        <time>2018-04-07T09:08:44Z</time>
      </trkpt>
      <trkpt lat="45.90564" lon="4.77631">
        <ele>178</ele>
        <time>2018-04-07T09:08:45Z</time>
      </trkpt>
      <trkpt lat="45.90558" lon="4.77632">
        <ele>178</ele>
        <time>2018-04-07T09:08:46Z</time>
      </trkpt>
      <trkpt lat="45.90552" lon="4.77633">
        <ele>178</ele>
        <time>2018-04-07T09:08:47Z</time>
      </trkpt>
      <trkpt lat="45.90546" lon="4.77634">
        <ele>178</ele>
        <time>2018-04-07T09:08:48Z</time>
      </trkpt>
      <trkpt lat="45.9054" lon="4.77634">
        <ele>178</ele>
        <time>2018-04-07T09:08:49Z</time>
      </trkpt>
      <trkpt lat="45.90534" lon="4.77635">
        <ele>178</ele>
        <time>2018-04-07T09:08:50Z</time>
      </trkpt>
      <trkpt lat="45.90528" lon="4.77636">
        <ele>178</ele>
        <time>2018-04-07T09:08:51Z</time>
      </trkpt>
      <trkpt lat="45.90521" lon="4.77636">
        <ele>178</ele>
        <time>2018-04-07T09:08:52Z</time>
      </trkpt>
      <trkpt lat="45.90515" lon="4.77637">
        <ele>178</ele>
        <time>2018-04-07T09:08:53Z</time>
      </trkpt>
      <trkpt lat="45.9051" lon="4.77639">
        <ele>178</ele>
        <time>2018-04-07T09:08:54Z</time>
      </trkpt>
      <trkpt lat="45.90504" lon="4.77639">
        <ele>178</ele>
        <time>2018-04-07T09:08:55Z</time>
      </trkpt>
      <trkpt lat="45.90498" lon="4.7764">
        <ele>179</ele>
        <time>2018-04-07T09:08:56Z</time>
      </trkpt>
      <trkpt lat="45.90491" lon="4.77642">
        <ele>179</ele>
        <time>2018-04-07T09:08:57Z</time>
      </trkpt>
      <trkpt lat="45.90486" lon="4.77643">
        <ele>179</ele>
        <time>2018-04-07T09:08:58Z</time>
      </trkpt>
      <trkpt lat="45.90479" lon="4.77644">
        <ele>179</ele>
        <time>2018-04-07T09:08:59Z</time>
      </trkpt>
      <trkpt lat="45.90474" lon="4.77643">
        <ele>179</ele>
        <time>2018-04-07T09:09:00Z</time>
      </trkpt>
      <trkpt lat="45.90468" lon="4.77644">
        <ele>179</ele>
        <time>2018-04-07T09:09:01Z</time>
      </trkpt>
      <trkpt lat="45.90463" lon="4.77644">
        <ele>179</ele>
        <time>2018-04-07T09:09:02Z</time>
      </trkpt>
      <trkpt lat="45.90459" lon="4.77646">
        <ele>179</ele>
        <time>2018-04-07T09:09:03Z</time>
      </trkpt>
      <trkpt lat="45.90454" lon="4.77647">
        <ele>179</ele>
        <time>2018-04-07T09:09:04Z</time>
      </trkpt>
      <trkpt lat="45.90448" lon="4.77647">
        <ele>179</ele>
        <time>2018-04-07T09:09:05Z</time>
      </trkpt>
      <trkpt lat="45.90444" lon="4.77647">
        <ele>179</ele>
        <time>2018-04-07T09:09:06Z</time>
      </trkpt>
      <trkpt lat="45.90438" lon="4.77647">
        <ele>180</ele>
        <time>2018-04-07T09:09:07Z</time>
      </trkpt>
      <trkpt lat="45.90433" lon="4.77648">
        <ele>180</ele>
        <time>2018-04-07T09:09:08Z</time>
      </trkpt>
      <trkpt lat="45.90428" lon="4.77649">
        <ele>180</ele>
        <time>2018-04-07T09:09:09Z</time>
      </trkpt>
      <trkpt lat="45.90423" lon="4.7765">
        <ele>180</ele>
        <time>2018-04-07T09:09:10Z</time>
      </trkpt>
      <trkpt lat="45.90418" lon="4.77651">
        <ele>180</ele>
        <time>2018-04-07T09:09:11Z</time>
      </trkpt>
      <trkpt lat="45.90413" lon="4.77651">
        <ele>181</ele>
        <time>2018-04-07T09:09:12Z</time>
      </trkpt>
      <trkpt lat="45.90409" lon="4.77652">
        <ele>181</ele>
        <time>2018-04-07T09:09:13Z</time>
      </trkpt>
      <trkpt lat="45.90403" lon="4.77653">
        <ele>181</ele>
        <time>2018-04-07T09:09:14Z</time>
      </trkpt>
      <trkpt lat="45.90399" lon="4.77655">
        <ele>181</ele>
        <time>2018-04-07T09:09:15Z</time>
      </trkpt>
      <trkpt lat="45.90393" lon="4.77655">
        <ele>181</ele>
        <time>2018-04-07T09:09:16Z</time>
      </trkpt>
      <trkpt lat="45.90388" lon="4.77656">
        <ele>181</ele>
        <time>2018-04-07T09:09:17Z</time>
      </trkpt>
      <trkpt lat="45.90384" lon="4.77656">
        <ele>181</ele>
        <time>2018-04-07T09:09:18Z</time>
      </trkpt>
      <trkpt lat="45.90379" lon="4.77657">
        <ele>181</ele>
        <time>2018-04-07T09:09:19Z</time>
      </trkpt>
      <trkpt lat="45.90371" lon="4.77659">
        <ele>181</ele>
        <time>2018-04-07T09:09:21Z</time>
      </trkpt>
      <trkpt lat="45.90367" lon="4.77658">
        <ele>181</ele>
        <time>2018-04-07T09:09:22Z</time>
      </trkpt>
      <trkpt lat="45.90358" lon="4.7766">
        <ele>181</ele>
        <time>2018-04-07T09:09:24Z</time>
      </trkpt>
      <trkpt lat="45.90354" lon="4.7766">
        <ele>181</ele>
        <time>2018-04-07T09:09:25Z</time>
      </trkpt>
      <trkpt lat="45.90345" lon="4.77662">
        <ele>181</ele>
        <time>2018-04-07T09:09:27Z</time>
      </trkpt>
      <trkpt lat="45.90342" lon="4.77663">
        <ele>182</ele>
        <time>2018-04-07T09:09:28Z</time>
      </trkpt>
      <trkpt lat="45.90333" lon="4.77663">
        <ele>182</ele>
        <time>2018-04-07T09:09:30Z</time>
      </trkpt>
      <trkpt lat="45.9033" lon="4.77665">
        <ele>182</ele>
        <time>2018-04-07T09:09:31Z</time>
      </trkpt>
      <trkpt lat="45.90321" lon="4.77666">
        <ele>182</ele>
        <time>2018-04-07T09:09:33Z</time>
      </trkpt>
      <trkpt lat="45.90317" lon="4.77667">
        <ele>182</ele>
        <time>2018-04-07T09:09:34Z</time>
      </trkpt>
      <trkpt lat="45.90309" lon="4.77668">
        <ele>182</ele>
        <time>2018-04-07T09:09:36Z</time>
      </trkpt>
      <trkpt lat="45.90305" lon="4.77669">
        <ele>182</ele>
        <time>2018-04-07T09:09:37Z</time>
      </trkpt>
      <trkpt lat="45.90296" lon="4.77669">
        <ele>182</ele>
        <time>2018-04-07T09:09:39Z</time>
      </trkpt>
      <trkpt lat="45.90292" lon="4.77669">
        <ele>182</ele>
        <time>2018-04-07T09:09:40Z</time>
      </trkpt>
      <trkpt lat="45.90284" lon="4.7767">
        <ele>182</ele>
        <time>2018-04-07T09:09:42Z</time>
      </trkpt>
      <trkpt lat="45.9028" lon="4.7767">
        <ele>182</ele>
        <time>2018-04-07T09:09:43Z</time>
      </trkpt>
      <trkpt lat="45.90272" lon="4.7767">
        <ele>182</ele>
        <time>2018-04-07T09:09:45Z</time>
      </trkpt>
      <trkpt lat="45.90268" lon="4.7767">
        <ele>182</ele>
        <time>2018-04-07T09:09:46Z</time>
      </trkpt>
      <trkpt lat="45.90259" lon="4.77671">
        <ele>182</ele>
        <time>2018-04-07T09:09:48Z</time>
      </trkpt>
      <trkpt lat="45.90255" lon="4.77671">
        <ele>182</ele>
        <time>2018-04-07T09:09:49Z</time>
      </trkpt>
      <trkpt lat="45.90247" lon="4.7767">
        <ele>182</ele>
        <time>2018-04-07T09:09:51Z</time>
      </trkpt>
      <trkpt lat="45.90243" lon="4.7767">
        <ele>183</ele>
        <time>2018-04-07T09:09:52Z</time>
      </trkpt>
      <trkpt lat="45.90236" lon="4.7767">
        <ele>183</ele>
        <time>2018-04-07T09:09:54Z</time>
      </trkpt>
      <trkpt lat="45.90232" lon="4.77669">
        <ele>183</ele>
        <time>2018-04-07T09:09:55Z</time>
      </trkpt>
      <trkpt lat="45.90224" lon="4.77669">
        <ele>184</ele>
        <time>2018-04-07T09:09:57Z</time>
      </trkpt>
      <trkpt lat="45.9022" lon="4.77669">
        <ele>184</ele>
        <time>2018-04-07T09:09:58Z</time>
      </trkpt>
      <trkpt lat="45.90213" lon="4.77669">
        <ele>184</ele>
        <time>2018-04-07T09:10:00Z</time>
      </trkpt>
      <trkpt lat="45.90208" lon="4.77669">
        <ele>184</ele>
        <time>2018-04-07T09:10:01Z</time>
      </trkpt>
      <trkpt lat="45.902" lon="4.77668">
        <ele>184</ele>
        <time>2018-04-07T09:10:03Z</time>
      </trkpt>
      <trkpt lat="45.90196" lon="4.77668">
        <ele>184</ele>
        <time>2018-04-07T09:10:04Z</time>
      </trkpt>
      <trkpt lat="45.90187" lon="4.77667">
        <ele>185</ele>
        <time>2018-04-07T09:10:06Z</time>
      </trkpt>
      <trkpt lat="45.90183" lon="4.77667">
        <ele>184</ele>
        <time>2018-04-07T09:10:07Z</time>
      </trkpt>
      <trkpt lat="45.90174" lon="4.77666">
        <ele>184</ele>
        <time>2018-04-07T09:10:09Z</time>
      </trkpt>
      <trkpt lat="45.9017" lon="4.77666">
        <ele>185</ele>
        <time>2018-04-07T09:10:10Z</time>
      </trkpt>
      <trkpt lat="45.90161" lon="4.77666">
        <ele>185</ele>
        <time>2018-04-07T09:10:12Z</time>
      </trkpt>
      <trkpt lat="45.90157" lon="4.77666">
        <ele>184</ele>
        <time>2018-04-07T09:10:13Z</time>
      </trkpt>
      <trkpt lat="45.90148" lon="4.77666">
        <ele>184</ele>
        <time>2018-04-07T09:10:15Z</time>
      </trkpt>
      <trkpt lat="45.90143" lon="4.77666">
        <ele>184</ele>
        <time>2018-04-07T09:10:16Z</time>
      </trkpt>
      <trkpt lat="45.90134" lon="4.77666">
        <ele>184</ele>
        <time>2018-04-07T09:10:18Z</time>
      </trkpt>
      <trkpt lat="45.90129" lon="4.77666">
        <ele>183</ele>
        <time>2018-04-07T09:10:19Z</time>
      </trkpt>
      <trkpt lat="45.90124" lon="4.77666">
        <ele>183</ele>
        <time>2018-04-07T09:10:20Z</time>
      </trkpt>
      <trkpt lat="45.9012" lon="4.77666">
        <ele>183</ele>
        <time>2018-04-07T09:10:21Z</time>
      </trkpt>
      <trkpt lat="45.90115" lon="4.77666">
        <ele>183</ele>
        <time>2018-04-07T09:10:22Z</time>
      </trkpt>
      <trkpt lat="45.9011" lon="4.77665">
        <ele>183</ele>
        <time>2018-04-07T09:10:23Z</time>
      </trkpt>
      <trkpt lat="45.90101" lon="4.77666">
        <ele>183</ele>
        <time>2018-04-07T09:10:25Z</time>
      </trkpt>
      <trkpt lat="45.90096" lon="4.77665">
        <ele>183</ele>
        <time>2018-04-07T09:10:26Z</time>
      </trkpt>
      <trkpt lat="45.90091" lon="4.77666">
        <ele>183</ele>
        <time>2018-04-07T09:10:27Z</time>
      </trkpt>
      <trkpt lat="45.90086" lon="4.77666">
        <ele>183</ele>
        <time>2018-04-07T09:10:28Z</time>
      </trkpt>
      <trkpt lat="45.90078" lon="4.77665">
        <ele>183</ele>
        <time>2018-04-07T09:10:30Z</time>
      </trkpt>
      <trkpt lat="45.90073" lon="4.77665">
        <ele>183</ele>
        <time>2018-04-07T09:10:31Z</time>
      </trkpt>
      <trkpt lat="45.90064" lon="4.77662">
        <ele>183</ele>
        <time>2018-04-07T09:10:33Z</time>
      </trkpt>
      <trkpt lat="45.9006" lon="4.77662">
        <ele>183</ele>
        <time>2018-04-07T09:10:34Z</time>
      </trkpt>
      <trkpt lat="45.90054" lon="4.77662">
        <ele>183</ele>
        <time>2018-04-07T09:10:35Z</time>
      </trkpt>
      <trkpt lat="45.90049" lon="4.77661">
        <ele>184</ele>
        <time>2018-04-07T09:10:36Z</time>
      </trkpt>
      <trkpt lat="45.90045" lon="4.7766">
        <ele>184</ele>
        <time>2018-04-07T09:10:37Z</time>
      </trkpt>
      <trkpt lat="45.9004" lon="4.77661">
        <ele>184</ele>
        <time>2018-04-07T09:10:38Z</time>
      </trkpt>
      <trkpt lat="45.90035" lon="4.77661">
        <ele>184</ele>
        <time>2018-04-07T09:10:39Z</time>
      </trkpt>
      <trkpt lat="45.9003" lon="4.77662">
        <ele>184</ele>
        <time>2018-04-07T09:10:40Z</time>
      </trkpt>
      <trkpt lat="45.90022" lon="4.77663">
        <ele>184</ele>
        <time>2018-04-07T09:10:42Z</time>
      </trkpt>
      <trkpt lat="45.90018" lon="4.77663">
        <ele>185</ele>
        <time>2018-04-07T09:10:43Z</time>
      </trkpt>
      <trkpt lat="45.90012" lon="4.77662">
        <ele>185</ele>
        <time>2018-04-07T09:10:44Z</time>
      </trkpt>
      <trkpt lat="45.90008" lon="4.77662">
        <ele>185</ele>
        <time>2018-04-07T09:10:45Z</time>
      </trkpt>
      <trkpt lat="45.89999" lon="4.77662">
        <ele>186</ele>
        <time>2018-04-07T09:10:47Z</time>
      </trkpt>
      <trkpt lat="45.89995" lon="4.77662">
        <ele>186</ele>
        <time>2018-04-07T09:10:48Z</time>
      </trkpt>
      <trkpt lat="45.8999" lon="4.77662">
        <ele>185</ele>
        <time>2018-04-07T09:10:49Z</time>
      </trkpt>
      <trkpt lat="45.89986" lon="4.77661">
        <ele>185</ele>
        <time>2018-04-07T09:10:50Z</time>
      </trkpt>
      <trkpt lat="45.89977" lon="4.77661">
        <ele>185</ele>
        <time>2018-04-07T09:10:52Z</time>
      </trkpt>
      <trkpt lat="45.89973" lon="4.77663">
        <ele>185</ele>
        <time>2018-04-07T09:10:53Z</time>
      </trkpt>
      <trkpt lat="45.89964" lon="4.77662">
        <ele>185</ele>
        <time>2018-04-07T09:10:55Z</time>
      </trkpt>
      <trkpt lat="45.8996" lon="4.77661">
        <ele>185</ele>
        <time>2018-04-07T09:10:56Z</time>
      </trkpt>
      <trkpt lat="45.89951" lon="4.77659">
        <ele>185</ele>
        <time>2018-04-07T09:10:58Z</time>
      </trkpt>
      <trkpt lat="45.89947" lon="4.77659">
        <ele>185</ele>
        <time>2018-04-07T09:10:59Z</time>
      </trkpt>
      <trkpt lat="45.89938" lon="4.7766">
        <ele>186</ele>
        <time>2018-04-07T09:11:01Z</time>
      </trkpt>
      <trkpt lat="45.89934" lon="4.7766">
        <ele>186</ele>
        <time>2018-04-07T09:11:02Z</time>
      </trkpt>
      <trkpt lat="45.89925" lon="4.7766">
        <ele>186</ele>
        <time>2018-04-07T09:11:04Z</time>
      </trkpt>
      <trkpt lat="45.8992" lon="4.7766">
        <ele>186</ele>
        <time>2018-04-07T09:11:05Z</time>
      </trkpt>
      <trkpt lat="45.89912" lon="4.7766">
        <ele>187</ele>
        <time>2018-04-07T09:11:07Z</time>
      </trkpt>
      <trkpt lat="45.89908" lon="4.7766">
        <ele>186</ele>
        <time>2018-04-07T09:11:08Z</time>
      </trkpt>
      <trkpt lat="45.89899" lon="4.77661">
        <ele>186</ele>
        <time>2018-04-07T09:11:10Z</time>
      </trkpt>
      <trkpt lat="45.89895" lon="4.77661">
        <ele>186</ele>
        <time>2018-04-07T09:11:11Z</time>
      </trkpt>
      <trkpt lat="45.89887" lon="4.77662">
        <ele>186</ele>
        <time>2018-04-07T09:11:13Z</time>
      </trkpt>
      <trkpt lat="45.89883" lon="4.77662">
        <ele>186</ele>
        <time>2018-04-07T09:11:14Z</time>
      </trkpt>
      <trkpt lat="45.89875" lon="4.77662">
        <ele>186</ele>
        <time>2018-04-07T09:11:16Z</time>
      </trkpt>
      <trkpt lat="45.89871" lon="4.77662">
        <ele>186</ele>
        <time>2018-04-07T09:11:17Z</time>
      </trkpt>
      <trkpt lat="45.89865" lon="4.77661">
        <ele>186</ele>
        <time>2018-04-07T09:11:20Z</time>
      </trkpt>
      <trkpt lat="45.89862" lon="4.77661">
        <ele>187</ele>
        <time>2018-04-07T09:11:21Z</time>
      </trkpt>
      <trkpt lat="45.89853" lon="4.77661">
        <ele>187</ele>
        <time>2018-04-07T09:11:24Z</time>
      </trkpt>
      <trkpt lat="45.8985" lon="4.77661">
        <ele>187</ele>
        <time>2018-04-07T09:11:25Z</time>
      </trkpt>
      <trkpt lat="45.89844" lon="4.7766">
        <ele>187</ele>
        <time>2018-04-07T09:11:27Z</time>
      </trkpt>
      <trkpt lat="45.89841" lon="4.7766">
        <ele>188</ele>
        <time>2018-04-07T09:11:28Z</time>
      </trkpt>
      <trkpt lat="45.89835" lon="4.7766">
        <ele>188</ele>
        <time>2018-04-07T09:11:30Z</time>
      </trkpt>
      <trkpt lat="45.89827" lon="4.77659">
        <ele>189</ele>
        <time>2018-04-07T09:11:31Z</time>
      </trkpt>
      <trkpt lat="45.89819" lon="4.77659">
        <ele>188</ele>
        <time>2018-04-07T09:11:35Z</time>
      </trkpt>
      <trkpt lat="45.89817" lon="4.77659">
        <ele>188</ele>
        <time>2018-04-07T09:11:36Z</time>
      </trkpt>
      <trkpt lat="45.89809" lon="4.77659">
        <ele>188</ele>
        <time>2018-04-07T09:11:39Z</time>
      </trkpt>
      <trkpt lat="45.89806" lon="4.77658">
        <ele>188</ele>
        <time>2018-04-07T09:11:40Z</time>
      </trkpt>
      <trkpt lat="45.89799" lon="4.77658">
        <ele>189</ele>
        <time>2018-04-07T09:11:43Z</time>
      </trkpt>
      <trkpt lat="45.89796" lon="4.77658">
        <ele>189</ele>
        <time>2018-04-07T09:11:44Z</time>
      </trkpt>
      <trkpt lat="45.89789" lon="4.77658">
        <ele>189</ele>
        <time>2018-04-07T09:11:47Z</time>
      </trkpt>
      <trkpt lat="45.89786" lon="4.77658">
        <ele>189</ele>
        <time>2018-04-07T09:11:48Z</time>
      </trkpt>
      <trkpt lat="45.89779" lon="4.77658">
        <ele>189</ele>
        <time>2018-04-07T09:11:51Z</time>
      </trkpt>
      <trkpt lat="45.89776" lon="4.77658">
        <ele>189</ele>
        <time>2018-04-07T09:11:52Z</time>
      </trkpt>
      <trkpt lat="45.89768" lon="4.77657">
        <ele>190</ele>
        <time>2018-04-07T09:11:55Z</time>
      </trkpt>
      <trkpt lat="45.89758" lon="4.77655">
        <ele>190</ele>
        <time>2018-04-07T09:11:56Z</time>
      </trkpt>
      <trkpt lat="45.89751" lon="4.77654">
        <ele>190</ele>
        <time>2018-04-07T09:11:59Z</time>
      </trkpt>
      <trkpt lat="45.89748" lon="4.77653">
        <ele>191</ele>
        <time>2018-04-07T09:12:00Z</time>
      </trkpt>
      <trkpt lat="45.8974" lon="4.77652">
        <ele>191</ele>
        <time>2018-04-07T09:12:01Z</time>
      </trkpt>
      <trkpt lat="45.89736" lon="4.77652">
        <ele>191</ele>
        <time>2018-04-07T09:12:02Z</time>
      </trkpt>
      <trkpt lat="45.89728" lon="4.77652">
        <ele>190</ele>
        <time>2018-04-07T09:12:04Z</time>
      </trkpt>
      <trkpt lat="45.89724" lon="4.77651">
        <ele>190</ele>
        <time>2018-04-07T09:12:05Z</time>
      </trkpt>
      <trkpt lat="45.89716" lon="4.7765">
        <ele>190</ele>
        <time>2018-04-07T09:12:07Z</time>
      </trkpt>
      <trkpt lat="45.89714" lon="4.77649">
        <ele>190</ele>
        <time>2018-04-07T09:12:08Z</time>
      </trkpt>
      <trkpt lat="45.89709" lon="4.77648">
        <ele>190</ele>
        <time>2018-04-07T09:12:09Z</time>
      </trkpt>
      <trkpt lat="45.89705" lon="4.77647">
        <ele>190</ele>
        <time>2018-04-07T09:12:10Z</time>
      </trkpt>
      <trkpt lat="45.89697" lon="4.77647">
        <ele>190</ele>
        <time>2018-04-07T09:12:12Z</time>
      </trkpt>
      <trkpt lat="45.89694" lon="4.77646">
        <ele>190</ele>
        <time>2018-04-07T09:12:13Z</time>
      </trkpt>
      <trkpt lat="45.89686" lon="4.77645">
        <ele>190</ele>
        <time>2018-04-07T09:12:15Z</time>
      </trkpt>
      <trkpt lat="45.89683" lon="4.77644">
        <ele>190</ele>
        <time>2018-04-07T09:12:16Z</time>
      </trkpt>
      <trkpt lat="45.89675" lon="4.77643">
        <ele>190</ele>
        <time>2018-04-07T09:12:18Z</time>
      </trkpt>
      <trkpt lat="45.89671" lon="4.77641">
        <ele>190</ele>
        <time>2018-04-07T09:12:19Z</time>
      </trkpt>
      <trkpt lat="45.89664" lon="4.7764">
        <ele>190</ele>
        <time>2018-04-07T09:12:21Z</time>
      </trkpt>
      <trkpt lat="45.8966" lon="4.77639">
        <ele>190</ele>
        <time>2018-04-07T09:12:22Z</time>
      </trkpt>
      <trkpt lat="45.89652" lon="4.77638">
        <ele>190</ele>
        <time>2018-04-07T09:12:24Z</time>
      </trkpt>
      <trkpt lat="45.89648" lon="4.77638">
        <ele>190</ele>
        <time>2018-04-07T09:12:25Z</time>
      </trkpt>
      <trkpt lat="45.8964" lon="4.77636">
        <ele>190</ele>
        <time>2018-04-07T09:12:28Z</time>
      </trkpt>
      <trkpt lat="45.89637" lon="4.77635">
        <ele>190</ele>
        <time>2018-04-07T09:12:29Z</time>
      </trkpt>
      <trkpt lat="45.89635" lon="4.77635">
        <ele>190</ele>
        <time>2018-04-07T09:12:30Z</time>
      </trkpt>
      <trkpt lat="45.89626" lon="4.77632">
        <ele>191</ele>
        <time>2018-04-07T09:12:31Z</time>
      </trkpt>
      <trkpt lat="45.8962" lon="4.77631">
        <ele>191</ele>
        <time>2018-04-07T09:12:33Z</time>
      </trkpt>
      <trkpt lat="45.89615" lon="4.7763">
        <ele>191</ele>
        <time>2018-04-07T09:12:34Z</time>
      </trkpt>
      <trkpt lat="45.89607" lon="4.77629">
        <ele>191</ele>
        <time>2018-04-07T09:12:36Z</time>
      </trkpt>
      <trkpt lat="45.89603" lon="4.77628">
        <ele>191</ele>
        <time>2018-04-07T09:12:37Z</time>
      </trkpt>
      <trkpt lat="45.89596" lon="4.77627">
        <ele>191</ele>
        <time>2018-04-07T09:12:39Z</time>
      </trkpt>
      <trkpt lat="45.89592" lon="4.77626">
        <ele>191</ele>
        <time>2018-04-07T09:12:40Z</time>
      </trkpt>
      <trkpt lat="45.89584" lon="4.77625">
        <ele>191</ele>
        <time>2018-04-07T09:12:42Z</time>
      </trkpt>
      <trkpt lat="45.89581" lon="4.77625">
        <ele>192</ele>
        <time>2018-04-07T09:12:43Z</time>
      </trkpt>
      <trkpt lat="45.89573" lon="4.77624">
        <ele>192</ele>
        <time>2018-04-07T09:12:45Z</time>
      </trkpt>
      <trkpt lat="45.89569" lon="4.77623">
        <ele>192</ele>
        <time>2018-04-07T09:12:46Z</time>
      </trkpt>
      <trkpt lat="45.89562" lon="4.77622">
        <ele>192</ele>
        <time>2018-04-07T09:12:48Z</time>
      </trkpt>
      <trkpt lat="45.89558" lon="4.77621">
        <ele>192</ele>
        <time>2018-04-07T09:12:49Z</time>
      </trkpt>
      <trkpt lat="45.89549" lon="4.77619">
        <ele>192</ele>
        <time>2018-04-07T09:12:51Z</time>
      </trkpt>
      <trkpt lat="45.89545" lon="4.77618">
        <ele>192</ele>
        <time>2018-04-07T09:12:52Z</time>
      </trkpt>
      <trkpt lat="45.89538" lon="4.77617">
        <ele>192</ele>
        <time>2018-04-07T09:12:54Z</time>
      </trkpt>
      <trkpt lat="45.89534" lon="4.77616">
        <ele>192</ele>
        <time>2018-04-07T09:12:55Z</time>
      </trkpt>
      <trkpt lat="45.89526" lon="4.77615">
        <ele>192</ele>
        <time>2018-04-07T09:12:57Z</time>
      </trkpt>
      <trkpt lat="45.89522" lon="4.77614">
        <ele>192</ele>
        <time>2018-04-07T09:12:58Z</time>
      </trkpt>
      <trkpt lat="45.89514" lon="4.77613">
        <ele>192</ele>
        <time>2018-04-07T09:13:00Z</time>
      </trkpt>
      <trkpt lat="45.8951" lon="4.77612">
        <ele>192</ele>
        <time>2018-04-07T09:13:01Z</time>
      </trkpt>
      <trkpt lat="45.89501" lon="4.7761">
        <ele>192</ele>
        <time>2018-04-07T09:13:03Z</time>
      </trkpt>
      <trkpt lat="45.89497" lon="4.77609">
        <ele>193</ele>
        <time>2018-04-07T09:13:04Z</time>
      </trkpt>
      <trkpt lat="45.89488" lon="4.77607">
        <ele>193</ele>
        <time>2018-04-07T09:13:06Z</time>
      </trkpt>
      <trkpt lat="45.89484" lon="4.77606">
        <ele>193</ele>
        <time>2018-04-07T09:13:07Z</time>
      </trkpt>
      <trkpt lat="45.89476" lon="4.77604">
        <ele>193</ele>
        <time>2018-04-07T09:13:09Z</time>
      </trkpt>
      <trkpt lat="45.89472" lon="4.77602">
        <ele>193</ele>
        <time>2018-04-07T09:13:10Z</time>
      </trkpt>
      <trkpt lat="45.89464" lon="4.77599">
        <ele>193</ele>
        <time>2018-04-07T09:13:12Z</time>
      </trkpt>
      <trkpt lat="45.89461" lon="4.77598">
        <ele>193</ele>
        <time>2018-04-07T09:13:13Z</time>
      </trkpt>
      <trkpt lat="45.89452" lon="4.77594">
        <ele>193</ele>
        <time>2018-04-07T09:13:15Z</time>
      </trkpt>
      <trkpt lat="45.89448" lon="4.77593">
        <ele>193</ele>
        <time>2018-04-07T09:13:16Z</time>
      </trkpt>
      <trkpt lat="45.89441" lon="4.7759">
        <ele>193</ele>
        <time>2018-04-07T09:13:18Z</time>
      </trkpt>
      <trkpt lat="45.89437" lon="4.77588">
        <ele>193</ele>
        <time>2018-04-07T09:13:19Z</time>
      </trkpt>
      <trkpt lat="45.8943" lon="4.77584">
        <ele>194</ele>
        <time>2018-04-07T09:13:21Z</time>
      </trkpt>
      <trkpt lat="45.89426" lon="4.77583">
        <ele>194</ele>
        <time>2018-04-07T09:13:22Z</time>
      </trkpt>
      <trkpt lat="45.89418" lon="4.77579">
        <ele>194</ele>
        <time>2018-04-07T09:13:24Z</time>
      </trkpt>
      <trkpt lat="45.89414" lon="4.77577">
        <ele>194</ele>
        <time>2018-04-07T09:13:25Z</time>
      </trkpt>
      <trkpt lat="45.89407" lon="4.77574">
        <ele>194</ele>
        <time>2018-04-07T09:13:27Z</time>
      </trkpt>
      <trkpt lat="45.89403" lon="4.77573">
        <ele>194</ele>
        <time>2018-04-07T09:13:28Z</time>
      </trkpt>
      <trkpt lat="45.89397" lon="4.7757">
        <ele>194</ele>
        <time>2018-04-07T09:13:30Z</time>
      </trkpt>
      <trkpt lat="45.89393" lon="4.77568">
        <ele>194</ele>
        <time>2018-04-07T09:13:31Z</time>
      </trkpt>
      <trkpt lat="45.89386" lon="4.77565">
        <ele>194</ele>
        <time>2018-04-07T09:13:33Z</time>
      </trkpt>
      <trkpt lat="45.89382" lon="4.77563">
        <ele>194</ele>
        <time>2018-04-07T09:13:34Z</time>
      </trkpt>
      <trkpt lat="45.89374" lon="4.7756">
        <ele>194</ele>
        <time>2018-04-07T09:13:36Z</time>
      </trkpt>
      <trkpt lat="45.8937" lon="4.77559">
        <ele>194</ele>
        <time>2018-04-07T09:13:37Z</time>
      </trkpt>
      <trkpt lat="45.89362" lon="4.77555">
        <ele>194</ele>
        <time>2018-04-07T09:13:39Z</time>
      </trkpt>
      <trkpt lat="45.89358" lon="4.77554">
        <ele>194</ele>
        <time>2018-04-07T09:13:40Z</time>
      </trkpt>
      <trkpt lat="45.8935" lon="4.7755">
        <ele>194</ele>
        <time>2018-04-07T09:13:42Z</time>
      </trkpt>
      <trkpt lat="45.89346" lon="4.77549">
        <ele>194</ele>
        <time>2018-04-07T09:13:43Z</time>
      </trkpt>
      <trkpt lat="45.89338" lon="4.77545">
        <ele>194</ele>
        <time>2018-04-07T09:13:45Z</time>
      </trkpt>
      <trkpt lat="45.89334" lon="4.77544">
        <ele>194</ele>
        <time>2018-04-07T09:13:46Z</time>
      </trkpt>
      <trkpt lat="45.89325" lon="4.77541">
        <ele>194</ele>
        <time>2018-04-07T09:13:48Z</time>
      </trkpt>
      <trkpt lat="45.89321" lon="4.77539">
        <ele>194</ele>
        <time>2018-04-07T09:13:49Z</time>
      </trkpt>
      <trkpt lat="45.89313" lon="4.77535">
        <ele>194</ele>
        <time>2018-04-07T09:13:51Z</time>
      </trkpt>
      <trkpt lat="45.89312" lon="4.77534">
        <ele>194</ele>
        <time>2018-04-07T09:13:52Z</time>
      </trkpt>
      <trkpt lat="45.89307" lon="4.77532">
        <ele>194</ele>
        <time>2018-04-07T09:13:53Z</time>
      </trkpt>
      <trkpt lat="45.89303" lon="4.77531">
        <ele>194</ele>
        <time>2018-04-07T09:13:54Z</time>
      </trkpt>
      <trkpt lat="45.89295" lon="4.77529">
        <ele>194</ele>
        <time>2018-04-07T09:13:56Z</time>
      </trkpt>
      <trkpt lat="45.89291" lon="4.77527">
        <ele>193</ele>
        <time>2018-04-07T09:13:57Z</time>
      </trkpt>
      <trkpt lat="45.89284" lon="4.77525">
        <ele>193</ele>
        <time>2018-04-07T09:13:59Z</time>
      </trkpt>
      <trkpt lat="45.89281" lon="4.77524">
        <ele>193</ele>
        <time>2018-04-07T09:14:00Z</time>
      </trkpt>
      <trkpt lat="45.89275" lon="4.77522">
        <ele>193</ele>
        <time>2018-04-07T09:14:02Z</time>
      </trkpt>
      <trkpt lat="45.8927" lon="4.77521">
        <ele>193</ele>
        <time>2018-04-07T09:14:03Z</time>
      </trkpt>
      <trkpt lat="45.89265" lon="4.7752">
        <ele>193</ele>
        <time>2018-04-07T09:14:04Z</time>
      </trkpt>
      <trkpt lat="45.89261" lon="4.7752">
        <ele>193</ele>
        <time>2018-04-07T09:14:05Z</time>
      </trkpt>
      <trkpt lat="45.89253" lon="4.7752">
        <ele>193</ele>
        <time>2018-04-07T09:14:07Z</time>
      </trkpt>
      <trkpt lat="45.89249" lon="4.7752">
        <ele>193</ele>
        <time>2018-04-07T09:14:08Z</time>
      </trkpt>
      <trkpt lat="45.89241" lon="4.77521">
        <ele>193</ele>
        <time>2018-04-07T09:14:10Z</time>
      </trkpt>
      <trkpt lat="45.89237" lon="4.77522">
        <ele>193</ele>
        <time>2018-04-07T09:14:11Z</time>
      </trkpt>
      <trkpt lat="45.8923" lon="4.77523">
        <ele>194</ele>
        <time>2018-04-07T09:14:13Z</time>
      </trkpt>
      <trkpt lat="45.89226" lon="4.77524">
        <ele>194</ele>
        <time>2018-04-07T09:14:14Z</time>
      </trkpt>
      <trkpt lat="45.89218" lon="4.77527">
        <ele>194</ele>
        <time>2018-04-07T09:14:16Z</time>
      </trkpt>
      <trkpt lat="45.89216" lon="4.77527">
        <ele>194</ele>
        <time>2018-04-07T09:14:17Z</time>
      </trkpt>
      <trkpt lat="45.89207" lon="4.7753">
        <ele>194</ele>
        <time>2018-04-07T09:14:19Z</time>
      </trkpt>
      <trkpt lat="45.89203" lon="4.77531">
        <ele>194</ele>
        <time>2018-04-07T09:14:20Z</time>
      </trkpt>
      <trkpt lat="45.89195" lon="4.77532">
        <ele>194</ele>
        <time>2018-04-07T09:14:22Z</time>
      </trkpt>
      <trkpt lat="45.89191" lon="4.77533">
        <ele>194</ele>
        <time>2018-04-07T09:14:23Z</time>
      </trkpt>
      <trkpt lat="45.89186" lon="4.77534">
        <ele>194</ele>
        <time>2018-04-07T09:14:24Z</time>
      </trkpt>
      <trkpt lat="45.89182" lon="4.77535">
        <ele>194</ele>
        <time>2018-04-07T09:14:25Z</time>
      </trkpt>
      <trkpt lat="45.89173" lon="4.77537">
        <ele>194</ele>
        <time>2018-04-07T09:14:27Z</time>
      </trkpt>
      <trkpt lat="45.8917" lon="4.77538">
        <ele>194</ele>
        <time>2018-04-07T09:14:28Z</time>
      </trkpt>
      <trkpt lat="45.89163" lon="4.7754">
        <ele>195</ele>
        <time>2018-04-07T09:14:30Z</time>
      </trkpt>
      <trkpt lat="45.89159" lon="4.77541">
        <ele>195</ele>
        <time>2018-04-07T09:14:31Z</time>
      </trkpt>
      <trkpt lat="45.89152" lon="4.77543">
        <ele>195</ele>
        <time>2018-04-07T09:14:34Z</time>
      </trkpt>
      <trkpt lat="45.89149" lon="4.77544">
        <ele>195</ele>
        <time>2018-04-07T09:14:35Z</time>
      </trkpt>
      <trkpt lat="45.89141" lon="4.77547">
        <ele>195</ele>
        <time>2018-04-07T09:14:38Z</time>
      </trkpt>
      <trkpt lat="45.89138" lon="4.77548">
        <ele>195</ele>
        <time>2018-04-07T09:14:39Z</time>
      </trkpt>
      <trkpt lat="45.89132" lon="4.77549">
        <ele>195</ele>
        <time>2018-04-07T09:14:41Z</time>
      </trkpt>
      <trkpt lat="45.89129" lon="4.7755">
        <ele>195</ele>
        <time>2018-04-07T09:14:42Z</time>
      </trkpt>
      <trkpt lat="45.89122" lon="4.77552">
        <ele>195</ele>
        <time>2018-04-07T09:14:44Z</time>
      </trkpt>
      <trkpt lat="45.89119" lon="4.77553">
        <ele>195</ele>
        <time>2018-04-07T09:14:45Z</time>
      </trkpt>
      <trkpt lat="45.89116" lon="4.77554">
        <ele>195</ele>
        <time>2018-04-07T09:14:46Z</time>
      </trkpt>
      <trkpt lat="45.89107" lon="4.77558">
        <ele>195</ele>
        <time>2018-04-07T09:14:47Z</time>
      </trkpt>
      <trkpt lat="45.89098" lon="4.77563">
        <ele>196</ele>
        <time>2018-04-07T09:14:50Z</time>
      </trkpt>
      <trkpt lat="45.89094" lon="4.77567">
        <ele>196</ele>
        <time>2018-04-07T09:14:51Z</time>
      </trkpt>
      <trkpt lat="45.89089" lon="4.77571">
        <ele>196</ele>
        <time>2018-04-07T09:14:53Z</time>
      </trkpt>
      <trkpt lat="45.89085" lon="4.77574">
        <ele>196</ele>
        <time>2018-04-07T09:14:54Z</time>
      </trkpt>
      <trkpt lat="45.89077" lon="4.77581">
        <ele>196</ele>
        <time>2018-04-07T09:14:57Z</time>
      </trkpt>
      <trkpt lat="45.89075" lon="4.77583">
        <ele>196</ele>
        <time>2018-04-07T09:14:58Z</time>
      </trkpt>
      <trkpt lat="45.89073" lon="4.77585">
        <ele>196</ele>
        <time>2018-04-07T09:14:59Z</time>
      </trkpt>
      <trkpt lat="45.89067" lon="4.7759">
        <ele>196</ele>
        <time>2018-04-07T09:15:00Z</time>
      </trkpt>
      <trkpt lat="45.89063" lon="4.77594">
        <ele>196</ele>
        <time>2018-04-07T09:15:02Z</time>
      </trkpt>
      <trkpt lat="45.89057" lon="4.77598">
        <ele>197</ele>
        <time>2018-04-07T09:15:03Z</time>
      </trkpt>
      <trkpt lat="45.89051" lon="4.77603">
        <ele>197</ele>
        <time>2018-04-07T09:15:06Z</time>
      </trkpt>
      <trkpt lat="45.89049" lon="4.77604">
        <ele>197</ele>
        <time>2018-04-07T09:15:07Z</time>
      </trkpt>
      <trkpt lat="45.89044" lon="4.77609">
        <ele>197</ele>
        <time>2018-04-07T09:15:09Z</time>
      </trkpt>
      <trkpt lat="45.89041" lon="4.77611">
        <ele>197</ele>
        <time>2018-04-07T09:15:10Z</time>
      </trkpt>
      <trkpt lat="45.89035" lon="4.77617">
        <ele>197</ele>
        <time>2018-04-07T09:15:12Z</time>
      </trkpt>
      <trkpt lat="45.89032" lon="4.77619">
        <ele>197</ele>
        <time>2018-04-07T09:15:13Z</time>
      </trkpt>
      <trkpt lat="45.89027" lon="4.77625">
        <ele>197</ele>
        <time>2018-04-07T09:15:15Z</time>
      </trkpt>
      <trkpt lat="45.89024" lon="4.77627">
        <ele>197</ele>
        <time>2018-04-07T09:15:16Z</time>
      </trkpt>
      <trkpt lat="45.89018" lon="4.77632">
        <ele>197</ele>
        <time>2018-04-07T09:15:18Z</time>
      </trkpt>
      <trkpt lat="45.89015" lon="4.77635">
        <ele>197</ele>
        <time>2018-04-07T09:15:19Z</time>
      </trkpt>
      <trkpt lat="45.8901" lon="4.7764">
        <ele>197</ele>
        <time>2018-04-07T09:15:21Z</time>
      </trkpt>
      <trkpt lat="45.89007" lon="4.77642">
        <ele>197</ele>
        <time>2018-04-07T09:15:22Z</time>
      </trkpt>
      <trkpt lat="45.89001" lon="4.77647">
        <ele>197</ele>
        <time>2018-04-07T09:15:24Z</time>
      </trkpt>
      <trkpt lat="45.88998" lon="4.77649">
        <ele>198</ele>
        <time>2018-04-07T09:15:25Z</time>
      </trkpt>
      <trkpt lat="45.88992" lon="4.77654">
        <ele>198</ele>
        <time>2018-04-07T09:15:27Z</time>
      </trkpt>
      <trkpt lat="45.8899" lon="4.77656">
        <ele>198</ele>
        <time>2018-04-07T09:15:28Z</time>
      </trkpt>
      <trkpt lat="45.88984" lon="4.77661">
        <ele>198</ele>
        <time>2018-04-07T09:15:30Z</time>
      </trkpt>
      <trkpt lat="45.88981" lon="4.77663">
        <ele>198</ele>
        <time>2018-04-07T09:15:31Z</time>
      </trkpt>
      <trkpt lat="45.88975" lon="4.77668">
        <ele>198</ele>
        <time>2018-04-07T09:15:33Z</time>
      </trkpt>
      <trkpt lat="45.88972" lon="4.7767">
        <ele>198</ele>
        <time>2018-04-07T09:15:34Z</time>
      </trkpt>
      <trkpt lat="45.88965" lon="4.77674">
        <ele>198</ele>
        <time>2018-04-07T09:15:36Z</time>
      </trkpt>
      <trkpt lat="45.88962" lon="4.77675">
        <ele>198</ele>
        <time>2018-04-07T09:15:37Z</time>
      </trkpt>
      <trkpt lat="45.88955" lon="4.77679">
        <ele>199</ele>
        <time>2018-04-07T09:15:39Z</time>
      </trkpt>
      <trkpt lat="45.88952" lon="4.7768">
        <ele>199</ele>
        <time>2018-04-07T09:15:40Z</time>
      </trkpt>
      <trkpt lat="45.88945" lon="4.77683">
        <ele>199</ele>
        <time>2018-04-07T09:15:42Z</time>
      </trkpt>
      <trkpt lat="45.88942" lon="4.77685">
        <ele>199</ele>
        <time>2018-04-07T09:15:43Z</time>
      </trkpt>
      <trkpt lat="45.88936" lon="4.77687">
        <ele>199</ele>
        <time>2018-04-07T09:15:45Z</time>
      </trkpt>
      <trkpt lat="45.88933" lon="4.77688">
        <ele>199</ele>
        <time>2018-04-07T09:15:46Z</time>
      </trkpt>
      <trkpt lat="45.88926" lon="4.7769">
        <ele>199</ele>
        <time>2018-04-07T09:15:48Z</time>
      </trkpt>
      <trkpt lat="45.88923" lon="4.77691">
        <ele>199</ele>
        <time>2018-04-07T09:15:49Z</time>
      </trkpt>
      <trkpt lat="45.88916" lon="4.77692">
        <ele>200</ele>
        <time>2018-04-07T09:15:51Z</time>
      </trkpt>
      <trkpt lat="45.88912" lon="4.77693">
        <ele>200</ele>
        <time>2018-04-07T09:15:52Z</time>
      </trkpt>
      <trkpt lat="45.88906" lon="4.77694">
        <ele>200</ele>
        <time>2018-04-07T09:15:54Z</time>
      </trkpt>
      <trkpt lat="45.88903" lon="4.77695">
        <ele>200</ele>
        <time>2018-04-07T09:15:55Z</time>
      </trkpt>
      <trkpt lat="45.88897" lon="4.77696">
        <ele>200</ele>
        <time>2018-04-07T09:15:57Z</time>
      </trkpt>
      <trkpt lat="45.88894" lon="4.77697">
        <ele>200</ele>
        <time>2018-04-07T09:15:58Z</time>
      </trkpt>
      <trkpt lat="45.88885" lon="4.77698">
        <ele>200</ele>
        <time>2018-04-07T09:16:01Z</time>
      </trkpt>
      <trkpt lat="45.88882" lon="4.77698">
        <ele>200</ele>
        <time>2018-04-07T09:16:02Z</time>
      </trkpt>
      <trkpt lat="45.88874" lon="4.77698">
        <ele>201</ele>
        <time>2018-04-07T09:16:05Z</time>
      </trkpt>
      <trkpt lat="45.88871" lon="4.77699">
        <ele>201</ele>
        <time>2018-04-07T09:16:06Z</time>
      </trkpt>
      <trkpt lat="45.88862" lon="4.77699">
        <ele>201</ele>
        <time>2018-04-07T09:16:09Z</time>
      </trkpt>
      <trkpt lat="45.88859" lon="4.77699">
        <ele>201</ele>
        <time>2018-04-07T09:16:10Z</time>
      </trkpt>
      <trkpt lat="45.88851" lon="4.777">
        <ele>201</ele>
        <time>2018-04-07T09:16:13Z</time>
      </trkpt>
      <trkpt lat="45.88848" lon="4.777">
        <ele>201</ele>
        <time>2018-04-07T09:16:14Z</time>
      </trkpt>
      <trkpt lat="45.88839" lon="4.77701">
        <ele>201</ele>
        <time>2018-04-07T09:16:17Z</time>
      </trkpt>
      <trkpt lat="45.88836" lon="4.77701">
        <ele>201</ele>
        <time>2018-04-07T09:16:18Z</time>
      </trkpt>
      <trkpt lat="45.8883" lon="4.77701">
        <ele>201</ele>
        <time>2018-04-07T09:16:20Z</time>
      </trkpt>
      <trkpt lat="45.88827" lon="4.77701">
        <ele>201</ele>
        <time>2018-04-07T09:16:21Z</time>
      </trkpt>
      <trkpt lat="45.8882" lon="4.77702">
        <ele>202</ele>
        <time>2018-04-07T09:16:23Z</time>
      </trkpt>
      <trkpt lat="45.88817" lon="4.77702">
        <ele>202</ele>
        <time>2018-04-07T09:16:24Z</time>
      </trkpt>
      <trkpt lat="45.88811" lon="4.77703">
        <ele>202</ele>
        <time>2018-04-07T09:16:26Z</time>
      </trkpt>
      <trkpt lat="45.88808" lon="4.77703">
        <ele>202</ele>
        <time>2018-04-07T09:16:27Z</time>
      </trkpt>
      <trkpt lat="45.88801" lon="4.77703">
        <ele>202</ele>
        <time>2018-04-07T09:16:29Z</time>
      </trkpt>
      <trkpt lat="45.88798" lon="4.77704">
        <ele>202</ele>
        <time>2018-04-07T09:16:30Z</time>
      </trkpt>
      <trkpt lat="45.88791" lon="4.77704">
        <ele>202</ele>
        <time>2018-04-07T09:16:32Z</time>
      </trkpt>
      <trkpt lat="45.88788" lon="4.77704">
        <ele>202</ele>
        <time>2018-04-07T09:16:33Z</time>
      </trkpt>
      <trkpt lat="45.88781" lon="4.77705">
        <ele>202</ele>
        <time>2018-04-07T09:16:35Z</time>
      </trkpt>
      <trkpt lat="45.88778" lon="4.77706">
        <ele>202</ele>
        <time>2018-04-07T09:16:36Z</time>
      </trkpt>
      <trkpt lat="45.88771" lon="4.77706">
        <ele>202</ele>
        <time>2018-04-07T09:16:38Z</time>
      </trkpt>
      <trkpt lat="45.88768" lon="4.77707">
        <ele>202</ele>
        <time>2018-04-07T09:16:39Z</time>
      </trkpt>
      <trkpt lat="45.88761" lon="4.77707">
        <ele>202</ele>
        <time>2018-04-07T09:16:41Z</time>
      </trkpt>
      <trkpt lat="45.88758" lon="4.77707">
        <ele>202</ele>
        <time>2018-04-07T09:16:42Z</time>
      </trkpt>
      <trkpt lat="45.88752" lon="4.77708">
        <ele>202</ele>
        <time>2018-04-07T09:16:44Z</time>
      </trkpt>
      <trkpt lat="45.88748" lon="4.77708">
        <ele>202</ele>
        <time>2018-04-07T09:16:45Z</time>
      </trkpt>
      <trkpt lat="45.88741" lon="4.77709">
        <ele>203</ele>
        <time>2018-04-07T09:16:47Z</time>
      </trkpt>
      <trkpt lat="45.88738" lon="4.7771">
        <ele>203</ele>
        <time>2018-04-07T09:16:48Z</time>
      </trkpt>
      <trkpt lat="45.88732" lon="4.7771">
        <ele>203</ele>
        <time>2018-04-07T09:16:50Z</time>
      </trkpt>
      <trkpt lat="45.88728" lon="4.77711">
        <ele>203</ele>
        <time>2018-04-07T09:16:51Z</time>
      </trkpt>
      <trkpt lat="45.88722" lon="4.77711">
        <ele>203</ele>
        <time>2018-04-07T09:16:53Z</time>
      </trkpt>
      <trkpt lat="45.88718" lon="4.77711">
        <ele>203</ele>
        <time>2018-04-07T09:16:54Z</time>
      </trkpt>
      <trkpt lat="45.88708" lon="4.77712">
        <ele>203</ele>
        <time>2018-04-07T09:16:55Z</time>
      </trkpt>
      <trkpt lat="45.887" lon="4.77712">
        <ele>203</ele>
        <time>2018-04-07T09:16:57Z</time>
      </trkpt>
      <trkpt lat="45.88696" lon="4.77712">
        <ele>203</ele>
        <time>2018-04-07T09:16:58Z</time>
      </trkpt>
      <trkpt lat="45.88687" lon="4.77712">
        <ele>203</ele>
        <time>2018-04-07T09:17:00Z</time>
      </trkpt>
      <trkpt lat="45.88683" lon="4.77712">
        <ele>203</ele>
        <time>2018-04-07T09:17:01Z</time>
      </trkpt>
      <trkpt lat="45.88675" lon="4.77712">
        <ele>203</ele>
        <time>2018-04-07T09:17:03Z</time>
      </trkpt>
      <trkpt lat="45.88671" lon="4.77712">
        <ele>203</ele>
        <time>2018-04-07T09:17:04Z</time>
      </trkpt>
      <trkpt lat="45.88664" lon="4.77712">
        <ele>203</ele>
        <time>2018-04-07T09:17:06Z</time>
      </trkpt>
      <trkpt lat="45.8866" lon="4.77711">
        <ele>203</ele>
        <time>2018-04-07T09:17:07Z</time>
      </trkpt>
      <trkpt lat="45.88652" lon="4.77711">
        <ele>203</ele>
        <time>2018-04-07T09:17:09Z</time>
      </trkpt>
      <trkpt lat="45.88648" lon="4.7771">
        <ele>203</ele>
        <time>2018-04-07T09:17:10Z</time>
      </trkpt>
      <trkpt lat="45.8864" lon="4.7771">
        <ele>203</ele>
        <time>2018-04-07T09:17:12Z</time>
      </trkpt>
      <trkpt lat="45.88636" lon="4.77709">
        <ele>203</ele>
        <time>2018-04-07T09:17:13Z</time>
      </trkpt>
      <trkpt lat="45.88629" lon="4.77708">
        <ele>203</ele>
        <time>2018-04-07T09:17:15Z</time>
      </trkpt>
      <trkpt lat="45.88625" lon="4.77707">
        <ele>203</ele>
        <time>2018-04-07T09:17:16Z</time>
      </trkpt>
      <trkpt lat="45.88618" lon="4.77706">
        <ele>203</ele>
        <time>2018-04-07T09:17:18Z</time>
      </trkpt>
      <trkpt lat="45.88616" lon="4.77706">
        <ele>203</ele>
        <time>2018-04-07T09:17:19Z</time>
      </trkpt>
      <trkpt lat="45.88607" lon="4.77705">
        <ele>203</ele>
        <time>2018-04-07T09:17:21Z</time>
      </trkpt>
      <trkpt lat="45.88603" lon="4.77704">
        <ele>203</ele>
        <time>2018-04-07T09:17:22Z</time>
      </trkpt>
      <trkpt lat="45.88596" lon="4.77703">
        <ele>203</ele>
        <time>2018-04-07T09:17:24Z</time>
      </trkpt>
      <trkpt lat="45.88593" lon="4.77703">
        <ele>203</ele>
        <time>2018-04-07T09:17:25Z</time>
      </trkpt>
      <trkpt lat="45.88588" lon="4.77702">
        <ele>203</ele>
        <time>2018-04-07T09:17:27Z</time>
      </trkpt>
      <trkpt lat="45.88582" lon="4.777">
        <ele>204</ele>
        <time>2018-04-07T09:17:28Z</time>
      </trkpt>
      <trkpt lat="45.88575" lon="4.77699">
        <ele>204</ele>
        <time>2018-04-07T09:17:30Z</time>
      </trkpt>
      <trkpt lat="45.88571" lon="4.77698">
        <ele>204</ele>
        <time>2018-04-07T09:17:31Z</time>
      </trkpt>
      <trkpt lat="45.88564" lon="4.77697">
        <ele>204</ele>
        <time>2018-04-07T09:17:33Z</time>
      </trkpt>
      <trkpt lat="45.8856" lon="4.77696">
        <ele>204</ele>
        <time>2018-04-07T09:17:34Z</time>
      </trkpt>
      <trkpt lat="45.88552" lon="4.77694">
        <ele>204</ele>
        <time>2018-04-07T09:17:37Z</time>
      </trkpt>
      <trkpt lat="45.8855" lon="4.77693">
        <ele>204</ele>
        <time>2018-04-07T09:17:38Z</time>
      </trkpt>
      <trkpt lat="45.88542" lon="4.77691">
        <ele>204</ele>
        <time>2018-04-07T09:17:41Z</time>
      </trkpt>
      <trkpt lat="45.88532" lon="4.77689">
        <ele>204</ele>
        <time>2018-04-07T09:17:42Z</time>
      </trkpt>
      <trkpt lat="45.88524" lon="4.77688">
        <ele>204</ele>
        <time>2018-04-07T09:17:45Z</time>
      </trkpt>
      <trkpt lat="45.88517" lon="4.77687">
        <ele>205</ele>
        <time>2018-04-07T09:17:46Z</time>
      </trkpt>
      <trkpt lat="45.8851" lon="4.77685">
        <ele>205</ele>
        <time>2018-04-07T09:17:48Z</time>
      </trkpt>
      <trkpt lat="45.88508" lon="4.77685">
        <ele>205</ele>
        <time>2018-04-07T09:17:49Z</time>
      </trkpt>
      <trkpt lat="45.88501" lon="4.77683">
        <ele>205</ele>
        <time>2018-04-07T09:17:52Z</time>
      </trkpt>
      <trkpt lat="45.88493" lon="4.77681">
        <ele>205</ele>
        <time>2018-04-07T09:17:53Z</time>
      </trkpt>
      <trkpt lat="45.88486" lon="4.7768">
        <ele>206</ele>
        <time>2018-04-07T09:17:56Z</time>
      </trkpt>
      <trkpt lat="45.88484" lon="4.77679">
        <ele>206</ele>
        <time>2018-04-07T09:17:57Z</time>
      </trkpt>
      <trkpt lat="45.88478" lon="4.77678">
        <ele>206</ele>
        <time>2018-04-07T09:17:59Z</time>
      </trkpt>
      <trkpt lat="45.88474" lon="4.77677">
        <ele>206</ele>
        <time>2018-04-07T09:18:00Z</time>
      </trkpt>
      <trkpt lat="45.88465" lon="4.77675">
        <ele>206</ele>
        <time>2018-04-07T09:18:01Z</time>
      </trkpt>
      <trkpt lat="45.88459" lon="4.77674">
        <ele>206</ele>
        <time>2018-04-07T09:18:04Z</time>
      </trkpt>
      <trkpt lat="45.88456" lon="4.77673">
        <ele>206</ele>
        <time>2018-04-07T09:18:05Z</time>
      </trkpt>
      <trkpt lat="45.88449" lon="4.77671">
        <ele>206</ele>
        <time>2018-04-07T09:18:06Z</time>
      </trkpt>
      <trkpt lat="45.88447" lon="4.7767">
        <ele>206</ele>
        <time>2018-04-07T09:18:07Z</time>
      </trkpt>
      <trkpt lat="45.88439" lon="4.77669">
        <ele>206</ele>
        <time>2018-04-07T09:18:10Z</time>
      </trkpt>
      <trkpt lat="45.88436" lon="4.77668">
        <ele>206</ele>
        <time>2018-04-07T09:18:11Z</time>
      </trkpt>
      <trkpt lat="45.8843" lon="4.77667">
        <ele>206</ele>
        <time>2018-04-07T09:18:13Z</time>
      </trkpt>
      <trkpt lat="45.88427" lon="4.77666">
        <ele>206</ele>
        <time>2018-04-07T09:18:14Z</time>
      </trkpt>
      <trkpt lat="45.88421" lon="4.77665">
        <ele>206</ele>
        <time>2018-04-07T09:18:16Z</time>
      </trkpt>
      <trkpt lat="45.88418" lon="4.77664">
        <ele>206</ele>
        <time>2018-04-07T09:18:17Z</time>
      </trkpt>
      <trkpt lat="45.88408" lon="4.77662">
        <ele>207</ele>
        <time>2018-04-07T09:18:18Z</time>
      </trkpt>
      <trkpt lat="45.88399" lon="4.7766">
        <ele>207</ele>
        <time>2018-04-07T09:18:22Z</time>
      </trkpt>
      <trkpt lat="45.88397" lon="4.77659">
        <ele>207</ele>
        <time>2018-04-07T09:18:23Z</time>
      </trkpt>
      <trkpt lat="45.88391" lon="4.77657">
        <ele>207</ele>
        <time>2018-04-07T09:18:25Z</time>
      </trkpt>
      <trkpt lat="45.88387" lon="4.77657">
        <ele>207</ele>
        <time>2018-04-07T09:18:26Z</time>
      </trkpt>
      <trkpt lat="45.88381" lon="4.77656">
        <ele>207</ele>
        <time>2018-04-07T09:18:28Z</time>
      </trkpt>
      <trkpt lat="45.88378" lon="4.77655">
        <ele>207</ele>
        <time>2018-04-07T09:18:29Z</time>
      </trkpt>
      <trkpt lat="45.88372" lon="4.77655">
        <ele>207</ele>
        <time>2018-04-07T09:18:31Z</time>
      </trkpt>
      <trkpt lat="45.88368" lon="4.77654">
        <ele>207</ele>
        <time>2018-04-07T09:18:32Z</time>
      </trkpt>
      <trkpt lat="45.8836" lon="4.77653">
        <ele>208</ele>
        <time>2018-04-07T09:18:34Z</time>
      </trkpt>
      <trkpt lat="45.88357" lon="4.77653">
        <ele>208</ele>
        <time>2018-04-07T09:18:35Z</time>
      </trkpt>
      <trkpt lat="45.8835" lon="4.77653">
        <ele>208</ele>
        <time>2018-04-07T09:18:37Z</time>
      </trkpt>
      <trkpt lat="45.88347" lon="4.77653">
        <ele>208</ele>
        <time>2018-04-07T09:18:38Z</time>
      </trkpt>
      <trkpt lat="45.8834" lon="4.77654">
        <ele>208</ele>
        <time>2018-04-07T09:18:40Z</time>
      </trkpt>
      <trkpt lat="45.88336" lon="4.77654">
        <ele>208</ele>
        <time>2018-04-07T09:18:41Z</time>
      </trkpt>
      <trkpt lat="45.88329" lon="4.77655">
        <ele>208</ele>
        <time>2018-04-07T09:18:43Z</time>
      </trkpt>
      <trkpt lat="45.88326" lon="4.77655">
        <ele>209</ele>
        <time>2018-04-07T09:18:44Z</time>
      </trkpt>
      <trkpt lat="45.88319" lon="4.77656">
        <ele>209</ele>
        <time>2018-04-07T09:18:46Z</time>
      </trkpt>
      <trkpt lat="45.88316" lon="4.77656">
        <ele>209</ele>
        <time>2018-04-07T09:18:47Z</time>
      </trkpt>
      <trkpt lat="45.88309" lon="4.77656">
        <ele>209</ele>
        <time>2018-04-07T09:18:49Z</time>
      </trkpt>
      <trkpt lat="45.88305" lon="4.77656">
        <ele>209</ele>
        <time>2018-04-07T09:18:50Z</time>
      </trkpt>
      <trkpt lat="45.88299" lon="4.77657">
        <ele>209</ele>
        <time>2018-04-07T09:18:52Z</time>
      </trkpt>
      <trkpt lat="45.88295" lon="4.77657">
        <ele>209</ele>
        <time>2018-04-07T09:18:53Z</time>
      </trkpt>
      <trkpt lat="45.88289" lon="4.77657">
        <ele>209</ele>
        <time>2018-04-07T09:18:55Z</time>
      </trkpt>
      <trkpt lat="45.88285" lon="4.77658">
        <ele>209</ele>
        <time>2018-04-07T09:18:56Z</time>
      </trkpt>
      <trkpt lat="45.88279" lon="4.77658">
        <ele>210</ele>
        <time>2018-04-07T09:18:58Z</time>
      </trkpt>
      <trkpt lat="45.88276" lon="4.77658">
        <ele>210</ele>
        <time>2018-04-07T09:18:59Z</time>
      </trkpt>
      <trkpt lat="45.88269" lon="4.77659">
        <ele>210</ele>
        <time>2018-04-07T09:19:01Z</time>
      </trkpt>
      <trkpt lat="45.88266" lon="4.77659">
        <ele>210</ele>
        <time>2018-04-07T09:19:02Z</time>
      </trkpt>
      <trkpt lat="45.88259" lon="4.7766">
        <ele>210</ele>
        <time>2018-04-07T09:19:04Z</time>
      </trkpt>
      <trkpt lat="45.88255" lon="4.7766">
        <ele>210</ele>
        <time>2018-04-07T09:19:05Z</time>
      </trkpt>
      <trkpt lat="45.88252" lon="4.7766">
        <ele>211</ele>
        <time>2018-04-07T09:19:06Z</time>
      </trkpt>
      <trkpt lat="45.88242" lon="4.7766">
        <ele>211</ele>
        <time>2018-04-07T09:19:07Z</time>
      </trkpt>
      <trkpt lat="45.88233" lon="4.77661">
        <ele>211</ele>
        <time>2018-04-07T09:19:11Z</time>
      </trkpt>
      <trkpt lat="45.8823" lon="4.77661">
        <ele>211</ele>
        <time>2018-04-07T09:19:12Z</time>
      </trkpt>
      <trkpt lat="45.88224" lon="4.77662">
        <ele>211</ele>
        <time>2018-04-07T09:19:14Z</time>
      </trkpt>
      <trkpt lat="45.88216" lon="4.77663">
        <ele>211</ele>
        <time>2018-04-07T09:19:15Z</time>
      </trkpt>
      <trkpt lat="45.88209" lon="4.77664">
        <ele>211</ele>
        <time>2018-04-07T09:19:18Z</time>
      </trkpt>
      <trkpt lat="45.88206" lon="4.77664">
        <ele>211</ele>
        <time>2018-04-07T09:19:19Z</time>
      </trkpt>
      <trkpt lat="45.88197" lon="4.77666">
        <ele>211</ele>
        <time>2018-04-07T09:19:22Z</time>
      </trkpt>
      <trkpt lat="45.88194" lon="4.77667">
        <ele>212</ele>
        <time>2018-04-07T09:19:23Z</time>
      </trkpt>
      <trkpt lat="45.88188" lon="4.77669">
        <ele>212</ele>
        <time>2018-04-07T09:19:25Z</time>
      </trkpt>
      <trkpt lat="45.88185" lon="4.7767">
        <ele>212</ele>
        <time>2018-04-07T09:19:26Z</time>
      </trkpt>
      <trkpt lat="45.88179" lon="4.77671">
        <ele>212</ele>
        <time>2018-04-07T09:19:28Z</time>
      </trkpt>
      <trkpt lat="45.88176" lon="4.77671">
        <ele>212</ele>
        <time>2018-04-07T09:19:29Z</time>
      </trkpt>
      <trkpt lat="45.88169" lon="4.77673">
        <ele>212</ele>
        <time>2018-04-07T09:19:31Z</time>
      </trkpt>
      <trkpt lat="45.88166" lon="4.77673">
        <ele>212</ele>
        <time>2018-04-07T09:19:32Z</time>
      </trkpt>
      <trkpt lat="45.88162" lon="4.77674">
        <ele>212</ele>
        <time>2018-04-07T09:19:33Z</time>
      </trkpt>
      <trkpt lat="45.88152" lon="4.77676">
        <ele>213</ele>
        <time>2018-04-07T09:19:34Z</time>
      </trkpt>
      <trkpt lat="45.88145" lon="4.77677">
        <ele>213</ele>
        <time>2018-04-07T09:19:36Z</time>
      </trkpt>
      <trkpt lat="45.88141" lon="4.77677">
        <ele>213</ele>
        <time>2018-04-07T09:19:37Z</time>
      </trkpt>
      <trkpt lat="45.88133" lon="4.77678">
        <ele>213</ele>
        <time>2018-04-07T09:19:39Z</time>
      </trkpt>
      <trkpt lat="45.88129" lon="4.77678">
        <ele>214</ele>
        <time>2018-04-07T09:19:40Z</time>
      </trkpt>
      <trkpt lat="45.88123" lon="4.77679">
        <ele>214</ele>
        <time>2018-04-07T09:19:42Z</time>
      </trkpt>
      <trkpt lat="45.88119" lon="4.7768">
        <ele>214</ele>
        <time>2018-04-07T09:19:43Z</time>
      </trkpt>
      <trkpt lat="45.88112" lon="4.77681">
        <ele>214</ele>
        <time>2018-04-07T09:19:45Z</time>
      </trkpt>
      <trkpt lat="45.88108" lon="4.77682">
        <ele>214</ele>
        <time>2018-04-07T09:19:46Z</time>
      </trkpt>
      <trkpt lat="45.88101" lon="4.77682">
        <ele>214</ele>
        <time>2018-04-07T09:19:49Z</time>
      </trkpt>
      <trkpt lat="45.88098" lon="4.77682">
        <ele>214</ele>
        <time>2018-04-07T09:19:50Z</time>
      </trkpt>
      <trkpt lat="45.88092" lon="4.77683">
        <ele>214</ele>
        <time>2018-04-07T09:19:52Z</time>
      </trkpt>
      <trkpt lat="45.88083" lon="4.77685">
        <ele>215</ele>
        <time>2018-04-07T09:19:53Z</time>
      </trkpt>
      <trkpt lat="45.88075" lon="4.77685">
        <ele>215</ele>
        <time>2018-04-07T09:19:55Z</time>
      </trkpt>
      <trkpt lat="45.88071" lon="4.77685">
        <ele>215</ele>
        <time>2018-04-07T09:19:56Z</time>
      </trkpt>
      <trkpt lat="45.88063" lon="4.77687">
        <ele>216</ele>
        <time>2018-04-07T09:19:58Z</time>
      </trkpt>
      <trkpt lat="45.8806" lon="4.77688">
        <ele>216</ele>
        <time>2018-04-07T09:19:59Z</time>
      </trkpt>
      <trkpt lat="45.88052" lon="4.7769">
        <ele>216</ele>
        <time>2018-04-07T09:20:02Z</time>
      </trkpt>
      <trkpt lat="45.8805" lon="4.77691">
        <ele>216</ele>
        <time>2018-04-07T09:20:03Z</time>
      </trkpt>
      <trkpt lat="45.88041" lon="4.77692">
        <ele>216</ele>
        <time>2018-04-07T09:20:06Z</time>
      </trkpt>
      <trkpt lat="45.88039" lon="4.77693">
        <ele>216</ele>
        <time>2018-04-07T09:20:07Z</time>
      </trkpt>
      <trkpt lat="45.88035" lon="4.77693">
        <ele>216</ele>
        <time>2018-04-07T09:20:08Z</time>
      </trkpt>
      <trkpt lat="45.88027" lon="4.77696">
        <ele>216</ele>
        <time>2018-04-07T09:20:09Z</time>
      </trkpt>
      <trkpt lat="45.88018" lon="4.77698">
        <ele>216</ele>
        <time>2018-04-07T09:20:13Z</time>
      </trkpt>
      <trkpt lat="45.88015" lon="4.77698">
        <ele>216</ele>
        <time>2018-04-07T09:20:14Z</time>
      </trkpt>
      <trkpt lat="45.88009" lon="4.77698">
        <ele>216</ele>
        <time>2018-04-07T09:20:16Z</time>
      </trkpt>
      <trkpt lat="45.88006" lon="4.77697">
        <ele>216</ele>
        <time>2018-04-07T09:20:17Z</time>
      </trkpt>
      <trkpt lat="45.87996" lon="4.77696">
        <ele>217</ele>
        <time>2018-04-07T09:20:18Z</time>
      </trkpt>
      <trkpt lat="45.87989" lon="4.77694">
        <ele>217</ele>
        <time>2018-04-07T09:20:20Z</time>
      </trkpt>
      <trkpt lat="45.87987" lon="4.77693">
        <ele>217</ele>
        <time>2018-04-07T09:20:21Z</time>
      </trkpt>
      <trkpt lat="45.87979" lon="4.7769">
        <ele>218</ele>
        <time>2018-04-07T09:20:24Z</time>
      </trkpt>
      <trkpt lat="45.87977" lon="4.77688">
        <ele>218</ele>
        <time>2018-04-07T09:20:25Z</time>
      </trkpt>
      <trkpt lat="45.8797" lon="4.77682">
        <ele>218</ele>
        <time>2018-04-07T09:20:28Z</time>
      </trkpt>
      <trkpt lat="45.87967" lon="4.77679">
        <ele>218</ele>
        <time>2018-04-07T09:20:29Z</time>
      </trkpt>
      <trkpt lat="45.87962" lon="4.77674">
        <ele>218</ele>
        <time>2018-04-07T09:20:31Z</time>
      </trkpt>
      <trkpt lat="45.87953" lon="4.77668">
        <ele>218</ele>
        <time>2018-04-07T09:20:32Z</time>
      </trkpt>
      <trkpt lat="45.87946" lon="4.77664">
        <ele>218</ele>
        <time>2018-04-07T09:20:34Z</time>
      </trkpt>
      <trkpt lat="45.87944" lon="4.77663">
        <ele>219</ele>
        <time>2018-04-07T09:20:35Z</time>
      </trkpt>
      <trkpt lat="45.87939" lon="4.77659">
        <ele>219</ele>
        <time>2018-04-07T09:20:36Z</time>
      </trkpt>
      <trkpt lat="45.87936" lon="4.77657">
        <ele>219</ele>
        <time>2018-04-07T09:20:37Z</time>
      </trkpt>
      <trkpt lat="45.87931" lon="4.77652">
        <ele>219</ele>
        <time>2018-04-07T09:20:39Z</time>
      </trkpt>
      <trkpt lat="45.87927" lon="4.77649">
        <ele>219</ele>
        <time>2018-04-07T09:20:40Z</time>
      </trkpt>
      <trkpt lat="45.8792" lon="4.77641">
        <ele>219</ele>
        <time>2018-04-07T09:20:44Z</time>
      </trkpt>
      <trkpt lat="45.87918" lon="4.77638">
        <ele>219</ele>
        <time>2018-04-07T09:20:45Z</time>
      </trkpt>
      <trkpt lat="45.87913" lon="4.77633">
        <ele>221</ele>
        <time>2018-04-07T09:20:47Z</time>
      </trkpt>
      <trkpt lat="45.8791" lon="4.7763">
        <ele>221</ele>
        <time>2018-04-07T09:20:48Z</time>
      </trkpt>
      <trkpt lat="45.87904" lon="4.77625">
        <ele>221</ele>
        <time>2018-04-07T09:20:50Z</time>
      </trkpt>
      <trkpt lat="45.87902" lon="4.77622">
        <ele>221</ele>
        <time>2018-04-07T09:20:51Z</time>
      </trkpt>
      <trkpt lat="45.87896" lon="4.77616">
        <ele>221</ele>
        <time>2018-04-07T09:20:53Z</time>
      </trkpt>
      <trkpt lat="45.87893" lon="4.77614">
        <ele>221</ele>
        <time>2018-04-07T09:20:54Z</time>
      </trkpt>
      <trkpt lat="45.87887" lon="4.77609">
        <ele>221</ele>
        <time>2018-04-07T09:20:56Z</time>
      </trkpt>
      <trkpt lat="45.87884" lon="4.77606">
        <ele>221</ele>
        <time>2018-04-07T09:20:57Z</time>
      </trkpt>
      <trkpt lat="45.87879" lon="4.77601">
        <ele>221</ele>
        <time>2018-04-07T09:20:59Z</time>
      </trkpt>
      <trkpt lat="45.87876" lon="4.77599">
        <ele>221</ele>
        <time>2018-04-07T09:21:00Z</time>
      </trkpt>
      <trkpt lat="45.8787" lon="4.77594">
        <ele>221</ele>
        <time>2018-04-07T09:21:02Z</time>
      </trkpt>
      <trkpt lat="45.87867" lon="4.77592">
        <ele>221</ele>
        <time>2018-04-07T09:21:03Z</time>
      </trkpt>
      <trkpt lat="45.87863" lon="4.77589">
        <ele>221</ele>
        <time>2018-04-07T09:21:04Z</time>
      </trkpt>
      <trkpt lat="45.87854" lon="4.77582">
        <ele>221</ele>
        <time>2018-04-07T09:21:05Z</time>
      </trkpt>
      <trkpt lat="45.87848" lon="4.77577">
        <ele>221</ele>
        <time>2018-04-07T09:21:07Z</time>
      </trkpt>
      <trkpt lat="45.87845" lon="4.77574">
        <ele>221</ele>
        <time>2018-04-07T09:21:08Z</time>
      </trkpt>
      <trkpt lat="45.87839" lon="4.77569">
        <ele>221</ele>
        <time>2018-04-07T09:21:11Z</time>
      </trkpt>
      <trkpt lat="45.87837" lon="4.77568">
        <ele>221</ele>
        <time>2018-04-07T09:21:12Z</time>
      </trkpt>
      <trkpt lat="45.87834" lon="4.77566">
        <ele>221</ele>
        <time>2018-04-07T09:21:13Z</time>
      </trkpt>
      <trkpt lat="45.87827" lon="4.7756">
        <ele>223</ele>
        <time>2018-04-07T09:21:14Z</time>
      </trkpt>
      <trkpt lat="45.8782" lon="4.77555">
        <ele>223</ele>
        <time>2018-04-07T09:21:16Z</time>
      </trkpt>
      <trkpt lat="45.87817" lon="4.77552">
        <ele>223</ele>
        <time>2018-04-07T09:21:17Z</time>
      </trkpt>
      <trkpt lat="45.87812" lon="4.77547">
        <ele>223</ele>
        <time>2018-04-07T09:21:20Z</time>
      </trkpt>
      <trkpt lat="45.87809" lon="4.77546">
        <ele>223</ele>
        <time>2018-04-07T09:21:21Z</time>
      </trkpt>
      <trkpt lat="45.87802" lon="4.7754">
        <ele>223</ele>
        <time>2018-04-07T09:21:24Z</time>
      </trkpt>
      <trkpt lat="45.87799" lon="4.77537">
        <ele>223</ele>
        <time>2018-04-07T09:21:25Z</time>
      </trkpt>
      <trkpt lat="45.87792" lon="4.77532">
        <ele>223</ele>
        <time>2018-04-07T09:21:28Z</time>
      </trkpt>
      <trkpt lat="45.8779" lon="4.7753">
        <ele>223</ele>
        <time>2018-04-07T09:21:29Z</time>
      </trkpt>
      <trkpt lat="45.87782" lon="4.77524">
        <ele>223</ele>
        <time>2018-04-07T09:21:32Z</time>
      </trkpt>
      <trkpt lat="45.8778" lon="4.77522">
        <ele>223</ele>
        <time>2018-04-07T09:21:33Z</time>
      </trkpt>
      <trkpt lat="45.87772" lon="4.77517">
        <ele>223</ele>
        <time>2018-04-07T09:21:36Z</time>
      </trkpt>
      <trkpt lat="45.8777" lon="4.77515">
        <ele>223</ele>
        <time>2018-04-07T09:21:37Z</time>
      </trkpt>
      <trkpt lat="45.87762" lon="4.7751">
        <ele>224</ele>
        <time>2018-04-07T09:21:40Z</time>
      </trkpt>
      <trkpt lat="45.87759" lon="4.77509">
        <ele>224</ele>
        <time>2018-04-07T09:21:41Z</time>
      </trkpt>
      <trkpt lat="45.87753" lon="4.77505">
        <ele>224</ele>
        <time>2018-04-07T09:21:43Z</time>
      </trkpt>
      <trkpt lat="45.8775" lon="4.77503">
        <ele>224</ele>
        <time>2018-04-07T09:21:44Z</time>
      </trkpt>
      <trkpt lat="45.87744" lon="4.77499">
        <ele>224</ele>
        <time>2018-04-07T09:21:46Z</time>
      </trkpt>
      <trkpt lat="45.87741" lon="4.77497">
        <ele>225</ele>
        <time>2018-04-07T09:21:47Z</time>
      </trkpt>
      <trkpt lat="45.87734" lon="4.77493">
        <ele>225</ele>
        <time>2018-04-07T09:21:50Z</time>
      </trkpt>
      <trkpt lat="45.87731" lon="4.77492">
        <ele>225</ele>
        <time>2018-04-07T09:21:51Z</time>
      </trkpt>
      <trkpt lat="45.87723" lon="4.77489">
        <ele>226</ele>
        <time>2018-04-07T09:21:54Z</time>
      </trkpt>
      <trkpt lat="45.87721" lon="4.77488">
        <ele>226</ele>
        <time>2018-04-07T09:21:55Z</time>
      </trkpt>
      <trkpt lat="45.87712" lon="4.77487">
        <ele>226</ele>
        <time>2018-04-07T09:21:58Z</time>
      </trkpt>
      <trkpt lat="45.87709" lon="4.77487">
        <ele>226</ele>
        <time>2018-04-07T09:21:59Z</time>
      </trkpt>
      <trkpt lat="45.87702" lon="4.77486">
        <ele>227</ele>
        <time>2018-04-07T09:22:01Z</time>
      </trkpt>
      <trkpt lat="45.87699" lon="4.77487">
        <ele>227</ele>
        <time>2018-04-07T09:22:02Z</time>
      </trkpt>
      <trkpt lat="45.87691" lon="4.77488">
        <ele>227</ele>
        <time>2018-04-07T09:22:06Z</time>
      </trkpt>
      <trkpt lat="45.87689" lon="4.77488">
        <ele>227</ele>
        <time>2018-04-07T09:22:07Z</time>
      </trkpt>
      <trkpt lat="45.8768" lon="4.77488">
        <ele>228</ele>
        <time>2018-04-07T09:22:11Z</time>
      </trkpt>
      <trkpt lat="45.87678" lon="4.77488">
        <ele>228</ele>
        <time>2018-04-07T09:22:12Z</time>
      </trkpt>
      <trkpt lat="45.8767" lon="4.7749">
        <ele>228</ele>
        <time>2018-04-07T09:22:15Z</time>
      </trkpt>
      <trkpt lat="45.87667" lon="4.7749">
        <ele>230</ele>
        <time>2018-04-07T09:22:16Z</time>
      </trkpt>
      <trkpt lat="45.8766" lon="4.77491">
        <ele>230</ele>
        <time>2018-04-07T09:22:18Z</time>
      </trkpt>
      <trkpt lat="45.87657" lon="4.77491">
        <ele>230</ele>
        <time>2018-04-07T09:22:19Z</time>
      </trkpt>
      <trkpt lat="45.87649" lon="4.77491">
        <ele>230</ele>
        <time>2018-04-07T09:22:21Z</time>
      </trkpt>
      <trkpt lat="45.87646" lon="4.77492">
        <ele>230</ele>
        <time>2018-04-07T09:22:22Z</time>
      </trkpt>
      <trkpt lat="45.87639" lon="4.77493">
        <ele>230</ele>
        <time>2018-04-07T09:22:24Z</time>
      </trkpt>
      <trkpt lat="45.87636" lon="4.77494">
        <ele>230</ele>
        <time>2018-04-07T09:22:25Z</time>
      </trkpt>
      <trkpt lat="45.87627" lon="4.77495">
        <ele>231</ele>
        <time>2018-04-07T09:22:28Z</time>
      </trkpt>
      <trkpt lat="45.87624" lon="4.77495">
        <ele>231</ele>
        <time>2018-04-07T09:22:29Z</time>
      </trkpt>
      <trkpt lat="45.87615" lon="4.77496">
        <ele>231</ele>
        <time>2018-04-07T09:22:32Z</time>
      </trkpt>
      <trkpt lat="45.87612" lon="4.77496">
        <ele>231</ele>
        <time>2018-04-07T09:22:33Z</time>
      </trkpt>
      <trkpt lat="45.87604" lon="4.77498">
        <ele>231</ele>
        <time>2018-04-07T09:22:36Z</time>
      </trkpt>
      <trkpt lat="45.87601" lon="4.77499">
        <ele>231</ele>
        <time>2018-04-07T09:22:37Z</time>
      </trkpt>
      <trkpt lat="45.87594" lon="4.775">
        <ele>231</ele>
        <time>2018-04-07T09:22:40Z</time>
      </trkpt>
      <trkpt lat="45.87591" lon="4.77501">
        <ele>231</ele>
        <time>2018-04-07T09:22:41Z</time>
      </trkpt>
      <trkpt lat="45.87583" lon="4.77502">
        <ele>232</ele>
        <time>2018-04-07T09:22:44Z</time>
      </trkpt>
      <trkpt lat="45.8758" lon="4.77502">
        <ele>232</ele>
        <time>2018-04-07T09:22:45Z</time>
      </trkpt>
      <trkpt lat="45.87571" lon="4.77501">
        <ele>232</ele>
        <time>2018-04-07T09:22:48Z</time>
      </trkpt>
      <trkpt lat="45.87569" lon="4.77499">
        <ele>233</ele>
        <time>2018-04-07T09:22:49Z</time>
      </trkpt>
      <trkpt lat="45.87563" lon="4.77496">
        <ele>233</ele>
        <time>2018-04-07T09:22:51Z</time>
      </trkpt>
      <trkpt lat="45.8756" lon="4.77494">
        <ele>233</ele>
        <time>2018-04-07T09:22:52Z</time>
      </trkpt>
      <trkpt lat="45.87557" lon="4.77491">
        <ele>233</ele>
        <time>2018-04-07T09:22:53Z</time>
      </trkpt>
      <trkpt lat="45.87549" lon="4.77483">
        <ele>233</ele>
        <time>2018-04-07T09:22:54Z</time>
      </trkpt>
      <trkpt lat="45.87543" lon="4.77474">
        <ele>233</ele>
        <time>2018-04-07T09:22:58Z</time>
      </trkpt>
      <trkpt lat="45.87541" lon="4.77471">
        <ele>233</ele>
        <time>2018-04-07T09:22:59Z</time>
      </trkpt>
      <trkpt lat="45.87536" lon="4.77464">
        <ele>233</ele>
        <time>2018-04-07T09:23:01Z</time>
      </trkpt>
      <trkpt lat="45.87534" lon="4.77461">
        <ele>233</ele>
        <time>2018-04-07T09:23:02Z</time>
      </trkpt>
      <trkpt lat="45.87529" lon="4.77451">
        <ele>234</ele>
        <time>2018-04-07T09:23:05Z</time>
      </trkpt>
      <trkpt lat="45.87523" lon="4.77441">
        <ele>233</ele>
        <time>2018-04-07T09:23:06Z</time>
      </trkpt>
      <trkpt lat="45.87518" lon="4.77433">
        <ele>233</ele>
        <time>2018-04-07T09:23:08Z</time>
      </trkpt>
      <trkpt lat="45.87515" lon="4.77429">
        <ele>233</ele>
        <time>2018-04-07T09:23:09Z</time>
      </trkpt>
      <trkpt lat="45.8751" lon="4.77421">
        <ele>233</ele>
        <time>2018-04-07T09:23:12Z</time>
      </trkpt>
      <trkpt lat="45.87508" lon="4.77418">
        <ele>233</ele>
        <time>2018-04-07T09:23:13Z</time>
      </trkpt>
      <trkpt lat="45.87503" lon="4.7741">
        <ele>233</ele>
        <time>2018-04-07T09:23:16Z</time>
      </trkpt>
      <trkpt lat="45.87501" lon="4.77407">
        <ele>233</ele>
        <time>2018-04-07T09:23:17Z</time>
      </trkpt>
      <trkpt lat="45.87495" lon="4.77397">
        <ele>234</ele>
        <time>2018-04-07T09:23:18Z</time>
      </trkpt>
      <trkpt lat="45.87491" lon="4.77387">
        <ele>235</ele>
        <time>2018-04-07T09:23:20Z</time>
      </trkpt>
      <trkpt lat="45.87489" lon="4.77381">
        <ele>235</ele>
        <time>2018-04-07T09:23:21Z</time>
      </trkpt>
      <trkpt lat="45.87487" lon="4.77372">
        <ele>235</ele>
        <time>2018-04-07T09:23:24Z</time>
      </trkpt>
      <trkpt lat="45.87486" lon="4.77368">
        <ele>235</ele>
        <time>2018-04-07T09:23:25Z</time>
      </trkpt>
      <trkpt lat="45.87485" lon="4.7736">
        <ele>235</ele>
        <time>2018-04-07T09:23:27Z</time>
      </trkpt>
      <trkpt lat="45.87484" lon="4.77356">
        <ele>235</ele>
        <time>2018-04-07T09:23:28Z</time>
      </trkpt>
      <trkpt lat="45.87482" lon="4.77347">
        <ele>235</ele>
        <time>2018-04-07T09:23:30Z</time>
      </trkpt>
      <trkpt lat="45.87481" lon="4.77342">
        <ele>235</ele>
        <time>2018-04-07T09:23:31Z</time>
      </trkpt>
      <trkpt lat="45.87479" lon="4.77333">
        <ele>234</ele>
        <time>2018-04-07T09:23:33Z</time>
      </trkpt>
      <trkpt lat="45.87478" lon="4.77328">
        <ele>234</ele>
        <time>2018-04-07T09:23:34Z</time>
      </trkpt>
      <trkpt lat="45.87475" lon="4.77314">
        <ele>235</ele>
        <time>2018-04-07T09:23:35Z</time>
      </trkpt>
      <trkpt lat="45.87473" lon="4.77303">
        <ele>235</ele>
        <time>2018-04-07T09:23:37Z</time>
      </trkpt>
      <trkpt lat="45.87472" lon="4.77298">
        <ele>235</ele>
        <time>2018-04-07T09:23:38Z</time>
      </trkpt>
      <trkpt lat="45.8747" lon="4.77288">
        <ele>235</ele>
        <time>2018-04-07T09:23:40Z</time>
      </trkpt>
      <trkpt lat="45.87468" lon="4.77283">
        <ele>235</ele>
        <time>2018-04-07T09:23:41Z</time>
      </trkpt>
      <trkpt lat="45.87466" lon="4.77271">
        <ele>235</ele>
        <time>2018-04-07T09:23:44Z</time>
      </trkpt>
      <trkpt lat="45.87465" lon="4.77268">
        <ele>235</ele>
        <time>2018-04-07T09:23:45Z</time>
      </trkpt>
      <trkpt lat="45.8746" lon="4.77258">
        <ele>235</ele>
        <time>2018-04-07T09:23:47Z</time>
      </trkpt>
      <trkpt lat="45.87459" lon="4.77256">
        <ele>235</ele>
        <time>2018-04-07T09:23:48Z</time>
      </trkpt>
      <trkpt lat="45.87453" lon="4.77248">
        <ele>235</ele>
        <time>2018-04-07T09:23:51Z</time>
      </trkpt>
      <trkpt lat="45.8745" lon="4.77245">
        <ele>235</ele>
        <time>2018-04-07T09:23:52Z</time>
      </trkpt>
      <trkpt lat="45.87445" lon="4.7724">
        <ele>235</ele>
        <time>2018-04-07T09:23:54Z</time>
      </trkpt>
      <trkpt lat="45.87442" lon="4.77238">
        <ele>235</ele>
        <time>2018-04-07T09:23:55Z</time>
      </trkpt>
      <trkpt lat="45.87434" lon="4.77231">
        <ele>235</ele>
        <time>2018-04-07T09:23:56Z</time>
      </trkpt>
      <trkpt lat="45.8743" lon="4.77229">
        <ele>235</ele>
        <time>2018-04-07T09:23:58Z</time>
      </trkpt>
      <trkpt lat="45.87423" lon="4.77226">
        <ele>235</ele>
        <time>2018-04-07T09:23:59Z</time>
      </trkpt>
      <trkpt lat="45.87416" lon="4.77223">
        <ele>238</ele>
        <time>2018-04-07T09:24:01Z</time>
      </trkpt>
      <trkpt lat="45.87414" lon="4.77223">
        <ele>238</ele>
        <time>2018-04-07T09:24:02Z</time>
      </trkpt>
      <trkpt lat="45.87406" lon="4.77221">
        <ele>238</ele>
        <time>2018-04-07T09:24:04Z</time>
      </trkpt>
      <trkpt lat="45.87402" lon="4.7722">
        <ele>238</ele>
        <time>2018-04-07T09:24:05Z</time>
      </trkpt>
      <trkpt lat="45.87394" lon="4.77218">
        <ele>239</ele>
        <time>2018-04-07T09:24:07Z</time>
      </trkpt>
      <trkpt lat="45.8739" lon="4.77217">
        <ele>239</ele>
        <time>2018-04-07T09:24:08Z</time>
      </trkpt>
      <trkpt lat="45.87381" lon="4.77216">
        <ele>239</ele>
        <time>2018-04-07T09:24:10Z</time>
      </trkpt>
      <trkpt lat="45.87377" lon="4.77216">
        <ele>239</ele>
        <time>2018-04-07T09:24:11Z</time>
      </trkpt>
      <trkpt lat="45.87369" lon="4.77217">
        <ele>239</ele>
        <time>2018-04-07T09:24:13Z</time>
      </trkpt>
      <trkpt lat="45.87366" lon="4.77217">
        <ele>240</ele>
        <time>2018-04-07T09:24:14Z</time>
      </trkpt>
      <trkpt lat="45.87358" lon="4.77218">
        <ele>240</ele>
        <time>2018-04-07T09:24:16Z</time>
      </trkpt>
      <trkpt lat="45.87356" lon="4.77218">
        <ele>240</ele>
        <time>2018-04-07T09:24:17Z</time>
      </trkpt>
      <trkpt lat="45.87351" lon="4.77219">
        <ele>240</ele>
        <time>2018-04-07T09:24:19Z</time>
      </trkpt>
      <trkpt lat="45.87344" lon="4.77221">
        <ele>240</ele>
        <time>2018-04-07T09:24:20Z</time>
      </trkpt>
      <trkpt lat="45.87336" lon="4.77222">
        <ele>241</ele>
        <time>2018-04-07T09:24:22Z</time>
      </trkpt>
      <trkpt lat="45.87334" lon="4.77222">
        <ele>241</ele>
        <time>2018-04-07T09:24:23Z</time>
      </trkpt>
      <trkpt lat="45.87327" lon="4.77223">
        <ele>243</ele>
        <time>2018-04-07T09:24:26Z</time>
      </trkpt>
      <trkpt lat="45.87319" lon="4.77224">
        <ele>244</ele>
        <time>2018-04-07T09:24:27Z</time>
      </trkpt>
      <trkpt lat="45.87311" lon="4.77225">
        <ele>244</ele>
        <time>2018-04-07T09:24:29Z</time>
      </trkpt>
      <trkpt lat="45.87307" lon="4.77224">
        <ele>244</ele>
        <time>2018-04-07T09:24:30Z</time>
      </trkpt>
      <trkpt lat="45.873" lon="4.77222">
        <ele>244</ele>
        <time>2018-04-07T09:24:32Z</time>
      </trkpt>
      <trkpt lat="45.87296" lon="4.77219">
        <ele>244</ele>
        <time>2018-04-07T09:24:33Z</time>
      </trkpt>
      <trkpt lat="45.87288" lon="4.77214">
        <ele>244</ele>
        <time>2018-04-07T09:24:35Z</time>
      </trkpt>
      <trkpt lat="45.87285" lon="4.7721">
        <ele>244</ele>
        <time>2018-04-07T09:24:36Z</time>
      </trkpt>
      <trkpt lat="45.8728" lon="4.77201">
        <ele>244</ele>
        <time>2018-04-07T09:24:38Z</time>
      </trkpt>
      <trkpt lat="45.87277" lon="4.77195">
        <ele>244</ele>
        <time>2018-04-07T09:24:39Z</time>
      </trkpt>
      <trkpt lat="45.87275" lon="4.77186">
        <ele>244</ele>
        <time>2018-04-07T09:24:41Z</time>
      </trkpt>
      <trkpt lat="45.87277" lon="4.77175">
        <ele>244</ele>
        <time>2018-04-07T09:24:42Z</time>
      </trkpt>
      <trkpt lat="45.87276" lon="4.77163">
        <ele>242</ele>
        <time>2018-04-07T09:24:44Z</time>
      </trkpt>
      <trkpt lat="45.87274" lon="4.77156">
        <ele>242</ele>
        <time>2018-04-07T09:24:45Z</time>
      </trkpt>
      <trkpt lat="45.87273" lon="4.77149">
        <ele>241</ele>
        <time>2018-04-07T09:24:46Z</time>
      </trkpt>
      <trkpt lat="45.87272" lon="4.77143">
        <ele>241</ele>
        <time>2018-04-07T09:24:47Z</time>
      </trkpt>
      <trkpt lat="45.87273" lon="4.77136">
        <ele>241</ele>
        <time>2018-04-07T09:24:48Z</time>
      </trkpt>
      <trkpt lat="45.87274" lon="4.77129">
        <ele>241</ele>
        <time>2018-04-07T09:24:49Z</time>
      </trkpt>
      <trkpt lat="45.87276" lon="4.77122">
        <ele>240</ele>
        <time>2018-04-07T09:24:50Z</time>
      </trkpt>
      <trkpt lat="45.87277" lon="4.77116">
        <ele>240</ele>
        <time>2018-04-07T09:24:51Z</time>
      </trkpt>
      <trkpt lat="45.87275" lon="4.7711">
        <ele>240</ele>
        <time>2018-04-07T09:24:52Z</time>
      </trkpt>
      <trkpt lat="45.87273" lon="4.77104">
        <ele>240</ele>
        <time>2018-04-07T09:24:53Z</time>
      </trkpt>
      <trkpt lat="45.87272" lon="4.77097">
        <ele>240</ele>
        <time>2018-04-07T09:24:54Z</time>
      </trkpt>
      <trkpt lat="45.87272" lon="4.7709">
        <ele>240</ele>
        <time>2018-04-07T09:24:55Z</time>
      </trkpt>
      <trkpt lat="45.87271" lon="4.77082">
        <ele>239</ele>
        <time>2018-04-07T09:24:56Z</time>
      </trkpt>
      <trkpt lat="45.87272" lon="4.77075">
        <ele>239</ele>
        <time>2018-04-07T09:24:57Z</time>
      </trkpt>
      <trkpt lat="45.87272" lon="4.77068">
        <ele>239</ele>
        <time>2018-04-07T09:24:58Z</time>
      </trkpt>
      <trkpt lat="45.87271" lon="4.77061">
        <ele>239</ele>
        <time>2018-04-07T09:24:59Z</time>
      </trkpt>
      <trkpt lat="45.87271" lon="4.77053">
        <ele>239</ele>
        <time>2018-04-07T09:25:00Z</time>
      </trkpt>
      <trkpt lat="45.87271" lon="4.77048">
        <ele>239</ele>
        <time>2018-04-07T09:25:01Z</time>
      </trkpt>
      <trkpt lat="45.87271" lon="4.7704">
        <ele>239</ele>
        <time>2018-04-07T09:25:02Z</time>
      </trkpt>
      <trkpt lat="45.87271" lon="4.77033">
        <ele>239</ele>
        <time>2018-04-07T09:25:03Z</time>
      </trkpt>
      <trkpt lat="45.87271" lon="4.77024">
        <ele>239</ele>
        <time>2018-04-07T09:25:05Z</time>
      </trkpt>
      <trkpt lat="45.87271" lon="4.77017">
        <ele>239</ele>
        <time>2018-04-07T09:25:06Z</time>
      </trkpt>
      <trkpt lat="45.87271" lon="4.77005">
        <ele>239</ele>
        <time>2018-04-07T09:25:09Z</time>
      </trkpt>
      <trkpt lat="45.8727" lon="4.77001">
        <ele>239</ele>
        <time>2018-04-07T09:25:10Z</time>
      </trkpt>
      <trkpt lat="45.8727" lon="4.76989">
        <ele>240</ele>
        <time>2018-04-07T09:25:11Z</time>
      </trkpt>
      <trkpt lat="45.87271" lon="4.76987">
        <ele>240</ele>
        <time>2018-04-07T09:25:12Z</time>
      </trkpt>
      <trkpt lat="45.87271" lon="4.76976">
        <ele>240</ele>
        <time>2018-04-07T09:25:13Z</time>
      </trkpt>
      <trkpt lat="45.87271" lon="4.76969">
        <ele>240</ele>
        <time>2018-04-07T09:25:14Z</time>
      </trkpt>
      <trkpt lat="45.87271" lon="4.76962">
        <ele>240</ele>
        <time>2018-04-07T09:25:15Z</time>
      </trkpt>
      <trkpt lat="45.87271" lon="4.76955">
        <ele>240</ele>
        <time>2018-04-07T09:25:16Z</time>
      </trkpt>
      <trkpt lat="45.87269" lon="4.76949">
        <ele>240</ele>
        <time>2018-04-07T09:25:17Z</time>
      </trkpt>
      <trkpt lat="45.87266" lon="4.76943">
        <ele>241</ele>
        <time>2018-04-07T09:25:18Z</time>
      </trkpt>
      <trkpt lat="45.87269" lon="4.76934">
        <ele>241</ele>
        <time>2018-04-07T09:25:19Z</time>
      </trkpt>
      <trkpt lat="45.87271" lon="4.76927">
        <ele>241</ele>
        <time>2018-04-07T09:25:20Z</time>
      </trkpt>
      <trkpt lat="45.87274" lon="4.7692">
        <ele>241</ele>
        <time>2018-04-07T09:25:21Z</time>
      </trkpt>
      <trkpt lat="45.87274" lon="4.76913">
        <ele>240</ele>
        <time>2018-04-07T09:25:22Z</time>
      </trkpt>
      <trkpt lat="45.87271" lon="4.76906">
        <ele>240</ele>
        <time>2018-04-07T09:25:23Z</time>
      </trkpt>
      <trkpt lat="45.8727" lon="4.76897">
        <ele>240</ele>
        <time>2018-04-07T09:25:24Z</time>
      </trkpt>
      <trkpt lat="45.87269" lon="4.76888">
        <ele>240</ele>
        <time>2018-04-07T09:25:25Z</time>
      </trkpt>
      <trkpt lat="45.87269" lon="4.76879">
        <ele>240</ele>
        <time>2018-04-07T09:25:26Z</time>
      </trkpt>
      <trkpt lat="45.87268" lon="4.76872">
        <ele>240</ele>
        <time>2018-04-07T09:25:27Z</time>
      </trkpt>
      <trkpt lat="45.87268" lon="4.76863">
        <ele>239</ele>
        <time>2018-04-07T09:25:28Z</time>
      </trkpt>
      <trkpt lat="45.87268" lon="4.76856">
        <ele>239</ele>
        <time>2018-04-07T09:25:29Z</time>
      </trkpt>
      <trkpt lat="45.87269" lon="4.76847">
        <ele>239</ele>
        <time>2018-04-07T09:25:30Z</time>
      </trkpt>
      <trkpt lat="45.8727" lon="4.76838">
        <ele>239</ele>
        <time>2018-04-07T09:25:31Z</time>
      </trkpt>
      <trkpt lat="45.8727" lon="4.76829">
        <ele>237</ele>
        <time>2018-04-07T09:25:32Z</time>
      </trkpt>
      <trkpt lat="45.8727" lon="4.76821">
        <ele>237</ele>
        <time>2018-04-07T09:25:33Z</time>
      </trkpt>
      <trkpt lat="45.8727" lon="4.7681">
        <ele>237</ele>
        <time>2018-04-07T09:25:34Z</time>
      </trkpt>
      <trkpt lat="45.8727" lon="4.768">
        <ele>236</ele>
        <time>2018-04-07T09:25:35Z</time>
      </trkpt>
      <trkpt lat="45.8727" lon="4.7679">
        <ele>236</ele>
        <time>2018-04-07T09:25:36Z</time>
      </trkpt>
      <trkpt lat="45.87271" lon="4.7678">
        <ele>236</ele>
        <time>2018-04-07T09:25:37Z</time>
      </trkpt>
      <trkpt lat="45.8727" lon="4.76768">
        <ele>236</ele>
        <time>2018-04-07T09:25:38Z</time>
      </trkpt>
      <trkpt lat="45.87271" lon="4.76761">
        <ele>236</ele>
        <time>2018-04-07T09:25:39Z</time>
      </trkpt>
      <trkpt lat="45.8727" lon="4.7675">
        <ele>235</ele>
        <time>2018-04-07T09:25:40Z</time>
      </trkpt>
      <trkpt lat="45.87269" lon="4.7674">
        <ele>235</ele>
        <time>2018-04-07T09:25:41Z</time>
      </trkpt>
      <trkpt lat="45.87269" lon="4.76731">
        <ele>234</ele>
        <time>2018-04-07T09:25:42Z</time>
      </trkpt>
      <trkpt lat="45.87269" lon="4.76721">
        <ele>234</ele>
        <time>2018-04-07T09:25:43Z</time>
      </trkpt>
      <trkpt lat="45.87269" lon="4.76711">
        <ele>234</ele>
        <time>2018-04-07T09:25:44Z</time>
      </trkpt>
      <trkpt lat="45.87269" lon="4.76701">
        <ele>234</ele>
        <time>2018-04-07T09:25:45Z</time>
      </trkpt>
      <trkpt lat="45.87267" lon="4.76692">
        <ele>234</ele>
        <time>2018-04-07T09:25:46Z</time>
      </trkpt>
      <trkpt lat="45.87266" lon="4.76682">
        <ele>234</ele>
        <time>2018-04-07T09:25:47Z</time>
      </trkpt>
      <trkpt lat="45.87266" lon="4.76672">
        <ele>234</ele>
        <time>2018-04-07T09:25:48Z</time>
      </trkpt>
      <trkpt lat="45.87267" lon="4.76663">
        <ele>234</ele>
        <time>2018-04-07T09:25:49Z</time>
      </trkpt>
      <trkpt lat="45.87267" lon="4.76653">
        <ele>234</ele>
        <time>2018-04-07T09:25:50Z</time>
      </trkpt>
      <trkpt lat="45.87268" lon="4.76644">
        <ele>234</ele>
        <time>2018-04-07T09:25:51Z</time>
      </trkpt>
      <trkpt lat="45.87266" lon="4.76636">
        <ele>234</ele>
        <time>2018-04-07T09:25:52Z</time>
      </trkpt>
      <trkpt lat="45.87266" lon="4.76628">
        <ele>234</ele>
        <time>2018-04-07T09:25:53Z</time>
      </trkpt>
      <trkpt lat="45.87265" lon="4.7662">
        <ele>234</ele>
        <time>2018-04-07T09:25:54Z</time>
      </trkpt>
      <trkpt lat="45.87264" lon="4.76612">
        <ele>234</ele>
        <time>2018-04-07T09:25:55Z</time>
      </trkpt>
      <trkpt lat="45.87264" lon="4.76604">
        <ele>235</ele>
        <time>2018-04-07T09:25:56Z</time>
      </trkpt>
      <trkpt lat="45.87262" lon="4.76595">
        <ele>235</ele>
        <time>2018-04-07T09:25:57Z</time>
      </trkpt>
      <trkpt lat="45.87262" lon="4.76588">
        <ele>235</ele>
        <time>2018-04-07T09:25:58Z</time>
      </trkpt>
      <trkpt lat="45.87261" lon="4.7658">
        <ele>236</ele>
        <time>2018-04-07T09:25:59Z</time>
      </trkpt>
      <trkpt lat="45.87261" lon="4.76573">
        <ele>236</ele>
        <time>2018-04-07T09:26:00Z</time>
      </trkpt>
      <trkpt lat="45.87258" lon="4.76566">
        <ele>236</ele>
        <time>2018-04-07T09:26:01Z</time>
      </trkpt>
      <trkpt lat="45.87258" lon="4.76559">
        <ele>235</ele>
        <time>2018-04-07T09:26:02Z</time>
      </trkpt>
      <trkpt lat="45.87257" lon="4.76551">
        <ele>235</ele>
        <time>2018-04-07T09:26:03Z</time>
      </trkpt>
      <trkpt lat="45.87258" lon="4.76543">
        <ele>235</ele>
        <time>2018-04-07T09:26:04Z</time>
      </trkpt>
      <trkpt lat="45.87258" lon="4.76537">
        <ele>236</ele>
        <time>2018-04-07T09:26:05Z</time>
      </trkpt>
      <trkpt lat="45.87257" lon="4.76529">
        <ele>236</ele>
        <time>2018-04-07T09:26:06Z</time>
      </trkpt>
      <trkpt lat="45.87256" lon="4.76523">
        <ele>236</ele>
        <time>2018-04-07T09:26:07Z</time>
      </trkpt>
      <trkpt lat="45.87256" lon="4.76515">
        <ele>236</ele>
        <time>2018-04-07T09:26:08Z</time>
      </trkpt>
      <trkpt lat="45.87256" lon="4.76508">
        <ele>236</ele>
        <time>2018-04-07T09:26:09Z</time>
      </trkpt>
      <trkpt lat="45.87256" lon="4.76501">
        <ele>237</ele>
        <time>2018-04-07T09:26:10Z</time>
      </trkpt>
      <trkpt lat="45.87257" lon="4.76492">
        <ele>236</ele>
        <time>2018-04-07T09:26:11Z</time>
      </trkpt>
      <trkpt lat="45.87258" lon="4.76485">
        <ele>236</ele>
        <time>2018-04-07T09:26:12Z</time>
      </trkpt>
      <trkpt lat="45.87258" lon="4.76479">
        <ele>236</ele>
        <time>2018-04-07T09:26:13Z</time>
      </trkpt>
      <trkpt lat="45.87259" lon="4.76471">
        <ele>236</ele>
        <time>2018-04-07T09:26:14Z</time>
      </trkpt>
      <trkpt lat="45.87258" lon="4.76463">
        <ele>235</ele>
        <time>2018-04-07T09:26:15Z</time>
      </trkpt>
      <trkpt lat="45.87258" lon="4.76454">
        <ele>235</ele>
        <time>2018-04-07T09:26:16Z</time>
      </trkpt>
      <trkpt lat="45.87257" lon="4.76446">
        <ele>235</ele>
        <time>2018-04-07T09:26:17Z</time>
      </trkpt>
      <trkpt lat="45.87257" lon="4.76439">
        <ele>235</ele>
        <time>2018-04-07T09:26:18Z</time>
      </trkpt>
      <trkpt lat="45.87256" lon="4.76432">
        <ele>235</ele>
        <time>2018-04-07T09:26:19Z</time>
      </trkpt>
      <trkpt lat="45.87256" lon="4.76423">
        <ele>236</ele>
        <time>2018-04-07T09:26:20Z</time>
      </trkpt>
      <trkpt lat="45.87256" lon="4.76415">
        <ele>235</ele>
        <time>2018-04-07T09:26:21Z</time>
      </trkpt>
      <trkpt lat="45.87256" lon="4.76407">
        <ele>235</ele>
        <time>2018-04-07T09:26:22Z</time>
      </trkpt>
      <trkpt lat="45.87256" lon="4.76399">
        <ele>234</ele>
        <time>2018-04-07T09:26:23Z</time>
      </trkpt>
      <trkpt lat="45.87255" lon="4.76391">
        <ele>234</ele>
        <time>2018-04-07T09:26:24Z</time>
      </trkpt>
      <trkpt lat="45.87257" lon="4.76381">
        <ele>234</ele>
        <time>2018-04-07T09:26:25Z</time>
      </trkpt>
      <trkpt lat="45.87257" lon="4.76371">
        <ele>234</ele>
        <time>2018-04-07T09:26:26Z</time>
      </trkpt>
      <trkpt lat="45.87257" lon="4.76362">
        <ele>234</ele>
        <time>2018-04-07T09:26:27Z</time>
      </trkpt>
      <trkpt lat="45.87257" lon="4.76353">
        <ele>234</ele>
        <time>2018-04-07T09:26:28Z</time>
      </trkpt>
      <trkpt lat="45.87256" lon="4.76344">
        <ele>234</ele>
        <time>2018-04-07T09:26:29Z</time>
      </trkpt>
      <trkpt lat="45.87256" lon="4.76334">
        <ele>234</ele>
        <time>2018-04-07T09:26:30Z</time>
      </trkpt>
      <trkpt lat="45.87257" lon="4.76323">
        <ele>233</ele>
        <time>2018-04-07T09:26:31Z</time>
      </trkpt>
      <trkpt lat="45.87257" lon="4.76315">
        <ele>233</ele>
        <time>2018-04-07T09:26:32Z</time>
      </trkpt>
      <trkpt lat="45.87257" lon="4.76305">
        <ele>233</ele>
        <time>2018-04-07T09:26:33Z</time>
      </trkpt>
      <trkpt lat="45.87256" lon="4.76297">
        <ele>233</ele>
        <time>2018-04-07T09:26:34Z</time>
      </trkpt>
      <trkpt lat="45.87255" lon="4.76288">
        <ele>233</ele>
        <time>2018-04-07T09:26:35Z</time>
      </trkpt>
      <trkpt lat="45.87255" lon="4.7628">
        <ele>233</ele>
        <time>2018-04-07T09:26:36Z</time>
      </trkpt>
      <trkpt lat="45.87254" lon="4.7627">
        <ele>234</ele>
        <time>2018-04-07T09:26:37Z</time>
      </trkpt>
      <trkpt lat="45.87253" lon="4.76262">
        <ele>234</ele>
        <time>2018-04-07T09:26:38Z</time>
      </trkpt>
      <trkpt lat="45.8725" lon="4.76253">
        <ele>235</ele>
        <time>2018-04-07T09:26:39Z</time>
      </trkpt>
      <trkpt lat="45.8725" lon="4.76245">
        <ele>234</ele>
        <time>2018-04-07T09:26:40Z</time>
      </trkpt>
      <trkpt lat="45.87251" lon="4.76236">
        <ele>234</ele>
        <time>2018-04-07T09:26:41Z</time>
      </trkpt>
      <trkpt lat="45.87251" lon="4.76226">
        <ele>233</ele>
        <time>2018-04-07T09:26:42Z</time>
      </trkpt>
      <trkpt lat="45.87251" lon="4.76216">
        <ele>233</ele>
        <time>2018-04-07T09:26:43Z</time>
      </trkpt>
      <trkpt lat="45.8725" lon="4.76206">
        <ele>232</ele>
        <time>2018-04-07T09:26:44Z</time>
      </trkpt>
      <trkpt lat="45.87249" lon="4.76197">
        <ele>234</ele>
        <time>2018-04-07T09:26:45Z</time>
      </trkpt>
      <trkpt lat="45.87248" lon="4.76188">
        <ele>234</ele>
        <time>2018-04-07T09:26:46Z</time>
      </trkpt>
      <trkpt lat="45.87248" lon="4.76178">
        <ele>233</ele>
        <time>2018-04-07T09:26:47Z</time>
      </trkpt>
      <trkpt lat="45.87245" lon="4.76169">
        <ele>233</ele>
        <time>2018-04-07T09:26:48Z</time>
      </trkpt>
      <trkpt lat="45.87246" lon="4.76158">
        <ele>232</ele>
        <time>2018-04-07T09:26:49Z</time>
      </trkpt>
      <trkpt lat="45.87248" lon="4.76149">
        <ele>232</ele>
        <time>2018-04-07T09:26:50Z</time>
      </trkpt>
      <trkpt lat="45.87247" lon="4.76138">
        <ele>232</ele>
        <time>2018-04-07T09:26:51Z</time>
      </trkpt>
      <trkpt lat="45.87247" lon="4.7613">
        <ele>232</ele>
        <time>2018-04-07T09:26:52Z</time>
      </trkpt>
      <trkpt lat="45.87247" lon="4.7612">
        <ele>232</ele>
        <time>2018-04-07T09:26:53Z</time>
      </trkpt>
      <trkpt lat="45.87247" lon="4.76111">
        <ele>232</ele>
        <time>2018-04-07T09:26:54Z</time>
      </trkpt>
      <trkpt lat="45.87246" lon="4.76101">
        <ele>231</ele>
        <time>2018-04-07T09:26:55Z</time>
      </trkpt>
      <trkpt lat="45.87246" lon="4.76093">
        <ele>231</ele>
        <time>2018-04-07T09:26:56Z</time>
      </trkpt>
      <trkpt lat="45.87245" lon="4.76084">
        <ele>230</ele>
        <time>2018-04-07T09:26:57Z</time>
      </trkpt>
      <trkpt lat="45.87245" lon="4.76074">
        <ele>230</ele>
        <time>2018-04-07T09:26:58Z</time>
      </trkpt>
      <trkpt lat="45.87243" lon="4.76066">
        <ele>230</ele>
        <time>2018-04-07T09:26:59Z</time>
      </trkpt>
      <trkpt lat="45.87242" lon="4.76058">
        <ele>230</ele>
        <time>2018-04-07T09:27:00Z</time>
      </trkpt>
      <trkpt lat="45.87242" lon="4.76049">
        <ele>230</ele>
        <time>2018-04-07T09:27:01Z</time>
      </trkpt>
      <trkpt lat="45.87241" lon="4.7604">
        <ele>230</ele>
        <time>2018-04-07T09:27:02Z</time>
      </trkpt>
      <trkpt lat="45.8724" lon="4.76032">
        <ele>230</ele>
        <time>2018-04-07T09:27:03Z</time>
      </trkpt>
      <trkpt lat="45.87241" lon="4.76023">
        <ele>230</ele>
        <time>2018-04-07T09:27:04Z</time>
      </trkpt>
      <trkpt lat="45.8724" lon="4.76014">
        <ele>229</ele>
        <time>2018-04-07T09:27:05Z</time>
      </trkpt>
      <trkpt lat="45.87239" lon="4.76006">
        <ele>229</ele>
        <time>2018-04-07T09:27:06Z</time>
      </trkpt>
      <trkpt lat="45.87236" lon="4.75996">
        <ele>228</ele>
        <time>2018-04-07T09:27:07Z</time>
      </trkpt>
      <trkpt lat="45.87235" lon="4.75987">
        <ele>228</ele>
        <time>2018-04-07T09:27:08Z</time>
      </trkpt>
      <trkpt lat="45.87233" lon="4.75978">
        <ele>228</ele>
        <time>2018-04-07T09:27:09Z</time>
      </trkpt>
      <trkpt lat="45.87232" lon="4.75967">
        <ele>228</ele>
        <time>2018-04-07T09:27:10Z</time>
      </trkpt>
      <trkpt lat="45.87231" lon="4.75956">
        <ele>228</ele>
        <time>2018-04-07T09:27:11Z</time>
      </trkpt>
      <trkpt lat="45.8723" lon="4.75946">
        <ele>228</ele>
        <time>2018-04-07T09:27:12Z</time>
      </trkpt>
      <trkpt lat="45.87229" lon="4.75935">
        <ele>228</ele>
        <time>2018-04-07T09:27:13Z</time>
      </trkpt>
      <trkpt lat="45.87227" lon="4.75924">
        <ele>228</ele>
        <time>2018-04-07T09:27:14Z</time>
      </trkpt>
      <trkpt lat="45.87226" lon="4.75914">
        <ele>227</ele>
        <time>2018-04-07T09:27:15Z</time>
      </trkpt>
      <trkpt lat="45.87225" lon="4.75903">
        <ele>227</ele>
        <time>2018-04-07T09:27:16Z</time>
      </trkpt>
      <trkpt lat="45.87225" lon="4.75892">
        <ele>227</ele>
        <time>2018-04-07T09:27:17Z</time>
      </trkpt>
      <trkpt lat="45.87224" lon="4.75881">
        <ele>226</ele>
        <time>2018-04-07T09:27:18Z</time>
      </trkpt>
      <trkpt lat="45.87223" lon="4.7587">
        <ele>226</ele>
        <time>2018-04-07T09:27:19Z</time>
      </trkpt>
      <trkpt lat="45.87223" lon="4.75859">
        <ele>226</ele>
        <time>2018-04-07T09:27:20Z</time>
      </trkpt>
      <trkpt lat="45.87221" lon="4.75849">
        <ele>226</ele>
        <time>2018-04-07T09:27:21Z</time>
      </trkpt>
      <trkpt lat="45.87219" lon="4.75838">
        <ele>226</ele>
        <time>2018-04-07T09:27:22Z</time>
      </trkpt>
      <trkpt lat="45.87217" lon="4.75827">
        <ele>224</ele>
        <time>2018-04-07T09:27:23Z</time>
      </trkpt>
      <trkpt lat="45.87214" lon="4.75817">
        <ele>224</ele>
        <time>2018-04-07T09:27:24Z</time>
      </trkpt>
      <trkpt lat="45.87211" lon="4.75806">
        <ele>224</ele>
        <time>2018-04-07T09:27:25Z</time>
      </trkpt>
      <trkpt lat="45.87207" lon="4.75796">
        <ele>224</ele>
        <time>2018-04-07T09:27:26Z</time>
      </trkpt>
      <trkpt lat="45.87203" lon="4.75787">
        <ele>224</ele>
        <time>2018-04-07T09:27:27Z</time>
      </trkpt>
      <trkpt lat="45.87201" lon="4.75777">
        <ele>224</ele>
        <time>2018-04-07T09:27:28Z</time>
      </trkpt>
      <trkpt lat="45.87199" lon="4.75767">
        <ele>224</ele>
        <time>2018-04-07T09:27:29Z</time>
      </trkpt>
      <trkpt lat="45.87196" lon="4.75758">
        <ele>224</ele>
        <time>2018-04-07T09:27:30Z</time>
      </trkpt>
      <trkpt lat="45.87192" lon="4.75748">
        <ele>223</ele>
        <time>2018-04-07T09:27:31Z</time>
      </trkpt>
      <trkpt lat="45.87189" lon="4.75739">
        <ele>223</ele>
        <time>2018-04-07T09:27:32Z</time>
      </trkpt>
      <trkpt lat="45.87186" lon="4.75731">
        <ele>223</ele>
        <time>2018-04-07T09:27:33Z</time>
      </trkpt>
      <trkpt lat="45.87184" lon="4.75722">
        <ele>223</ele>
        <time>2018-04-07T09:27:34Z</time>
      </trkpt>
      <trkpt lat="45.87181" lon="4.75714">
        <ele>223</ele>
        <time>2018-04-07T09:27:35Z</time>
      </trkpt>
      <trkpt lat="45.87181" lon="4.75706">
        <ele>223</ele>
        <time>2018-04-07T09:27:36Z</time>
      </trkpt>
      <trkpt lat="45.8718" lon="4.75697">
        <ele>223</ele>
        <time>2018-04-07T09:27:37Z</time>
      </trkpt>
      <trkpt lat="45.87179" lon="4.75688">
        <ele>223</ele>
        <time>2018-04-07T09:27:38Z</time>
      </trkpt>
      <trkpt lat="45.87178" lon="4.75679">
        <ele>223</ele>
        <time>2018-04-07T09:27:39Z</time>
      </trkpt>
      <trkpt lat="45.87177" lon="4.7567">
        <ele>223</ele>
        <time>2018-04-07T09:27:40Z</time>
      </trkpt>
      <trkpt lat="45.87176" lon="4.75661">
        <ele>223</ele>
        <time>2018-04-07T09:27:41Z</time>
      </trkpt>
      <trkpt lat="45.87176" lon="4.75651">
        <ele>222</ele>
        <time>2018-04-07T09:27:42Z</time>
      </trkpt>
      <trkpt lat="45.87176" lon="4.75642">
        <ele>222</ele>
        <time>2018-04-07T09:27:43Z</time>
      </trkpt>
      <trkpt lat="45.87178" lon="4.75632">
        <ele>222</ele>
        <time>2018-04-07T09:27:44Z</time>
      </trkpt>
      <trkpt lat="45.87178" lon="4.75622">
        <ele>222</ele>
        <time>2018-04-07T09:27:45Z</time>
      </trkpt>
      <trkpt lat="45.87179" lon="4.75612">
        <ele>222</ele>
        <time>2018-04-07T09:27:46Z</time>
      </trkpt>
      <trkpt lat="45.87179" lon="4.75601">
        <ele>222</ele>
        <time>2018-04-07T09:27:47Z</time>
      </trkpt>
      <trkpt lat="45.87179" lon="4.7559">
        <ele>222</ele>
        <time>2018-04-07T09:27:48Z</time>
      </trkpt>
      <trkpt lat="45.87179" lon="4.75579">
        <ele>222</ele>
        <time>2018-04-07T09:27:49Z</time>
      </trkpt>
      <trkpt lat="45.8718" lon="4.75569">
        <ele>222</ele>
        <time>2018-04-07T09:27:50Z</time>
      </trkpt>
      <trkpt lat="45.8718" lon="4.75559">
        <ele>222</ele>
        <time>2018-04-07T09:27:51Z</time>
      </trkpt>
      <trkpt lat="45.8718" lon="4.75548">
        <ele>222</ele>
        <time>2018-04-07T09:27:52Z</time>
      </trkpt>
      <trkpt lat="45.8718" lon="4.75538">
        <ele>222</ele>
        <time>2018-04-07T09:27:53Z</time>
      </trkpt>
      <trkpt lat="45.87181" lon="4.75529">
        <ele>222</ele>
        <time>2018-04-07T09:27:54Z</time>
      </trkpt>
      <trkpt lat="45.87181" lon="4.75519">
        <ele>222</ele>
        <time>2018-04-07T09:27:55Z</time>
      </trkpt>
      <trkpt lat="45.87182" lon="4.75508">
        <ele>222</ele>
        <time>2018-04-07T09:27:56Z</time>
      </trkpt>
      <trkpt lat="45.87181" lon="4.75499">
        <ele>223</ele>
        <time>2018-04-07T09:27:57Z</time>
      </trkpt>
      <trkpt lat="45.87181" lon="4.7549">
        <ele>222</ele>
        <time>2018-04-07T09:27:58Z</time>
      </trkpt>
      <trkpt lat="45.87181" lon="4.75481">
        <ele>222</ele>
        <time>2018-04-07T09:27:59Z</time>
      </trkpt>
      <trkpt lat="45.87181" lon="4.75472">
        <ele>222</ele>
        <time>2018-04-07T09:28:00Z</time>
      </trkpt>
      <trkpt lat="45.87181" lon="4.75464">
        <ele>222</ele>
        <time>2018-04-07T09:28:01Z</time>
      </trkpt>
      <trkpt lat="45.87181" lon="4.75455">
        <ele>222</ele>
        <time>2018-04-07T09:28:02Z</time>
      </trkpt>
      <trkpt lat="45.8718" lon="4.75448">
        <ele>222</ele>
        <time>2018-04-07T09:28:03Z</time>
      </trkpt>
      <trkpt lat="45.87179" lon="4.7544">
        <ele>222</ele>
        <time>2018-04-07T09:28:04Z</time>
      </trkpt>
      <trkpt lat="45.87178" lon="4.75429">
        <ele>223</ele>
        <time>2018-04-07T09:28:05Z</time>
      </trkpt>
      <trkpt lat="45.87178" lon="4.75421">
        <ele>223</ele>
        <time>2018-04-07T09:28:06Z</time>
      </trkpt>
      <trkpt lat="45.87177" lon="4.75413">
        <ele>223</ele>
        <time>2018-04-07T09:28:07Z</time>
      </trkpt>
      <trkpt lat="45.87175" lon="4.75406">
        <ele>223</ele>
        <time>2018-04-07T09:28:08Z</time>
      </trkpt>
      <trkpt lat="45.87176" lon="4.75398">
        <ele>223</ele>
        <time>2018-04-07T09:28:09Z</time>
      </trkpt>
      <trkpt lat="45.87175" lon="4.7539">
        <ele>223</ele>
        <time>2018-04-07T09:28:10Z</time>
      </trkpt>
      <trkpt lat="45.87175" lon="4.75382">
        <ele>223</ele>
        <time>2018-04-07T09:28:11Z</time>
      </trkpt>
      <trkpt lat="45.87174" lon="4.75374">
        <ele>223</ele>
        <time>2018-04-07T09:28:12Z</time>
      </trkpt>
      <trkpt lat="45.87174" lon="4.75366">
        <ele>223</ele>
        <time>2018-04-07T09:28:13Z</time>
      </trkpt>
      <trkpt lat="45.87174" lon="4.75357">
        <ele>223</ele>
        <time>2018-04-07T09:28:14Z</time>
      </trkpt>
      <trkpt lat="45.87174" lon="4.75349">
        <ele>223</ele>
        <time>2018-04-07T09:28:15Z</time>
      </trkpt>
      <trkpt lat="45.87174" lon="4.75341">
        <ele>224</ele>
        <time>2018-04-07T09:28:16Z</time>
      </trkpt>
      <trkpt lat="45.87173" lon="4.75334">
        <ele>224</ele>
        <time>2018-04-07T09:28:17Z</time>
      </trkpt>
      <trkpt lat="45.87173" lon="4.75326">
        <ele>224</ele>
        <time>2018-04-07T09:28:18Z</time>
      </trkpt>
      <trkpt lat="45.87172" lon="4.75319">
        <ele>223</ele>
        <time>2018-04-07T09:28:19Z</time>
      </trkpt>
      <trkpt lat="45.87172" lon="4.75312">
        <ele>223</ele>
        <time>2018-04-07T09:28:20Z</time>
      </trkpt>
      <trkpt lat="45.87172" lon="4.75305">
        <ele>223</ele>
        <time>2018-04-07T09:28:21Z</time>
      </trkpt>
      <trkpt lat="45.87171" lon="4.75297">
        <ele>223</ele>
        <time>2018-04-07T09:28:22Z</time>
      </trkpt>
      <trkpt lat="45.8717" lon="4.75289">
        <ele>223</ele>
        <time>2018-04-07T09:28:23Z</time>
      </trkpt>
      <trkpt lat="45.87169" lon="4.75281">
        <ele>223</ele>
        <time>2018-04-07T09:28:24Z</time>
      </trkpt>
      <trkpt lat="45.87168" lon="4.75274">
        <ele>223</ele>
        <time>2018-04-07T09:28:25Z</time>
      </trkpt>
      <trkpt lat="45.87167" lon="4.75267">
        <ele>223</ele>
        <time>2018-04-07T09:28:26Z</time>
      </trkpt>
      <trkpt lat="45.87165" lon="4.75261">
        <ele>224</ele>
        <time>2018-04-07T09:28:27Z</time>
      </trkpt>
      <trkpt lat="45.87163" lon="4.75253">
        <ele>223</ele>
        <time>2018-04-07T09:28:28Z</time>
      </trkpt>
      <trkpt lat="45.87162" lon="4.75245">
        <ele>224</ele>
        <time>2018-04-07T09:28:29Z</time>
      </trkpt>
      <trkpt lat="45.8716" lon="4.75239">
        <ele>224</ele>
        <time>2018-04-07T09:28:30Z</time>
      </trkpt>
      <trkpt lat="45.87159" lon="4.75232">
        <ele>224</ele>
        <time>2018-04-07T09:28:31Z</time>
      </trkpt>
      <trkpt lat="45.87159" lon="4.75226">
        <ele>224</ele>
        <time>2018-04-07T09:28:32Z</time>
      </trkpt>
      <trkpt lat="45.87157" lon="4.75218">
        <ele>225</ele>
        <time>2018-04-07T09:28:33Z</time>
      </trkpt>
      <trkpt lat="45.87156" lon="4.75212">
        <ele>225</ele>
        <time>2018-04-07T09:28:34Z</time>
      </trkpt>
      <trkpt lat="45.87154" lon="4.75206">
        <ele>225</ele>
        <time>2018-04-07T09:28:35Z</time>
      </trkpt>
      <trkpt lat="45.87153" lon="4.75199">
        <ele>225</ele>
        <time>2018-04-07T09:28:36Z</time>
      </trkpt>
      <trkpt lat="45.87151" lon="4.75191">
        <ele>225</ele>
        <time>2018-04-07T09:28:37Z</time>
      </trkpt>
      <trkpt lat="45.87149" lon="4.75184">
        <ele>225</ele>
        <time>2018-04-07T09:28:38Z</time>
      </trkpt>
      <trkpt lat="45.87147" lon="4.75176">
        <ele>225</ele>
        <time>2018-04-07T09:28:39Z</time>
      </trkpt>
      <trkpt lat="45.87146" lon="4.75168">
        <ele>225</ele>
        <time>2018-04-07T09:28:40Z</time>
      </trkpt>
      <trkpt lat="45.87145" lon="4.7516">
        <ele>225</ele>
        <time>2018-04-07T09:28:41Z</time>
      </trkpt>
      <trkpt lat="45.87143" lon="4.75153">
        <ele>225</ele>
        <time>2018-04-07T09:28:42Z</time>
      </trkpt>
      <trkpt lat="45.87142" lon="4.75145">
        <ele>225</ele>
        <time>2018-04-07T09:28:43Z</time>
      </trkpt>
      <trkpt lat="45.8714" lon="4.75138">
        <ele>225</ele>
        <time>2018-04-07T09:28:44Z</time>
      </trkpt>
      <trkpt lat="45.87139" lon="4.7513">
        <ele>225</ele>
        <time>2018-04-07T09:28:45Z</time>
      </trkpt>
      <trkpt lat="45.87137" lon="4.75123">
        <ele>225</ele>
        <time>2018-04-07T09:28:46Z</time>
      </trkpt>
      <trkpt lat="45.87136" lon="4.75115">
        <ele>225</ele>
        <time>2018-04-07T09:28:47Z</time>
      </trkpt>
      <trkpt lat="45.87135" lon="4.75109">
        <ele>225</ele>
        <time>2018-04-07T09:28:48Z</time>
      </trkpt>
      <trkpt lat="45.87133" lon="4.75102">
        <ele>225</ele>
        <time>2018-04-07T09:28:49Z</time>
      </trkpt>
      <trkpt lat="45.87132" lon="4.75096">
        <ele>225</ele>
        <time>2018-04-07T09:28:50Z</time>
      </trkpt>
      <trkpt lat="45.87131" lon="4.75089">
        <ele>225</ele>
        <time>2018-04-07T09:28:51Z</time>
      </trkpt>
      <trkpt lat="45.87129" lon="4.75083">
        <ele>225</ele>
        <time>2018-04-07T09:28:52Z</time>
      </trkpt>
      <trkpt lat="45.87128" lon="4.75076">
        <ele>225</ele>
        <time>2018-04-07T09:28:53Z</time>
      </trkpt>
      <trkpt lat="45.87127" lon="4.7507">
        <ele>225</ele>
        <time>2018-04-07T09:28:54Z</time>
      </trkpt>
      <trkpt lat="45.87126" lon="4.75062">
        <ele>225</ele>
        <time>2018-04-07T09:28:55Z</time>
      </trkpt>
      <trkpt lat="45.87126" lon="4.75055">
        <ele>225</ele>
        <time>2018-04-07T09:28:56Z</time>
      </trkpt>
      <trkpt lat="45.87125" lon="4.75047">
        <ele>225</ele>
        <time>2018-04-07T09:28:57Z</time>
      </trkpt>
      <trkpt lat="45.87123" lon="4.75038">
        <ele>226</ele>
        <time>2018-04-07T09:28:58Z</time>
      </trkpt>
      <trkpt lat="45.87123" lon="4.75031">
        <ele>226</ele>
        <time>2018-04-07T09:28:59Z</time>
      </trkpt>
      <trkpt lat="45.87122" lon="4.75024">
        <ele>226</ele>
        <time>2018-04-07T09:29:00Z</time>
      </trkpt>
      <trkpt lat="45.87122" lon="4.75012">
        <ele>226</ele>
        <time>2018-04-07T09:29:02Z</time>
      </trkpt>
      <trkpt lat="45.87121" lon="4.75005">
        <ele>226</ele>
        <time>2018-04-07T09:29:03Z</time>
      </trkpt>
      <trkpt lat="45.87123" lon="4.74993">
        <ele>226</ele>
        <time>2018-04-07T09:29:05Z</time>
      </trkpt>
      <trkpt lat="45.87124" lon="4.74988">
        <ele>226</ele>
        <time>2018-04-07T09:29:06Z</time>
      </trkpt>
      <trkpt lat="45.87124" lon="4.74981">
        <ele>226</ele>
        <time>2018-04-07T09:29:07Z</time>
      </trkpt>
      <trkpt lat="45.87124" lon="4.74974">
        <ele>226</ele>
        <time>2018-04-07T09:29:08Z</time>
      </trkpt>
      <trkpt lat="45.87125" lon="4.74962">
        <ele>226</ele>
        <time>2018-04-07T09:29:10Z</time>
      </trkpt>
      <trkpt lat="45.87127" lon="4.74956">
        <ele>226</ele>
        <time>2018-04-07T09:29:11Z</time>
      </trkpt>
      <trkpt lat="45.87132" lon="4.74951">
        <ele>226</ele>
        <time>2018-04-07T09:29:12Z</time>
      </trkpt>
      <trkpt lat="45.87136" lon="4.74945">
        <ele>226</ele>
        <time>2018-04-07T09:29:13Z</time>
      </trkpt>
      <trkpt lat="45.87138" lon="4.74938">
        <ele>226</ele>
        <time>2018-04-07T09:29:14Z</time>
      </trkpt>
      <trkpt lat="45.87141" lon="4.7493">
        <ele>226</ele>
        <time>2018-04-07T09:29:15Z</time>
      </trkpt>
      <trkpt lat="45.87141" lon="4.74921">
        <ele>226</ele>
        <time>2018-04-07T09:29:16Z</time>
      </trkpt>
      <trkpt lat="45.8714" lon="4.74912">
        <ele>225</ele>
        <time>2018-04-07T09:29:17Z</time>
      </trkpt>
      <trkpt lat="45.87136" lon="4.74906">
        <ele>225</ele>
        <time>2018-04-07T09:29:18Z</time>
      </trkpt>
      <trkpt lat="45.87133" lon="4.74898">
        <ele>225</ele>
        <time>2018-04-07T09:29:19Z</time>
      </trkpt>
      <trkpt lat="45.87131" lon="4.7489">
        <ele>225</ele>
        <time>2018-04-07T09:29:20Z</time>
      </trkpt>
      <trkpt lat="45.87131" lon="4.74882">
        <ele>225</ele>
        <time>2018-04-07T09:29:21Z</time>
      </trkpt>
      <trkpt lat="45.8713" lon="4.74874">
        <ele>225</ele>
        <time>2018-04-07T09:29:22Z</time>
      </trkpt>
      <trkpt lat="45.8713" lon="4.74864">
        <ele>225</ele>
        <time>2018-04-07T09:29:23Z</time>
      </trkpt>
      <trkpt lat="45.8713" lon="4.74854">
        <ele>224</ele>
        <time>2018-04-07T09:29:24Z</time>
      </trkpt>
      <trkpt lat="45.8713" lon="4.74845">
        <ele>224</ele>
        <time>2018-04-07T09:29:25Z</time>
      </trkpt>
      <trkpt lat="45.87131" lon="4.74836">
        <ele>224</ele>
        <time>2018-04-07T09:29:26Z</time>
      </trkpt>
      <trkpt lat="45.87131" lon="4.74826">
        <ele>223</ele>
        <time>2018-04-07T09:29:27Z</time>
      </trkpt>
      <trkpt lat="45.8713" lon="4.74817">
        <ele>223</ele>
        <time>2018-04-07T09:29:28Z</time>
      </trkpt>
      <trkpt lat="45.8713" lon="4.74807">
        <ele>222</ele>
        <time>2018-04-07T09:29:29Z</time>
      </trkpt>
      <trkpt lat="45.87129" lon="4.74798">
        <ele>222</ele>
        <time>2018-04-07T09:29:30Z</time>
      </trkpt>
      <trkpt lat="45.87129" lon="4.74789">
        <ele>222</ele>
        <time>2018-04-07T09:29:31Z</time>
      </trkpt>
      <trkpt lat="45.87128" lon="4.7478">
        <ele>222</ele>
        <time>2018-04-07T09:29:32Z</time>
      </trkpt>
      <trkpt lat="45.87128" lon="4.74771">
        <ele>222</ele>
        <time>2018-04-07T09:29:33Z</time>
      </trkpt>
      <trkpt lat="45.87128" lon="4.74761">
        <ele>222</ele>
        <time>2018-04-07T09:29:34Z</time>
      </trkpt>
      <trkpt lat="45.87127" lon="4.74752">
        <ele>222</ele>
        <time>2018-04-07T09:29:35Z</time>
      </trkpt>
      <trkpt lat="45.87127" lon="4.74743">
        <ele>221</ele>
        <time>2018-04-07T09:29:36Z</time>
      </trkpt>
      <trkpt lat="45.87126" lon="4.74734">
        <ele>221</ele>
        <time>2018-04-07T09:29:37Z</time>
      </trkpt>
      <trkpt lat="45.87126" lon="4.74725">
        <ele>221</ele>
        <time>2018-04-07T09:29:38Z</time>
      </trkpt>
      <trkpt lat="45.87126" lon="4.74715">
        <ele>221</ele>
        <time>2018-04-07T09:29:39Z</time>
      </trkpt>
      <trkpt lat="45.87126" lon="4.74707">
        <ele>221</ele>
        <time>2018-04-07T09:29:40Z</time>
      </trkpt>
      <trkpt lat="45.87126" lon="4.74697">
        <ele>221</ele>
        <time>2018-04-07T09:29:41Z</time>
      </trkpt>
      <trkpt lat="45.87124" lon="4.74689">
        <ele>221</ele>
        <time>2018-04-07T09:29:42Z</time>
      </trkpt>
      <trkpt lat="45.87124" lon="4.74679">
        <ele>221</ele>
        <time>2018-04-07T09:29:43Z</time>
      </trkpt>
      <trkpt lat="45.87122" lon="4.74671">
        <ele>221</ele>
        <time>2018-04-07T09:29:44Z</time>
      </trkpt>
      <trkpt lat="45.87121" lon="4.74662">
        <ele>222</ele>
        <time>2018-04-07T09:29:45Z</time>
      </trkpt>
      <trkpt lat="45.8712" lon="4.74654">
        <ele>222</ele>
        <time>2018-04-07T09:29:46Z</time>
      </trkpt>
      <trkpt lat="45.87121" lon="4.74644">
        <ele>222</ele>
        <time>2018-04-07T09:29:47Z</time>
      </trkpt>
      <trkpt lat="45.8712" lon="4.74636">
        <ele>222</ele>
        <time>2018-04-07T09:29:48Z</time>
      </trkpt>
      <trkpt lat="45.87118" lon="4.74627">
        <ele>222</ele>
        <time>2018-04-07T09:29:49Z</time>
      </trkpt>
      <trkpt lat="45.87117" lon="4.74618">
        <ele>222</ele>
        <time>2018-04-07T09:29:50Z</time>
      </trkpt>
      <trkpt lat="45.87117" lon="4.74609">
        <ele>222</ele>
        <time>2018-04-07T09:29:51Z</time>
      </trkpt>
      <trkpt lat="45.87119" lon="4.74599">
        <ele>222</ele>
        <time>2018-04-07T09:29:52Z</time>
      </trkpt>
      <trkpt lat="45.87118" lon="4.74591">
        <ele>222</ele>
        <time>2018-04-07T09:29:53Z</time>
      </trkpt>
      <trkpt lat="45.87118" lon="4.74582">
        <ele>221</ele>
        <time>2018-04-07T09:29:54Z</time>
      </trkpt>
      <trkpt lat="45.87116" lon="4.74574">
        <ele>220</ele>
        <time>2018-04-07T09:29:55Z</time>
      </trkpt>
      <trkpt lat="45.87113" lon="4.74567">
        <ele>220</ele>
        <time>2018-04-07T09:29:56Z</time>
      </trkpt>
      <trkpt lat="45.87109" lon="4.7456">
        <ele>220</ele>
        <time>2018-04-07T09:29:57Z</time>
      </trkpt>
      <trkpt lat="45.87107" lon="4.74549">
        <ele>220</ele>
        <time>2018-04-07T09:29:59Z</time>
      </trkpt>
      <trkpt lat="45.87107" lon="4.74546">
        <ele>220</ele>
        <time>2018-04-07T09:30:00Z</time>
      </trkpt>
      <trkpt lat="45.87109" lon="4.74538">
        <ele>220</ele>
        <time>2018-04-07T09:30:01Z</time>
      </trkpt>
      <trkpt lat="45.87111" lon="4.74533">
        <ele>220</ele>
        <time>2018-04-07T09:30:02Z</time>
      </trkpt>
      <trkpt lat="45.87113" lon="4.74529">
        <ele>220</ele>
        <time>2018-04-07T09:30:03Z</time>
      </trkpt>
      <trkpt lat="45.87117" lon="4.74523">
        <ele>219</ele>
        <time>2018-04-07T09:30:04Z</time>
      </trkpt>
      <trkpt lat="45.87119" lon="4.7451">
        <ele>219</ele>
        <time>2018-04-07T09:30:06Z</time>
      </trkpt>
      <trkpt lat="45.87119" lon="4.74502">
        <ele>219</ele>
        <time>2018-04-07T09:30:07Z</time>
      </trkpt>
      <trkpt lat="45.87117" lon="4.74495">
        <ele>218</ele>
        <time>2018-04-07T09:30:08Z</time>
      </trkpt>
      <trkpt lat="45.87116" lon="4.7449">
        <ele>218</ele>
        <time>2018-04-07T09:30:09Z</time>
      </trkpt>
      <trkpt lat="45.87114" lon="4.74483">
        <ele>218</ele>
        <time>2018-04-07T09:30:10Z</time>
      </trkpt>
      <trkpt lat="45.87111" lon="4.74478">
        <ele>218</ele>
        <time>2018-04-07T09:30:11Z</time>
      </trkpt>
      <trkpt lat="45.87111" lon="4.74471">
        <ele>218</ele>
        <time>2018-04-07T09:30:12Z</time>
      </trkpt>
      <trkpt lat="45.87109" lon="4.74464">
        <ele>218</ele>
        <time>2018-04-07T09:30:13Z</time>
      </trkpt>
      <trkpt lat="45.87107" lon="4.74455">
        <ele>218</ele>
        <time>2018-04-07T09:30:14Z</time>
      </trkpt>
      <trkpt lat="45.87105" lon="4.74447">
        <ele>218</ele>
        <time>2018-04-07T09:30:15Z</time>
      </trkpt>
      <trkpt lat="45.87103" lon="4.74439">
        <ele>218</ele>
        <time>2018-04-07T09:30:16Z</time>
      </trkpt>
      <trkpt lat="45.87101" lon="4.7443">
        <ele>218</ele>
        <time>2018-04-07T09:30:17Z</time>
      </trkpt>
      <trkpt lat="45.87099" lon="4.74422">
        <ele>218</ele>
        <time>2018-04-07T09:30:18Z</time>
      </trkpt>
      <trkpt lat="45.87098" lon="4.74412">
        <ele>218</ele>
        <time>2018-04-07T09:30:19Z</time>
      </trkpt>
      <trkpt lat="45.87095" lon="4.74404">
        <ele>218</ele>
        <time>2018-04-07T09:30:20Z</time>
      </trkpt>
      <trkpt lat="45.87094" lon="4.74395">
        <ele>218</ele>
        <time>2018-04-07T09:30:21Z</time>
      </trkpt>
      <trkpt lat="45.87094" lon="4.74387">
        <ele>218</ele>
        <time>2018-04-07T09:30:22Z</time>
      </trkpt>
      <trkpt lat="45.87092" lon="4.74378">
        <ele>218</ele>
        <time>2018-04-07T09:30:23Z</time>
      </trkpt>
      <trkpt lat="45.8709" lon="4.74372">
        <ele>218</ele>
        <time>2018-04-07T09:30:24Z</time>
      </trkpt>
      <trkpt lat="45.87089" lon="4.74364">
        <ele>218</ele>
        <time>2018-04-07T09:30:25Z</time>
      </trkpt>
      <trkpt lat="45.87087" lon="4.74356">
        <ele>218</ele>
        <time>2018-04-07T09:30:26Z</time>
      </trkpt>
      <trkpt lat="45.87088" lon="4.74349">
        <ele>218</ele>
        <time>2018-04-07T09:30:27Z</time>
      </trkpt>
      <trkpt lat="45.87085" lon="4.7434">
        <ele>219</ele>
        <time>2018-04-07T09:30:28Z</time>
      </trkpt>
      <trkpt lat="45.87082" lon="4.74332">
        <ele>219</ele>
        <time>2018-04-07T09:30:29Z</time>
      </trkpt>
      <trkpt lat="45.87079" lon="4.74323">
        <ele>218</ele>
        <time>2018-04-07T09:30:30Z</time>
      </trkpt>
      <trkpt lat="45.87078" lon="4.74314">
        <ele>218</ele>
        <time>2018-04-07T09:30:31Z</time>
      </trkpt>
      <trkpt lat="45.87077" lon="4.74306">
        <ele>218</ele>
        <time>2018-04-07T09:30:32Z</time>
      </trkpt>
      <trkpt lat="45.87076" lon="4.74297">
        <ele>218</ele>
        <time>2018-04-07T09:30:33Z</time>
      </trkpt>
      <trkpt lat="45.87075" lon="4.74287">
        <ele>217</ele>
        <time>2018-04-07T09:30:34Z</time>
      </trkpt>
      <trkpt lat="45.87077" lon="4.74278">
        <ele>217</ele>
        <time>2018-04-07T09:30:35Z</time>
      </trkpt>
      <trkpt lat="45.87076" lon="4.74268">
        <ele>216</ele>
        <time>2018-04-07T09:30:36Z</time>
      </trkpt>
      <trkpt lat="45.87076" lon="4.74258">
        <ele>215</ele>
        <time>2018-04-07T09:30:37Z</time>
      </trkpt>
      <trkpt lat="45.87075" lon="4.74248">
        <ele>214</ele>
        <time>2018-04-07T09:30:38Z</time>
      </trkpt>
      <trkpt lat="45.87075" lon="4.74238">
        <ele>214</ele>
        <time>2018-04-07T09:30:39Z</time>
      </trkpt>
      <trkpt lat="45.87075" lon="4.74226">
        <ele>214</ele>
        <time>2018-04-07T09:30:40Z</time>
      </trkpt>
      <trkpt lat="45.87073" lon="4.74216">
        <ele>214</ele>
        <time>2018-04-07T09:30:41Z</time>
      </trkpt>
      <trkpt lat="45.87075" lon="4.74203">
        <ele>213</ele>
        <time>2018-04-07T09:30:42Z</time>
      </trkpt>
      <trkpt lat="45.87076" lon="4.74192">
        <ele>213</ele>
        <time>2018-04-07T09:30:43Z</time>
      </trkpt>
      <trkpt lat="45.87076" lon="4.7418">
        <ele>212</ele>
        <time>2018-04-07T09:30:44Z</time>
      </trkpt>
      <trkpt lat="45.87075" lon="4.74169">
        <ele>212</ele>
        <time>2018-04-07T09:30:45Z</time>
      </trkpt>
      <trkpt lat="45.87075" lon="4.74157">
        <ele>212</ele>
        <time>2018-04-07T09:30:46Z</time>
      </trkpt>
      <trkpt lat="45.87074" lon="4.74147">
        <ele>212</ele>
        <time>2018-04-07T09:30:47Z</time>
      </trkpt>
      <trkpt lat="45.87074" lon="4.74137">
        <ele>212</ele>
        <time>2018-04-07T09:30:48Z</time>
      </trkpt>
      <trkpt lat="45.87075" lon="4.74128">
        <ele>212</ele>
        <time>2018-04-07T09:30:49Z</time>
      </trkpt>
      <trkpt lat="45.87075" lon="4.74119">
        <ele>212</ele>
        <time>2018-04-07T09:30:50Z</time>
      </trkpt>
      <trkpt lat="45.87075" lon="4.74113">
        <ele>212</ele>
        <time>2018-04-07T09:30:51Z</time>
      </trkpt>
      <trkpt lat="45.87075" lon="4.74105">
        <ele>212</ele>
        <time>2018-04-07T09:30:52Z</time>
      </trkpt>
      <trkpt lat="45.87075" lon="4.74096">
        <ele>212</ele>
        <time>2018-04-07T09:30:53Z</time>
      </trkpt>
      <trkpt lat="45.87075" lon="4.74088">
        <ele>212</ele>
        <time>2018-04-07T09:30:54Z</time>
      </trkpt>
      <trkpt lat="45.87075" lon="4.7408">
        <ele>213</ele>
        <time>2018-04-07T09:30:55Z</time>
      </trkpt>
      <trkpt lat="45.87075" lon="4.74071">
        <ele>213</ele>
        <time>2018-04-07T09:30:56Z</time>
      </trkpt>
      <trkpt lat="45.87075" lon="4.74062">
        <ele>214</ele>
        <time>2018-04-07T09:30:57Z</time>
      </trkpt>
      <trkpt lat="45.87075" lon="4.74054">
        <ele>214</ele>
        <time>2018-04-07T09:30:58Z</time>
      </trkpt>
      <trkpt lat="45.87075" lon="4.74045">
        <ele>215</ele>
        <time>2018-04-07T09:30:59Z</time>
      </trkpt>
      <trkpt lat="45.87074" lon="4.74036">
        <ele>215</ele>
        <time>2018-04-07T09:31:00Z</time>
      </trkpt>
      <trkpt lat="45.87076" lon="4.74026">
        <ele>215</ele>
        <time>2018-04-07T09:31:01Z</time>
      </trkpt>
      <trkpt lat="45.87076" lon="4.74018">
        <ele>215</ele>
        <time>2018-04-07T09:31:02Z</time>
      </trkpt>
      <trkpt lat="45.87076" lon="4.74009">
        <ele>216</ele>
        <time>2018-04-07T09:31:03Z</time>
      </trkpt>
      <trkpt lat="45.87076" lon="4.74001">
        <ele>216</ele>
        <time>2018-04-07T09:31:04Z</time>
      </trkpt>
      <trkpt lat="45.87076" lon="4.73993">
        <ele>217</ele>
        <time>2018-04-07T09:31:05Z</time>
      </trkpt>
      <trkpt lat="45.87077" lon="4.73985">
        <ele>217</ele>
        <time>2018-04-07T09:31:06Z</time>
      </trkpt>
      <trkpt lat="45.87077" lon="4.73977">
        <ele>217</ele>
        <time>2018-04-07T09:31:07Z</time>
      </trkpt>
      <trkpt lat="45.87077" lon="4.73969">
        <ele>217</ele>
        <time>2018-04-07T09:31:08Z</time>
      </trkpt>
      <trkpt lat="45.87077" lon="4.73961">
        <ele>217</ele>
        <time>2018-04-07T09:31:09Z</time>
      </trkpt>
      <trkpt lat="45.87076" lon="4.73953">
        <ele>218</ele>
        <time>2018-04-07T09:31:10Z</time>
      </trkpt>
      <trkpt lat="45.87074" lon="4.73944">
        <ele>218</ele>
        <time>2018-04-07T09:31:11Z</time>
      </trkpt>
      <trkpt lat="45.87073" lon="4.73936">
        <ele>218</ele>
        <time>2018-04-07T09:31:12Z</time>
      </trkpt>
      <trkpt lat="45.87073" lon="4.73926">
        <ele>218</ele>
        <time>2018-04-07T09:31:13Z</time>
      </trkpt>
      <trkpt lat="45.87073" lon="4.73917">
        <ele>218</ele>
        <time>2018-04-07T09:31:14Z</time>
      </trkpt>
      <trkpt lat="45.87072" lon="4.73907">
        <ele>218</ele>
        <time>2018-04-07T09:31:15Z</time>
      </trkpt>
      <trkpt lat="45.87073" lon="4.73898">
        <ele>218</ele>
        <time>2018-04-07T09:31:16Z</time>
      </trkpt>
      <trkpt lat="45.87071" lon="4.73889">
        <ele>218</ele>
        <time>2018-04-07T09:31:17Z</time>
      </trkpt>
      <trkpt lat="45.8707" lon="4.7388">
        <ele>218</ele>
        <time>2018-04-07T09:31:18Z</time>
      </trkpt>
      <trkpt lat="45.8707" lon="4.73871">
        <ele>218</ele>
        <time>2018-04-07T09:31:19Z</time>
      </trkpt>
      <trkpt lat="45.8707" lon="4.73861">
        <ele>218</ele>
        <time>2018-04-07T09:31:20Z</time>
      </trkpt>
      <trkpt lat="45.8707" lon="4.73851">
        <ele>218</ele>
        <time>2018-04-07T09:31:21Z</time>
      </trkpt>
      <trkpt lat="45.8707" lon="4.73842">
        <ele>218</ele>
        <time>2018-04-07T09:31:22Z</time>
      </trkpt>
      <trkpt lat="45.8707" lon="4.73832">
        <ele>217</ele>
        <time>2018-04-07T09:31:23Z</time>
      </trkpt>
      <trkpt lat="45.8707" lon="4.73822">
        <ele>217</ele>
        <time>2018-04-07T09:31:24Z</time>
      </trkpt>
      <trkpt lat="45.8707" lon="4.73812">
        <ele>217</ele>
        <time>2018-04-07T09:31:25Z</time>
      </trkpt>
      <trkpt lat="45.87069" lon="4.73801">
        <ele>217</ele>
        <time>2018-04-07T09:31:26Z</time>
      </trkpt>
      <trkpt lat="45.87069" lon="4.73791">
        <ele>217</ele>
        <time>2018-04-07T09:31:27Z</time>
      </trkpt>
      <trkpt lat="45.87071" lon="4.73781">
        <ele>217</ele>
        <time>2018-04-07T09:31:28Z</time>
      </trkpt>
      <trkpt lat="45.87072" lon="4.73771">
        <ele>217</ele>
        <time>2018-04-07T09:31:29Z</time>
      </trkpt>
      <trkpt lat="45.87073" lon="4.73762">
        <ele>216</ele>
        <time>2018-04-07T09:31:30Z</time>
      </trkpt>
      <trkpt lat="45.87074" lon="4.73752">
        <ele>216</ele>
        <time>2018-04-07T09:31:31Z</time>
      </trkpt>
      <trkpt lat="45.87075" lon="4.73743">
        <ele>216</ele>
        <time>2018-04-07T09:31:32Z</time>
      </trkpt>
      <trkpt lat="45.87076" lon="4.73733">
        <ele>216</ele>
        <time>2018-04-07T09:31:33Z</time>
      </trkpt>
      <trkpt lat="45.87077" lon="4.73724">
        <ele>217</ele>
        <time>2018-04-07T09:31:34Z</time>
      </trkpt>
      <trkpt lat="45.87079" lon="4.73714">
        <ele>217</ele>
        <time>2018-04-07T09:31:35Z</time>
      </trkpt>
      <trkpt lat="45.8708" lon="4.73705">
        <ele>217</ele>
        <time>2018-04-07T09:31:36Z</time>
      </trkpt>
      <trkpt lat="45.87082" lon="4.73696">
        <ele>217</ele>
        <time>2018-04-07T09:31:37Z</time>
      </trkpt>
      <trkpt lat="45.87083" lon="4.73688">
        <ele>215</ele>
        <time>2018-04-07T09:31:38Z</time>
      </trkpt>
      <trkpt lat="45.87085" lon="4.73678">
        <ele>215</ele>
        <time>2018-04-07T09:31:39Z</time>
      </trkpt>
      <trkpt lat="45.87086" lon="4.73668">
        <ele>216</ele>
        <time>2018-04-07T09:31:40Z</time>
      </trkpt>
      <trkpt lat="45.87088" lon="4.73659">
        <ele>215</ele>
        <time>2018-04-07T09:31:41Z</time>
      </trkpt>
      <trkpt lat="45.87089" lon="4.73649">
        <ele>215</ele>
        <time>2018-04-07T09:31:42Z</time>
      </trkpt>
      <trkpt lat="45.8709" lon="4.73639">
        <ele>214</ele>
        <time>2018-04-07T09:31:43Z</time>
      </trkpt>
      <trkpt lat="45.87091" lon="4.73628">
        <ele>214</ele>
        <time>2018-04-07T09:31:44Z</time>
      </trkpt>
      <trkpt lat="45.87092" lon="4.73616">
        <ele>214</ele>
        <time>2018-04-07T09:31:45Z</time>
      </trkpt>
      <trkpt lat="45.87093" lon="4.73605">
        <ele>214</ele>
        <time>2018-04-07T09:31:46Z</time>
      </trkpt>
      <trkpt lat="45.87096" lon="4.73594">
        <ele>214</ele>
        <time>2018-04-07T09:31:47Z</time>
      </trkpt>
      <trkpt lat="45.87098" lon="4.73583">
        <ele>214</ele>
        <time>2018-04-07T09:31:48Z</time>
      </trkpt>
      <trkpt lat="45.87098" lon="4.73573">
        <ele>213</ele>
        <time>2018-04-07T09:31:49Z</time>
      </trkpt>
      <trkpt lat="45.871" lon="4.73562">
        <ele>213</ele>
        <time>2018-04-07T09:31:50Z</time>
      </trkpt>
      <trkpt lat="45.87101" lon="4.7355">
        <ele>213</ele>
        <time>2018-04-07T09:31:51Z</time>
      </trkpt>
      <trkpt lat="45.87102" lon="4.73538">
        <ele>213</ele>
        <time>2018-04-07T09:31:52Z</time>
      </trkpt>
      <trkpt lat="45.87104" lon="4.73527">
        <ele>213</ele>
        <time>2018-04-07T09:31:53Z</time>
      </trkpt>
      <trkpt lat="45.87104" lon="4.73516">
        <ele>213</ele>
        <time>2018-04-07T09:31:54Z</time>
      </trkpt>
      <trkpt lat="45.87104" lon="4.73505">
        <ele>213</ele>
        <time>2018-04-07T09:31:55Z</time>
      </trkpt>
      <trkpt lat="45.87106" lon="4.73494">
        <ele>212</ele>
        <time>2018-04-07T09:31:56Z</time>
      </trkpt>
      <trkpt lat="45.87106" lon="4.73483">
        <ele>212</ele>
        <time>2018-04-07T09:31:57Z</time>
      </trkpt>
      <trkpt lat="45.87107" lon="4.73473">
        <ele>212</ele>
        <time>2018-04-07T09:31:58Z</time>
      </trkpt>
      <trkpt lat="45.87107" lon="4.73462">
        <ele>212</ele>
        <time>2018-04-07T09:31:59Z</time>
      </trkpt>
      <trkpt lat="45.87107" lon="4.73454">
        <ele>212</ele>
        <time>2018-04-07T09:32:00Z</time>
      </trkpt>
      <trkpt lat="45.87109" lon="4.73444">
        <ele>212</ele>
        <time>2018-04-07T09:32:01Z</time>
      </trkpt>
      <trkpt lat="45.87109" lon="4.73434">
        <ele>212</ele>
        <time>2018-04-07T09:32:02Z</time>
      </trkpt>
      <trkpt lat="45.87109" lon="4.73424">
        <ele>212</ele>
        <time>2018-04-07T09:32:03Z</time>
      </trkpt>
      <trkpt lat="45.87109" lon="4.73413">
        <ele>212</ele>
        <time>2018-04-07T09:32:04Z</time>
      </trkpt>
      <trkpt lat="45.87109" lon="4.73403">
        <ele>211</ele>
        <time>2018-04-07T09:32:05Z</time>
      </trkpt>
      <trkpt lat="45.87109" lon="4.73393">
        <ele>211</ele>
        <time>2018-04-07T09:32:06Z</time>
      </trkpt>
      <trkpt lat="45.8711" lon="4.73383">
        <ele>211</ele>
        <time>2018-04-07T09:32:07Z</time>
      </trkpt>
      <trkpt lat="45.87111" lon="4.73372">
        <ele>211</ele>
        <time>2018-04-07T09:32:08Z</time>
      </trkpt>
      <trkpt lat="45.87112" lon="4.73363">
        <ele>211</ele>
        <time>2018-04-07T09:32:09Z</time>
      </trkpt>
      <trkpt lat="45.87112" lon="4.73352">
        <ele>210</ele>
        <time>2018-04-07T09:32:10Z</time>
      </trkpt>
      <trkpt lat="45.87113" lon="4.73341">
        <ele>210</ele>
        <time>2018-04-07T09:32:11Z</time>
      </trkpt>
      <trkpt lat="45.87113" lon="4.73331">
        <ele>209</ele>
        <time>2018-04-07T09:32:12Z</time>
      </trkpt>
      <trkpt lat="45.87116" lon="4.7332">
        <ele>209</ele>
        <time>2018-04-07T09:32:13Z</time>
      </trkpt>
      <trkpt lat="45.87117" lon="4.73308">
        <ele>209</ele>
        <time>2018-04-07T09:32:14Z</time>
      </trkpt>
      <trkpt lat="45.87119" lon="4.73297">
        <ele>208</ele>
        <time>2018-04-07T09:32:15Z</time>
      </trkpt>
      <trkpt lat="45.87119" lon="4.73286">
        <ele>208</ele>
        <time>2018-04-07T09:32:16Z</time>
      </trkpt>
      <trkpt lat="45.87122" lon="4.73276">
        <ele>208</ele>
        <time>2018-04-07T09:32:17Z</time>
      </trkpt>
      <trkpt lat="45.87124" lon="4.73264">
        <ele>208</ele>
        <time>2018-04-07T09:32:18Z</time>
      </trkpt>
      <trkpt lat="45.87127" lon="4.73253">
        <ele>207</ele>
        <time>2018-04-07T09:32:19Z</time>
      </trkpt>
      <trkpt lat="45.8713" lon="4.73243">
        <ele>206</ele>
        <time>2018-04-07T09:32:20Z</time>
      </trkpt>
      <trkpt lat="45.87134" lon="4.73232">
        <ele>206</ele>
        <time>2018-04-07T09:32:21Z</time>
      </trkpt>
      <trkpt lat="45.87137" lon="4.73222">
        <ele>206</ele>
        <time>2018-04-07T09:32:22Z</time>
      </trkpt>
      <trkpt lat="45.87141" lon="4.73212">
        <ele>206</ele>
        <time>2018-04-07T09:32:23Z</time>
      </trkpt>
      <trkpt lat="45.87145" lon="4.73202">
        <ele>205</ele>
        <time>2018-04-07T09:32:24Z</time>
      </trkpt>
      <trkpt lat="45.87149" lon="4.73191">
        <ele>205</ele>
        <time>2018-04-07T09:32:25Z</time>
      </trkpt>
      <trkpt lat="45.87153" lon="4.73182">
        <ele>205</ele>
        <time>2018-04-07T09:32:26Z</time>
      </trkpt>
      <trkpt lat="45.87157" lon="4.73172">
        <ele>204</ele>
        <time>2018-04-07T09:32:27Z</time>
      </trkpt>
      <trkpt lat="45.8716" lon="4.73161">
        <ele>204</ele>
        <time>2018-04-07T09:32:28Z</time>
      </trkpt>
      <trkpt lat="45.87163" lon="4.73149">
        <ele>204</ele>
        <time>2018-04-07T09:32:29Z</time>
      </trkpt>
      <trkpt lat="45.87164" lon="4.73138">
        <ele>204</ele>
        <time>2018-04-07T09:32:30Z</time>
      </trkpt>
      <trkpt lat="45.87165" lon="4.73127">
        <ele>204</ele>
        <time>2018-04-07T09:32:31Z</time>
      </trkpt>
      <trkpt lat="45.87165" lon="4.73115">
        <ele>204</ele>
        <time>2018-04-07T09:32:32Z</time>
      </trkpt>
      <trkpt lat="45.87165" lon="4.73103">
        <ele>204</ele>
        <time>2018-04-07T09:32:33Z</time>
      </trkpt>
      <trkpt lat="45.87165" lon="4.73091">
        <ele>204</ele>
        <time>2018-04-07T09:32:34Z</time>
      </trkpt>
      <trkpt lat="45.87166" lon="4.73079">
        <ele>203</ele>
        <time>2018-04-07T09:32:35Z</time>
      </trkpt>
      <trkpt lat="45.87167" lon="4.73068">
        <ele>202</ele>
        <time>2018-04-07T09:32:36Z</time>
      </trkpt>
      <trkpt lat="45.87167" lon="4.73056">
        <ele>201</ele>
        <time>2018-04-07T09:32:37Z</time>
      </trkpt>
      <trkpt lat="45.87167" lon="4.73044">
        <ele>201</ele>
        <time>2018-04-07T09:32:38Z</time>
      </trkpt>
      <trkpt lat="45.87167" lon="4.73034">
        <ele>201</ele>
        <time>2018-04-07T09:32:39Z</time>
      </trkpt>
      <trkpt lat="45.87167" lon="4.73024">
        <ele>202</ele>
        <time>2018-04-07T09:32:40Z</time>
      </trkpt>
      <trkpt lat="45.87167" lon="4.73013">
        <ele>202</ele>
        <time>2018-04-07T09:32:41Z</time>
      </trkpt>
      <trkpt lat="45.87168" lon="4.73002">
        <ele>204</ele>
        <time>2018-04-07T09:32:42Z</time>
      </trkpt>
      <trkpt lat="45.87168" lon="4.72991">
        <ele>203</ele>
        <time>2018-04-07T09:32:43Z</time>
      </trkpt>
      <trkpt lat="45.8717" lon="4.72979">
        <ele>202</ele>
        <time>2018-04-07T09:32:44Z</time>
      </trkpt>
      <trkpt lat="45.8717" lon="4.72969">
        <ele>202</ele>
        <time>2018-04-07T09:32:45Z</time>
      </trkpt>
      <trkpt lat="45.8717" lon="4.7296">
        <ele>201</ele>
        <time>2018-04-07T09:32:46Z</time>
      </trkpt>
      <trkpt lat="45.87171" lon="4.72949">
        <ele>202</ele>
        <time>2018-04-07T09:32:47Z</time>
      </trkpt>
      <trkpt lat="45.87171" lon="4.7294">
        <ele>202</ele>
        <time>2018-04-07T09:32:48Z</time>
      </trkpt>
      <trkpt lat="45.87171" lon="4.7293">
        <ele>202</ele>
        <time>2018-04-07T09:32:49Z</time>
      </trkpt>
      <trkpt lat="45.87172" lon="4.7292">
        <ele>203</ele>
        <time>2018-04-07T09:32:50Z</time>
      </trkpt>
      <trkpt lat="45.87172" lon="4.7291">
        <ele>203</ele>
        <time>2018-04-07T09:32:51Z</time>
      </trkpt>
      <trkpt lat="45.87172" lon="4.72899">
        <ele>201</ele>
        <time>2018-04-07T09:32:52Z</time>
      </trkpt>
      <trkpt lat="45.87172" lon="4.72888">
        <ele>201</ele>
        <time>2018-04-07T09:32:53Z</time>
      </trkpt>
      <trkpt lat="45.87172" lon="4.72876">
        <ele>200</ele>
        <time>2018-04-07T09:32:54Z</time>
      </trkpt>
      <trkpt lat="45.87173" lon="4.72865">
        <ele>200</ele>
        <time>2018-04-07T09:32:55Z</time>
      </trkpt>
      <trkpt lat="45.87173" lon="4.72853">
        <ele>200</ele>
        <time>2018-04-07T09:32:56Z</time>
      </trkpt>
      <trkpt lat="45.87173" lon="4.72842">
        <ele>201</ele>
        <time>2018-04-07T09:32:57Z</time>
      </trkpt>
      <trkpt lat="45.87172" lon="4.72831">
        <ele>201</ele>
        <time>2018-04-07T09:32:58Z</time>
      </trkpt>
      <trkpt lat="45.87172" lon="4.7282">
        <ele>200</ele>
        <time>2018-04-07T09:32:59Z</time>
      </trkpt>
      <trkpt lat="45.87172" lon="4.72808">
        <ele>200</ele>
        <time>2018-04-07T09:33:00Z</time>
      </trkpt>
      <trkpt lat="45.87173" lon="4.72796">
        <ele>199</ele>
        <time>2018-04-07T09:33:01Z</time>
      </trkpt>
      <trkpt lat="45.87173" lon="4.72785">
        <ele>199</ele>
        <time>2018-04-07T09:33:02Z</time>
      </trkpt>
      <trkpt lat="45.87172" lon="4.72774">
        <ele>199</ele>
        <time>2018-04-07T09:33:03Z</time>
      </trkpt>
      <trkpt lat="45.87172" lon="4.72762">
        <ele>200</ele>
        <time>2018-04-07T09:33:04Z</time>
      </trkpt>
      <trkpt lat="45.87175" lon="4.72751">
        <ele>200</ele>
        <time>2018-04-07T09:33:05Z</time>
      </trkpt>
      <trkpt lat="45.87176" lon="4.72739">
        <ele>200</ele>
        <time>2018-04-07T09:33:06Z</time>
      </trkpt>
      <trkpt lat="45.87177" lon="4.72728">
        <ele>199</ele>
        <time>2018-04-07T09:33:07Z</time>
      </trkpt>
      <trkpt lat="45.87181" lon="4.72718">
        <ele>199</ele>
        <time>2018-04-07T09:33:08Z</time>
      </trkpt>
      <trkpt lat="45.87184" lon="4.72709">
        <ele>199</ele>
        <time>2018-04-07T09:33:09Z</time>
      </trkpt>
      <trkpt lat="45.87187" lon="4.72699">
        <ele>199</ele>
        <time>2018-04-07T09:33:10Z</time>
      </trkpt>
      <trkpt lat="45.87189" lon="4.72688">
        <ele>199</ele>
        <time>2018-04-07T09:33:11Z</time>
      </trkpt>
      <trkpt lat="45.87191" lon="4.72677">
        <ele>199</ele>
        <time>2018-04-07T09:33:12Z</time>
      </trkpt>
      <trkpt lat="45.87192" lon="4.72667">
        <ele>199</ele>
        <time>2018-04-07T09:33:13Z</time>
      </trkpt>
      <trkpt lat="45.87195" lon="4.72656">
        <ele>199</ele>
        <time>2018-04-07T09:33:14Z</time>
      </trkpt>
      <trkpt lat="45.87197" lon="4.72645">
        <ele>199</ele>
        <time>2018-04-07T09:33:15Z</time>
      </trkpt>
      <trkpt lat="45.872" lon="4.72635">
        <ele>199</ele>
        <time>2018-04-07T09:33:16Z</time>
      </trkpt>
      <trkpt lat="45.87203" lon="4.72623">
        <ele>199</ele>
        <time>2018-04-07T09:33:17Z</time>
      </trkpt>
      <trkpt lat="45.87206" lon="4.72613">
        <ele>199</ele>
        <time>2018-04-07T09:33:18Z</time>
      </trkpt>
      <trkpt lat="45.87208" lon="4.726">
        <ele>199</ele>
        <time>2018-04-07T09:33:19Z</time>
      </trkpt>
      <trkpt lat="45.87211" lon="4.72589">
        <ele>199</ele>
        <time>2018-04-07T09:33:20Z</time>
      </trkpt>
      <trkpt lat="45.87213" lon="4.72578">
        <ele>198</ele>
        <time>2018-04-07T09:33:21Z</time>
      </trkpt>
      <trkpt lat="45.87214" lon="4.72566">
        <ele>198</ele>
        <time>2018-04-07T09:33:22Z</time>
      </trkpt>
      <trkpt lat="45.87214" lon="4.72554">
        <ele>198</ele>
        <time>2018-04-07T09:33:23Z</time>
      </trkpt>
      <trkpt lat="45.87213" lon="4.72541">
        <ele>198</ele>
        <time>2018-04-07T09:33:24Z</time>
      </trkpt>
      <trkpt lat="45.87213" lon="4.72528">
        <ele>198</ele>
        <time>2018-04-07T09:33:25Z</time>
      </trkpt>
      <trkpt lat="45.87212" lon="4.72517">
        <ele>198</ele>
        <time>2018-04-07T09:33:26Z</time>
      </trkpt>
      <trkpt lat="45.87208" lon="4.72507">
        <ele>198</ele>
        <time>2018-04-07T09:33:27Z</time>
      </trkpt>
      <trkpt lat="45.87206" lon="4.72495">
        <ele>195</ele>
        <time>2018-04-07T09:33:28Z</time>
      </trkpt>
      <trkpt lat="45.87203" lon="4.72485">
        <ele>195</ele>
        <time>2018-04-07T09:33:29Z</time>
      </trkpt>
      <trkpt lat="45.872" lon="4.72475">
        <ele>195</ele>
        <time>2018-04-07T09:33:30Z</time>
      </trkpt>
      <trkpt lat="45.87195" lon="4.72467">
        <ele>195</ele>
        <time>2018-04-07T09:33:31Z</time>
      </trkpt>
      <trkpt lat="45.87191" lon="4.72458">
        <ele>195</ele>
        <time>2018-04-07T09:33:32Z</time>
      </trkpt>
      <trkpt lat="45.87188" lon="4.7245">
        <ele>194</ele>
        <time>2018-04-07T09:33:33Z</time>
      </trkpt>
      <trkpt lat="45.87184" lon="4.72441">
        <ele>194</ele>
        <time>2018-04-07T09:33:34Z</time>
      </trkpt>
      <trkpt lat="45.87181" lon="4.72432">
        <ele>194</ele>
        <time>2018-04-07T09:33:35Z</time>
      </trkpt>
      <trkpt lat="45.87178" lon="4.72424">
        <ele>194</ele>
        <time>2018-04-07T09:33:36Z</time>
      </trkpt>
      <trkpt lat="45.87176" lon="4.72418">
        <ele>194</ele>
        <time>2018-04-07T09:33:37Z</time>
      </trkpt>
      <trkpt lat="45.87172" lon="4.7241">
        <ele>193</ele>
        <time>2018-04-07T09:33:38Z</time>
      </trkpt>
      <trkpt lat="45.8717" lon="4.72402">
        <ele>192</ele>
        <time>2018-04-07T09:33:39Z</time>
      </trkpt>
      <trkpt lat="45.87166" lon="4.72394">
        <ele>197</ele>
        <time>2018-04-07T09:33:40Z</time>
      </trkpt>
      <trkpt lat="45.87163" lon="4.72386">
        <ele>197</ele>
        <time>2018-04-07T09:33:41Z</time>
      </trkpt>
      <trkpt lat="45.87158" lon="4.72379">
        <ele>197</ele>
        <time>2018-04-07T09:33:42Z</time>
      </trkpt>
      <trkpt lat="45.87155" lon="4.72371">
        <ele>197</ele>
        <time>2018-04-07T09:33:43Z</time>
      </trkpt>
      <trkpt lat="45.87151" lon="4.72363">
        <ele>197</ele>
        <time>2018-04-07T09:33:44Z</time>
      </trkpt>
      <trkpt lat="45.87147" lon="4.72355">
        <ele>196</ele>
        <time>2018-04-07T09:33:45Z</time>
      </trkpt>
      <trkpt lat="45.87143" lon="4.72348">
        <ele>196</ele>
        <time>2018-04-07T09:33:46Z</time>
      </trkpt>
      <trkpt lat="45.87139" lon="4.7234">
        <ele>197</ele>
        <time>2018-04-07T09:33:47Z</time>
      </trkpt>
      <trkpt lat="45.87136" lon="4.72331">
        <ele>195</ele>
        <time>2018-04-07T09:33:48Z</time>
      </trkpt>
      <trkpt lat="45.87132" lon="4.72323">
        <ele>196</ele>
        <time>2018-04-07T09:33:49Z</time>
      </trkpt>
      <trkpt lat="45.87128" lon="4.72314">
        <ele>196</ele>
        <time>2018-04-07T09:33:50Z</time>
      </trkpt>
      <trkpt lat="45.87123" lon="4.72306">
        <ele>197</ele>
        <time>2018-04-07T09:33:51Z</time>
      </trkpt>
      <trkpt lat="45.87119" lon="4.72298">
        <ele>197</ele>
        <time>2018-04-07T09:33:52Z</time>
      </trkpt>
      <trkpt lat="45.87114" lon="4.7229">
        <ele>197</ele>
        <time>2018-04-07T09:33:53Z</time>
      </trkpt>
      <trkpt lat="45.8711" lon="4.72283">
        <ele>197</ele>
        <time>2018-04-07T09:33:54Z</time>
      </trkpt>
      <trkpt lat="45.87105" lon="4.72276">
        <ele>197</ele>
        <time>2018-04-07T09:33:55Z</time>
      </trkpt>
      <trkpt lat="45.87099" lon="4.72269">
        <ele>197</ele>
        <time>2018-04-07T09:33:56Z</time>
      </trkpt>
      <trkpt lat="45.87094" lon="4.72262">
        <ele>198</ele>
        <time>2018-04-07T09:33:57Z</time>
      </trkpt>
      <trkpt lat="45.87087" lon="4.72254">
        <ele>198</ele>
        <time>2018-04-07T09:33:58Z</time>
      </trkpt>
      <trkpt lat="45.87082" lon="4.72249">
        <ele>199</ele>
        <time>2018-04-07T09:33:59Z</time>
      </trkpt>
      <trkpt lat="45.87076" lon="4.72242">
        <ele>200</ele>
        <time>2018-04-07T09:34:00Z</time>
      </trkpt>
      <trkpt lat="45.87071" lon="4.72236">
        <ele>200</ele>
        <time>2018-04-07T09:34:01Z</time>
      </trkpt>
      <trkpt lat="45.87064" lon="4.7223">
        <ele>200</ele>
        <time>2018-04-07T09:34:02Z</time>
      </trkpt>
      <trkpt lat="45.87058" lon="4.72224">
        <ele>200</ele>
        <time>2018-04-07T09:34:03Z</time>
      </trkpt>
      <trkpt lat="45.87051" lon="4.72218">
        <ele>201</ele>
        <time>2018-04-07T09:34:04Z</time>
      </trkpt>
      <trkpt lat="45.87045" lon="4.72213">
        <ele>201</ele>
        <time>2018-04-07T09:34:05Z</time>
      </trkpt>
      <trkpt lat="45.87037" lon="4.72208">
        <ele>201</ele>
        <time>2018-04-07T09:34:06Z</time>
      </trkpt>
      <trkpt lat="45.8703" lon="4.72203">
        <ele>201</ele>
        <time>2018-04-07T09:34:07Z</time>
      </trkpt>
      <trkpt lat="45.87024" lon="4.72198">
        <ele>201</ele>
        <time>2018-04-07T09:34:08Z</time>
      </trkpt>
      <trkpt lat="45.87018" lon="4.72193">
        <ele>201</ele>
        <time>2018-04-07T09:34:09Z</time>
      </trkpt>
      <trkpt lat="45.87011" lon="4.72189">
        <ele>201</ele>
        <time>2018-04-07T09:34:10Z</time>
      </trkpt>
      <trkpt lat="45.87005" lon="4.72185">
        <ele>201</ele>
        <time>2018-04-07T09:34:11Z</time>
      </trkpt>
      <trkpt lat="45.87" lon="4.72181">
        <ele>201</ele>
        <time>2018-04-07T09:34:12Z</time>
      </trkpt>
      <trkpt lat="45.86994" lon="4.72177">
        <ele>205</ele>
        <time>2018-04-07T09:34:13Z</time>
      </trkpt>
      <trkpt lat="45.86988" lon="4.72173">
        <ele>206</ele>
        <time>2018-04-07T09:34:14Z</time>
      </trkpt>
      <trkpt lat="45.86982" lon="4.72169">
        <ele>207</ele>
        <time>2018-04-07T09:34:15Z</time>
      </trkpt>
      <trkpt lat="45.86977" lon="4.72164">
        <ele>201</ele>
        <time>2018-04-07T09:34:16Z</time>
      </trkpt>
      <trkpt lat="45.8697" lon="4.7216">
        <ele>201</ele>
        <time>2018-04-07T09:34:17Z</time>
      </trkpt>
      <trkpt lat="45.86964" lon="4.72156">
        <ele>201</ele>
        <time>2018-04-07T09:34:18Z</time>
      </trkpt>
      <trkpt lat="45.86958" lon="4.72151">
        <ele>201</ele>
        <time>2018-04-07T09:34:19Z</time>
      </trkpt>
      <trkpt lat="45.86953" lon="4.72147">
        <ele>201</ele>
        <time>2018-04-07T09:34:20Z</time>
      </trkpt>
      <trkpt lat="45.86947" lon="4.72143">
        <ele>201</ele>
        <time>2018-04-07T09:34:21Z</time>
      </trkpt>
      <trkpt lat="45.86942" lon="4.72138">
        <ele>201</ele>
        <time>2018-04-07T09:34:22Z</time>
      </trkpt>
      <trkpt lat="45.86937" lon="4.72134">
        <ele>201</ele>
        <time>2018-04-07T09:34:23Z</time>
      </trkpt>
      <trkpt lat="45.86931" lon="4.72132">
        <ele>201</ele>
        <time>2018-04-07T09:34:24Z</time>
      </trkpt>
      <trkpt lat="45.86926" lon="4.7213">
        <ele>201</ele>
        <time>2018-04-07T09:34:25Z</time>
      </trkpt>
      <trkpt lat="45.8692" lon="4.72126">
        <ele>200</ele>
        <time>2018-04-07T09:34:26Z</time>
      </trkpt>
      <trkpt lat="45.86915" lon="4.72124">
        <ele>202</ele>
        <time>2018-04-07T09:34:27Z</time>
      </trkpt>
      <trkpt lat="45.86911" lon="4.72122">
        <ele>202</ele>
        <time>2018-04-07T09:34:28Z</time>
      </trkpt>
      <trkpt lat="45.86907" lon="4.72121">
        <ele>202</ele>
        <time>2018-04-07T09:34:29Z</time>
      </trkpt>
      <trkpt lat="45.86902" lon="4.72118">
        <ele>201</ele>
        <time>2018-04-07T09:34:30Z</time>
      </trkpt>
      <trkpt lat="45.86897" lon="4.72116">
        <ele>201</ele>
        <time>2018-04-07T09:34:31Z</time>
      </trkpt>
      <trkpt lat="45.86889" lon="4.72114">
        <ele>201</ele>
        <time>2018-04-07T09:34:33Z</time>
      </trkpt>
      <trkpt lat="45.86885" lon="4.72113">
        <ele>201</ele>
        <time>2018-04-07T09:34:34Z</time>
      </trkpt>
      <trkpt lat="45.8688" lon="4.72112">
        <ele>201</ele>
        <time>2018-04-07T09:34:35Z</time>
      </trkpt>
      <trkpt lat="45.86876" lon="4.7211">
        <ele>201</ele>
        <time>2018-04-07T09:34:36Z</time>
      </trkpt>
      <trkpt lat="45.86871" lon="4.72107">
        <ele>201</ele>
        <time>2018-04-07T09:34:37Z</time>
      </trkpt>
      <trkpt lat="45.86865" lon="4.72106">
        <ele>200</ele>
        <time>2018-04-07T09:34:38Z</time>
      </trkpt>
      <trkpt lat="45.86861" lon="4.72104">
        <ele>200</ele>
        <time>2018-04-07T09:34:39Z</time>
      </trkpt>
      <trkpt lat="45.86856" lon="4.72102">
        <ele>200</ele>
        <time>2018-04-07T09:34:40Z</time>
      </trkpt>
      <trkpt lat="45.86852" lon="4.721">
        <ele>199</ele>
        <time>2018-04-07T09:34:41Z</time>
      </trkpt>
      <trkpt lat="45.86847" lon="4.72098">
        <ele>198</ele>
        <time>2018-04-07T09:34:42Z</time>
      </trkpt>
      <trkpt lat="45.86843" lon="4.72095">
        <ele>198</ele>
        <time>2018-04-07T09:34:43Z</time>
      </trkpt>
      <trkpt lat="45.86838" lon="4.72093">
        <ele>197</ele>
        <time>2018-04-07T09:34:44Z</time>
      </trkpt>
      <trkpt lat="45.86834" lon="4.72091">
        <ele>196</ele>
        <time>2018-04-07T09:34:45Z</time>
      </trkpt>
      <trkpt lat="45.86829" lon="4.72089">
        <ele>196</ele>
        <time>2018-04-07T09:34:46Z</time>
      </trkpt>
      <trkpt lat="45.86823" lon="4.72087">
        <ele>197</ele>
        <time>2018-04-07T09:34:47Z</time>
      </trkpt>
      <trkpt lat="45.86818" lon="4.72084">
        <ele>198</ele>
        <time>2018-04-07T09:34:48Z</time>
      </trkpt>
      <trkpt lat="45.86813" lon="4.72082">
        <ele>194</ele>
        <time>2018-04-07T09:34:49Z</time>
      </trkpt>
      <trkpt lat="45.86808" lon="4.7208">
        <ele>194</ele>
        <time>2018-04-07T09:34:50Z</time>
      </trkpt>
      <trkpt lat="45.86803" lon="4.72078">
        <ele>194</ele>
        <time>2018-04-07T09:34:51Z</time>
      </trkpt>
      <trkpt lat="45.86798" lon="4.72077">
        <ele>194</ele>
        <time>2018-04-07T09:34:52Z</time>
      </trkpt>
      <trkpt lat="45.86794" lon="4.72074">
        <ele>194</ele>
        <time>2018-04-07T09:34:53Z</time>
      </trkpt>
      <trkpt lat="45.86788" lon="4.72071">
        <ele>194</ele>
        <time>2018-04-07T09:34:54Z</time>
      </trkpt>
      <trkpt lat="45.86784" lon="4.72067">
        <ele>194</ele>
        <time>2018-04-07T09:34:55Z</time>
      </trkpt>
      <trkpt lat="45.8678" lon="4.72065">
        <ele>194</ele>
        <time>2018-04-07T09:34:56Z</time>
      </trkpt>
      <trkpt lat="45.86775" lon="4.72063">
        <ele>195</ele>
        <time>2018-04-07T09:34:57Z</time>
      </trkpt>
      <trkpt lat="45.8677" lon="4.72061">
        <ele>195</ele>
        <time>2018-04-07T09:34:58Z</time>
      </trkpt>
      <trkpt lat="45.86761" lon="4.72059">
        <ele>195</ele>
        <time>2018-04-07T09:35:00Z</time>
      </trkpt>
      <trkpt lat="45.8676" lon="4.72057">
        <ele>195</ele>
        <time>2018-04-07T09:35:01Z</time>
      </trkpt>
      <trkpt lat="45.86755" lon="4.72054">
        <ele>195</ele>
        <time>2018-04-07T09:35:02Z</time>
      </trkpt>
      <trkpt lat="45.8675" lon="4.72052">
        <ele>197</ele>
        <time>2018-04-07T09:35:03Z</time>
      </trkpt>
      <trkpt lat="45.86741" lon="4.72049">
        <ele>197</ele>
        <time>2018-04-07T09:35:05Z</time>
      </trkpt>
      <trkpt lat="45.86737" lon="4.72046">
        <ele>197</ele>
        <time>2018-04-07T09:35:06Z</time>
      </trkpt>
      <trkpt lat="45.86729" lon="4.72042">
        <ele>197</ele>
        <time>2018-04-07T09:35:08Z</time>
      </trkpt>
      <trkpt lat="45.86724" lon="4.7204">
        <ele>197</ele>
        <time>2018-04-07T09:35:09Z</time>
      </trkpt>
      <trkpt lat="45.86721" lon="4.72038">
        <ele>197</ele>
        <time>2018-04-07T09:35:10Z</time>
      </trkpt>
      <trkpt lat="45.86714" lon="4.72037">
        <ele>197</ele>
        <time>2018-04-07T09:35:11Z</time>
      </trkpt>
      <trkpt lat="45.86709" lon="4.72034">
        <ele>197</ele>
        <time>2018-04-07T09:35:12Z</time>
      </trkpt>
      <trkpt lat="45.86705" lon="4.7203">
        <ele>197</ele>
        <time>2018-04-07T09:35:13Z</time>
      </trkpt>
      <trkpt lat="45.86701" lon="4.72028">
        <ele>197</ele>
        <time>2018-04-07T09:35:14Z</time>
      </trkpt>
      <trkpt lat="45.86697" lon="4.72025">
        <ele>197</ele>
        <time>2018-04-07T09:35:15Z</time>
      </trkpt>
      <trkpt lat="45.86689" lon="4.72019">
        <ele>196</ele>
        <time>2018-04-07T09:35:17Z</time>
      </trkpt>
      <trkpt lat="45.86685" lon="4.72015">
        <ele>196</ele>
        <time>2018-04-07T09:35:18Z</time>
      </trkpt>
      <trkpt lat="45.8668" lon="4.72013">
        <ele>196</ele>
        <time>2018-04-07T09:35:19Z</time>
      </trkpt>
      <trkpt lat="45.86676" lon="4.72008">
        <ele>196</ele>
        <time>2018-04-07T09:35:20Z</time>
      </trkpt>
      <trkpt lat="45.8667" lon="4.72001">
        <ele>195</ele>
        <time>2018-04-07T09:35:22Z</time>
      </trkpt>
      <trkpt lat="45.86667" lon="4.71998">
        <ele>195</ele>
        <time>2018-04-07T09:35:23Z</time>
      </trkpt>
      <trkpt lat="45.86662" lon="4.71994">
        <ele>195</ele>
        <time>2018-04-07T09:35:24Z</time>
      </trkpt>
      <trkpt lat="45.86658" lon="4.71991">
        <ele>195</ele>
        <time>2018-04-07T09:35:25Z</time>
      </trkpt>
      <trkpt lat="45.86654" lon="4.71987">
        <ele>195</ele>
        <time>2018-04-07T09:35:26Z</time>
      </trkpt>
      <trkpt lat="45.86649" lon="4.71985">
        <ele>195</ele>
        <time>2018-04-07T09:35:27Z</time>
      </trkpt>
      <trkpt lat="45.86645" lon="4.71982">
        <ele>195</ele>
        <time>2018-04-07T09:35:28Z</time>
      </trkpt>
      <trkpt lat="45.86641" lon="4.71979">
        <ele>195</ele>
        <time>2018-04-07T09:35:29Z</time>
      </trkpt>
      <trkpt lat="45.86633" lon="4.71973">
        <ele>195</ele>
        <time>2018-04-07T09:35:31Z</time>
      </trkpt>
      <trkpt lat="45.86629" lon="4.71969">
        <ele>195</ele>
        <time>2018-04-07T09:35:32Z</time>
      </trkpt>
      <trkpt lat="45.86622" lon="4.71962">
        <ele>195</ele>
        <time>2018-04-07T09:35:34Z</time>
      </trkpt>
      <trkpt lat="45.86618" lon="4.71958">
        <ele>194</ele>
        <time>2018-04-07T09:35:35Z</time>
      </trkpt>
      <trkpt lat="45.86614" lon="4.71954">
        <ele>194</ele>
        <time>2018-04-07T09:35:36Z</time>
      </trkpt>
      <trkpt lat="45.8661" lon="4.71951">
        <ele>194</ele>
        <time>2018-04-07T09:35:37Z</time>
      </trkpt>
      <trkpt lat="45.86605" lon="4.71947">
        <ele>194</ele>
        <time>2018-04-07T09:35:38Z</time>
      </trkpt>
      <trkpt lat="45.866" lon="4.71944">
        <ele>194</ele>
        <time>2018-04-07T09:35:39Z</time>
      </trkpt>
      <trkpt lat="45.86592" lon="4.71938">
        <ele>194</ele>
        <time>2018-04-07T09:35:41Z</time>
      </trkpt>
      <trkpt lat="45.86588" lon="4.71934">
        <ele>194</ele>
        <time>2018-04-07T09:35:42Z</time>
      </trkpt>
      <trkpt lat="45.86581" lon="4.71927">
        <ele>195</ele>
        <time>2018-04-07T09:35:44Z</time>
      </trkpt>
      <trkpt lat="45.86576" lon="4.71924">
        <ele>195</ele>
        <time>2018-04-07T09:35:45Z</time>
      </trkpt>
      <trkpt lat="45.86568" lon="4.71918">
        <ele>195</ele>
        <time>2018-04-07T09:35:47Z</time>
      </trkpt>
      <trkpt lat="45.86564" lon="4.71915">
        <ele>195</ele>
        <time>2018-04-07T09:35:48Z</time>
      </trkpt>
      <trkpt lat="45.86556" lon="4.71909">
        <ele>195</ele>
        <time>2018-04-07T09:35:50Z</time>
      </trkpt>
      <trkpt lat="45.86552" lon="4.71905">
        <ele>195</ele>
        <time>2018-04-07T09:35:51Z</time>
      </trkpt>
      <trkpt lat="45.86549" lon="4.71902">
        <ele>195</ele>
        <time>2018-04-07T09:35:52Z</time>
      </trkpt>
      <trkpt lat="45.86544" lon="4.71899">
        <ele>195</ele>
        <time>2018-04-07T09:35:53Z</time>
      </trkpt>
      <trkpt lat="45.86538" lon="4.71892">
        <ele>195</ele>
        <time>2018-04-07T09:35:55Z</time>
      </trkpt>
      <trkpt lat="45.86532" lon="4.71889">
        <ele>195</ele>
        <time>2018-04-07T09:35:56Z</time>
      </trkpt>
      <trkpt lat="45.86528" lon="4.71885">
        <ele>195</ele>
        <time>2018-04-07T09:35:57Z</time>
      </trkpt>
      <trkpt lat="45.86524" lon="4.71882">
        <ele>195</ele>
        <time>2018-04-07T09:35:58Z</time>
      </trkpt>
      <trkpt lat="45.86519" lon="4.71878">
        <ele>195</ele>
        <time>2018-04-07T09:35:59Z</time>
      </trkpt>
      <trkpt lat="45.86514" lon="4.71875">
        <ele>195</ele>
        <time>2018-04-07T09:36:00Z</time>
      </trkpt>
      <trkpt lat="45.8651" lon="4.71872">
        <ele>195</ele>
        <time>2018-04-07T09:36:01Z</time>
      </trkpt>
      <trkpt lat="45.86506" lon="4.71868">
        <ele>195</ele>
        <time>2018-04-07T09:36:02Z</time>
      </trkpt>
      <trkpt lat="45.86498" lon="4.71864">
        <ele>198</ele>
        <time>2018-04-07T09:36:03Z</time>
      </trkpt>
      <trkpt lat="45.86494" lon="4.7186">
        <ele>198</ele>
        <time>2018-04-07T09:36:04Z</time>
      </trkpt>
      <trkpt lat="45.86486" lon="4.71856">
        <ele>198</ele>
        <time>2018-04-07T09:36:06Z</time>
      </trkpt>
      <trkpt lat="45.86485" lon="4.71854">
        <ele>198</ele>
        <time>2018-04-07T09:36:07Z</time>
      </trkpt>
      <trkpt lat="45.8648" lon="4.7185">
        <ele>198</ele>
        <time>2018-04-07T09:36:08Z</time>
      </trkpt>
      <trkpt lat="45.86475" lon="4.71847">
        <ele>198</ele>
        <time>2018-04-07T09:36:09Z</time>
      </trkpt>
      <trkpt lat="45.86471" lon="4.71843">
        <ele>199</ele>
        <time>2018-04-07T09:36:10Z</time>
      </trkpt>
      <trkpt lat="45.86467" lon="4.7184">
        <ele>199</ele>
        <time>2018-04-07T09:36:11Z</time>
      </trkpt>
      <trkpt lat="45.86462" lon="4.71837">
        <ele>199</ele>
        <time>2018-04-07T09:36:12Z</time>
      </trkpt>
      <trkpt lat="45.86458" lon="4.71833">
        <ele>200</ele>
        <time>2018-04-07T09:36:13Z</time>
      </trkpt>
      <trkpt lat="45.86452" lon="4.7183">
        <ele>197</ele>
        <time>2018-04-07T09:36:15Z</time>
      </trkpt>
      <trkpt lat="45.86449" lon="4.71827">
        <ele>197</ele>
        <time>2018-04-07T09:36:16Z</time>
      </trkpt>
      <trkpt lat="45.86445" lon="4.71823">
        <ele>197</ele>
        <time>2018-04-07T09:36:17Z</time>
      </trkpt>
      <trkpt lat="45.86441" lon="4.7182">
        <ele>197</ele>
        <time>2018-04-07T09:36:18Z</time>
      </trkpt>
      <trkpt lat="45.86434" lon="4.71814">
        <ele>198</ele>
        <time>2018-04-07T09:36:20Z</time>
      </trkpt>
      <trkpt lat="45.86429" lon="4.7181">
        <ele>197</ele>
        <time>2018-04-07T09:36:21Z</time>
      </trkpt>
      <trkpt lat="45.86423" lon="4.71803">
        <ele>197</ele>
        <time>2018-04-07T09:36:23Z</time>
      </trkpt>
      <trkpt lat="45.86419" lon="4.718">
        <ele>197</ele>
        <time>2018-04-07T09:36:24Z</time>
      </trkpt>
      <trkpt lat="45.86415" lon="4.71796">
        <ele>199</ele>
        <time>2018-04-07T09:36:25Z</time>
      </trkpt>
      <trkpt lat="45.86411" lon="4.71792">
        <ele>198</ele>
        <time>2018-04-07T09:36:26Z</time>
      </trkpt>
      <trkpt lat="45.86403" lon="4.71787">
        <ele>198</ele>
        <time>2018-04-07T09:36:28Z</time>
      </trkpt>
      <trkpt lat="45.86399" lon="4.71784">
        <ele>198</ele>
        <time>2018-04-07T09:36:29Z</time>
      </trkpt>
      <trkpt lat="45.86391" lon="4.71778">
        <ele>198</ele>
        <time>2018-04-07T09:36:31Z</time>
      </trkpt>
      <trkpt lat="45.86387" lon="4.71774">
        <ele>198</ele>
        <time>2018-04-07T09:36:32Z</time>
      </trkpt>
      <trkpt lat="45.86382" lon="4.7177">
        <ele>198</ele>
        <time>2018-04-07T09:36:33Z</time>
      </trkpt>
      <trkpt lat="45.86378" lon="4.71767">
        <ele>198</ele>
        <time>2018-04-07T09:36:34Z</time>
      </trkpt>
      <trkpt lat="45.86373" lon="4.71764">
        <ele>198</ele>
        <time>2018-04-07T09:36:35Z</time>
      </trkpt>
      <trkpt lat="45.86369" lon="4.7176">
        <ele>198</ele>
        <time>2018-04-07T09:36:36Z</time>
      </trkpt>
      <trkpt lat="45.86364" lon="4.71757">
        <ele>198</ele>
        <time>2018-04-07T09:36:37Z</time>
      </trkpt>
      <trkpt lat="45.86359" lon="4.71755">
        <ele>198</ele>
        <time>2018-04-07T09:36:38Z</time>
      </trkpt>
      <trkpt lat="45.86356" lon="4.71749">
        <ele>195</ele>
        <time>2018-04-07T09:36:39Z</time>
      </trkpt>
      <trkpt lat="45.86351" lon="4.71746">
        <ele>195</ele>
        <time>2018-04-07T09:36:40Z</time>
      </trkpt>
      <trkpt lat="45.86347" lon="4.71743">
        <ele>195</ele>
        <time>2018-04-07T09:36:41Z</time>
      </trkpt>
      <trkpt lat="45.86342" lon="4.7174">
        <ele>195</ele>
        <time>2018-04-07T09:36:42Z</time>
      </trkpt>
      <trkpt lat="45.86334" lon="4.71737">
        <ele>195</ele>
        <time>2018-04-07T09:36:44Z</time>
      </trkpt>
      <trkpt lat="45.8633" lon="4.71733">
        <ele>196</ele>
        <time>2018-04-07T09:36:45Z</time>
      </trkpt>
      <trkpt lat="45.86326" lon="4.71731">
        <ele>196</ele>
        <time>2018-04-07T09:36:46Z</time>
      </trkpt>
      <trkpt lat="45.86322" lon="4.71727">
        <ele>196</ele>
        <time>2018-04-07T09:36:47Z</time>
      </trkpt>
      <trkpt lat="45.86314" lon="4.71721">
        <ele>196</ele>
        <time>2018-04-07T09:36:49Z</time>
      </trkpt>
      <trkpt lat="45.8631" lon="4.71718">
        <ele>196</ele>
        <time>2018-04-07T09:36:50Z</time>
      </trkpt>
      <trkpt lat="45.86304" lon="4.71711">
        <ele>195</ele>
        <time>2018-04-07T09:36:52Z</time>
      </trkpt>
      <trkpt lat="45.863" lon="4.71709">
        <ele>195</ele>
        <time>2018-04-07T09:36:53Z</time>
      </trkpt>
      <trkpt lat="45.86291" lon="4.71703">
        <ele>195</ele>
        <time>2018-04-07T09:36:55Z</time>
      </trkpt>
      <trkpt lat="45.86288" lon="4.71699">
        <ele>195</ele>
        <time>2018-04-07T09:36:56Z</time>
      </trkpt>
      <trkpt lat="45.86285" lon="4.71696">
        <ele>195</ele>
        <time>2018-04-07T09:36:57Z</time>
      </trkpt>
      <trkpt lat="45.86278" lon="4.71692">
        <ele>195</ele>
        <time>2018-04-07T09:36:58Z</time>
      </trkpt>
      <trkpt lat="45.86273" lon="4.71687">
        <ele>195</ele>
        <time>2018-04-07T09:37:00Z</time>
      </trkpt>
      <trkpt lat="45.8627" lon="4.71684">
        <ele>195</ele>
        <time>2018-04-07T09:37:01Z</time>
      </trkpt>
      <trkpt lat="45.86262" lon="4.71678">
        <ele>195</ele>
        <time>2018-04-07T09:37:03Z</time>
      </trkpt>
      <trkpt lat="45.86258" lon="4.71675">
        <ele>195</ele>
        <time>2018-04-07T09:37:04Z</time>
      </trkpt>
      <trkpt lat="45.86252" lon="4.71669">
        <ele>195</ele>
        <time>2018-04-07T09:37:06Z</time>
      </trkpt>
      <trkpt lat="45.86248" lon="4.71666">
        <ele>195</ele>
        <time>2018-04-07T09:37:07Z</time>
      </trkpt>
      <trkpt lat="45.86244" lon="4.71663">
        <ele>195</ele>
        <time>2018-04-07T09:37:08Z</time>
      </trkpt>
      <trkpt lat="45.8624" lon="4.7166">
        <ele>195</ele>
        <time>2018-04-07T09:37:09Z</time>
      </trkpt>
      <trkpt lat="45.86235" lon="4.71657">
        <ele>195</ele>
        <time>2018-04-07T09:37:10Z</time>
      </trkpt>
      <trkpt lat="45.86231" lon="4.71654">
        <ele>195</ele>
        <time>2018-04-07T09:37:11Z</time>
      </trkpt>
      <trkpt lat="45.86224" lon="4.71648">
        <ele>195</ele>
        <time>2018-04-07T09:37:13Z</time>
      </trkpt>
      <trkpt lat="45.8622" lon="4.71645">
        <ele>195</ele>
        <time>2018-04-07T09:37:14Z</time>
      </trkpt>
      <trkpt lat="45.86213" lon="4.71638">
        <ele>195</ele>
        <time>2018-04-07T09:37:16Z</time>
      </trkpt>
      <trkpt lat="45.86211" lon="4.71633">
        <ele>195</ele>
        <time>2018-04-07T09:37:17Z</time>
      </trkpt>
      <trkpt lat="45.8621" lon="4.71622">
        <ele>195</ele>
        <time>2018-04-07T09:37:19Z</time>
      </trkpt>
      <trkpt lat="45.86209" lon="4.71616">
        <ele>195</ele>
        <time>2018-04-07T09:37:20Z</time>
      </trkpt>
      <trkpt lat="45.86206" lon="4.71604">
        <ele>195</ele>
        <time>2018-04-07T09:37:22Z</time>
      </trkpt>
      <trkpt lat="45.86204" lon="4.716">
        <ele>195</ele>
        <time>2018-04-07T09:37:23Z</time>
      </trkpt>
      <trkpt lat="45.86199" lon="4.71598">
        <ele>195</ele>
        <time>2018-04-07T09:37:24Z</time>
      </trkpt>
      <trkpt lat="45.86196" lon="4.71594">
        <ele>195</ele>
        <time>2018-04-07T09:37:25Z</time>
      </trkpt>
      <trkpt lat="45.8619" lon="4.71586">
        <ele>195</ele>
        <time>2018-04-07T09:37:27Z</time>
      </trkpt>
      <trkpt lat="45.86186" lon="4.7158">
        <ele>195</ele>
        <time>2018-04-07T09:37:28Z</time>
      </trkpt>
      <trkpt lat="45.86182" lon="4.71575">
        <ele>195</ele>
        <time>2018-04-07T09:37:29Z</time>
      </trkpt>
      <trkpt lat="45.86178" lon="4.71571">
        <ele>195</ele>
        <time>2018-04-07T09:37:30Z</time>
      </trkpt>
      <trkpt lat="45.86174" lon="4.71561">
        <ele>195</ele>
        <time>2018-04-07T09:37:32Z</time>
      </trkpt>
      <trkpt lat="45.8617" lon="4.71557">
        <ele>195</ele>
        <time>2018-04-07T09:37:33Z</time>
      </trkpt>
      <trkpt lat="45.86164" lon="4.71548">
        <ele>196</ele>
        <time>2018-04-07T09:37:35Z</time>
      </trkpt>
      <trkpt lat="45.86162" lon="4.71542">
        <ele>196</ele>
        <time>2018-04-07T09:37:36Z</time>
      </trkpt>
      <trkpt lat="45.86159" lon="4.71537">
        <ele>195</ele>
        <time>2018-04-07T09:37:37Z</time>
      </trkpt>
      <trkpt lat="45.86156" lon="4.71531">
        <ele>195</ele>
        <time>2018-04-07T09:37:38Z</time>
      </trkpt>
      <trkpt lat="45.86152" lon="4.71523">
        <ele>195</ele>
        <time>2018-04-07T09:37:40Z</time>
      </trkpt>
      <trkpt lat="45.86149" lon="4.71518">
        <ele>195</ele>
        <time>2018-04-07T09:37:41Z</time>
      </trkpt>
      <trkpt lat="45.86148" lon="4.7151">
        <ele>195</ele>
        <time>2018-04-07T09:37:43Z</time>
      </trkpt>
      <trkpt lat="45.86146" lon="4.71505">
        <ele>195</ele>
        <time>2018-04-07T09:37:44Z</time>
      </trkpt>
      <trkpt lat="45.86144" lon="4.71499">
        <ele>195</ele>
        <time>2018-04-07T09:37:45Z</time>
      </trkpt>
      <trkpt lat="45.86141" lon="4.71492">
        <ele>195</ele>
        <time>2018-04-07T09:37:46Z</time>
      </trkpt>
      <trkpt lat="45.86138" lon="4.71482">
        <ele>195</ele>
        <time>2018-04-07T09:37:48Z</time>
      </trkpt>
      <trkpt lat="45.86136" lon="4.71476">
        <ele>195</ele>
        <time>2018-04-07T09:37:49Z</time>
      </trkpt>
      <trkpt lat="45.86132" lon="4.71464">
        <ele>195</ele>
        <time>2018-04-07T09:37:51Z</time>
      </trkpt>
      <trkpt lat="45.8613" lon="4.71458">
        <ele>195</ele>
        <time>2018-04-07T09:37:52Z</time>
      </trkpt>
      <trkpt lat="45.86129" lon="4.71451">
        <ele>195</ele>
        <time>2018-04-07T09:37:53Z</time>
      </trkpt>
      <trkpt lat="45.86127" lon="4.71444">
        <ele>195</ele>
        <time>2018-04-07T09:37:54Z</time>
      </trkpt>
      <trkpt lat="45.86126" lon="4.71438">
        <ele>195</ele>
        <time>2018-04-07T09:37:55Z</time>
      </trkpt>
      <trkpt lat="45.86121" lon="4.7143">
        <ele>195</ele>
        <time>2018-04-07T09:37:56Z</time>
      </trkpt>
      <trkpt lat="45.86117" lon="4.71422">
        <ele>195</ele>
        <time>2018-04-07T09:37:57Z</time>
      </trkpt>
      <trkpt lat="45.86116" lon="4.71415">
        <ele>196</ele>
        <time>2018-04-07T09:37:58Z</time>
      </trkpt>
      <trkpt lat="45.86118" lon="4.71407">
        <ele>196</ele>
        <time>2018-04-07T09:37:59Z</time>
      </trkpt>
      <trkpt lat="45.86118" lon="4.71401">
        <ele>196</ele>
        <time>2018-04-07T09:38:00Z</time>
      </trkpt>
      <trkpt lat="45.86119" lon="4.71393">
        <ele>196</ele>
        <time>2018-04-07T09:38:01Z</time>
      </trkpt>
      <trkpt lat="45.86118" lon="4.71388">
        <ele>196</ele>
        <time>2018-04-07T09:38:02Z</time>
      </trkpt>
      <trkpt lat="45.86117" lon="4.71381">
        <ele>196</ele>
        <time>2018-04-07T09:38:03Z</time>
      </trkpt>
      <trkpt lat="45.86117" lon="4.71374">
        <ele>196</ele>
        <time>2018-04-07T09:38:04Z</time>
      </trkpt>
      <trkpt lat="45.86117" lon="4.71367">
        <ele>196</ele>
        <time>2018-04-07T09:38:05Z</time>
      </trkpt>
      <trkpt lat="45.86117" lon="4.71361">
        <ele>196</ele>
        <time>2018-04-07T09:38:06Z</time>
      </trkpt>
      <trkpt lat="45.86116" lon="4.71355">
        <ele>196</ele>
        <time>2018-04-07T09:38:07Z</time>
      </trkpt>
      <trkpt lat="45.86114" lon="4.71348">
        <ele>196</ele>
        <time>2018-04-07T09:38:08Z</time>
      </trkpt>
      <trkpt lat="45.86113" lon="4.71341">
        <ele>196</ele>
        <time>2018-04-07T09:38:09Z</time>
      </trkpt>
      <trkpt lat="45.8611" lon="4.71334">
        <ele>196</ele>
        <time>2018-04-07T09:38:10Z</time>
      </trkpt>
      <trkpt lat="45.86108" lon="4.71327">
        <ele>196</ele>
        <time>2018-04-07T09:38:11Z</time>
      </trkpt>
      <trkpt lat="45.86106" lon="4.7132">
        <ele>196</ele>
        <time>2018-04-07T09:38:12Z</time>
      </trkpt>
      <trkpt lat="45.86106" lon="4.71313">
        <ele>196</ele>
        <time>2018-04-07T09:38:13Z</time>
      </trkpt>
      <trkpt lat="45.86105" lon="4.71306">
        <ele>196</ele>
        <time>2018-04-07T09:38:14Z</time>
      </trkpt>
      <trkpt lat="45.86103" lon="4.71294">
        <ele>197</ele>
        <time>2018-04-07T09:38:16Z</time>
      </trkpt>
      <trkpt lat="45.86101" lon="4.71288">
        <ele>197</ele>
        <time>2018-04-07T09:38:17Z</time>
      </trkpt>
      <trkpt lat="45.86097" lon="4.71278">
        <ele>197</ele>
        <time>2018-04-07T09:38:19Z</time>
      </trkpt>
      <trkpt lat="45.86094" lon="4.71272">
        <ele>197</ele>
        <time>2018-04-07T09:38:20Z</time>
      </trkpt>
      <trkpt lat="45.86091" lon="4.71266">
        <ele>197</ele>
        <time>2018-04-07T09:38:21Z</time>
      </trkpt>
      <trkpt lat="45.86089" lon="4.71261">
        <ele>197</ele>
        <time>2018-04-07T09:38:22Z</time>
      </trkpt>
      <trkpt lat="45.86084" lon="4.7125">
        <ele>198</ele>
        <time>2018-04-07T09:38:24Z</time>
      </trkpt>
      <trkpt lat="45.86085" lon="4.71242">
        <ele>198</ele>
        <time>2018-04-07T09:38:25Z</time>
      </trkpt>
      <trkpt lat="45.86085" lon="4.71235">
        <ele>197</ele>
        <time>2018-04-07T09:38:26Z</time>
      </trkpt>
      <trkpt lat="45.86085" lon="4.71227">
        <ele>197</ele>
        <time>2018-04-07T09:38:27Z</time>
      </trkpt>
      <trkpt lat="45.86087" lon="4.71215">
        <ele>197</ele>
        <time>2018-04-07T09:38:29Z</time>
      </trkpt>
      <trkpt lat="45.86088" lon="4.71208">
        <ele>197</ele>
        <time>2018-04-07T09:38:30Z</time>
      </trkpt>
      <trkpt lat="45.86089" lon="4.71201">
        <ele>197</ele>
        <time>2018-04-07T09:38:31Z</time>
      </trkpt>
      <trkpt lat="45.86091" lon="4.71194">
        <ele>197</ele>
        <time>2018-04-07T09:38:32Z</time>
      </trkpt>
      <trkpt lat="45.86093" lon="4.71188">
        <ele>197</ele>
        <time>2018-04-07T09:38:33Z</time>
      </trkpt>
      <trkpt lat="45.86094" lon="4.71182">
        <ele>197</ele>
        <time>2018-04-07T09:38:34Z</time>
      </trkpt>
      <trkpt lat="45.86095" lon="4.71176">
        <ele>197</ele>
        <time>2018-04-07T09:38:35Z</time>
      </trkpt>
      <trkpt lat="45.86094" lon="4.71167">
        <ele>197</ele>
        <time>2018-04-07T09:38:36Z</time>
      </trkpt>
      <trkpt lat="45.86095" lon="4.7116">
        <ele>197</ele>
        <time>2018-04-07T09:38:37Z</time>
      </trkpt>
      <trkpt lat="45.86094" lon="4.71154">
        <ele>197</ele>
        <time>2018-04-07T09:38:38Z</time>
      </trkpt>
      <trkpt lat="45.86092" lon="4.71148">
        <ele>197</ele>
        <time>2018-04-07T09:38:39Z</time>
      </trkpt>
      <trkpt lat="45.86089" lon="4.71142">
        <ele>197</ele>
        <time>2018-04-07T09:38:40Z</time>
      </trkpt>
      <trkpt lat="45.86082" lon="4.71136">
        <ele>197</ele>
        <time>2018-04-07T09:38:42Z</time>
      </trkpt>
      <trkpt lat="45.86079" lon="4.71134">
        <ele>197</ele>
        <time>2018-04-07T09:38:43Z</time>
      </trkpt>
      <trkpt lat="45.86075" lon="4.71128">
        <ele>197</ele>
        <time>2018-04-07T09:38:44Z</time>
      </trkpt>
      <trkpt lat="45.86071" lon="4.71124">
        <ele>197</ele>
        <time>2018-04-07T09:38:45Z</time>
      </trkpt>
      <trkpt lat="45.86068" lon="4.7112">
        <ele>197</ele>
        <time>2018-04-07T09:38:46Z</time>
      </trkpt>
      <trkpt lat="45.86064" lon="4.71115">
        <ele>197</ele>
        <time>2018-04-07T09:38:47Z</time>
      </trkpt>
      <trkpt lat="45.86057" lon="4.71108">
        <ele>197</ele>
        <time>2018-04-07T09:38:49Z</time>
      </trkpt>
      <trkpt lat="45.86053" lon="4.71103">
        <ele>197</ele>
        <time>2018-04-07T09:38:50Z</time>
      </trkpt>
      <trkpt lat="45.8605" lon="4.71097">
        <ele>197</ele>
        <time>2018-04-07T09:38:51Z</time>
      </trkpt>
      <trkpt lat="45.86046" lon="4.7109">
        <ele>197</ele>
        <time>2018-04-07T09:38:52Z</time>
      </trkpt>
      <trkpt lat="45.86043" lon="4.71084">
        <ele>197</ele>
        <time>2018-04-07T09:38:53Z</time>
      </trkpt>
      <trkpt lat="45.86041" lon="4.71077">
        <ele>197</ele>
        <time>2018-04-07T09:38:54Z</time>
      </trkpt>
      <trkpt lat="45.86039" lon="4.71069">
        <ele>197</ele>
        <time>2018-04-07T09:38:55Z</time>
      </trkpt>
      <trkpt lat="45.86039" lon="4.71061">
        <ele>197</ele>
        <time>2018-04-07T09:38:56Z</time>
      </trkpt>
      <trkpt lat="45.86037" lon="4.71053">
        <ele>197</ele>
        <time>2018-04-07T09:38:57Z</time>
      </trkpt>
      <trkpt lat="45.86035" lon="4.71045">
        <ele>197</ele>
        <time>2018-04-07T09:38:58Z</time>
      </trkpt>
      <trkpt lat="45.86034" lon="4.71037">
        <ele>197</ele>
        <time>2018-04-07T09:38:59Z</time>
      </trkpt>
      <trkpt lat="45.86031" lon="4.71028">
        <ele>197</ele>
        <time>2018-04-07T09:39:00Z</time>
      </trkpt>
      <trkpt lat="45.86027" lon="4.71022">
        <ele>197</ele>
        <time>2018-04-07T09:39:01Z</time>
      </trkpt>
      <trkpt lat="45.86022" lon="4.71016">
        <ele>197</ele>
        <time>2018-04-07T09:39:02Z</time>
      </trkpt>
      <trkpt lat="45.86018" lon="4.7101">
        <ele>197</ele>
        <time>2018-04-07T09:39:03Z</time>
      </trkpt>
      <trkpt lat="45.86015" lon="4.71004">
        <ele>197</ele>
        <time>2018-04-07T09:39:04Z</time>
      </trkpt>
      <trkpt lat="45.86012" lon="4.70998">
        <ele>197</ele>
        <time>2018-04-07T09:39:05Z</time>
      </trkpt>
      <trkpt lat="45.86006" lon="4.70993">
        <ele>197</ele>
        <time>2018-04-07T09:39:06Z</time>
      </trkpt>
      <trkpt lat="45.86001" lon="4.70988">
        <ele>197</ele>
        <time>2018-04-07T09:39:07Z</time>
      </trkpt>
      <trkpt lat="45.85997" lon="4.70983">
        <ele>197</ele>
        <time>2018-04-07T09:39:08Z</time>
      </trkpt>
      <trkpt lat="45.85993" lon="4.7098">
        <ele>197</ele>
        <time>2018-04-07T09:39:09Z</time>
      </trkpt>
      <trkpt lat="45.85988" lon="4.70978">
        <ele>197</ele>
        <time>2018-04-07T09:39:10Z</time>
      </trkpt>
      <trkpt lat="45.85984" lon="4.70975">
        <ele>197</ele>
        <time>2018-04-07T09:39:11Z</time>
      </trkpt>
      <trkpt lat="45.85978" lon="4.70973">
        <ele>197</ele>
        <time>2018-04-07T09:39:12Z</time>
      </trkpt>
      <trkpt lat="45.85974" lon="4.70971">
        <ele>197</ele>
        <time>2018-04-07T09:39:13Z</time>
      </trkpt>
      <trkpt lat="45.85969" lon="4.7097">
        <ele>197</ele>
        <time>2018-04-07T09:39:14Z</time>
      </trkpt>
      <trkpt lat="45.85965" lon="4.70969">
        <ele>197</ele>
        <time>2018-04-07T09:39:15Z</time>
      </trkpt>
      <trkpt lat="45.85959" lon="4.70969">
        <ele>197</ele>
        <time>2018-04-07T09:39:16Z</time>
      </trkpt>
      <trkpt lat="45.85951" lon="4.70969">
        <ele>197</ele>
        <time>2018-04-07T09:39:18Z</time>
      </trkpt>
      <trkpt lat="45.85947" lon="4.70969">
        <ele>197</ele>
        <time>2018-04-07T09:39:19Z</time>
      </trkpt>
      <trkpt lat="45.85941" lon="4.7096">
        <ele>197</ele>
        <time>2018-04-07T09:39:21Z</time>
      </trkpt>
      <trkpt lat="45.85942" lon="4.70955">
        <ele>197</ele>
        <time>2018-04-07T09:39:22Z</time>
      </trkpt>
      <trkpt lat="45.85945" lon="4.70944">
        <ele>197</ele>
        <time>2018-04-07T09:39:24Z</time>
      </trkpt>
      <trkpt lat="45.85946" lon="4.70938">
        <ele>197</ele>
        <time>2018-04-07T09:39:25Z</time>
      </trkpt>
      <trkpt lat="45.85949" lon="4.7093">
        <ele>197</ele>
        <time>2018-04-07T09:39:26Z</time>
      </trkpt>
      <trkpt lat="45.8595" lon="4.70924">
        <ele>197</ele>
        <time>2018-04-07T09:39:27Z</time>
      </trkpt>
      <trkpt lat="45.85952" lon="4.70917">
        <ele>197</ele>
        <time>2018-04-07T09:39:28Z</time>
      </trkpt>
      <trkpt lat="45.85955" lon="4.70911">
        <ele>197</ele>
        <time>2018-04-07T09:39:29Z</time>
      </trkpt>
      <trkpt lat="45.85958" lon="4.70904">
        <ele>197</ele>
        <time>2018-04-07T09:39:30Z</time>
      </trkpt>
      <trkpt lat="45.8596" lon="4.70898">
        <ele>197</ele>
        <time>2018-04-07T09:39:31Z</time>
      </trkpt>
      <trkpt lat="45.85961" lon="4.70891">
        <ele>197</ele>
        <time>2018-04-07T09:39:32Z</time>
      </trkpt>
      <trkpt lat="45.85962" lon="4.70885">
        <ele>197</ele>
        <time>2018-04-07T09:39:33Z</time>
      </trkpt>
      <trkpt lat="45.85964" lon="4.70879">
        <ele>197</ele>
        <time>2018-04-07T09:39:34Z</time>
      </trkpt>
      <trkpt lat="45.85965" lon="4.70872">
        <ele>196</ele>
        <time>2018-04-07T09:39:35Z</time>
      </trkpt>
      <trkpt lat="45.85966" lon="4.70864">
        <ele>196</ele>
        <time>2018-04-07T09:39:36Z</time>
      </trkpt>
      <trkpt lat="45.85966" lon="4.70856">
        <ele>196</ele>
        <time>2018-04-07T09:39:37Z</time>
      </trkpt>
      <trkpt lat="45.85966" lon="4.70849">
        <ele>196</ele>
        <time>2018-04-07T09:39:38Z</time>
      </trkpt>
      <trkpt lat="45.85965" lon="4.70843">
        <ele>196</ele>
        <time>2018-04-07T09:39:39Z</time>
      </trkpt>
      <trkpt lat="45.85965" lon="4.70836">
        <ele>196</ele>
        <time>2018-04-07T09:39:40Z</time>
      </trkpt>
      <trkpt lat="45.85965" lon="4.70828">
        <ele>196</ele>
        <time>2018-04-07T09:39:41Z</time>
      </trkpt>
      <trkpt lat="45.85965" lon="4.70821">
        <ele>195</ele>
        <time>2018-04-07T09:39:42Z</time>
      </trkpt>
      <trkpt lat="45.85964" lon="4.70814">
        <ele>195</ele>
        <time>2018-04-07T09:39:43Z</time>
      </trkpt>
      <trkpt lat="45.85963" lon="4.70807">
        <ele>195</ele>
        <time>2018-04-07T09:39:44Z</time>
      </trkpt>
      <trkpt lat="45.85961" lon="4.70799">
        <ele>195</ele>
        <time>2018-04-07T09:39:45Z</time>
      </trkpt>
      <trkpt lat="45.85961" lon="4.70792">
        <ele>195</ele>
        <time>2018-04-07T09:39:46Z</time>
      </trkpt>
      <trkpt lat="45.8596" lon="4.70785">
        <ele>195</ele>
        <time>2018-04-07T09:39:47Z</time>
      </trkpt>
      <trkpt lat="45.85963" lon="4.70778">
        <ele>195</ele>
        <time>2018-04-07T09:39:48Z</time>
      </trkpt>
      <trkpt lat="45.85963" lon="4.70771">
        <ele>195</ele>
        <time>2018-04-07T09:39:49Z</time>
      </trkpt>
      <trkpt lat="45.85963" lon="4.70764">
        <ele>195</ele>
        <time>2018-04-07T09:39:50Z</time>
      </trkpt>
      <trkpt lat="45.85962" lon="4.70756">
        <ele>195</ele>
        <time>2018-04-07T09:39:51Z</time>
      </trkpt>
      <trkpt lat="45.85963" lon="4.70743">
        <ele>194</ele>
        <time>2018-04-07T09:39:53Z</time>
      </trkpt>
      <trkpt lat="45.85964" lon="4.70736">
        <ele>194</ele>
        <time>2018-04-07T09:39:54Z</time>
      </trkpt>
      <trkpt lat="45.85965" lon="4.70723">
        <ele>194</ele>
        <time>2018-04-07T09:39:56Z</time>
      </trkpt>
      <trkpt lat="45.85967" lon="4.70717">
        <ele>194</ele>
        <time>2018-04-07T09:39:57Z</time>
      </trkpt>
      <trkpt lat="45.85968" lon="4.70709">
        <ele>194</ele>
        <time>2018-04-07T09:39:58Z</time>
      </trkpt>
      <trkpt lat="45.85965" lon="4.70703">
        <ele>194</ele>
        <time>2018-04-07T09:39:59Z</time>
      </trkpt>
      <trkpt lat="45.85965" lon="4.70694">
        <ele>194</ele>
        <time>2018-04-07T09:40:00Z</time>
      </trkpt>
      <trkpt lat="45.85966" lon="4.70688">
        <ele>194</ele>
        <time>2018-04-07T09:40:01Z</time>
      </trkpt>
      <trkpt lat="45.85963" lon="4.70679">
        <ele>194</ele>
        <time>2018-04-07T09:40:02Z</time>
      </trkpt>
      <trkpt lat="45.85962" lon="4.70673">
        <ele>194</ele>
        <time>2018-04-07T09:40:03Z</time>
      </trkpt>
      <trkpt lat="45.85959" lon="4.70667">
        <ele>194</ele>
        <time>2018-04-07T09:40:04Z</time>
      </trkpt>
      <trkpt lat="45.85957" lon="4.7066">
        <ele>194</ele>
        <time>2018-04-07T09:40:05Z</time>
      </trkpt>
      <trkpt lat="45.85955" lon="4.70653">
        <ele>194</ele>
        <time>2018-04-07T09:40:06Z</time>
      </trkpt>
      <trkpt lat="45.8595" lon="4.70647">
        <ele>194</ele>
        <time>2018-04-07T09:40:07Z</time>
      </trkpt>
      <trkpt lat="45.85945" lon="4.70639">
        <ele>194</ele>
        <time>2018-04-07T09:40:08Z</time>
      </trkpt>
      <trkpt lat="45.8594" lon="4.70633">
        <ele>194</ele>
        <time>2018-04-07T09:40:09Z</time>
      </trkpt>
      <trkpt lat="45.85935" lon="4.70623">
        <ele>194</ele>
        <time>2018-04-07T09:40:11Z</time>
      </trkpt>
      <trkpt lat="45.8593" lon="4.70617">
        <ele>194</ele>
        <time>2018-04-07T09:40:12Z</time>
      </trkpt>
      <trkpt lat="45.85925" lon="4.70606">
        <ele>194</ele>
        <time>2018-04-07T09:40:14Z</time>
      </trkpt>
      <trkpt lat="45.85918" lon="4.70603">
        <ele>194</ele>
        <time>2018-04-07T09:40:15Z</time>
      </trkpt>
      <trkpt lat="45.85915" lon="4.70598">
        <ele>195</ele>
        <time>2018-04-07T09:40:16Z</time>
      </trkpt>
      <trkpt lat="45.85912" lon="4.70593">
        <ele>195</ele>
        <time>2018-04-07T09:40:17Z</time>
      </trkpt>
      <trkpt lat="45.85907" lon="4.70583">
        <ele>195</ele>
        <time>2018-04-07T09:40:19Z</time>
      </trkpt>
      <trkpt lat="45.85902" lon="4.70579">
        <ele>195</ele>
        <time>2018-04-07T09:40:20Z</time>
      </trkpt>
      <trkpt lat="45.85897" lon="4.70577">
        <ele>195</ele>
        <time>2018-04-07T09:40:21Z</time>
      </trkpt>
      <trkpt lat="45.85892" lon="4.70576">
        <ele>195</ele>
        <time>2018-04-07T09:40:22Z</time>
      </trkpt>
      <trkpt lat="45.85884" lon="4.70573">
        <ele>195</ele>
        <time>2018-04-07T09:40:24Z</time>
      </trkpt>
      <trkpt lat="45.85878" lon="4.7057">
        <ele>195</ele>
        <time>2018-04-07T09:40:25Z</time>
      </trkpt>
      <trkpt lat="45.85872" lon="4.7057">
        <ele>195</ele>
        <time>2018-04-07T09:40:26Z</time>
      </trkpt>
      <trkpt lat="45.85867" lon="4.70568">
        <ele>195</ele>
        <time>2018-04-07T09:40:27Z</time>
      </trkpt>
      <trkpt lat="45.85859" lon="4.70564">
        <ele>195</ele>
        <time>2018-04-07T09:40:29Z</time>
      </trkpt>
      <trkpt lat="45.85854" lon="4.70561">
        <ele>195</ele>
        <time>2018-04-07T09:40:30Z</time>
      </trkpt>
      <trkpt lat="45.85849" lon="4.70554">
        <ele>195</ele>
        <time>2018-04-07T09:40:33Z</time>
      </trkpt>
      <trkpt lat="45.8584" lon="4.70553">
        <ele>195</ele>
        <time>2018-04-07T09:40:34Z</time>
      </trkpt>
      <trkpt lat="45.85833" lon="4.70553">
        <ele>195</ele>
        <time>2018-04-07T09:40:35Z</time>
      </trkpt>
      <trkpt lat="45.85828" lon="4.7055">
        <ele>195</ele>
        <time>2018-04-07T09:40:36Z</time>
      </trkpt>
      <trkpt lat="45.85823" lon="4.70546">
        <ele>195</ele>
        <time>2018-04-07T09:40:37Z</time>
      </trkpt>
      <trkpt lat="45.8582" lon="4.70542">
        <ele>195</ele>
        <time>2018-04-07T09:40:38Z</time>
      </trkpt>
      <trkpt lat="45.85814" lon="4.70539">
        <ele>195</ele>
        <time>2018-04-07T09:40:39Z</time>
      </trkpt>
      <trkpt lat="45.85811" lon="4.70537">
        <ele>195</ele>
        <time>2018-04-07T09:40:40Z</time>
      </trkpt>
      <trkpt lat="45.85806" lon="4.70536">
        <ele>195</ele>
        <time>2018-04-07T09:40:41Z</time>
      </trkpt>
      <trkpt lat="45.85802" lon="4.70533">
        <ele>195</ele>
        <time>2018-04-07T09:40:42Z</time>
      </trkpt>
      <trkpt lat="45.85797" lon="4.70535">
        <ele>195</ele>
        <time>2018-04-07T09:40:43Z</time>
      </trkpt>
      <trkpt lat="45.85793" lon="4.70532">
        <ele>195</ele>
        <time>2018-04-07T09:40:44Z</time>
      </trkpt>
      <trkpt lat="45.85786" lon="4.70529">
        <ele>196</ele>
        <time>2018-04-07T09:40:46Z</time>
      </trkpt>
      <trkpt lat="45.85783" lon="4.70528">
        <ele>196</ele>
        <time>2018-04-07T09:40:47Z</time>
      </trkpt>
      <trkpt lat="45.85778" lon="4.70524">
        <ele>196</ele>
        <time>2018-04-07T09:40:48Z</time>
      </trkpt>
      <trkpt lat="45.85774" lon="4.70521">
        <ele>196</ele>
        <time>2018-04-07T09:40:49Z</time>
      </trkpt>
      <trkpt lat="45.85769" lon="4.70518">
        <ele>196</ele>
        <time>2018-04-07T09:40:50Z</time>
      </trkpt>
      <trkpt lat="45.85764" lon="4.70515">
        <ele>196</ele>
        <time>2018-04-07T09:40:51Z</time>
      </trkpt>
      <trkpt lat="45.85756" lon="4.7051">
        <ele>196</ele>
        <time>2018-04-07T09:40:53Z</time>
      </trkpt>
      <trkpt lat="45.85752" lon="4.70507">
        <ele>196</ele>
        <time>2018-04-07T09:40:54Z</time>
      </trkpt>
      <trkpt lat="45.85746" lon="4.705">
        <ele>196</ele>
        <time>2018-04-07T09:40:56Z</time>
      </trkpt>
      <trkpt lat="45.85742" lon="4.70495">
        <ele>196</ele>
        <time>2018-04-07T09:40:57Z</time>
      </trkpt>
      <trkpt lat="45.85738" lon="4.7049">
        <ele>196</ele>
        <time>2018-04-07T09:40:58Z</time>
      </trkpt>
      <trkpt lat="45.85736" lon="4.70485">
        <ele>196</ele>
        <time>2018-04-07T09:40:59Z</time>
      </trkpt>
      <trkpt lat="45.85733" lon="4.70473">
        <ele>196</ele>
        <time>2018-04-07T09:41:01Z</time>
      </trkpt>
      <trkpt lat="45.85732" lon="4.70467">
        <ele>196</ele>
        <time>2018-04-07T09:41:02Z</time>
      </trkpt>
      <trkpt lat="45.85731" lon="4.7046">
        <ele>196</ele>
        <time>2018-04-07T09:41:03Z</time>
      </trkpt>
      <trkpt lat="45.85731" lon="4.70454">
        <ele>196</ele>
        <time>2018-04-07T09:41:04Z</time>
      </trkpt>
      <trkpt lat="45.85731" lon="4.70446">
        <ele>196</ele>
        <time>2018-04-07T09:41:05Z</time>
      </trkpt>
      <trkpt lat="45.8573" lon="4.7044">
        <ele>196</ele>
        <time>2018-04-07T09:41:06Z</time>
      </trkpt>
      <trkpt lat="45.8573" lon="4.70432">
        <ele>196</ele>
        <time>2018-04-07T09:41:07Z</time>
      </trkpt>
      <trkpt lat="45.8573" lon="4.70425">
        <ele>196</ele>
        <time>2018-04-07T09:41:08Z</time>
      </trkpt>
      <trkpt lat="45.85729" lon="4.70418">
        <ele>196</ele>
        <time>2018-04-07T09:41:09Z</time>
      </trkpt>
      <trkpt lat="45.85727" lon="4.70412">
        <ele>196</ele>
        <time>2018-04-07T09:41:10Z</time>
      </trkpt>
      <trkpt lat="45.85725" lon="4.70399">
        <ele>196</ele>
        <time>2018-04-07T09:41:12Z</time>
      </trkpt>
      <trkpt lat="45.85724" lon="4.70393">
        <ele>196</ele>
        <time>2018-04-07T09:41:13Z</time>
      </trkpt>
      <trkpt lat="45.85723" lon="4.70386">
        <ele>196</ele>
        <time>2018-04-07T09:41:14Z</time>
      </trkpt>
      <trkpt lat="45.85722" lon="4.7038">
        <ele>196</ele>
        <time>2018-04-07T09:41:15Z</time>
      </trkpt>
      <trkpt lat="45.85721" lon="4.70373">
        <ele>196</ele>
        <time>2018-04-07T09:41:16Z</time>
      </trkpt>
      <trkpt lat="45.8572" lon="4.70365">
        <ele>196</ele>
        <time>2018-04-07T09:41:17Z</time>
      </trkpt>
      <trkpt lat="45.85719" lon="4.70359">
        <ele>196</ele>
        <time>2018-04-07T09:41:18Z</time>
      </trkpt>
      <trkpt lat="45.85717" lon="4.70352">
        <ele>196</ele>
        <time>2018-04-07T09:41:19Z</time>
      </trkpt>
      <trkpt lat="45.85716" lon="4.70344">
        <ele>196</ele>
        <time>2018-04-07T09:41:20Z</time>
      </trkpt>
      <trkpt lat="45.85715" lon="4.70335">
        <ele>196</ele>
        <time>2018-04-07T09:41:21Z</time>
      </trkpt>
      <trkpt lat="45.85713" lon="4.70328">
        <ele>197</ele>
        <time>2018-04-07T09:41:22Z</time>
      </trkpt>
      <trkpt lat="45.85712" lon="4.70321">
        <ele>197</ele>
        <time>2018-04-07T09:41:23Z</time>
      </trkpt>
      <trkpt lat="45.85711" lon="4.70314">
        <ele>197</ele>
        <time>2018-04-07T09:41:24Z</time>
      </trkpt>
      <trkpt lat="45.8571" lon="4.70307">
        <ele>197</ele>
        <time>2018-04-07T09:41:25Z</time>
      </trkpt>
      <trkpt lat="45.85709" lon="4.703">
        <ele>197</ele>
        <time>2018-04-07T09:41:26Z</time>
      </trkpt>
      <trkpt lat="45.85707" lon="4.70293">
        <ele>197</ele>
        <time>2018-04-07T09:41:27Z</time>
      </trkpt>
      <trkpt lat="45.85706" lon="4.70286">
        <ele>197</ele>
        <time>2018-04-07T09:41:28Z</time>
      </trkpt>
      <trkpt lat="45.85707" lon="4.70279">
        <ele>197</ele>
        <time>2018-04-07T09:41:29Z</time>
      </trkpt>
      <trkpt lat="45.85707" lon="4.70272">
        <ele>197</ele>
        <time>2018-04-07T09:41:30Z</time>
      </trkpt>
      <trkpt lat="45.85706" lon="4.70265">
        <ele>197</ele>
        <time>2018-04-07T09:41:31Z</time>
      </trkpt>
      <trkpt lat="45.85705" lon="4.70259">
        <ele>197</ele>
        <time>2018-04-07T09:41:32Z</time>
      </trkpt>
      <trkpt lat="45.85704" lon="4.70252">
        <ele>197</ele>
        <time>2018-04-07T09:41:33Z</time>
      </trkpt>
      <trkpt lat="45.85703" lon="4.70245">
        <ele>197</ele>
        <time>2018-04-07T09:41:34Z</time>
      </trkpt>
      <trkpt lat="45.85702" lon="4.70237">
        <ele>197</ele>
        <time>2018-04-07T09:41:35Z</time>
      </trkpt>
      <trkpt lat="45.857" lon="4.70226">
        <ele>197</ele>
        <time>2018-04-07T09:41:37Z</time>
      </trkpt>
      <trkpt lat="45.857" lon="4.7022">
        <ele>197</ele>
        <time>2018-04-07T09:41:38Z</time>
      </trkpt>
      <trkpt lat="45.85699" lon="4.70212">
        <ele>197</ele>
        <time>2018-04-07T09:41:39Z</time>
      </trkpt>
      <trkpt lat="45.85698" lon="4.70205">
        <ele>197</ele>
        <time>2018-04-07T09:41:40Z</time>
      </trkpt>
      <trkpt lat="45.85696" lon="4.70199">
        <ele>197</ele>
        <time>2018-04-07T09:41:41Z</time>
      </trkpt>
      <trkpt lat="45.85694" lon="4.70192">
        <ele>197</ele>
        <time>2018-04-07T09:41:42Z</time>
      </trkpt>
      <trkpt lat="45.85692" lon="4.70185">
        <ele>197</ele>
        <time>2018-04-07T09:41:43Z</time>
      </trkpt>
      <trkpt lat="45.85689" lon="4.70178">
        <ele>197</ele>
        <time>2018-04-07T09:41:44Z</time>
      </trkpt>
      <trkpt lat="45.85687" lon="4.70171">
        <ele>197</ele>
        <time>2018-04-07T09:41:45Z</time>
      </trkpt>
      <trkpt lat="45.85686" lon="4.70163">
        <ele>197</ele>
        <time>2018-04-07T09:41:46Z</time>
      </trkpt>
      <trkpt lat="45.85684" lon="4.70156">
        <ele>197</ele>
        <time>2018-04-07T09:41:47Z</time>
      </trkpt>
      <trkpt lat="45.85682" lon="4.7015">
        <ele>197</ele>
        <time>2018-04-07T09:41:48Z</time>
      </trkpt>
      <trkpt lat="45.85681" lon="4.70142">
        <ele>197</ele>
        <time>2018-04-07T09:41:49Z</time>
      </trkpt>
      <trkpt lat="45.8568" lon="4.70135">
        <ele>197</ele>
        <time>2018-04-07T09:41:50Z</time>
      </trkpt>
      <trkpt lat="45.85679" lon="4.70127">
        <ele>197</ele>
        <time>2018-04-07T09:41:51Z</time>
      </trkpt>
      <trkpt lat="45.85679" lon="4.70119">
        <ele>197</ele>
        <time>2018-04-07T09:41:52Z</time>
      </trkpt>
      <trkpt lat="45.85678" lon="4.70112">
        <ele>197</ele>
        <time>2018-04-07T09:41:53Z</time>
      </trkpt>
      <trkpt lat="45.85678" lon="4.70104">
        <ele>196</ele>
        <time>2018-04-07T09:41:54Z</time>
      </trkpt>
      <trkpt lat="45.85679" lon="4.70097">
        <ele>196</ele>
        <time>2018-04-07T09:41:55Z</time>
      </trkpt>
      <trkpt lat="45.8568" lon="4.70091">
        <ele>196</ele>
        <time>2018-04-07T09:41:56Z</time>
      </trkpt>
      <trkpt lat="45.85681" lon="4.70084">
        <ele>196</ele>
        <time>2018-04-07T09:41:57Z</time>
      </trkpt>
      <trkpt lat="45.85682" lon="4.70078">
        <ele>196</ele>
        <time>2018-04-07T09:41:58Z</time>
      </trkpt>
      <trkpt lat="45.85684" lon="4.70067">
        <ele>196</ele>
        <time>2018-04-07T09:42:00Z</time>
      </trkpt>
      <trkpt lat="45.85685" lon="4.70061">
        <ele>196</ele>
        <time>2018-04-07T09:42:01Z</time>
      </trkpt>
      <trkpt lat="45.85688" lon="4.7005">
        <ele>195</ele>
        <time>2018-04-07T09:42:03Z</time>
      </trkpt>
      <trkpt lat="45.85689" lon="4.70045">
        <ele>195</ele>
        <time>2018-04-07T09:42:04Z</time>
      </trkpt>
      <trkpt lat="45.8569" lon="4.70039">
        <ele>195</ele>
        <time>2018-04-07T09:42:05Z</time>
      </trkpt>
      <trkpt lat="45.85692" lon="4.70032">
        <ele>195</ele>
        <time>2018-04-07T09:42:06Z</time>
      </trkpt>
      <trkpt lat="45.85693" lon="4.70026">
        <ele>195</ele>
        <time>2018-04-07T09:42:07Z</time>
      </trkpt>
      <trkpt lat="45.85694" lon="4.70018">
        <ele>195</ele>
        <time>2018-04-07T09:42:08Z</time>
      </trkpt>
      <trkpt lat="45.85695" lon="4.7001">
        <ele>195</ele>
        <time>2018-04-07T09:42:09Z</time>
      </trkpt>
      <trkpt lat="45.85695" lon="4.70002">
        <ele>195</ele>
        <time>2018-04-07T09:42:10Z</time>
      </trkpt>
      <trkpt lat="45.85694" lon="4.69993">
        <ele>195</ele>
        <time>2018-04-07T09:42:11Z</time>
      </trkpt>
      <trkpt lat="45.85693" lon="4.69986">
        <ele>195</ele>
        <time>2018-04-07T09:42:12Z</time>
      </trkpt>
      <trkpt lat="45.85691" lon="4.69977">
        <ele>195</ele>
        <time>2018-04-07T09:42:13Z</time>
      </trkpt>
      <trkpt lat="45.8569" lon="4.69968">
        <ele>195</ele>
        <time>2018-04-07T09:42:14Z</time>
      </trkpt>
      <trkpt lat="45.85688" lon="4.6996">
        <ele>195</ele>
        <time>2018-04-07T09:42:15Z</time>
      </trkpt>
      <trkpt lat="45.85685" lon="4.69952">
        <ele>195</ele>
        <time>2018-04-07T09:42:16Z</time>
      </trkpt>
      <trkpt lat="45.85683" lon="4.69944">
        <ele>195</ele>
        <time>2018-04-07T09:42:17Z</time>
      </trkpt>
      <trkpt lat="45.8568" lon="4.69934">
        <ele>195</ele>
        <time>2018-04-07T09:42:18Z</time>
      </trkpt>
      <trkpt lat="45.85677" lon="4.69926">
        <ele>195</ele>
        <time>2018-04-07T09:42:19Z</time>
      </trkpt>
      <trkpt lat="45.85675" lon="4.69917">
        <ele>195</ele>
        <time>2018-04-07T09:42:20Z</time>
      </trkpt>
      <trkpt lat="45.85673" lon="4.69909">
        <ele>195</ele>
        <time>2018-04-07T09:42:21Z</time>
      </trkpt>
      <trkpt lat="45.85671" lon="4.69901">
        <ele>195</ele>
        <time>2018-04-07T09:42:22Z</time>
      </trkpt>
      <trkpt lat="45.85669" lon="4.69893">
        <ele>195</ele>
        <time>2018-04-07T09:42:23Z</time>
      </trkpt>
      <trkpt lat="45.85668" lon="4.69886">
        <ele>195</ele>
        <time>2018-04-07T09:42:24Z</time>
      </trkpt>
      <trkpt lat="45.85668" lon="4.69878">
        <ele>195</ele>
        <time>2018-04-07T09:42:25Z</time>
      </trkpt>
      <trkpt lat="45.85667" lon="4.6987">
        <ele>195</ele>
        <time>2018-04-07T09:42:26Z</time>
      </trkpt>
      <trkpt lat="45.85667" lon="4.69862">
        <ele>195</ele>
        <time>2018-04-07T09:42:27Z</time>
      </trkpt>
      <trkpt lat="45.85666" lon="4.69855">
        <ele>195</ele>
        <time>2018-04-07T09:42:28Z</time>
      </trkpt>
      <trkpt lat="45.85664" lon="4.69847">
        <ele>195</ele>
        <time>2018-04-07T09:42:29Z</time>
      </trkpt>
      <trkpt lat="45.85664" lon="4.69839">
        <ele>195</ele>
        <time>2018-04-07T09:42:30Z</time>
      </trkpt>
      <trkpt lat="45.85664" lon="4.69831">
        <ele>195</ele>
        <time>2018-04-07T09:42:31Z</time>
      </trkpt>
      <trkpt lat="45.85663" lon="4.69822">
        <ele>195</ele>
        <time>2018-04-07T09:42:32Z</time>
      </trkpt>
      <trkpt lat="45.85663" lon="4.69814">
        <ele>195</ele>
        <time>2018-04-07T09:42:33Z</time>
      </trkpt>
      <trkpt lat="45.85661" lon="4.69807">
        <ele>195</ele>
        <time>2018-04-07T09:42:34Z</time>
      </trkpt>
      <trkpt lat="45.8566" lon="4.698">
        <ele>195</ele>
        <time>2018-04-07T09:42:35Z</time>
      </trkpt>
      <trkpt lat="45.85659" lon="4.69792">
        <ele>195</ele>
        <time>2018-04-07T09:42:36Z</time>
      </trkpt>
      <trkpt lat="45.85658" lon="4.69784">
        <ele>195</ele>
        <time>2018-04-07T09:42:37Z</time>
      </trkpt>
      <trkpt lat="45.85658" lon="4.69776">
        <ele>195</ele>
        <time>2018-04-07T09:42:38Z</time>
      </trkpt>
      <trkpt lat="45.85657" lon="4.69769">
        <ele>195</ele>
        <time>2018-04-07T09:42:39Z</time>
      </trkpt>
      <trkpt lat="45.85657" lon="4.69762">
        <ele>195</ele>
        <time>2018-04-07T09:42:40Z</time>
      </trkpt>
      <trkpt lat="45.85656" lon="4.69754">
        <ele>195</ele>
        <time>2018-04-07T09:42:41Z</time>
      </trkpt>
      <trkpt lat="45.85655" lon="4.69746">
        <ele>195</ele>
        <time>2018-04-07T09:42:42Z</time>
      </trkpt>
      <trkpt lat="45.85654" lon="4.69738">
        <ele>195</ele>
        <time>2018-04-07T09:42:43Z</time>
      </trkpt>
      <trkpt lat="45.85652" lon="4.69731">
        <ele>195</ele>
        <time>2018-04-07T09:42:44Z</time>
      </trkpt>
      <trkpt lat="45.85651" lon="4.69722">
        <ele>195</ele>
        <time>2018-04-07T09:42:45Z</time>
      </trkpt>
      <trkpt lat="45.8565" lon="4.69713">
        <ele>196</ele>
        <time>2018-04-07T09:42:46Z</time>
      </trkpt>
      <trkpt lat="45.8565" lon="4.69705">
        <ele>196</ele>
        <time>2018-04-07T09:42:47Z</time>
      </trkpt>
      <trkpt lat="45.8565" lon="4.69696">
        <ele>196</ele>
        <time>2018-04-07T09:42:48Z</time>
      </trkpt>
      <trkpt lat="45.85649" lon="4.69688">
        <ele>196</ele>
        <time>2018-04-07T09:42:49Z</time>
      </trkpt>
      <trkpt lat="45.85648" lon="4.69678">
        <ele>196</ele>
        <time>2018-04-07T09:42:50Z</time>
      </trkpt>
      <trkpt lat="45.85646" lon="4.69669">
        <ele>196</ele>
        <time>2018-04-07T09:42:51Z</time>
      </trkpt>
      <trkpt lat="45.85645" lon="4.6966">
        <ele>197</ele>
        <time>2018-04-07T09:42:52Z</time>
      </trkpt>
      <trkpt lat="45.85645" lon="4.6965">
        <ele>197</ele>
        <time>2018-04-07T09:42:53Z</time>
      </trkpt>
      <trkpt lat="45.85644" lon="4.69641">
        <ele>197</ele>
        <time>2018-04-07T09:42:54Z</time>
      </trkpt>
      <trkpt lat="45.85643" lon="4.69632">
        <ele>197</ele>
        <time>2018-04-07T09:42:55Z</time>
      </trkpt>
      <trkpt lat="45.85643" lon="4.69623">
        <ele>197</ele>
        <time>2018-04-07T09:42:56Z</time>
      </trkpt>
      <trkpt lat="45.85642" lon="4.69615">
        <ele>197</ele>
        <time>2018-04-07T09:42:57Z</time>
      </trkpt>
      <trkpt lat="45.85641" lon="4.69607">
        <ele>197</ele>
        <time>2018-04-07T09:42:58Z</time>
      </trkpt>
      <trkpt lat="45.8564" lon="4.696">
        <ele>197</ele>
        <time>2018-04-07T09:42:59Z</time>
      </trkpt>
      <trkpt lat="45.85639" lon="4.69592">
        <ele>197</ele>
        <time>2018-04-07T09:43:00Z</time>
      </trkpt>
      <trkpt lat="45.85638" lon="4.69584">
        <ele>197</ele>
        <time>2018-04-07T09:43:01Z</time>
      </trkpt>
      <trkpt lat="45.85637" lon="4.69576">
        <ele>198</ele>
        <time>2018-04-07T09:43:02Z</time>
      </trkpt>
      <trkpt lat="45.85636" lon="4.69569">
        <ele>198</ele>
        <time>2018-04-07T09:43:03Z</time>
      </trkpt>
      <trkpt lat="45.85636" lon="4.69561">
        <ele>198</ele>
        <time>2018-04-07T09:43:04Z</time>
      </trkpt>
      <trkpt lat="45.85636" lon="4.69553">
        <ele>198</ele>
        <time>2018-04-07T09:43:05Z</time>
      </trkpt>
      <trkpt lat="45.85635" lon="4.69545">
        <ele>198</ele>
        <time>2018-04-07T09:43:06Z</time>
      </trkpt>
      <trkpt lat="45.85634" lon="4.69539">
        <ele>198</ele>
        <time>2018-04-07T09:43:07Z</time>
      </trkpt>
      <trkpt lat="45.85634" lon="4.69532">
        <ele>198</ele>
        <time>2018-04-07T09:43:08Z</time>
      </trkpt>
      <trkpt lat="45.85634" lon="4.69524">
        <ele>198</ele>
        <time>2018-04-07T09:43:09Z</time>
      </trkpt>
      <trkpt lat="45.85633" lon="4.69517">
        <ele>198</ele>
        <time>2018-04-07T09:43:10Z</time>
      </trkpt>
      <trkpt lat="45.85633" lon="4.69509">
        <ele>198</ele>
        <time>2018-04-07T09:43:11Z</time>
      </trkpt>
      <trkpt lat="45.85632" lon="4.69502">
        <ele>198</ele>
        <time>2018-04-07T09:43:12Z</time>
      </trkpt>
      <trkpt lat="45.85631" lon="4.69494">
        <ele>198</ele>
        <time>2018-04-07T09:43:13Z</time>
      </trkpt>
      <trkpt lat="45.85631" lon="4.69486">
        <ele>198</ele>
        <time>2018-04-07T09:43:14Z</time>
      </trkpt>
      <trkpt lat="45.8563" lon="4.69479">
        <ele>198</ele>
        <time>2018-04-07T09:43:15Z</time>
      </trkpt>
      <trkpt lat="45.8563" lon="4.69471">
        <ele>198</ele>
        <time>2018-04-07T09:43:16Z</time>
      </trkpt>
      <trkpt lat="45.85629" lon="4.69464">
        <ele>198</ele>
        <time>2018-04-07T09:43:17Z</time>
      </trkpt>
      <trkpt lat="45.85628" lon="4.69456">
        <ele>198</ele>
        <time>2018-04-07T09:43:18Z</time>
      </trkpt>
      <trkpt lat="45.85627" lon="4.69448">
        <ele>198</ele>
        <time>2018-04-07T09:43:19Z</time>
      </trkpt>
      <trkpt lat="45.85626" lon="4.69441">
        <ele>198</ele>
        <time>2018-04-07T09:43:20Z</time>
      </trkpt>
      <trkpt lat="45.85625" lon="4.69433">
        <ele>198</ele>
        <time>2018-04-07T09:43:21Z</time>
      </trkpt>
      <trkpt lat="45.85624" lon="4.69426">
        <ele>198</ele>
        <time>2018-04-07T09:43:22Z</time>
      </trkpt>
      <trkpt lat="45.85623" lon="4.69419">
        <ele>198</ele>
        <time>2018-04-07T09:43:23Z</time>
      </trkpt>
      <trkpt lat="45.85624" lon="4.6941">
        <ele>198</ele>
        <time>2018-04-07T09:43:24Z</time>
      </trkpt>
      <trkpt lat="45.85623" lon="4.69401">
        <ele>198</ele>
        <time>2018-04-07T09:43:25Z</time>
      </trkpt>
      <trkpt lat="45.85622" lon="4.69394">
        <ele>198</ele>
        <time>2018-04-07T09:43:26Z</time>
      </trkpt>
      <trkpt lat="45.85621" lon="4.69387">
        <ele>198</ele>
        <time>2018-04-07T09:43:27Z</time>
      </trkpt>
      <trkpt lat="45.85621" lon="4.69379">
        <ele>198</ele>
        <time>2018-04-07T09:43:28Z</time>
      </trkpt>
      <trkpt lat="45.8562" lon="4.69373">
        <ele>198</ele>
        <time>2018-04-07T09:43:29Z</time>
      </trkpt>
      <trkpt lat="45.8562" lon="4.69365">
        <ele>198</ele>
        <time>2018-04-07T09:43:30Z</time>
      </trkpt>
      <trkpt lat="45.85619" lon="4.69359">
        <ele>198</ele>
        <time>2018-04-07T09:43:31Z</time>
      </trkpt>
      <trkpt lat="45.85618" lon="4.69352">
        <ele>198</ele>
        <time>2018-04-07T09:43:32Z</time>
      </trkpt>
      <trkpt lat="45.85617" lon="4.69345">
        <ele>198</ele>
        <time>2018-04-07T09:43:33Z</time>
      </trkpt>
      <trkpt lat="45.85616" lon="4.69338">
        <ele>198</ele>
        <time>2018-04-07T09:43:34Z</time>
      </trkpt>
      <trkpt lat="45.85615" lon="4.69326">
        <ele>198</ele>
        <time>2018-04-07T09:43:36Z</time>
      </trkpt>
      <trkpt lat="45.85615" lon="4.69321">
        <ele>198</ele>
        <time>2018-04-07T09:43:37Z</time>
      </trkpt>
      <trkpt lat="45.85613" lon="4.69309">
        <ele>198</ele>
        <time>2018-04-07T09:43:39Z</time>
      </trkpt>
      <trkpt lat="45.85612" lon="4.69304">
        <ele>198</ele>
        <time>2018-04-07T09:43:40Z</time>
      </trkpt>
      <trkpt lat="45.85612" lon="4.69297">
        <ele>198</ele>
        <time>2018-04-07T09:43:41Z</time>
      </trkpt>
      <trkpt lat="45.85612" lon="4.69291">
        <ele>198</ele>
        <time>2018-04-07T09:43:42Z</time>
      </trkpt>
      <trkpt lat="45.85613" lon="4.69284">
        <ele>198</ele>
        <time>2018-04-07T09:43:43Z</time>
      </trkpt>
      <trkpt lat="45.85613" lon="4.69278">
        <ele>198</ele>
        <time>2018-04-07T09:43:44Z</time>
      </trkpt>
      <trkpt lat="45.85614" lon="4.69271">
        <ele>198</ele>
        <time>2018-04-07T09:43:45Z</time>
      </trkpt>
      <trkpt lat="45.85614" lon="4.69264">
        <ele>198</ele>
        <time>2018-04-07T09:43:46Z</time>
      </trkpt>
      <trkpt lat="45.85613" lon="4.69257">
        <ele>198</ele>
        <time>2018-04-07T09:43:47Z</time>
      </trkpt>
      <trkpt lat="45.85611" lon="4.69252">
        <ele>198</ele>
        <time>2018-04-07T09:43:48Z</time>
      </trkpt>
      <trkpt lat="45.85609" lon="4.69245">
        <ele>199</ele>
        <time>2018-04-07T09:43:49Z</time>
      </trkpt>
      <trkpt lat="45.85607" lon="4.69239">
        <ele>199</ele>
        <time>2018-04-07T09:43:50Z</time>
      </trkpt>
      <trkpt lat="45.85607" lon="4.69231">
        <ele>199</ele>
        <time>2018-04-07T09:43:51Z</time>
      </trkpt>
      <trkpt lat="45.85606" lon="4.69224">
        <ele>199</ele>
        <time>2018-04-07T09:43:52Z</time>
      </trkpt>
      <trkpt lat="45.85605" lon="4.69216">
        <ele>199</ele>
        <time>2018-04-07T09:43:53Z</time>
      </trkpt>
      <trkpt lat="45.85604" lon="4.69209">
        <ele>199</ele>
        <time>2018-04-07T09:43:54Z</time>
      </trkpt>
      <trkpt lat="45.85604" lon="4.69201">
        <ele>199</ele>
        <time>2018-04-07T09:43:55Z</time>
      </trkpt>
      <trkpt lat="45.85603" lon="4.69194">
        <ele>199</ele>
        <time>2018-04-07T09:43:56Z</time>
      </trkpt>
      <trkpt lat="45.85602" lon="4.69186">
        <ele>199</ele>
        <time>2018-04-07T09:43:57Z</time>
      </trkpt>
      <trkpt lat="45.85601" lon="4.69178">
        <ele>199</ele>
        <time>2018-04-07T09:43:58Z</time>
      </trkpt>
      <trkpt lat="45.856" lon="4.69171">
        <ele>199</ele>
        <time>2018-04-07T09:43:59Z</time>
      </trkpt>
      <trkpt lat="45.85599" lon="4.69165">
        <ele>199</ele>
        <time>2018-04-07T09:44:00Z</time>
      </trkpt>
      <trkpt lat="45.85598" lon="4.69158">
        <ele>199</ele>
        <time>2018-04-07T09:44:01Z</time>
      </trkpt>
      <trkpt lat="45.85598" lon="4.6915">
        <ele>199</ele>
        <time>2018-04-07T09:44:02Z</time>
      </trkpt>
      <trkpt lat="45.85597" lon="4.69143">
        <ele>199</ele>
        <time>2018-04-07T09:44:03Z</time>
      </trkpt>
      <trkpt lat="45.85596" lon="4.69137">
        <ele>199</ele>
        <time>2018-04-07T09:44:04Z</time>
      </trkpt>
      <trkpt lat="45.85596" lon="4.6913">
        <ele>198</ele>
        <time>2018-04-07T09:44:05Z</time>
      </trkpt>
      <trkpt lat="45.85595" lon="4.69123">
        <ele>198</ele>
        <time>2018-04-07T09:44:06Z</time>
      </trkpt>
      <trkpt lat="45.85595" lon="4.69116">
        <ele>198</ele>
        <time>2018-04-07T09:44:07Z</time>
      </trkpt>
      <trkpt lat="45.85594" lon="4.69108">
        <ele>199</ele>
        <time>2018-04-07T09:44:08Z</time>
      </trkpt>
      <trkpt lat="45.85594" lon="4.69101">
        <ele>199</ele>
        <time>2018-04-07T09:44:09Z</time>
      </trkpt>
      <trkpt lat="45.85593" lon="4.69093">
        <ele>199</ele>
        <time>2018-04-07T09:44:10Z</time>
      </trkpt>
      <trkpt lat="45.85591" lon="4.69085">
        <ele>199</ele>
        <time>2018-04-07T09:44:11Z</time>
      </trkpt>
      <trkpt lat="45.85591" lon="4.69078">
        <ele>199</ele>
        <time>2018-04-07T09:44:12Z</time>
      </trkpt>
      <trkpt lat="45.8559" lon="4.6907">
        <ele>199</ele>
        <time>2018-04-07T09:44:13Z</time>
      </trkpt>
      <trkpt lat="45.85589" lon="4.69061">
        <ele>199</ele>
        <time>2018-04-07T09:44:14Z</time>
      </trkpt>
      <trkpt lat="45.85588" lon="4.69053">
        <ele>199</ele>
        <time>2018-04-07T09:44:15Z</time>
      </trkpt>
      <trkpt lat="45.85587" lon="4.69044">
        <ele>199</ele>
        <time>2018-04-07T09:44:16Z</time>
      </trkpt>
      <trkpt lat="45.85586" lon="4.69036">
        <ele>199</ele>
        <time>2018-04-07T09:44:17Z</time>
      </trkpt>
      <trkpt lat="45.85586" lon="4.69026">
        <ele>199</ele>
        <time>2018-04-07T09:44:18Z</time>
      </trkpt>
      <trkpt lat="45.85585" lon="4.69018">
        <ele>199</ele>
        <time>2018-04-07T09:44:19Z</time>
      </trkpt>
      <trkpt lat="45.85584" lon="4.69009">
        <ele>200</ele>
        <time>2018-04-07T09:44:20Z</time>
      </trkpt>
      <trkpt lat="45.85583" lon="4.69">
        <ele>200</ele>
        <time>2018-04-07T09:44:21Z</time>
      </trkpt>
      <trkpt lat="45.85582" lon="4.68991">
        <ele>200</ele>
        <time>2018-04-07T09:44:22Z</time>
      </trkpt>
      <trkpt lat="45.85582" lon="4.68983">
        <ele>200</ele>
        <time>2018-04-07T09:44:23Z</time>
      </trkpt>
      <trkpt lat="45.8558" lon="4.68974">
        <ele>200</ele>
        <time>2018-04-07T09:44:24Z</time>
      </trkpt>
      <trkpt lat="45.85579" lon="4.68966">
        <ele>200</ele>
        <time>2018-04-07T09:44:25Z</time>
      </trkpt>
      <trkpt lat="45.85578" lon="4.68958">
        <ele>200</ele>
        <time>2018-04-07T09:44:26Z</time>
      </trkpt>
      <trkpt lat="45.85577" lon="4.6895">
        <ele>200</ele>
        <time>2018-04-07T09:44:27Z</time>
      </trkpt>
      <trkpt lat="45.85577" lon="4.68942">
        <ele>200</ele>
        <time>2018-04-07T09:44:28Z</time>
      </trkpt>
      <trkpt lat="45.85576" lon="4.68936">
        <ele>200</ele>
        <time>2018-04-07T09:44:29Z</time>
      </trkpt>
      <trkpt lat="45.85575" lon="4.68929">
        <ele>200</ele>
        <time>2018-04-07T09:44:30Z</time>
      </trkpt>
      <trkpt lat="45.85575" lon="4.68921">
        <ele>200</ele>
        <time>2018-04-07T09:44:31Z</time>
      </trkpt>
      <trkpt lat="45.85574" lon="4.68915">
        <ele>200</ele>
        <time>2018-04-07T09:44:32Z</time>
      </trkpt>
      <trkpt lat="45.85573" lon="4.68902">
        <ele>200</ele>
        <time>2018-04-07T09:44:34Z</time>
      </trkpt>
      <trkpt lat="45.85572" lon="4.68895">
        <ele>200</ele>
        <time>2018-04-07T09:44:35Z</time>
      </trkpt>
      <trkpt lat="45.85573" lon="4.68883">
        <ele>200</ele>
        <time>2018-04-07T09:44:37Z</time>
      </trkpt>
      <trkpt lat="45.85573" lon="4.68878">
        <ele>200</ele>
        <time>2018-04-07T09:44:38Z</time>
      </trkpt>
      <trkpt lat="45.85572" lon="4.68866">
        <ele>200</ele>
        <time>2018-04-07T09:44:40Z</time>
      </trkpt>
      <trkpt lat="45.85572" lon="4.68859">
        <ele>200</ele>
        <time>2018-04-07T09:44:41Z</time>
      </trkpt>
      <trkpt lat="45.85571" lon="4.68851">
        <ele>200</ele>
        <time>2018-04-07T09:44:42Z</time>
      </trkpt>
      <trkpt lat="45.85571" lon="4.68843">
        <ele>200</ele>
        <time>2018-04-07T09:44:43Z</time>
      </trkpt>
      <trkpt lat="45.8557" lon="4.68835">
        <ele>200</ele>
        <time>2018-04-07T09:44:44Z</time>
      </trkpt>
      <trkpt lat="45.85569" lon="4.68826">
        <ele>200</ele>
        <time>2018-04-07T09:44:45Z</time>
      </trkpt>
      <trkpt lat="45.85569" lon="4.68816">
        <ele>200</ele>
        <time>2018-04-07T09:44:46Z</time>
      </trkpt>
      <trkpt lat="45.85568" lon="4.68806">
        <ele>200</ele>
        <time>2018-04-07T09:44:47Z</time>
      </trkpt>
      <trkpt lat="45.85567" lon="4.68798">
        <ele>200</ele>
        <time>2018-04-07T09:44:48Z</time>
      </trkpt>
      <trkpt lat="45.85566" lon="4.68789">
        <ele>200</ele>
        <time>2018-04-07T09:44:49Z</time>
      </trkpt>
      <trkpt lat="45.85566" lon="4.68781">
        <ele>200</ele>
        <time>2018-04-07T09:44:50Z</time>
      </trkpt>
      <trkpt lat="45.85565" lon="4.68772">
        <ele>200</ele>
        <time>2018-04-07T09:44:51Z</time>
      </trkpt>
      <trkpt lat="45.85565" lon="4.68764">
        <ele>200</ele>
        <time>2018-04-07T09:44:52Z</time>
      </trkpt>
      <trkpt lat="45.85564" lon="4.68756">
        <ele>200</ele>
        <time>2018-04-07T09:44:53Z</time>
      </trkpt>
      <trkpt lat="45.85564" lon="4.68749">
        <ele>200</ele>
        <time>2018-04-07T09:44:54Z</time>
      </trkpt>
      <trkpt lat="45.85562" lon="4.68741">
        <ele>200</ele>
        <time>2018-04-07T09:44:55Z</time>
      </trkpt>
      <trkpt lat="45.85561" lon="4.68734">
        <ele>200</ele>
        <time>2018-04-07T09:44:56Z</time>
      </trkpt>
      <trkpt lat="45.8556" lon="4.68728">
        <ele>200</ele>
        <time>2018-04-07T09:44:57Z</time>
      </trkpt>
      <trkpt lat="45.85559" lon="4.68721">
        <ele>200</ele>
        <time>2018-04-07T09:44:58Z</time>
      </trkpt>
      <trkpt lat="45.85558" lon="4.68713">
        <ele>200</ele>
        <time>2018-04-07T09:44:59Z</time>
      </trkpt>
      <trkpt lat="45.85558" lon="4.68706">
        <ele>200</ele>
        <time>2018-04-07T09:45:00Z</time>
      </trkpt>
      <trkpt lat="45.85557" lon="4.68698">
        <ele>200</ele>
        <time>2018-04-07T09:45:01Z</time>
      </trkpt>
      <trkpt lat="45.85556" lon="4.6869">
        <ele>200</ele>
        <time>2018-04-07T09:45:02Z</time>
      </trkpt>
      <trkpt lat="45.85555" lon="4.68683">
        <ele>200</ele>
        <time>2018-04-07T09:45:03Z</time>
      </trkpt>
      <trkpt lat="45.85555" lon="4.68676">
        <ele>200</ele>
        <time>2018-04-07T09:45:04Z</time>
      </trkpt>
      <trkpt lat="45.85554" lon="4.68668">
        <ele>200</ele>
        <time>2018-04-07T09:45:05Z</time>
      </trkpt>
      <trkpt lat="45.85553" lon="4.68661">
        <ele>200</ele>
        <time>2018-04-07T09:45:06Z</time>
      </trkpt>
      <trkpt lat="45.85552" lon="4.68653">
        <ele>201</ele>
        <time>2018-04-07T09:45:07Z</time>
      </trkpt>
      <trkpt lat="45.85554" lon="4.68643">
        <ele>201</ele>
        <time>2018-04-07T09:45:08Z</time>
      </trkpt>
      <trkpt lat="45.85553" lon="4.68635">
        <ele>201</ele>
        <time>2018-04-07T09:45:09Z</time>
      </trkpt>
      <trkpt lat="45.85551" lon="4.68628">
        <ele>201</ele>
        <time>2018-04-07T09:45:10Z</time>
      </trkpt>
      <trkpt lat="45.8555" lon="4.68621">
        <ele>201</ele>
        <time>2018-04-07T09:45:11Z</time>
      </trkpt>
      <trkpt lat="45.8555" lon="4.68614">
        <ele>201</ele>
        <time>2018-04-07T09:45:12Z</time>
      </trkpt>
      <trkpt lat="45.8555" lon="4.68606">
        <ele>201</ele>
        <time>2018-04-07T09:45:13Z</time>
      </trkpt>
      <trkpt lat="45.8555" lon="4.686">
        <ele>201</ele>
        <time>2018-04-07T09:45:14Z</time>
      </trkpt>
      <trkpt lat="45.85548" lon="4.6859">
        <ele>201</ele>
        <time>2018-04-07T09:45:15Z</time>
      </trkpt>
      <trkpt lat="45.85547" lon="4.68582">
        <ele>201</ele>
        <time>2018-04-07T09:45:16Z</time>
      </trkpt>
      <trkpt lat="45.85546" lon="4.68575">
        <ele>201</ele>
        <time>2018-04-07T09:45:17Z</time>
      </trkpt>
      <trkpt lat="45.85546" lon="4.68568">
        <ele>201</ele>
        <time>2018-04-07T09:45:18Z</time>
      </trkpt>
      <trkpt lat="45.85545" lon="4.68561">
        <ele>201</ele>
        <time>2018-04-07T09:45:19Z</time>
      </trkpt>
      <trkpt lat="45.85544" lon="4.68553">
        <ele>201</ele>
        <time>2018-04-07T09:45:20Z</time>
      </trkpt>
      <trkpt lat="45.85542" lon="4.68543">
        <ele>201</ele>
        <time>2018-04-07T09:45:21Z</time>
      </trkpt>
      <trkpt lat="45.85541" lon="4.68535">
        <ele>201</ele>
        <time>2018-04-07T09:45:22Z</time>
      </trkpt>
      <trkpt lat="45.85542" lon="4.68526">
        <ele>201</ele>
        <time>2018-04-07T09:45:23Z</time>
      </trkpt>
      <trkpt lat="45.85542" lon="4.68518">
        <ele>201</ele>
        <time>2018-04-07T09:45:24Z</time>
      </trkpt>
      <trkpt lat="45.85541" lon="4.68509">
        <ele>201</ele>
        <time>2018-04-07T09:45:25Z</time>
      </trkpt>
      <trkpt lat="45.8554" lon="4.68501">
        <ele>201</ele>
        <time>2018-04-07T09:45:26Z</time>
      </trkpt>
      <trkpt lat="45.85539" lon="4.68493">
        <ele>200</ele>
        <time>2018-04-07T09:45:27Z</time>
      </trkpt>
      <trkpt lat="45.85538" lon="4.68484">
        <ele>200</ele>
        <time>2018-04-07T09:45:28Z</time>
      </trkpt>
      <trkpt lat="45.85538" lon="4.68477">
        <ele>200</ele>
        <time>2018-04-07T09:45:29Z</time>
      </trkpt>
      <trkpt lat="45.85538" lon="4.68468">
        <ele>200</ele>
        <time>2018-04-07T09:45:30Z</time>
      </trkpt>
      <trkpt lat="45.85536" lon="4.68461">
        <ele>200</ele>
        <time>2018-04-07T09:45:31Z</time>
      </trkpt>
      <trkpt lat="45.85534" lon="4.68454">
        <ele>200</ele>
        <time>2018-04-07T09:45:32Z</time>
      </trkpt>
      <trkpt lat="45.85533" lon="4.68446">
        <ele>200</ele>
        <time>2018-04-07T09:45:33Z</time>
      </trkpt>
      <trkpt lat="45.85531" lon="4.6844">
        <ele>200</ele>
        <time>2018-04-07T09:45:34Z</time>
      </trkpt>
      <trkpt lat="45.8553" lon="4.68431">
        <ele>200</ele>
        <time>2018-04-07T09:45:35Z</time>
      </trkpt>
      <trkpt lat="45.85531" lon="4.68424">
        <ele>200</ele>
        <time>2018-04-07T09:45:36Z</time>
      </trkpt>
      <trkpt lat="45.8553" lon="4.68417">
        <ele>200</ele>
        <time>2018-04-07T09:45:37Z</time>
      </trkpt>
      <trkpt lat="45.85532" lon="4.68409">
        <ele>200</ele>
        <time>2018-04-07T09:45:38Z</time>
      </trkpt>
      <trkpt lat="45.85532" lon="4.68401">
        <ele>200</ele>
        <time>2018-04-07T09:45:39Z</time>
      </trkpt>
      <trkpt lat="45.85531" lon="4.68393">
        <ele>200</ele>
        <time>2018-04-07T09:45:40Z</time>
      </trkpt>
      <trkpt lat="45.85531" lon="4.68385">
        <ele>200</ele>
        <time>2018-04-07T09:45:41Z</time>
      </trkpt>
      <trkpt lat="45.8553" lon="4.68377">
        <ele>201</ele>
        <time>2018-04-07T09:45:42Z</time>
      </trkpt>
      <trkpt lat="45.85529" lon="4.68369">
        <ele>201</ele>
        <time>2018-04-07T09:45:43Z</time>
      </trkpt>
      <trkpt lat="45.85527" lon="4.68362">
        <ele>201</ele>
        <time>2018-04-07T09:45:44Z</time>
      </trkpt>
      <trkpt lat="45.85526" lon="4.68355">
        <ele>201</ele>
        <time>2018-04-07T09:45:45Z</time>
      </trkpt>
      <trkpt lat="45.85525" lon="4.68347">
        <ele>201</ele>
        <time>2018-04-07T09:45:46Z</time>
      </trkpt>
      <trkpt lat="45.85525" lon="4.68341">
        <ele>201</ele>
        <time>2018-04-07T09:45:47Z</time>
      </trkpt>
      <trkpt lat="45.85524" lon="4.68332">
        <ele>202</ele>
        <time>2018-04-07T09:45:48Z</time>
      </trkpt>
      <trkpt lat="45.85523" lon="4.68325">
        <ele>202</ele>
        <time>2018-04-07T09:45:49Z</time>
      </trkpt>
      <trkpt lat="45.85522" lon="4.68318">
        <ele>202</ele>
        <time>2018-04-07T09:45:50Z</time>
      </trkpt>
      <trkpt lat="45.85522" lon="4.6831">
        <ele>202</ele>
        <time>2018-04-07T09:45:51Z</time>
      </trkpt>
      <trkpt lat="45.85522" lon="4.68302">
        <ele>202</ele>
        <time>2018-04-07T09:45:52Z</time>
      </trkpt>
      <trkpt lat="45.85521" lon="4.68294">
        <ele>202</ele>
        <time>2018-04-07T09:45:53Z</time>
      </trkpt>
      <trkpt lat="45.85519" lon="4.68285">
        <ele>202</ele>
        <time>2018-04-07T09:45:54Z</time>
      </trkpt>
      <trkpt lat="45.85517" lon="4.68278">
        <ele>202</ele>
        <time>2018-04-07T09:45:55Z</time>
      </trkpt>
      <trkpt lat="45.85516" lon="4.6827">
        <ele>202</ele>
        <time>2018-04-07T09:45:56Z</time>
      </trkpt>
      <trkpt lat="45.85515" lon="4.68262">
        <ele>202</ele>
        <time>2018-04-07T09:45:57Z</time>
      </trkpt>
      <trkpt lat="45.85514" lon="4.68255">
        <ele>203</ele>
        <time>2018-04-07T09:45:58Z</time>
      </trkpt>
      <trkpt lat="45.85515" lon="4.68248">
        <ele>203</ele>
        <time>2018-04-07T09:45:59Z</time>
      </trkpt>
      <trkpt lat="45.85514" lon="4.6824">
        <ele>203</ele>
        <time>2018-04-07T09:46:00Z</time>
      </trkpt>
      <trkpt lat="45.85514" lon="4.68232">
        <ele>203</ele>
        <time>2018-04-07T09:46:01Z</time>
      </trkpt>
      <trkpt lat="45.85514" lon="4.68221">
        <ele>203</ele>
        <time>2018-04-07T09:46:03Z</time>
      </trkpt>
      <trkpt lat="45.85513" lon="4.68212">
        <ele>203</ele>
        <time>2018-04-07T09:46:04Z</time>
      </trkpt>
      <trkpt lat="45.85511" lon="4.682">
        <ele>203</ele>
        <time>2018-04-07T09:46:06Z</time>
      </trkpt>
      <trkpt lat="45.85511" lon="4.68193">
        <ele>203</ele>
        <time>2018-04-07T09:46:07Z</time>
      </trkpt>
      <trkpt lat="45.85511" lon="4.68186">
        <ele>203</ele>
        <time>2018-04-07T09:46:08Z</time>
      </trkpt>
      <trkpt lat="45.85511" lon="4.6818">
        <ele>204</ele>
        <time>2018-04-07T09:46:09Z</time>
      </trkpt>
      <trkpt lat="45.85508" lon="4.68172">
        <ele>204</ele>
        <time>2018-04-07T09:46:10Z</time>
      </trkpt>
      <trkpt lat="45.85509" lon="4.68165">
        <ele>204</ele>
        <time>2018-04-07T09:46:11Z</time>
      </trkpt>
      <trkpt lat="45.85507" lon="4.68153">
        <ele>203</ele>
        <time>2018-04-07T09:46:13Z</time>
      </trkpt>
      <trkpt lat="45.85507" lon="4.68146">
        <ele>203</ele>
        <time>2018-04-07T09:46:14Z</time>
      </trkpt>
      <trkpt lat="45.85506" lon="4.68139">
        <ele>203</ele>
        <time>2018-04-07T09:46:15Z</time>
      </trkpt>
      <trkpt lat="45.85506" lon="4.68133">
        <ele>203</ele>
        <time>2018-04-07T09:46:16Z</time>
      </trkpt>
      <trkpt lat="45.85506" lon="4.68126">
        <ele>203</ele>
        <time>2018-04-07T09:46:17Z</time>
      </trkpt>
      <trkpt lat="45.85505" lon="4.68119">
        <ele>203</ele>
        <time>2018-04-07T09:46:18Z</time>
      </trkpt>
      <trkpt lat="45.85505" lon="4.68113">
        <ele>203</ele>
        <time>2018-04-07T09:46:19Z</time>
      </trkpt>
      <trkpt lat="45.85504" lon="4.68106">
        <ele>203</ele>
        <time>2018-04-07T09:46:20Z</time>
      </trkpt>
      <trkpt lat="45.85502" lon="4.681">
        <ele>203</ele>
        <time>2018-04-07T09:46:21Z</time>
      </trkpt>
      <trkpt lat="45.855" lon="4.68093">
        <ele>203</ele>
        <time>2018-04-07T09:46:22Z</time>
      </trkpt>
      <trkpt lat="45.855" lon="4.68087">
        <ele>204</ele>
        <time>2018-04-07T09:46:23Z</time>
      </trkpt>
      <trkpt lat="45.85499" lon="4.6808">
        <ele>204</ele>
        <time>2018-04-07T09:46:24Z</time>
      </trkpt>
      <trkpt lat="45.85498" lon="4.68074">
        <ele>205</ele>
        <time>2018-04-07T09:46:25Z</time>
      </trkpt>
      <trkpt lat="45.85497" lon="4.68067">
        <ele>205</ele>
        <time>2018-04-07T09:46:26Z</time>
      </trkpt>
      <trkpt lat="45.85496" lon="4.6806">
        <ele>206</ele>
        <time>2018-04-07T09:46:27Z</time>
      </trkpt>
      <trkpt lat="45.85496" lon="4.68054">
        <ele>206</ele>
        <time>2018-04-07T09:46:28Z</time>
      </trkpt>
      <trkpt lat="45.85493" lon="4.68042">
        <ele>206</ele>
        <time>2018-04-07T09:46:30Z</time>
      </trkpt>
      <trkpt lat="45.85493" lon="4.68038">
        <ele>207</ele>
        <time>2018-04-07T09:46:31Z</time>
      </trkpt>
      <trkpt lat="45.85493" lon="4.68027">
        <ele>207</ele>
        <time>2018-04-07T09:46:33Z</time>
      </trkpt>
      <trkpt lat="45.85493" lon="4.68022">
        <ele>207</ele>
        <time>2018-04-07T09:46:34Z</time>
      </trkpt>
      <trkpt lat="45.85497" lon="4.68012">
        <ele>206</ele>
        <time>2018-04-07T09:46:36Z</time>
      </trkpt>
      <trkpt lat="45.85498" lon="4.68009">
        <ele>206</ele>
        <time>2018-04-07T09:46:37Z</time>
      </trkpt>
      <trkpt lat="45.85503" lon="4.67999">
        <ele>206</ele>
        <time>2018-04-07T09:46:39Z</time>
      </trkpt>
      <trkpt lat="45.85505" lon="4.67995">
        <ele>206</ele>
        <time>2018-04-07T09:46:40Z</time>
      </trkpt>
      <trkpt lat="45.85512" lon="4.67988">
        <ele>206</ele>
        <time>2018-04-07T09:46:42Z</time>
      </trkpt>
      <trkpt lat="45.85515" lon="4.67985">
        <ele>206</ele>
        <time>2018-04-07T09:46:43Z</time>
      </trkpt>
      <trkpt lat="45.85522" lon="4.67978">
        <ele>205</ele>
        <time>2018-04-07T09:46:45Z</time>
      </trkpt>
      <trkpt lat="45.85525" lon="4.67976">
        <ele>205</ele>
        <time>2018-04-07T09:46:46Z</time>
      </trkpt>
      <trkpt lat="45.8553" lon="4.67972">
        <ele>205</ele>
        <time>2018-04-07T09:46:47Z</time>
      </trkpt>
      <trkpt lat="45.85535" lon="4.6797">
        <ele>205</ele>
        <time>2018-04-07T09:46:48Z</time>
      </trkpt>
      <trkpt lat="45.8554" lon="4.67963">
        <ele>205</ele>
        <time>2018-04-07T09:46:50Z</time>
      </trkpt>
      <trkpt lat="45.85545" lon="4.67958">
        <ele>205</ele>
        <time>2018-04-07T09:46:51Z</time>
      </trkpt>
      <trkpt lat="45.85552" lon="4.6795">
        <ele>205</ele>
        <time>2018-04-07T09:46:53Z</time>
      </trkpt>
      <trkpt lat="45.85555" lon="4.67946">
        <ele>205</ele>
        <time>2018-04-07T09:46:54Z</time>
      </trkpt>
      <trkpt lat="45.85559" lon="4.67941">
        <ele>205</ele>
        <time>2018-04-07T09:46:55Z</time>
      </trkpt>
      <trkpt lat="45.85563" lon="4.67937">
        <ele>205</ele>
        <time>2018-04-07T09:46:56Z</time>
      </trkpt>
      <trkpt lat="45.85572" lon="4.6794">
        <ele>205</ele>
        <time>2018-04-07T09:46:58Z</time>
      </trkpt>
      <trkpt lat="45.85575" lon="4.67943">
        <ele>205</ele>
        <time>2018-04-07T09:46:59Z</time>
      </trkpt>
      <trkpt lat="45.85579" lon="4.67946">
        <ele>204</ele>
        <time>2018-04-07T09:47:00Z</time>
      </trkpt>
      <trkpt lat="45.85582" lon="4.67953">
        <ele>204</ele>
        <time>2018-04-07T09:47:01Z</time>
      </trkpt>
      <trkpt lat="45.85585" lon="4.67959">
        <ele>203</ele>
        <time>2018-04-07T09:47:02Z</time>
      </trkpt>
      <trkpt lat="45.85588" lon="4.67966">
        <ele>203</ele>
        <time>2018-04-07T09:47:03Z</time>
      </trkpt>
      <trkpt lat="45.8559" lon="4.67973">
        <ele>203</ele>
        <time>2018-04-07T09:47:04Z</time>
      </trkpt>
      <trkpt lat="45.85594" lon="4.67979">
        <ele>203</ele>
        <time>2018-04-07T09:47:05Z</time>
      </trkpt>
      <trkpt lat="45.85597" lon="4.67984">
        <ele>202</ele>
        <time>2018-04-07T09:47:06Z</time>
      </trkpt>
      <trkpt lat="45.856" lon="4.67991">
        <ele>202</ele>
        <time>2018-04-07T09:47:07Z</time>
      </trkpt>
      <trkpt lat="45.85603" lon="4.67998">
        <ele>202</ele>
        <time>2018-04-07T09:47:08Z</time>
      </trkpt>
      <trkpt lat="45.85606" lon="4.68005">
        <ele>201</ele>
        <time>2018-04-07T09:47:09Z</time>
      </trkpt>
      <trkpt lat="45.85608" lon="4.68013">
        <ele>201</ele>
        <time>2018-04-07T09:47:10Z</time>
      </trkpt>
      <trkpt lat="45.85611" lon="4.6802">
        <ele>201</ele>
        <time>2018-04-07T09:47:11Z</time>
      </trkpt>
      <trkpt lat="45.85614" lon="4.68029">
        <ele>201</ele>
        <time>2018-04-07T09:47:13Z</time>
      </trkpt>
      <trkpt lat="45.85614" lon="4.68032">
        <ele>201</ele>
        <time>2018-04-07T09:47:14Z</time>
      </trkpt>
      <trkpt lat="45.85615" lon="4.68036">
        <ele>201</ele>
        <time>2018-04-07T09:47:16Z</time>
      </trkpt>
      <trkpt lat="45.85615" lon="4.68037">
        <ele>201</ele>
        <time>2018-04-07T09:47:17Z</time>
      </trkpt>
      <trkpt lat="45.85614" lon="4.68041">
        <ele>200</ele>
        <time>2018-04-07T09:48:33Z</time>
      </trkpt>
      <trkpt lat="45.85615" lon="4.68041">
        <ele>200</ele>
        <time>2018-04-07T09:48:34Z</time>
      </trkpt>
      <trkpt lat="45.85616" lon="4.6804">
        <ele>200</ele>
        <time>2018-04-07T09:48:38Z</time>
      </trkpt>
      <trkpt lat="45.85616" lon="4.6804">
        <ele>200</ele>
        <time>2018-04-07T09:48:39Z</time>
      </trkpt>
      <trkpt lat="45.85618" lon="4.6803">
        <ele>201</ele>
        <time>2018-04-07T09:49:24Z</time>
      </trkpt>
      <trkpt lat="45.85618" lon="4.6803">
        <ele>201</ele>
        <time>2018-04-07T09:49:25Z</time>
      </trkpt>
      <trkpt lat="45.85613" lon="4.6804">
        <ele>200</ele>
        <time>2018-04-07T09:58:17Z</time>
      </trkpt>
      <trkpt lat="45.85612" lon="4.6804">
        <ele>200</ele>
        <time>2018-04-07T09:58:18Z</time>
      </trkpt>
      <trkpt lat="45.85616" lon="4.68036">
        <ele>201</ele>
        <time>2018-04-07T10:01:07Z</time>
      </trkpt>
      <trkpt lat="45.85617" lon="4.68036">
        <ele>201</ele>
        <time>2018-04-07T10:01:08Z</time>
      </trkpt>
      <trkpt lat="45.85618" lon="4.68036">
        <ele>201</ele>
        <time>2018-04-07T10:02:46Z</time>
      </trkpt>
      <trkpt lat="45.85618" lon="4.68036">
        <ele>201</ele>
        <time>2018-04-07T10:02:47Z</time>
      </trkpt>
      <trkpt lat="45.85625" lon="4.68041">
        <ele>201</ele>
        <time>2018-04-07T10:03:19Z</time>
      </trkpt>
      <trkpt lat="45.85626" lon="4.68042">
        <ele>201</ele>
        <time>2018-04-07T10:03:20Z</time>
      </trkpt>
      <trkpt lat="45.85633" lon="4.68049">
        <ele>200</ele>
        <time>2018-04-07T10:03:25Z</time>
      </trkpt>
      <trkpt lat="45.85634" lon="4.68053">
        <ele>200</ele>
        <time>2018-04-07T10:03:26Z</time>
      </trkpt>
      <trkpt lat="45.85638" lon="4.68059">
        <ele>200</ele>
        <time>2018-04-07T10:03:28Z</time>
      </trkpt>
      <trkpt lat="45.85644" lon="4.68071">
        <ele>200</ele>
        <time>2018-04-07T10:03:29Z</time>
      </trkpt>
      <trkpt lat="45.8565" lon="4.6808">
        <ele>200</ele>
        <time>2018-04-07T10:03:31Z</time>
      </trkpt>
      <trkpt lat="45.85653" lon="4.68087">
        <ele>200</ele>
        <time>2018-04-07T10:03:32Z</time>
      </trkpt>
      <trkpt lat="45.85659" lon="4.68095">
        <ele>200</ele>
        <time>2018-04-07T10:03:34Z</time>
      </trkpt>
      <trkpt lat="45.85663" lon="4.68099">
        <ele>200</ele>
        <time>2018-04-07T10:03:35Z</time>
      </trkpt>
      <trkpt lat="45.85666" lon="4.68103">
        <ele>200</ele>
        <time>2018-04-07T10:03:36Z</time>
      </trkpt>
      <trkpt lat="45.8567" lon="4.68107">
        <ele>200</ele>
        <time>2018-04-07T10:03:37Z</time>
      </trkpt>
      <trkpt lat="45.85674" lon="4.68111">
        <ele>200</ele>
        <time>2018-04-07T10:03:38Z</time>
      </trkpt>
      <trkpt lat="45.85678" lon="4.68115">
        <ele>200</ele>
        <time>2018-04-07T10:03:39Z</time>
      </trkpt>
      <trkpt lat="45.85682" lon="4.6812">
        <ele>200</ele>
        <time>2018-04-07T10:03:40Z</time>
      </trkpt>
      <trkpt lat="45.85686" lon="4.68124">
        <ele>200</ele>
        <time>2018-04-07T10:03:41Z</time>
      </trkpt>
      <trkpt lat="45.8569" lon="4.68127">
        <ele>200</ele>
        <time>2018-04-07T10:03:42Z</time>
      </trkpt>
      <trkpt lat="45.85696" lon="4.68133">
        <ele>200</ele>
        <time>2018-04-07T10:03:43Z</time>
      </trkpt>
      <trkpt lat="45.85699" lon="4.68138">
        <ele>200</ele>
        <time>2018-04-07T10:03:44Z</time>
      </trkpt>
      <trkpt lat="45.85704" lon="4.68143">
        <ele>200</ele>
        <time>2018-04-07T10:03:45Z</time>
      </trkpt>
      <trkpt lat="45.8571" lon="4.6815">
        <ele>200</ele>
        <time>2018-04-07T10:03:47Z</time>
      </trkpt>
      <trkpt lat="45.85715" lon="4.68155">
        <ele>200</ele>
        <time>2018-04-07T10:03:48Z</time>
      </trkpt>
      <trkpt lat="45.85719" lon="4.6816">
        <ele>200</ele>
        <time>2018-04-07T10:03:49Z</time>
      </trkpt>
      <trkpt lat="45.85724" lon="4.68165">
        <ele>200</ele>
        <time>2018-04-07T10:03:50Z</time>
      </trkpt>
      <trkpt lat="45.85728" lon="4.6817">
        <ele>199</ele>
        <time>2018-04-07T10:03:51Z</time>
      </trkpt>
      <trkpt lat="45.85732" lon="4.68176">
        <ele>200</ele>
        <time>2018-04-07T10:03:52Z</time>
      </trkpt>
      <trkpt lat="45.85737" lon="4.68182">
        <ele>200</ele>
        <time>2018-04-07T10:03:53Z</time>
      </trkpt>
      <trkpt lat="45.85742" lon="4.68187">
        <ele>200</ele>
        <time>2018-04-07T10:03:54Z</time>
      </trkpt>
      <trkpt lat="45.85746" lon="4.68192">
        <ele>199</ele>
        <time>2018-04-07T10:03:55Z</time>
      </trkpt>
      <trkpt lat="45.85751" lon="4.68198">
        <ele>202</ele>
        <time>2018-04-07T10:03:56Z</time>
      </trkpt>
      <trkpt lat="45.85756" lon="4.68204">
        <ele>202</ele>
        <time>2018-04-07T10:03:57Z</time>
      </trkpt>
      <trkpt lat="45.8576" lon="4.68209">
        <ele>202</ele>
        <time>2018-04-07T10:03:58Z</time>
      </trkpt>
      <trkpt lat="45.85764" lon="4.68213">
        <ele>202</ele>
        <time>2018-04-07T10:03:59Z</time>
      </trkpt>
      <trkpt lat="45.85769" lon="4.68218">
        <ele>202</ele>
        <time>2018-04-07T10:04:00Z</time>
      </trkpt>
      <trkpt lat="45.85774" lon="4.68225">
        <ele>202</ele>
        <time>2018-04-07T10:04:01Z</time>
      </trkpt>
      <trkpt lat="45.85778" lon="4.68231">
        <ele>202</ele>
        <time>2018-04-07T10:04:02Z</time>
      </trkpt>
      <trkpt lat="45.85784" lon="4.68241">
        <ele>202</ele>
        <time>2018-04-07T10:04:04Z</time>
      </trkpt>
      <trkpt lat="45.85788" lon="4.68247">
        <ele>202</ele>
        <time>2018-04-07T10:04:05Z</time>
      </trkpt>
      <trkpt lat="45.85792" lon="4.68252">
        <ele>201</ele>
        <time>2018-04-07T10:04:06Z</time>
      </trkpt>
      <trkpt lat="45.85796" lon="4.68257">
        <ele>201</ele>
        <time>2018-04-07T10:04:07Z</time>
      </trkpt>
      <trkpt lat="45.858" lon="4.68263">
        <ele>201</ele>
        <time>2018-04-07T10:04:08Z</time>
      </trkpt>
      <trkpt lat="45.85804" lon="4.68269">
        <ele>201</ele>
        <time>2018-04-07T10:04:09Z</time>
      </trkpt>
      <trkpt lat="45.85808" lon="4.68273">
        <ele>201</ele>
        <time>2018-04-07T10:04:10Z</time>
      </trkpt>
      <trkpt lat="45.85812" lon="4.6828">
        <ele>201</ele>
        <time>2018-04-07T10:04:11Z</time>
      </trkpt>
      <trkpt lat="45.85817" lon="4.68286">
        <ele>201</ele>
        <time>2018-04-07T10:04:12Z</time>
      </trkpt>
      <trkpt lat="45.85822" lon="4.68291">
        <ele>201</ele>
        <time>2018-04-07T10:04:13Z</time>
      </trkpt>
      <trkpt lat="45.85827" lon="4.68298">
        <ele>201</ele>
        <time>2018-04-07T10:04:14Z</time>
      </trkpt>
      <trkpt lat="45.8583" lon="4.68305">
        <ele>201</ele>
        <time>2018-04-07T10:04:15Z</time>
      </trkpt>
      <trkpt lat="45.85834" lon="4.68312">
        <ele>202</ele>
        <time>2018-04-07T10:04:16Z</time>
      </trkpt>
      <trkpt lat="45.85838" lon="4.68318">
        <ele>202</ele>
        <time>2018-04-07T10:04:17Z</time>
      </trkpt>
      <trkpt lat="45.85843" lon="4.68324">
        <ele>202</ele>
        <time>2018-04-07T10:04:18Z</time>
      </trkpt>
      <trkpt lat="45.85846" lon="4.68332">
        <ele>202</ele>
        <time>2018-04-07T10:04:19Z</time>
      </trkpt>
      <trkpt lat="45.8585" lon="4.68338">
        <ele>201</ele>
        <time>2018-04-07T10:04:20Z</time>
      </trkpt>
      <trkpt lat="45.85851" lon="4.68346">
        <ele>201</ele>
        <time>2018-04-07T10:04:21Z</time>
      </trkpt>
      <trkpt lat="45.85853" lon="4.68352">
        <ele>201</ele>
        <time>2018-04-07T10:04:22Z</time>
      </trkpt>
      <trkpt lat="45.85855" lon="4.68358">
        <ele>201</ele>
        <time>2018-04-07T10:04:23Z</time>
      </trkpt>
      <trkpt lat="45.85854" lon="4.68368">
        <ele>201</ele>
        <time>2018-04-07T10:04:24Z</time>
      </trkpt>
      <trkpt lat="45.85856" lon="4.68377">
        <ele>201</ele>
        <time>2018-04-07T10:04:25Z</time>
      </trkpt>
      <trkpt lat="45.85857" lon="4.68386">
        <ele>201</ele>
        <time>2018-04-07T10:04:26Z</time>
      </trkpt>
      <trkpt lat="45.8586" lon="4.68394">
        <ele>201</ele>
        <time>2018-04-07T10:04:27Z</time>
      </trkpt>
      <trkpt lat="45.85863" lon="4.68402">
        <ele>201</ele>
        <time>2018-04-07T10:04:28Z</time>
      </trkpt>
      <trkpt lat="45.85864" lon="4.68411">
        <ele>201</ele>
        <time>2018-04-07T10:04:29Z</time>
      </trkpt>
      <trkpt lat="45.85866" lon="4.68419">
        <ele>200</ele>
        <time>2018-04-07T10:04:30Z</time>
      </trkpt>
      <trkpt lat="45.85867" lon="4.68427">
        <ele>200</ele>
        <time>2018-04-07T10:04:31Z</time>
      </trkpt>
      <trkpt lat="45.85869" lon="4.68434">
        <ele>200</ele>
        <time>2018-04-07T10:04:32Z</time>
      </trkpt>
      <trkpt lat="45.8587" lon="4.68442">
        <ele>200</ele>
        <time>2018-04-07T10:04:33Z</time>
      </trkpt>
      <trkpt lat="45.85871" lon="4.6845">
        <ele>200</ele>
        <time>2018-04-07T10:04:34Z</time>
      </trkpt>
      <trkpt lat="45.85873" lon="4.68457">
        <ele>200</ele>
        <time>2018-04-07T10:04:35Z</time>
      </trkpt>
      <trkpt lat="45.85872" lon="4.68463">
        <ele>200</ele>
        <time>2018-04-07T10:04:36Z</time>
      </trkpt>
      <trkpt lat="45.85873" lon="4.68471">
        <ele>200</ele>
        <time>2018-04-07T10:04:37Z</time>
      </trkpt>
      <trkpt lat="45.85874" lon="4.68479">
        <ele>200</ele>
        <time>2018-04-07T10:04:38Z</time>
      </trkpt>
      <trkpt lat="45.85876" lon="4.68486">
        <ele>201</ele>
        <time>2018-04-07T10:04:39Z</time>
      </trkpt>
      <trkpt lat="45.85877" lon="4.68494">
        <ele>201</ele>
        <time>2018-04-07T10:04:40Z</time>
      </trkpt>
      <trkpt lat="45.85878" lon="4.68503">
        <ele>200</ele>
        <time>2018-04-07T10:04:41Z</time>
      </trkpt>
      <trkpt lat="45.85878" lon="4.68511">
        <ele>200</ele>
        <time>2018-04-07T10:04:42Z</time>
      </trkpt>
      <trkpt lat="45.85879" lon="4.68518">
        <ele>200</ele>
        <time>2018-04-07T10:04:43Z</time>
      </trkpt>
      <trkpt lat="45.8588" lon="4.68526">
        <ele>200</ele>
        <time>2018-04-07T10:04:44Z</time>
      </trkpt>
      <trkpt lat="45.85883" lon="4.68534">
        <ele>200</ele>
        <time>2018-04-07T10:04:45Z</time>
      </trkpt>
      <trkpt lat="45.85883" lon="4.68542">
        <ele>200</ele>
        <time>2018-04-07T10:04:46Z</time>
      </trkpt>
      <trkpt lat="45.85884" lon="4.6855">
        <ele>200</ele>
        <time>2018-04-07T10:04:47Z</time>
      </trkpt>
      <trkpt lat="45.85886" lon="4.68558">
        <ele>200</ele>
        <time>2018-04-07T10:04:48Z</time>
      </trkpt>
      <trkpt lat="45.85886" lon="4.68566">
        <ele>200</ele>
        <time>2018-04-07T10:04:49Z</time>
      </trkpt>
      <trkpt lat="45.85887" lon="4.68573">
        <ele>199</ele>
        <time>2018-04-07T10:04:50Z</time>
      </trkpt>
      <trkpt lat="45.85888" lon="4.6858">
        <ele>199</ele>
        <time>2018-04-07T10:04:51Z</time>
      </trkpt>
      <trkpt lat="45.85889" lon="4.68588">
        <ele>199</ele>
        <time>2018-04-07T10:04:52Z</time>
      </trkpt>
      <trkpt lat="45.8589" lon="4.68597">
        <ele>199</ele>
        <time>2018-04-07T10:04:53Z</time>
      </trkpt>
      <trkpt lat="45.85891" lon="4.68605">
        <ele>199</ele>
        <time>2018-04-07T10:04:54Z</time>
      </trkpt>
      <trkpt lat="45.85892" lon="4.68613">
        <ele>199</ele>
        <time>2018-04-07T10:04:55Z</time>
      </trkpt>
      <trkpt lat="45.85894" lon="4.68621">
        <ele>199</ele>
        <time>2018-04-07T10:04:56Z</time>
      </trkpt>
      <trkpt lat="45.85895" lon="4.68629">
        <ele>198</ele>
        <time>2018-04-07T10:04:57Z</time>
      </trkpt>
      <trkpt lat="45.85894" lon="4.68637">
        <ele>198</ele>
        <time>2018-04-07T10:04:58Z</time>
      </trkpt>
      <trkpt lat="45.85894" lon="4.68645">
        <ele>198</ele>
        <time>2018-04-07T10:04:59Z</time>
      </trkpt>
      <trkpt lat="45.85894" lon="4.68653">
        <ele>198</ele>
        <time>2018-04-07T10:05:00Z</time>
      </trkpt>
      <trkpt lat="45.85895" lon="4.68661">
        <ele>198</ele>
        <time>2018-04-07T10:05:01Z</time>
      </trkpt>
      <trkpt lat="45.85895" lon="4.68669">
        <ele>198</ele>
        <time>2018-04-07T10:05:02Z</time>
      </trkpt>
      <trkpt lat="45.85894" lon="4.68677">
        <ele>198</ele>
        <time>2018-04-07T10:05:03Z</time>
      </trkpt>
      <trkpt lat="45.85893" lon="4.68685">
        <ele>198</ele>
        <time>2018-04-07T10:05:04Z</time>
      </trkpt>
      <trkpt lat="45.85894" lon="4.68693">
        <ele>198</ele>
        <time>2018-04-07T10:05:05Z</time>
      </trkpt>
      <trkpt lat="45.85893" lon="4.687">
        <ele>198</ele>
        <time>2018-04-07T10:05:06Z</time>
      </trkpt>
      <trkpt lat="45.85891" lon="4.68708">
        <ele>198</ele>
        <time>2018-04-07T10:05:07Z</time>
      </trkpt>
      <trkpt lat="45.85891" lon="4.68716">
        <ele>198</ele>
        <time>2018-04-07T10:05:08Z</time>
      </trkpt>
      <trkpt lat="45.8589" lon="4.68723">
        <ele>198</ele>
        <time>2018-04-07T10:05:09Z</time>
      </trkpt>
      <trkpt lat="45.85889" lon="4.68731">
        <ele>198</ele>
        <time>2018-04-07T10:05:10Z</time>
      </trkpt>
      <trkpt lat="45.85888" lon="4.6874">
        <ele>198</ele>
        <time>2018-04-07T10:05:11Z</time>
      </trkpt>
      <trkpt lat="45.85888" lon="4.68749">
        <ele>198</ele>
        <time>2018-04-07T10:05:12Z</time>
      </trkpt>
      <trkpt lat="45.85886" lon="4.68756">
        <ele>198</ele>
        <time>2018-04-07T10:05:13Z</time>
      </trkpt>
      <trkpt lat="45.85885" lon="4.68763">
        <ele>198</ele>
        <time>2018-04-07T10:05:14Z</time>
      </trkpt>
      <trkpt lat="45.85883" lon="4.6877">
        <ele>198</ele>
        <time>2018-04-07T10:05:15Z</time>
      </trkpt>
      <trkpt lat="45.85882" lon="4.68778">
        <ele>198</ele>
        <time>2018-04-07T10:05:16Z</time>
      </trkpt>
      <trkpt lat="45.8588" lon="4.68786">
        <ele>198</ele>
        <time>2018-04-07T10:05:17Z</time>
      </trkpt>
      <trkpt lat="45.85879" lon="4.68794">
        <ele>198</ele>
        <time>2018-04-07T10:05:18Z</time>
      </trkpt>
      <trkpt lat="45.85878" lon="4.68802">
        <ele>198</ele>
        <time>2018-04-07T10:05:19Z</time>
      </trkpt>
      <trkpt lat="45.85877" lon="4.6881">
        <ele>198</ele>
        <time>2018-04-07T10:05:20Z</time>
      </trkpt>
      <trkpt lat="45.85875" lon="4.68818">
        <ele>198</ele>
        <time>2018-04-07T10:05:21Z</time>
      </trkpt>
      <trkpt lat="45.85874" lon="4.68827">
        <ele>198</ele>
        <time>2018-04-07T10:05:22Z</time>
      </trkpt>
      <trkpt lat="45.85874" lon="4.68836">
        <ele>198</ele>
        <time>2018-04-07T10:05:23Z</time>
      </trkpt>
      <trkpt lat="45.85872" lon="4.68844">
        <ele>198</ele>
        <time>2018-04-07T10:05:24Z</time>
      </trkpt>
      <trkpt lat="45.85871" lon="4.68853">
        <ele>198</ele>
        <time>2018-04-07T10:05:25Z</time>
      </trkpt>
      <trkpt lat="45.8587" lon="4.68861">
        <ele>198</ele>
        <time>2018-04-07T10:05:26Z</time>
      </trkpt>
      <trkpt lat="45.85868" lon="4.68869">
        <ele>198</ele>
        <time>2018-04-07T10:05:27Z</time>
      </trkpt>
      <trkpt lat="45.85867" lon="4.68875">
        <ele>197</ele>
        <time>2018-04-07T10:05:28Z</time>
      </trkpt>
      <trkpt lat="45.85866" lon="4.68884">
        <ele>197</ele>
        <time>2018-04-07T10:05:29Z</time>
      </trkpt>
      <trkpt lat="45.85865" lon="4.68892">
        <ele>197</ele>
        <time>2018-04-07T10:05:30Z</time>
      </trkpt>
      <trkpt lat="45.85865" lon="4.689">
        <ele>197</ele>
        <time>2018-04-07T10:05:31Z</time>
      </trkpt>
      <trkpt lat="45.85864" lon="4.68908">
        <ele>197</ele>
        <time>2018-04-07T10:05:32Z</time>
      </trkpt>
      <trkpt lat="45.85863" lon="4.68917">
        <ele>197</ele>
        <time>2018-04-07T10:05:33Z</time>
      </trkpt>
      <trkpt lat="45.85863" lon="4.68927">
        <ele>197</ele>
        <time>2018-04-07T10:05:34Z</time>
      </trkpt>
      <trkpt lat="45.85862" lon="4.68936">
        <ele>197</ele>
        <time>2018-04-07T10:05:35Z</time>
      </trkpt>
      <trkpt lat="45.85862" lon="4.68944">
        <ele>197</ele>
        <time>2018-04-07T10:05:36Z</time>
      </trkpt>
      <trkpt lat="45.85862" lon="4.68952">
        <ele>197</ele>
        <time>2018-04-07T10:05:37Z</time>
      </trkpt>
      <trkpt lat="45.85863" lon="4.6896">
        <ele>197</ele>
        <time>2018-04-07T10:05:38Z</time>
      </trkpt>
      <trkpt lat="45.85864" lon="4.68967">
        <ele>197</ele>
        <time>2018-04-07T10:05:39Z</time>
      </trkpt>
      <trkpt lat="45.85865" lon="4.68976">
        <ele>197</ele>
        <time>2018-04-07T10:05:40Z</time>
      </trkpt>
      <trkpt lat="45.85869" lon="4.68987">
        <ele>197</ele>
        <time>2018-04-07T10:05:41Z</time>
      </trkpt>
      <trkpt lat="45.85871" lon="4.68996">
        <ele>197</ele>
        <time>2018-04-07T10:05:42Z</time>
      </trkpt>
      <trkpt lat="45.85871" lon="4.69005">
        <ele>197</ele>
        <time>2018-04-07T10:05:43Z</time>
      </trkpt>
      <trkpt lat="45.85873" lon="4.69014">
        <ele>197</ele>
        <time>2018-04-07T10:05:44Z</time>
      </trkpt>
      <trkpt lat="45.85876" lon="4.69023">
        <ele>198</ele>
        <time>2018-04-07T10:05:45Z</time>
      </trkpt>
      <trkpt lat="45.85877" lon="4.6903">
        <ele>198</ele>
        <time>2018-04-07T10:05:46Z</time>
      </trkpt>
      <trkpt lat="45.85883" lon="4.69037">
        <ele>198</ele>
        <time>2018-04-07T10:05:47Z</time>
      </trkpt>
      <trkpt lat="45.85887" lon="4.69043">
        <ele>198</ele>
        <time>2018-04-07T10:05:48Z</time>
      </trkpt>
      <trkpt lat="45.85891" lon="4.6905">
        <ele>198</ele>
        <time>2018-04-07T10:05:49Z</time>
      </trkpt>
      <trkpt lat="45.85894" lon="4.69056">
        <ele>198</ele>
        <time>2018-04-07T10:05:50Z</time>
      </trkpt>
      <trkpt lat="45.85899" lon="4.69061">
        <ele>198</ele>
        <time>2018-04-07T10:05:51Z</time>
      </trkpt>
      <trkpt lat="45.85904" lon="4.69068">
        <ele>198</ele>
        <time>2018-04-07T10:05:52Z</time>
      </trkpt>
      <trkpt lat="45.85909" lon="4.69073">
        <ele>198</ele>
        <time>2018-04-07T10:05:53Z</time>
      </trkpt>
      <trkpt lat="45.85914" lon="4.69077">
        <ele>198</ele>
        <time>2018-04-07T10:05:54Z</time>
      </trkpt>
      <trkpt lat="45.85919" lon="4.69081">
        <ele>198</ele>
        <time>2018-04-07T10:05:55Z</time>
      </trkpt>
      <trkpt lat="45.85925" lon="4.69085">
        <ele>198</ele>
        <time>2018-04-07T10:05:56Z</time>
      </trkpt>
      <trkpt lat="45.85931" lon="4.69086">
        <ele>198</ele>
        <time>2018-04-07T10:05:57Z</time>
      </trkpt>
      <trkpt lat="45.85938" lon="4.69089">
        <ele>197</ele>
        <time>2018-04-07T10:05:58Z</time>
      </trkpt>
      <trkpt lat="45.85943" lon="4.6909">
        <ele>197</ele>
        <time>2018-04-07T10:05:59Z</time>
      </trkpt>
      <trkpt lat="45.85949" lon="4.69092">
        <ele>197</ele>
        <time>2018-04-07T10:06:00Z</time>
      </trkpt>
      <trkpt lat="45.85955" lon="4.69094">
        <ele>197</ele>
        <time>2018-04-07T10:06:01Z</time>
      </trkpt>
      <trkpt lat="45.85961" lon="4.69095">
        <ele>197</ele>
        <time>2018-04-07T10:06:02Z</time>
      </trkpt>
      <trkpt lat="45.85969" lon="4.69095">
        <ele>197</ele>
        <time>2018-04-07T10:06:03Z</time>
      </trkpt>
      <trkpt lat="45.85976" lon="4.69095">
        <ele>197</ele>
        <time>2018-04-07T10:06:04Z</time>
      </trkpt>
      <trkpt lat="45.85983" lon="4.69095">
        <ele>197</ele>
        <time>2018-04-07T10:06:05Z</time>
      </trkpt>
      <trkpt lat="45.85989" lon="4.69095">
        <ele>196</ele>
        <time>2018-04-07T10:06:06Z</time>
      </trkpt>
      <trkpt lat="45.85995" lon="4.69092">
        <ele>196</ele>
        <time>2018-04-07T10:06:07Z</time>
      </trkpt>
      <trkpt lat="45.86002" lon="4.69091">
        <ele>196</ele>
        <time>2018-04-07T10:06:08Z</time>
      </trkpt>
      <trkpt lat="45.86008" lon="4.69091">
        <ele>196</ele>
        <time>2018-04-07T10:06:09Z</time>
      </trkpt>
      <trkpt lat="45.86015" lon="4.6909">
        <ele>197</ele>
        <time>2018-04-07T10:06:10Z</time>
      </trkpt>
      <trkpt lat="45.86022" lon="4.69089">
        <ele>197</ele>
        <time>2018-04-07T10:06:11Z</time>
      </trkpt>
      <trkpt lat="45.86028" lon="4.69089">
        <ele>197</ele>
        <time>2018-04-07T10:06:12Z</time>
      </trkpt>
      <trkpt lat="45.86035" lon="4.69088">
        <ele>197</ele>
        <time>2018-04-07T10:06:13Z</time>
      </trkpt>
      <trkpt lat="45.86041" lon="4.69086">
        <ele>197</ele>
        <time>2018-04-07T10:06:14Z</time>
      </trkpt>
      <trkpt lat="45.86046" lon="4.69085">
        <ele>197</ele>
        <time>2018-04-07T10:06:15Z</time>
      </trkpt>
      <trkpt lat="45.86053" lon="4.69085">
        <ele>197</ele>
        <time>2018-04-07T10:06:16Z</time>
      </trkpt>
      <trkpt lat="45.86058" lon="4.69085">
        <ele>197</ele>
        <time>2018-04-07T10:06:17Z</time>
      </trkpt>
      <trkpt lat="45.86064" lon="4.69084">
        <ele>198</ele>
        <time>2018-04-07T10:06:18Z</time>
      </trkpt>
      <trkpt lat="45.8607" lon="4.69085">
        <ele>198</ele>
        <time>2018-04-07T10:06:19Z</time>
      </trkpt>
      <trkpt lat="45.86076" lon="4.69085">
        <ele>198</ele>
        <time>2018-04-07T10:06:20Z</time>
      </trkpt>
      <trkpt lat="45.86082" lon="4.69085">
        <ele>198</ele>
        <time>2018-04-07T10:06:21Z</time>
      </trkpt>
      <trkpt lat="45.86088" lon="4.69085">
        <ele>199</ele>
        <time>2018-04-07T10:06:22Z</time>
      </trkpt>
      <trkpt lat="45.86094" lon="4.69084">
        <ele>199</ele>
        <time>2018-04-07T10:06:23Z</time>
      </trkpt>
      <trkpt lat="45.861" lon="4.69083">
        <ele>200</ele>
        <time>2018-04-07T10:06:24Z</time>
      </trkpt>
      <trkpt lat="45.86106" lon="4.69083">
        <ele>201</ele>
        <time>2018-04-07T10:06:25Z</time>
      </trkpt>
      <trkpt lat="45.86111" lon="4.69082">
        <ele>202</ele>
        <time>2018-04-07T10:06:26Z</time>
      </trkpt>
      <trkpt lat="45.86116" lon="4.69083">
        <ele>202</ele>
        <time>2018-04-07T10:06:27Z</time>
      </trkpt>
      <trkpt lat="45.86121" lon="4.69082">
        <ele>202</ele>
        <time>2018-04-07T10:06:28Z</time>
      </trkpt>
      <trkpt lat="45.86127" lon="4.69081">
        <ele>203</ele>
        <time>2018-04-07T10:06:29Z</time>
      </trkpt>
      <trkpt lat="45.86132" lon="4.69081">
        <ele>203</ele>
        <time>2018-04-07T10:06:30Z</time>
      </trkpt>
      <trkpt lat="45.86136" lon="4.6908">
        <ele>203</ele>
        <time>2018-04-07T10:06:31Z</time>
      </trkpt>
      <trkpt lat="45.86144" lon="4.69079">
        <ele>204</ele>
        <time>2018-04-07T10:06:33Z</time>
      </trkpt>
      <trkpt lat="45.86148" lon="4.69079">
        <ele>204</ele>
        <time>2018-04-07T10:06:34Z</time>
      </trkpt>
      <trkpt lat="45.86155" lon="4.69079">
        <ele>204</ele>
        <time>2018-04-07T10:06:36Z</time>
      </trkpt>
      <trkpt lat="45.86161" lon="4.69078">
        <ele>205</ele>
        <time>2018-04-07T10:06:37Z</time>
      </trkpt>
      <trkpt lat="45.86169" lon="4.69077">
        <ele>206</ele>
        <time>2018-04-07T10:06:39Z</time>
      </trkpt>
      <trkpt lat="45.86173" lon="4.69076">
        <ele>207</ele>
        <time>2018-04-07T10:06:40Z</time>
      </trkpt>
      <trkpt lat="45.86181" lon="4.69076">
        <ele>208</ele>
        <time>2018-04-07T10:06:44Z</time>
      </trkpt>
      <trkpt lat="45.86183" lon="4.69076">
        <ele>208</ele>
        <time>2018-04-07T10:06:45Z</time>
      </trkpt>
      <trkpt lat="45.86192" lon="4.69076">
        <ele>209</ele>
        <time>2018-04-07T10:06:48Z</time>
      </trkpt>
      <trkpt lat="45.86194" lon="4.69075">
        <ele>209</ele>
        <time>2018-04-07T10:06:49Z</time>
      </trkpt>
      <trkpt lat="45.86204" lon="4.69073">
        <ele>209</ele>
        <time>2018-04-07T10:06:50Z</time>
      </trkpt>
      <trkpt lat="45.86211" lon="4.69072">
        <ele>210</ele>
        <time>2018-04-07T10:06:53Z</time>
      </trkpt>
      <trkpt lat="45.86214" lon="4.69073">
        <ele>210</ele>
        <time>2018-04-07T10:06:54Z</time>
      </trkpt>
      <trkpt lat="45.86221" lon="4.69075">
        <ele>210</ele>
        <time>2018-04-07T10:06:57Z</time>
      </trkpt>
      <trkpt lat="45.86224" lon="4.69075">
        <ele>210</ele>
        <time>2018-04-07T10:06:58Z</time>
      </trkpt>
      <trkpt lat="45.86232" lon="4.69076">
        <ele>211</ele>
        <time>2018-04-07T10:07:01Z</time>
      </trkpt>
      <trkpt lat="45.86235" lon="4.69077">
        <ele>211</ele>
        <time>2018-04-07T10:07:02Z</time>
      </trkpt>
      <trkpt lat="45.86241" lon="4.69078">
        <ele>211</ele>
        <time>2018-04-07T10:07:04Z</time>
      </trkpt>
      <trkpt lat="45.86244" lon="4.69079">
        <ele>211</ele>
        <time>2018-04-07T10:07:05Z</time>
      </trkpt>
      <trkpt lat="45.86251" lon="4.6908">
        <ele>211</ele>
        <time>2018-04-07T10:07:07Z</time>
      </trkpt>
      <trkpt lat="45.86254" lon="4.69081">
        <ele>212</ele>
        <time>2018-04-07T10:07:08Z</time>
      </trkpt>
      <trkpt lat="45.86262" lon="4.69083">
        <ele>212</ele>
        <time>2018-04-07T10:07:11Z</time>
      </trkpt>
      <trkpt lat="45.86265" lon="4.69084">
        <ele>212</ele>
        <time>2018-04-07T10:07:12Z</time>
      </trkpt>
      <trkpt lat="45.86273" lon="4.69087">
        <ele>213</ele>
        <time>2018-04-07T10:07:15Z</time>
      </trkpt>
      <trkpt lat="45.86276" lon="4.69088">
        <ele>213</ele>
        <time>2018-04-07T10:07:16Z</time>
      </trkpt>
      <trkpt lat="45.86283" lon="4.69092">
        <ele>213</ele>
        <time>2018-04-07T10:07:19Z</time>
      </trkpt>
      <trkpt lat="45.86286" lon="4.69094">
        <ele>213</ele>
        <time>2018-04-07T10:07:20Z</time>
      </trkpt>
      <trkpt lat="45.86293" lon="4.69099">
        <ele>214</ele>
        <time>2018-04-07T10:07:23Z</time>
      </trkpt>
      <trkpt lat="45.86296" lon="4.69101">
        <ele>214</ele>
        <time>2018-04-07T10:07:24Z</time>
      </trkpt>
      <trkpt lat="45.86303" lon="4.69107">
        <ele>214</ele>
        <time>2018-04-07T10:07:27Z</time>
      </trkpt>
      <trkpt lat="45.86306" lon="4.69109">
        <ele>214</ele>
        <time>2018-04-07T10:07:28Z</time>
      </trkpt>
      <trkpt lat="45.86313" lon="4.69116">
        <ele>214</ele>
        <time>2018-04-07T10:07:31Z</time>
      </trkpt>
      <trkpt lat="45.86315" lon="4.69119">
        <ele>214</ele>
        <time>2018-04-07T10:07:32Z</time>
      </trkpt>
      <trkpt lat="45.86322" lon="4.69127">
        <ele>214</ele>
        <time>2018-04-07T10:07:35Z</time>
      </trkpt>
      <trkpt lat="45.86324" lon="4.6913">
        <ele>215</ele>
        <time>2018-04-07T10:07:36Z</time>
      </trkpt>
      <trkpt lat="45.86331" lon="4.69137">
        <ele>215</ele>
        <time>2018-04-07T10:07:39Z</time>
      </trkpt>
      <trkpt lat="45.86333" lon="4.6914">
        <ele>215</ele>
        <time>2018-04-07T10:07:40Z</time>
      </trkpt>
      <trkpt lat="45.86337" lon="4.69146">
        <ele>217</ele>
        <time>2018-04-07T10:07:42Z</time>
      </trkpt>
      <trkpt lat="45.86339" lon="4.69149">
        <ele>217</ele>
        <time>2018-04-07T10:07:43Z</time>
      </trkpt>
      <trkpt lat="45.86344" lon="4.69156">
        <ele>217</ele>
        <time>2018-04-07T10:07:46Z</time>
      </trkpt>
      <trkpt lat="45.86346" lon="4.69159">
        <ele>217</ele>
        <time>2018-04-07T10:07:47Z</time>
      </trkpt>
      <trkpt lat="45.86351" lon="4.69167">
        <ele>217</ele>
        <time>2018-04-07T10:07:50Z</time>
      </trkpt>
      <trkpt lat="45.86353" lon="4.69169">
        <ele>218</ele>
        <time>2018-04-07T10:07:51Z</time>
      </trkpt>
      <trkpt lat="45.86357" lon="4.69179">
        <ele>218</ele>
        <time>2018-04-07T10:07:54Z</time>
      </trkpt>
      <trkpt lat="45.86358" lon="4.69182">
        <ele>218</ele>
        <time>2018-04-07T10:07:55Z</time>
      </trkpt>
      <trkpt lat="45.86362" lon="4.69193">
        <ele>218</ele>
        <time>2018-04-07T10:07:58Z</time>
      </trkpt>
      <trkpt lat="45.86364" lon="4.69197">
        <ele>219</ele>
        <time>2018-04-07T10:07:59Z</time>
      </trkpt>
      <trkpt lat="45.86368" lon="4.69208">
        <ele>219</ele>
        <time>2018-04-07T10:08:02Z</time>
      </trkpt>
      <trkpt lat="45.8637" lon="4.69211">
        <ele>219</ele>
        <time>2018-04-07T10:08:03Z</time>
      </trkpt>
      <trkpt lat="45.86373" lon="4.69219">
        <ele>219</ele>
        <time>2018-04-07T10:08:05Z</time>
      </trkpt>
      <trkpt lat="45.86375" lon="4.69222">
        <ele>219</ele>
        <time>2018-04-07T10:08:06Z</time>
      </trkpt>
      <trkpt lat="45.8638" lon="4.69235">
        <ele>219</ele>
        <time>2018-04-07T10:08:07Z</time>
      </trkpt>
      <trkpt lat="45.86384" lon="4.69243">
        <ele>219</ele>
        <time>2018-04-07T10:08:09Z</time>
      </trkpt>
      <trkpt lat="45.86386" lon="4.69248">
        <ele>219</ele>
        <time>2018-04-07T10:08:10Z</time>
      </trkpt>
      <trkpt lat="45.8639" lon="4.69257">
        <ele>219</ele>
        <time>2018-04-07T10:08:12Z</time>
      </trkpt>
      <trkpt lat="45.86393" lon="4.69262">
        <ele>219</ele>
        <time>2018-04-07T10:08:13Z</time>
      </trkpt>
      <trkpt lat="45.86397" lon="4.69266">
        <ele>220</ele>
        <time>2018-04-07T10:08:14Z</time>
      </trkpt>
      <trkpt lat="45.86399" lon="4.6927">
        <ele>219</ele>
        <time>2018-04-07T10:08:15Z</time>
      </trkpt>
      <trkpt lat="45.86404" lon="4.69281">
        <ele>219</ele>
        <time>2018-04-07T10:08:17Z</time>
      </trkpt>
      <trkpt lat="45.86406" lon="4.69286">
        <ele>219</ele>
        <time>2018-04-07T10:08:18Z</time>
      </trkpt>
      <trkpt lat="45.86409" lon="4.69297">
        <ele>219</ele>
        <time>2018-04-07T10:08:20Z</time>
      </trkpt>
      <trkpt lat="45.86413" lon="4.69302">
        <ele>219</ele>
        <time>2018-04-07T10:08:21Z</time>
      </trkpt>
      <trkpt lat="45.86415" lon="4.69308">
        <ele>219</ele>
        <time>2018-04-07T10:08:22Z</time>
      </trkpt>
      <trkpt lat="45.86418" lon="4.69315">
        <ele>219</ele>
        <time>2018-04-07T10:08:23Z</time>
      </trkpt>
      <trkpt lat="45.86421" lon="4.69321">
        <ele>219</ele>
        <time>2018-04-07T10:08:24Z</time>
      </trkpt>
      <trkpt lat="45.86423" lon="4.69326">
        <ele>219</ele>
        <time>2018-04-07T10:08:25Z</time>
      </trkpt>
      <trkpt lat="45.86428" lon="4.69332">
        <ele>219</ele>
        <time>2018-04-07T10:08:26Z</time>
      </trkpt>
      <trkpt lat="45.86429" lon="4.69337">
        <ele>219</ele>
        <time>2018-04-07T10:08:27Z</time>
      </trkpt>
      <trkpt lat="45.86432" lon="4.69343">
        <ele>219</ele>
        <time>2018-04-07T10:08:28Z</time>
      </trkpt>
      <trkpt lat="45.86435" lon="4.69349">
        <ele>219</ele>
        <time>2018-04-07T10:08:29Z</time>
      </trkpt>
      <trkpt lat="45.86437" lon="4.69355">
        <ele>219</ele>
        <time>2018-04-07T10:08:30Z</time>
      </trkpt>
      <trkpt lat="45.86442" lon="4.6936">
        <ele>219</ele>
        <time>2018-04-07T10:08:31Z</time>
      </trkpt>
      <trkpt lat="45.86444" lon="4.69366">
        <ele>219</ele>
        <time>2018-04-07T10:08:32Z</time>
      </trkpt>
      <trkpt lat="45.86446" lon="4.69372">
        <ele>219</ele>
        <time>2018-04-07T10:08:33Z</time>
      </trkpt>
      <trkpt lat="45.86449" lon="4.69379">
        <ele>219</ele>
        <time>2018-04-07T10:08:34Z</time>
      </trkpt>
      <trkpt lat="45.86451" lon="4.69384">
        <ele>219</ele>
        <time>2018-04-07T10:08:35Z</time>
      </trkpt>
      <trkpt lat="45.86456" lon="4.69389">
        <ele>219</ele>
        <time>2018-04-07T10:08:36Z</time>
      </trkpt>
      <trkpt lat="45.86459" lon="4.69396">
        <ele>219</ele>
        <time>2018-04-07T10:08:37Z</time>
      </trkpt>
      <trkpt lat="45.86462" lon="4.694">
        <ele>219</ele>
        <time>2018-04-07T10:08:38Z</time>
      </trkpt>
      <trkpt lat="45.86468" lon="4.69407">
        <ele>219</ele>
        <time>2018-04-07T10:08:39Z</time>
      </trkpt>
      <trkpt lat="45.86471" lon="4.69414">
        <ele>219</ele>
        <time>2018-04-07T10:08:40Z</time>
      </trkpt>
      <trkpt lat="45.86475" lon="4.6942">
        <ele>218</ele>
        <time>2018-04-07T10:08:41Z</time>
      </trkpt>
      <trkpt lat="45.86478" lon="4.69425">
        <ele>218</ele>
        <time>2018-04-07T10:08:42Z</time>
      </trkpt>
      <trkpt lat="45.86481" lon="4.69431">
        <ele>218</ele>
        <time>2018-04-07T10:08:43Z</time>
      </trkpt>
      <trkpt lat="45.86483" lon="4.69436">
        <ele>218</ele>
        <time>2018-04-07T10:08:44Z</time>
      </trkpt>
      <trkpt lat="45.86488" lon="4.69442">
        <ele>218</ele>
        <time>2018-04-07T10:08:45Z</time>
      </trkpt>
      <trkpt lat="45.86492" lon="4.69447">
        <ele>218</ele>
        <time>2018-04-07T10:08:46Z</time>
      </trkpt>
      <trkpt lat="45.86496" lon="4.69452">
        <ele>218</ele>
        <time>2018-04-07T10:08:47Z</time>
      </trkpt>
      <trkpt lat="45.86499" lon="4.69458">
        <ele>218</ele>
        <time>2018-04-07T10:08:48Z</time>
      </trkpt>
      <trkpt lat="45.86503" lon="4.69464">
        <ele>219</ele>
        <time>2018-04-07T10:08:49Z</time>
      </trkpt>
      <trkpt lat="45.86507" lon="4.69469">
        <ele>219</ele>
        <time>2018-04-07T10:08:50Z</time>
      </trkpt>
      <trkpt lat="45.8651" lon="4.69475">
        <ele>219</ele>
        <time>2018-04-07T10:08:51Z</time>
      </trkpt>
      <trkpt lat="45.86514" lon="4.69481">
        <ele>219</ele>
        <time>2018-04-07T10:08:52Z</time>
      </trkpt>
      <trkpt lat="45.86517" lon="4.69487">
        <ele>219</ele>
        <time>2018-04-07T10:08:53Z</time>
      </trkpt>
      <trkpt lat="45.86521" lon="4.69493">
        <ele>219</ele>
        <time>2018-04-07T10:08:54Z</time>
      </trkpt>
      <trkpt lat="45.86525" lon="4.69499">
        <ele>219</ele>
        <time>2018-04-07T10:08:55Z</time>
      </trkpt>
      <trkpt lat="45.86529" lon="4.69504">
        <ele>219</ele>
        <time>2018-04-07T10:08:56Z</time>
      </trkpt>
      <trkpt lat="45.86533" lon="4.69511">
        <ele>219</ele>
        <time>2018-04-07T10:08:57Z</time>
      </trkpt>
      <trkpt lat="45.86538" lon="4.69517">
        <ele>219</ele>
        <time>2018-04-07T10:08:58Z</time>
      </trkpt>
      <trkpt lat="45.86543" lon="4.69522">
        <ele>219</ele>
        <time>2018-04-07T10:08:59Z</time>
      </trkpt>
      <trkpt lat="45.86546" lon="4.69528">
        <ele>219</ele>
        <time>2018-04-07T10:09:00Z</time>
      </trkpt>
      <trkpt lat="45.8655" lon="4.69533">
        <ele>219</ele>
        <time>2018-04-07T10:09:01Z</time>
      </trkpt>
      <trkpt lat="45.86553" lon="4.69539">
        <ele>219</ele>
        <time>2018-04-07T10:09:02Z</time>
      </trkpt>
      <trkpt lat="45.86557" lon="4.69545">
        <ele>219</ele>
        <time>2018-04-07T10:09:03Z</time>
      </trkpt>
      <trkpt lat="45.8656" lon="4.6955">
        <ele>219</ele>
        <time>2018-04-07T10:09:04Z</time>
      </trkpt>
      <trkpt lat="45.86564" lon="4.69556">
        <ele>219</ele>
        <time>2018-04-07T10:09:05Z</time>
      </trkpt>
      <trkpt lat="45.86568" lon="4.69561">
        <ele>219</ele>
        <time>2018-04-07T10:09:06Z</time>
      </trkpt>
      <trkpt lat="45.86571" lon="4.69565">
        <ele>219</ele>
        <time>2018-04-07T10:09:07Z</time>
      </trkpt>
      <trkpt lat="45.86575" lon="4.6957">
        <ele>219</ele>
        <time>2018-04-07T10:09:08Z</time>
      </trkpt>
      <trkpt lat="45.86578" lon="4.69575">
        <ele>219</ele>
        <time>2018-04-07T10:09:09Z</time>
      </trkpt>
      <trkpt lat="45.86581" lon="4.69582">
        <ele>219</ele>
        <time>2018-04-07T10:09:10Z</time>
      </trkpt>
      <trkpt lat="45.86585" lon="4.69587">
        <ele>219</ele>
        <time>2018-04-07T10:09:11Z</time>
      </trkpt>
      <trkpt lat="45.86588" lon="4.69593">
        <ele>219</ele>
        <time>2018-04-07T10:09:12Z</time>
      </trkpt>
      <trkpt lat="45.86592" lon="4.696">
        <ele>219</ele>
        <time>2018-04-07T10:09:13Z</time>
      </trkpt>
      <trkpt lat="45.86596" lon="4.69606">
        <ele>219</ele>
        <time>2018-04-07T10:09:14Z</time>
      </trkpt>
      <trkpt lat="45.866" lon="4.69613">
        <ele>219</ele>
        <time>2018-04-07T10:09:15Z</time>
      </trkpt>
      <trkpt lat="45.86604" lon="4.69618">
        <ele>219</ele>
        <time>2018-04-07T10:09:16Z</time>
      </trkpt>
      <trkpt lat="45.86608" lon="4.69625">
        <ele>219</ele>
        <time>2018-04-07T10:09:17Z</time>
      </trkpt>
      <trkpt lat="45.8661" lon="4.6963">
        <ele>219</ele>
        <time>2018-04-07T10:09:18Z</time>
      </trkpt>
      <trkpt lat="45.86613" lon="4.69636">
        <ele>219</ele>
        <time>2018-04-07T10:09:19Z</time>
      </trkpt>
      <trkpt lat="45.86616" lon="4.69641">
        <ele>219</ele>
        <time>2018-04-07T10:09:20Z</time>
      </trkpt>
      <trkpt lat="45.8662" lon="4.69646">
        <ele>219</ele>
        <time>2018-04-07T10:09:21Z</time>
      </trkpt>
      <trkpt lat="45.86623" lon="4.69651">
        <ele>219</ele>
        <time>2018-04-07T10:09:22Z</time>
      </trkpt>
      <trkpt lat="45.86625" lon="4.69658">
        <ele>218</ele>
        <time>2018-04-07T10:09:23Z</time>
      </trkpt>
      <trkpt lat="45.86628" lon="4.69664">
        <ele>218</ele>
        <time>2018-04-07T10:09:24Z</time>
      </trkpt>
      <trkpt lat="45.86632" lon="4.69669">
        <ele>218</ele>
        <time>2018-04-07T10:09:25Z</time>
      </trkpt>
      <trkpt lat="45.86635" lon="4.69675">
        <ele>218</ele>
        <time>2018-04-07T10:09:26Z</time>
      </trkpt>
      <trkpt lat="45.86639" lon="4.6968">
        <ele>218</ele>
        <time>2018-04-07T10:09:27Z</time>
      </trkpt>
      <trkpt lat="45.86644" lon="4.69685">
        <ele>218</ele>
        <time>2018-04-07T10:09:28Z</time>
      </trkpt>
      <trkpt lat="45.86648" lon="4.6969">
        <ele>218</ele>
        <time>2018-04-07T10:09:29Z</time>
      </trkpt>
      <trkpt lat="45.86652" lon="4.69695">
        <ele>218</ele>
        <time>2018-04-07T10:09:30Z</time>
      </trkpt>
      <trkpt lat="45.86657" lon="4.69699">
        <ele>218</ele>
        <time>2018-04-07T10:09:31Z</time>
      </trkpt>
      <trkpt lat="45.86662" lon="4.69704">
        <ele>218</ele>
        <time>2018-04-07T10:09:32Z</time>
      </trkpt>
      <trkpt lat="45.86668" lon="4.69708">
        <ele>217</ele>
        <time>2018-04-07T10:09:33Z</time>
      </trkpt>
      <trkpt lat="45.86673" lon="4.69714">
        <ele>217</ele>
        <time>2018-04-07T10:09:34Z</time>
      </trkpt>
      <trkpt lat="45.86677" lon="4.69718">
        <ele>217</ele>
        <time>2018-04-07T10:09:35Z</time>
      </trkpt>
      <trkpt lat="45.86682" lon="4.69723">
        <ele>217</ele>
        <time>2018-04-07T10:09:36Z</time>
      </trkpt>
      <trkpt lat="45.86687" lon="4.69727">
        <ele>217</ele>
        <time>2018-04-07T10:09:37Z</time>
      </trkpt>
      <trkpt lat="45.86692" lon="4.69732">
        <ele>217</ele>
        <time>2018-04-07T10:09:38Z</time>
      </trkpt>
      <trkpt lat="45.86697" lon="4.69736">
        <ele>217</ele>
        <time>2018-04-07T10:09:39Z</time>
      </trkpt>
      <trkpt lat="45.86702" lon="4.69741">
        <ele>217</ele>
        <time>2018-04-07T10:09:40Z</time>
      </trkpt>
      <trkpt lat="45.86707" lon="4.69744">
        <ele>217</ele>
        <time>2018-04-07T10:09:41Z</time>
      </trkpt>
      <trkpt lat="45.86712" lon="4.69749">
        <ele>217</ele>
        <time>2018-04-07T10:09:42Z</time>
      </trkpt>
      <trkpt lat="45.86717" lon="4.69754">
        <ele>217</ele>
        <time>2018-04-07T10:09:43Z</time>
      </trkpt>
      <trkpt lat="45.86722" lon="4.69759">
        <ele>217</ele>
        <time>2018-04-07T10:09:44Z</time>
      </trkpt>
      <trkpt lat="45.86727" lon="4.69764">
        <ele>217</ele>
        <time>2018-04-07T10:09:45Z</time>
      </trkpt>
      <trkpt lat="45.86732" lon="4.69768">
        <ele>217</ele>
        <time>2018-04-07T10:09:46Z</time>
      </trkpt>
      <trkpt lat="45.86738" lon="4.69773">
        <ele>217</ele>
        <time>2018-04-07T10:09:47Z</time>
      </trkpt>
      <trkpt lat="45.86743" lon="4.69778">
        <ele>217</ele>
        <time>2018-04-07T10:09:48Z</time>
      </trkpt>
      <trkpt lat="45.86748" lon="4.69784">
        <ele>217</ele>
        <time>2018-04-07T10:09:49Z</time>
      </trkpt>
      <trkpt lat="45.86754" lon="4.69789">
        <ele>217</ele>
        <time>2018-04-07T10:09:50Z</time>
      </trkpt>
      <trkpt lat="45.86759" lon="4.69793">
        <ele>217</ele>
        <time>2018-04-07T10:09:51Z</time>
      </trkpt>
      <trkpt lat="45.86764" lon="4.69798">
        <ele>217</ele>
        <time>2018-04-07T10:09:52Z</time>
      </trkpt>
      <trkpt lat="45.86769" lon="4.69803">
        <ele>217</ele>
        <time>2018-04-07T10:09:53Z</time>
      </trkpt>
      <trkpt lat="45.86774" lon="4.69808">
        <ele>217</ele>
        <time>2018-04-07T10:09:54Z</time>
      </trkpt>
      <trkpt lat="45.8678" lon="4.69811">
        <ele>217</ele>
        <time>2018-04-07T10:09:55Z</time>
      </trkpt>
      <trkpt lat="45.86785" lon="4.69816">
        <ele>217</ele>
        <time>2018-04-07T10:09:56Z</time>
      </trkpt>
      <trkpt lat="45.86791" lon="4.69821">
        <ele>217</ele>
        <time>2018-04-07T10:09:57Z</time>
      </trkpt>
      <trkpt lat="45.86795" lon="4.69826">
        <ele>217</ele>
        <time>2018-04-07T10:09:58Z</time>
      </trkpt>
      <trkpt lat="45.868" lon="4.69831">
        <ele>217</ele>
        <time>2018-04-07T10:09:59Z</time>
      </trkpt>
      <trkpt lat="45.86804" lon="4.69835">
        <ele>217</ele>
        <time>2018-04-07T10:10:00Z</time>
      </trkpt>
      <trkpt lat="45.8681" lon="4.69838">
        <ele>217</ele>
        <time>2018-04-07T10:10:01Z</time>
      </trkpt>
      <trkpt lat="45.86816" lon="4.69842">
        <ele>217</ele>
        <time>2018-04-07T10:10:02Z</time>
      </trkpt>
      <trkpt lat="45.86821" lon="4.69847">
        <ele>217</ele>
        <time>2018-04-07T10:10:03Z</time>
      </trkpt>
      <trkpt lat="45.86826" lon="4.69854">
        <ele>217</ele>
        <time>2018-04-07T10:10:04Z</time>
      </trkpt>
      <trkpt lat="45.86831" lon="4.69859">
        <ele>217</ele>
        <time>2018-04-07T10:10:05Z</time>
      </trkpt>
      <trkpt lat="45.86837" lon="4.69864">
        <ele>217</ele>
        <time>2018-04-07T10:10:06Z</time>
      </trkpt>
      <trkpt lat="45.86842" lon="4.69869">
        <ele>217</ele>
        <time>2018-04-07T10:10:07Z</time>
      </trkpt>
      <trkpt lat="45.86847" lon="4.69873">
        <ele>217</ele>
        <time>2018-04-07T10:10:08Z</time>
      </trkpt>
      <trkpt lat="45.86852" lon="4.69879">
        <ele>217</ele>
        <time>2018-04-07T10:10:09Z</time>
      </trkpt>
      <trkpt lat="45.86858" lon="4.69884">
        <ele>217</ele>
        <time>2018-04-07T10:10:10Z</time>
      </trkpt>
      <trkpt lat="45.86863" lon="4.69889">
        <ele>217</ele>
        <time>2018-04-07T10:10:11Z</time>
      </trkpt>
      <trkpt lat="45.86868" lon="4.69894">
        <ele>217</ele>
        <time>2018-04-07T10:10:12Z</time>
      </trkpt>
      <trkpt lat="45.86872" lon="4.69899">
        <ele>217</ele>
        <time>2018-04-07T10:10:13Z</time>
      </trkpt>
      <trkpt lat="45.86876" lon="4.69904">
        <ele>217</ele>
        <time>2018-04-07T10:10:14Z</time>
      </trkpt>
      <trkpt lat="45.86883" lon="4.69909">
        <ele>217</ele>
        <time>2018-04-07T10:10:15Z</time>
      </trkpt>
      <trkpt lat="45.86888" lon="4.69913">
        <ele>217</ele>
        <time>2018-04-07T10:10:16Z</time>
      </trkpt>
      <trkpt lat="45.86894" lon="4.69917">
        <ele>217</ele>
        <time>2018-04-07T10:10:17Z</time>
      </trkpt>
      <trkpt lat="45.869" lon="4.69921">
        <ele>217</ele>
        <time>2018-04-07T10:10:18Z</time>
      </trkpt>
      <trkpt lat="45.86906" lon="4.69926">
        <ele>217</ele>
        <time>2018-04-07T10:10:19Z</time>
      </trkpt>
      <trkpt lat="45.86911" lon="4.69931">
        <ele>217</ele>
        <time>2018-04-07T10:10:20Z</time>
      </trkpt>
      <trkpt lat="45.86917" lon="4.69936">
        <ele>217</ele>
        <time>2018-04-07T10:10:21Z</time>
      </trkpt>
      <trkpt lat="45.86922" lon="4.69941">
        <ele>217</ele>
        <time>2018-04-07T10:10:22Z</time>
      </trkpt>
      <trkpt lat="45.86928" lon="4.69944">
        <ele>217</ele>
        <time>2018-04-07T10:10:23Z</time>
      </trkpt>
      <trkpt lat="45.86933" lon="4.69948">
        <ele>217</ele>
        <time>2018-04-07T10:10:24Z</time>
      </trkpt>
      <trkpt lat="45.86938" lon="4.69952">
        <ele>217</ele>
        <time>2018-04-07T10:10:25Z</time>
      </trkpt>
      <trkpt lat="45.86944" lon="4.69957">
        <ele>217</ele>
        <time>2018-04-07T10:10:26Z</time>
      </trkpt>
      <trkpt lat="45.86948" lon="4.69961">
        <ele>217</ele>
        <time>2018-04-07T10:10:27Z</time>
      </trkpt>
      <trkpt lat="45.86953" lon="4.69965">
        <ele>217</ele>
        <time>2018-04-07T10:10:28Z</time>
      </trkpt>
      <trkpt lat="45.86958" lon="4.6997">
        <ele>217</ele>
        <time>2018-04-07T10:10:29Z</time>
      </trkpt>
      <trkpt lat="45.86962" lon="4.69974">
        <ele>217</ele>
        <time>2018-04-07T10:10:30Z</time>
      </trkpt>
      <trkpt lat="45.86966" lon="4.69977">
        <ele>217</ele>
        <time>2018-04-07T10:10:31Z</time>
      </trkpt>
      <trkpt lat="45.86969" lon="4.69986">
        <ele>217</ele>
        <time>2018-04-07T10:10:33Z</time>
      </trkpt>
      <trkpt lat="45.8697" lon="4.69992">
        <ele>217</ele>
        <time>2018-04-07T10:10:34Z</time>
      </trkpt>
      <trkpt lat="45.86973" lon="4.69998">
        <ele>217</ele>
        <time>2018-04-07T10:10:35Z</time>
      </trkpt>
      <trkpt lat="45.86977" lon="4.70002">
        <ele>217</ele>
        <time>2018-04-07T10:10:36Z</time>
      </trkpt>
      <trkpt lat="45.86983" lon="4.70005">
        <ele>217</ele>
        <time>2018-04-07T10:10:37Z</time>
      </trkpt>
      <trkpt lat="45.86988" lon="4.70007">
        <ele>217</ele>
        <time>2018-04-07T10:10:38Z</time>
      </trkpt>
      <trkpt lat="45.86993" lon="4.70007">
        <ele>217</ele>
        <time>2018-04-07T10:10:39Z</time>
      </trkpt>
      <trkpt lat="45.86999" lon="4.70006">
        <ele>217</ele>
        <time>2018-04-07T10:10:40Z</time>
      </trkpt>
      <trkpt lat="45.87004" lon="4.70004">
        <ele>217</ele>
        <time>2018-04-07T10:10:41Z</time>
      </trkpt>
      <trkpt lat="45.8701" lon="4.70005">
        <ele>217</ele>
        <time>2018-04-07T10:10:42Z</time>
      </trkpt>
      <trkpt lat="45.87015" lon="4.70008">
        <ele>217</ele>
        <time>2018-04-07T10:10:43Z</time>
      </trkpt>
      <trkpt lat="45.8702" lon="4.70011">
        <ele>217</ele>
        <time>2018-04-07T10:10:44Z</time>
      </trkpt>
      <trkpt lat="45.87025" lon="4.70015">
        <ele>217</ele>
        <time>2018-04-07T10:10:45Z</time>
      </trkpt>
      <trkpt lat="45.87029" lon="4.70021">
        <ele>217</ele>
        <time>2018-04-07T10:10:46Z</time>
      </trkpt>
      <trkpt lat="45.87034" lon="4.70027">
        <ele>217</ele>
        <time>2018-04-07T10:10:47Z</time>
      </trkpt>
      <trkpt lat="45.87038" lon="4.70034">
        <ele>217</ele>
        <time>2018-04-07T10:10:48Z</time>
      </trkpt>
      <trkpt lat="45.87042" lon="4.70043">
        <ele>217</ele>
        <time>2018-04-07T10:10:49Z</time>
      </trkpt>
      <trkpt lat="45.87046" lon="4.7005">
        <ele>217</ele>
        <time>2018-04-07T10:10:50Z</time>
      </trkpt>
      <trkpt lat="45.8705" lon="4.70056">
        <ele>217</ele>
        <time>2018-04-07T10:10:51Z</time>
      </trkpt>
      <trkpt lat="45.87054" lon="4.70063">
        <ele>217</ele>
        <time>2018-04-07T10:10:52Z</time>
      </trkpt>
      <trkpt lat="45.87058" lon="4.7007">
        <ele>217</ele>
        <time>2018-04-07T10:10:53Z</time>
      </trkpt>
      <trkpt lat="45.87062" lon="4.70075">
        <ele>217</ele>
        <time>2018-04-07T10:10:54Z</time>
      </trkpt>
      <trkpt lat="45.87065" lon="4.70083">
        <ele>217</ele>
        <time>2018-04-07T10:10:55Z</time>
      </trkpt>
      <trkpt lat="45.87069" lon="4.7009">
        <ele>217</ele>
        <time>2018-04-07T10:10:56Z</time>
      </trkpt>
      <trkpt lat="45.87072" lon="4.70096">
        <ele>217</ele>
        <time>2018-04-07T10:10:57Z</time>
      </trkpt>
      <trkpt lat="45.87077" lon="4.70106">
        <ele>217</ele>
        <time>2018-04-07T10:10:58Z</time>
      </trkpt>
      <trkpt lat="45.8708" lon="4.70113">
        <ele>217</ele>
        <time>2018-04-07T10:10:59Z</time>
      </trkpt>
      <trkpt lat="45.87084" lon="4.7012">
        <ele>217</ele>
        <time>2018-04-07T10:11:00Z</time>
      </trkpt>
      <trkpt lat="45.87087" lon="4.70126">
        <ele>217</ele>
        <time>2018-04-07T10:11:01Z</time>
      </trkpt>
      <trkpt lat="45.87091" lon="4.70133">
        <ele>217</ele>
        <time>2018-04-07T10:11:02Z</time>
      </trkpt>
      <trkpt lat="45.87095" lon="4.7014">
        <ele>217</ele>
        <time>2018-04-07T10:11:03Z</time>
      </trkpt>
      <trkpt lat="45.87101" lon="4.70146">
        <ele>217</ele>
        <time>2018-04-07T10:11:04Z</time>
      </trkpt>
      <trkpt lat="45.87104" lon="4.70153">
        <ele>217</ele>
        <time>2018-04-07T10:11:05Z</time>
      </trkpt>
      <trkpt lat="45.87107" lon="4.7016">
        <ele>217</ele>
        <time>2018-04-07T10:11:06Z</time>
      </trkpt>
      <trkpt lat="45.87111" lon="4.70169">
        <ele>216</ele>
        <time>2018-04-07T10:11:07Z</time>
      </trkpt>
      <trkpt lat="45.87115" lon="4.70175">
        <ele>216</ele>
        <time>2018-04-07T10:11:08Z</time>
      </trkpt>
      <trkpt lat="45.87119" lon="4.70182">
        <ele>216</ele>
        <time>2018-04-07T10:11:09Z</time>
      </trkpt>
      <trkpt lat="45.87123" lon="4.70189">
        <ele>216</ele>
        <time>2018-04-07T10:11:10Z</time>
      </trkpt>
      <trkpt lat="45.87127" lon="4.70196">
        <ele>216</ele>
        <time>2018-04-07T10:11:11Z</time>
      </trkpt>
      <trkpt lat="45.87132" lon="4.70201">
        <ele>216</ele>
        <time>2018-04-07T10:11:12Z</time>
      </trkpt>
      <trkpt lat="45.87136" lon="4.70208">
        <ele>216</ele>
        <time>2018-04-07T10:11:13Z</time>
      </trkpt>
      <trkpt lat="45.87141" lon="4.70214">
        <ele>216</ele>
        <time>2018-04-07T10:11:14Z</time>
      </trkpt>
      <trkpt lat="45.87146" lon="4.70217">
        <ele>216</ele>
        <time>2018-04-07T10:11:15Z</time>
      </trkpt>
      <trkpt lat="45.87151" lon="4.70223">
        <ele>216</ele>
        <time>2018-04-07T10:11:16Z</time>
      </trkpt>
      <trkpt lat="45.87155" lon="4.70229">
        <ele>216</ele>
        <time>2018-04-07T10:11:17Z</time>
      </trkpt>
      <trkpt lat="45.8716" lon="4.70236">
        <ele>216</ele>
        <time>2018-04-07T10:11:18Z</time>
      </trkpt>
      <trkpt lat="45.87165" lon="4.70242">
        <ele>216</ele>
        <time>2018-04-07T10:11:19Z</time>
      </trkpt>
      <trkpt lat="45.87169" lon="4.70249">
        <ele>216</ele>
        <time>2018-04-07T10:11:20Z</time>
      </trkpt>
      <trkpt lat="45.87174" lon="4.70255">
        <ele>216</ele>
        <time>2018-04-07T10:11:21Z</time>
      </trkpt>
      <trkpt lat="45.87179" lon="4.70261">
        <ele>216</ele>
        <time>2018-04-07T10:11:22Z</time>
      </trkpt>
      <trkpt lat="45.87184" lon="4.70266">
        <ele>216</ele>
        <time>2018-04-07T10:11:23Z</time>
      </trkpt>
      <trkpt lat="45.87188" lon="4.70272">
        <ele>217</ele>
        <time>2018-04-07T10:11:24Z</time>
      </trkpt>
      <trkpt lat="45.87193" lon="4.70277">
        <ele>217</ele>
        <time>2018-04-07T10:11:25Z</time>
      </trkpt>
      <trkpt lat="45.87198" lon="4.70283">
        <ele>217</ele>
        <time>2018-04-07T10:11:26Z</time>
      </trkpt>
      <trkpt lat="45.87203" lon="4.70291">
        <ele>217</ele>
        <time>2018-04-07T10:11:27Z</time>
      </trkpt>
      <trkpt lat="45.87208" lon="4.70298">
        <ele>217</ele>
        <time>2018-04-07T10:11:28Z</time>
      </trkpt>
      <trkpt lat="45.87212" lon="4.70305">
        <ele>217</ele>
        <time>2018-04-07T10:11:29Z</time>
      </trkpt>
      <trkpt lat="45.87217" lon="4.70312">
        <ele>217</ele>
        <time>2018-04-07T10:11:30Z</time>
      </trkpt>
      <trkpt lat="45.87223" lon="4.70319">
        <ele>217</ele>
        <time>2018-04-07T10:11:31Z</time>
      </trkpt>
      <trkpt lat="45.8723" lon="4.70328">
        <ele>217</ele>
        <time>2018-04-07T10:11:32Z</time>
      </trkpt>
      <trkpt lat="45.87235" lon="4.70335">
        <ele>217</ele>
        <time>2018-04-07T10:11:33Z</time>
      </trkpt>
      <trkpt lat="45.8724" lon="4.70342">
        <ele>217</ele>
        <time>2018-04-07T10:11:34Z</time>
      </trkpt>
      <trkpt lat="45.87245" lon="4.7035">
        <ele>217</ele>
        <time>2018-04-07T10:11:35Z</time>
      </trkpt>
      <trkpt lat="45.87251" lon="4.70357">
        <ele>216</ele>
        <time>2018-04-07T10:11:36Z</time>
      </trkpt>
      <trkpt lat="45.87257" lon="4.70364">
        <ele>216</ele>
        <time>2018-04-07T10:11:37Z</time>
      </trkpt>
      <trkpt lat="45.87263" lon="4.70371">
        <ele>216</ele>
        <time>2018-04-07T10:11:38Z</time>
      </trkpt>
      <trkpt lat="45.87268" lon="4.70377">
        <ele>216</ele>
        <time>2018-04-07T10:11:39Z</time>
      </trkpt>
      <trkpt lat="45.87272" lon="4.70386">
        <ele>216</ele>
        <time>2018-04-07T10:11:40Z</time>
      </trkpt>
      <trkpt lat="45.87276" lon="4.70393">
        <ele>216</ele>
        <time>2018-04-07T10:11:41Z</time>
      </trkpt>
      <trkpt lat="45.87278" lon="4.70402">
        <ele>216</ele>
        <time>2018-04-07T10:11:42Z</time>
      </trkpt>
      <trkpt lat="45.87284" lon="4.70407">
        <ele>216</ele>
        <time>2018-04-07T10:11:43Z</time>
      </trkpt>
      <trkpt lat="45.8729" lon="4.70412">
        <ele>216</ele>
        <time>2018-04-07T10:11:44Z</time>
      </trkpt>
      <trkpt lat="45.87294" lon="4.70418">
        <ele>214</ele>
        <time>2018-04-07T10:11:45Z</time>
      </trkpt>
      <trkpt lat="45.873" lon="4.70424">
        <ele>214</ele>
        <time>2018-04-07T10:11:46Z</time>
      </trkpt>
      <trkpt lat="45.87305" lon="4.70431">
        <ele>214</ele>
        <time>2018-04-07T10:11:47Z</time>
      </trkpt>
      <trkpt lat="45.87308" lon="4.70439">
        <ele>214</ele>
        <time>2018-04-07T10:11:48Z</time>
      </trkpt>
      <trkpt lat="45.87312" lon="4.70447">
        <ele>214</ele>
        <time>2018-04-07T10:11:49Z</time>
      </trkpt>
      <trkpt lat="45.87317" lon="4.70454">
        <ele>214</ele>
        <time>2018-04-07T10:11:50Z</time>
      </trkpt>
      <trkpt lat="45.87323" lon="4.70462">
        <ele>214</ele>
        <time>2018-04-07T10:11:51Z</time>
      </trkpt>
      <trkpt lat="45.87329" lon="4.7047">
        <ele>214</ele>
        <time>2018-04-07T10:11:52Z</time>
      </trkpt>
      <trkpt lat="45.87333" lon="4.70477">
        <ele>214</ele>
        <time>2018-04-07T10:11:53Z</time>
      </trkpt>
      <trkpt lat="45.87337" lon="4.70486">
        <ele>213</ele>
        <time>2018-04-07T10:11:54Z</time>
      </trkpt>
      <trkpt lat="45.87342" lon="4.70494">
        <ele>213</ele>
        <time>2018-04-07T10:11:55Z</time>
      </trkpt>
      <trkpt lat="45.87347" lon="4.70502">
        <ele>213</ele>
        <time>2018-04-07T10:11:56Z</time>
      </trkpt>
      <trkpt lat="45.87351" lon="4.7051">
        <ele>212</ele>
        <time>2018-04-07T10:11:57Z</time>
      </trkpt>
      <trkpt lat="45.87356" lon="4.70518">
        <ele>212</ele>
        <time>2018-04-07T10:11:58Z</time>
      </trkpt>
      <trkpt lat="45.87363" lon="4.70528">
        <ele>212</ele>
        <time>2018-04-07T10:11:59Z</time>
      </trkpt>
      <trkpt lat="45.87369" lon="4.70537">
        <ele>212</ele>
        <time>2018-04-07T10:12:00Z</time>
      </trkpt>
      <trkpt lat="45.87375" lon="4.70547">
        <ele>212</ele>
        <time>2018-04-07T10:12:01Z</time>
      </trkpt>
      <trkpt lat="45.8738" lon="4.70556">
        <ele>212</ele>
        <time>2018-04-07T10:12:02Z</time>
      </trkpt>
      <trkpt lat="45.87386" lon="4.70565">
        <ele>211</ele>
        <time>2018-04-07T10:12:03Z</time>
      </trkpt>
      <trkpt lat="45.87392" lon="4.70573">
        <ele>211</ele>
        <time>2018-04-07T10:12:04Z</time>
      </trkpt>
      <trkpt lat="45.87398" lon="4.70581">
        <ele>211</ele>
        <time>2018-04-07T10:12:05Z</time>
      </trkpt>
      <trkpt lat="45.87404" lon="4.7059">
        <ele>210</ele>
        <time>2018-04-07T10:12:06Z</time>
      </trkpt>
      <trkpt lat="45.87409" lon="4.70599">
        <ele>210</ele>
        <time>2018-04-07T10:12:07Z</time>
      </trkpt>
      <trkpt lat="45.87413" lon="4.7061">
        <ele>210</ele>
        <time>2018-04-07T10:12:08Z</time>
      </trkpt>
      <trkpt lat="45.87417" lon="4.7062">
        <ele>210</ele>
        <time>2018-04-07T10:12:09Z</time>
      </trkpt>
      <trkpt lat="45.87419" lon="4.70631">
        <ele>209</ele>
        <time>2018-04-07T10:12:10Z</time>
      </trkpt>
      <trkpt lat="45.8742" lon="4.7064">
        <ele>209</ele>
        <time>2018-04-07T10:12:11Z</time>
      </trkpt>
      <trkpt lat="45.87422" lon="4.70652">
        <ele>209</ele>
        <time>2018-04-07T10:12:12Z</time>
      </trkpt>
      <trkpt lat="45.87423" lon="4.70662">
        <ele>208</ele>
        <time>2018-04-07T10:12:13Z</time>
      </trkpt>
      <trkpt lat="45.87424" lon="4.70672">
        <ele>208</ele>
        <time>2018-04-07T10:12:14Z</time>
      </trkpt>
      <trkpt lat="45.87425" lon="4.70682">
        <ele>209</ele>
        <time>2018-04-07T10:12:15Z</time>
      </trkpt>
      <trkpt lat="45.87426" lon="4.70692">
        <ele>209</ele>
        <time>2018-04-07T10:12:16Z</time>
      </trkpt>
      <trkpt lat="45.87427" lon="4.70702">
        <ele>209</ele>
        <time>2018-04-07T10:12:17Z</time>
      </trkpt>
      <trkpt lat="45.87428" lon="4.70711">
        <ele>209</ele>
        <time>2018-04-07T10:12:18Z</time>
      </trkpt>
      <trkpt lat="45.8743" lon="4.7072">
        <ele>209</ele>
        <time>2018-04-07T10:12:19Z</time>
      </trkpt>
      <trkpt lat="45.87431" lon="4.70728">
        <ele>209</ele>
        <time>2018-04-07T10:12:20Z</time>
      </trkpt>
      <trkpt lat="45.87434" lon="4.70738">
        <ele>209</ele>
        <time>2018-04-07T10:12:21Z</time>
      </trkpt>
      <trkpt lat="45.87435" lon="4.70746">
        <ele>209</ele>
        <time>2018-04-07T10:12:22Z</time>
      </trkpt>
      <trkpt lat="45.87435" lon="4.70755">
        <ele>209</ele>
        <time>2018-04-07T10:12:23Z</time>
      </trkpt>
      <trkpt lat="45.87436" lon="4.70762">
        <ele>210</ele>
        <time>2018-04-07T10:12:24Z</time>
      </trkpt>
      <trkpt lat="45.87437" lon="4.7077">
        <ele>210</ele>
        <time>2018-04-07T10:12:25Z</time>
      </trkpt>
      <trkpt lat="45.87439" lon="4.70779">
        <ele>210</ele>
        <time>2018-04-07T10:12:26Z</time>
      </trkpt>
      <trkpt lat="45.8744" lon="4.70788">
        <ele>211</ele>
        <time>2018-04-07T10:12:27Z</time>
      </trkpt>
      <trkpt lat="45.87443" lon="4.70796">
        <ele>211</ele>
        <time>2018-04-07T10:12:28Z</time>
      </trkpt>
      <trkpt lat="45.87445" lon="4.70805">
        <ele>211</ele>
        <time>2018-04-07T10:12:29Z</time>
      </trkpt>
      <trkpt lat="45.87447" lon="4.70813">
        <ele>211</ele>
        <time>2018-04-07T10:12:30Z</time>
      </trkpt>
      <trkpt lat="45.87448" lon="4.70821">
        <ele>211</ele>
        <time>2018-04-07T10:12:31Z</time>
      </trkpt>
      <trkpt lat="45.8745" lon="4.70828">
        <ele>211</ele>
        <time>2018-04-07T10:12:32Z</time>
      </trkpt>
      <trkpt lat="45.87452" lon="4.70835">
        <ele>212</ele>
        <time>2018-04-07T10:12:33Z</time>
      </trkpt>
      <trkpt lat="45.87453" lon="4.70842">
        <ele>213</ele>
        <time>2018-04-07T10:12:34Z</time>
      </trkpt>
      <trkpt lat="45.87453" lon="4.70849">
        <ele>213</ele>
        <time>2018-04-07T10:12:35Z</time>
      </trkpt>
      <trkpt lat="45.87455" lon="4.70856">
        <ele>213</ele>
        <time>2018-04-07T10:12:36Z</time>
      </trkpt>
      <trkpt lat="45.87457" lon="4.70864">
        <ele>213</ele>
        <time>2018-04-07T10:12:37Z</time>
      </trkpt>
      <trkpt lat="45.87459" lon="4.70871">
        <ele>213</ele>
        <time>2018-04-07T10:12:38Z</time>
      </trkpt>
      <trkpt lat="45.87463" lon="4.70881">
        <ele>213</ele>
        <time>2018-04-07T10:12:39Z</time>
      </trkpt>
      <trkpt lat="45.87467" lon="4.70889">
        <ele>214</ele>
        <time>2018-04-07T10:12:40Z</time>
      </trkpt>
      <trkpt lat="45.87468" lon="4.70896">
        <ele>214</ele>
        <time>2018-04-07T10:12:41Z</time>
      </trkpt>
      <trkpt lat="45.87472" lon="4.70904">
        <ele>214</ele>
        <time>2018-04-07T10:12:42Z</time>
      </trkpt>
      <trkpt lat="45.87475" lon="4.70912">
        <ele>214</ele>
        <time>2018-04-07T10:12:43Z</time>
      </trkpt>
      <trkpt lat="45.87477" lon="4.70922">
        <ele>215</ele>
        <time>2018-04-07T10:12:44Z</time>
      </trkpt>
      <trkpt lat="45.87479" lon="4.70929">
        <ele>215</ele>
        <time>2018-04-07T10:12:45Z</time>
      </trkpt>
      <trkpt lat="45.87479" lon="4.70934">
        <ele>215</ele>
        <time>2018-04-07T10:12:46Z</time>
      </trkpt>
      <trkpt lat="45.87481" lon="4.70941">
        <ele>215</ele>
        <time>2018-04-07T10:12:47Z</time>
      </trkpt>
      <trkpt lat="45.87484" lon="4.70953">
        <ele>215</ele>
        <time>2018-04-07T10:12:49Z</time>
      </trkpt>
      <trkpt lat="45.87487" lon="4.70959">
        <ele>215</ele>
        <time>2018-04-07T10:12:50Z</time>
      </trkpt>
      <trkpt lat="45.87489" lon="4.70968">
        <ele>215</ele>
        <time>2018-04-07T10:12:52Z</time>
      </trkpt>
      <trkpt lat="45.87491" lon="4.70974">
        <ele>215</ele>
        <time>2018-04-07T10:12:53Z</time>
      </trkpt>
      <trkpt lat="45.87496" lon="4.70984">
        <ele>214</ele>
        <time>2018-04-07T10:12:55Z</time>
      </trkpt>
      <trkpt lat="45.87498" lon="4.70989">
        <ele>214</ele>
        <time>2018-04-07T10:12:56Z</time>
      </trkpt>
      <trkpt lat="45.87502" lon="4.70999">
        <ele>214</ele>
        <time>2018-04-07T10:12:58Z</time>
      </trkpt>
      <trkpt lat="45.87503" lon="4.71004">
        <ele>214</ele>
        <time>2018-04-07T10:12:59Z</time>
      </trkpt>
      <trkpt lat="45.87507" lon="4.71008">
        <ele>214</ele>
        <time>2018-04-07T10:13:00Z</time>
      </trkpt>
      <trkpt lat="45.8751" lon="4.71014">
        <ele>215</ele>
        <time>2018-04-07T10:13:01Z</time>
      </trkpt>
      <trkpt lat="45.87513" lon="4.71018">
        <ele>215</ele>
        <time>2018-04-07T10:13:02Z</time>
      </trkpt>
      <trkpt lat="45.87518" lon="4.71024">
        <ele>215</ele>
        <time>2018-04-07T10:13:03Z</time>
      </trkpt>
      <trkpt lat="45.87517" lon="4.71027">
        <ele>215</ele>
        <time>2018-04-07T10:13:04Z</time>
      </trkpt>
      <trkpt lat="45.87528" lon="4.71035">
        <ele>215</ele>
        <time>2018-04-07T10:13:05Z</time>
      </trkpt>
      <trkpt lat="45.87534" lon="4.71041">
        <ele>215</ele>
        <time>2018-04-07T10:13:07Z</time>
      </trkpt>
      <trkpt lat="45.87536" lon="4.71043">
        <ele>215</ele>
        <time>2018-04-07T10:13:08Z</time>
      </trkpt>
      <trkpt lat="45.87541" lon="4.71052">
        <ele>215</ele>
        <time>2018-04-07T10:13:11Z</time>
      </trkpt>
      <trkpt lat="45.87543" lon="4.71055">
        <ele>215</ele>
        <time>2018-04-07T10:13:12Z</time>
      </trkpt>
      <trkpt lat="45.87549" lon="4.71061">
        <ele>216</ele>
        <time>2018-04-07T10:13:15Z</time>
      </trkpt>
      <trkpt lat="45.8755" lon="4.71064">
        <ele>216</ele>
        <time>2018-04-07T10:13:16Z</time>
      </trkpt>
      <trkpt lat="45.87557" lon="4.71072">
        <ele>216</ele>
        <time>2018-04-07T10:13:22Z</time>
      </trkpt>
      <trkpt lat="45.87557" lon="4.71073">
        <ele>216</ele>
        <time>2018-04-07T10:13:23Z</time>
      </trkpt>
      <trkpt lat="45.87565" lon="4.71078">
        <ele>216</ele>
        <time>2018-04-07T10:14:17Z</time>
      </trkpt>
      <trkpt lat="45.87567" lon="4.71079">
        <ele>216</ele>
        <time>2018-04-07T10:14:18Z</time>
      </trkpt>
      <trkpt lat="45.87573" lon="4.71085">
        <ele>217</ele>
        <time>2018-04-07T10:14:21Z</time>
      </trkpt>
      <trkpt lat="45.87575" lon="4.71087">
        <ele>217</ele>
        <time>2018-04-07T10:14:22Z</time>
      </trkpt>
      <trkpt lat="45.87582" lon="4.71088">
        <ele>217</ele>
        <time>2018-04-07T10:14:25Z</time>
      </trkpt>
      <trkpt lat="45.87584" lon="4.71087">
        <ele>218</ele>
        <time>2018-04-07T10:14:26Z</time>
      </trkpt>
      <trkpt lat="45.87587" lon="4.71086">
        <ele>218</ele>
        <time>2018-04-07T10:14:27Z</time>
      </trkpt>
      <trkpt lat="45.87597" lon="4.71082">
        <ele>217</ele>
        <time>2018-04-07T10:14:28Z</time>
      </trkpt>
      <trkpt lat="45.87605" lon="4.71083">
        <ele>217</ele>
        <time>2018-04-07T10:14:29Z</time>
      </trkpt>
      <trkpt lat="45.8761" lon="4.71081">
        <ele>217</ele>
        <time>2018-04-07T10:14:30Z</time>
      </trkpt>
      <trkpt lat="45.87615" lon="4.71079">
        <ele>217</ele>
        <time>2018-04-07T10:14:31Z</time>
      </trkpt>
      <trkpt lat="45.87621" lon="4.71079">
        <ele>217</ele>
        <time>2018-04-07T10:14:32Z</time>
      </trkpt>
      <trkpt lat="45.87626" lon="4.71078">
        <ele>218</ele>
        <time>2018-04-07T10:14:33Z</time>
      </trkpt>
      <trkpt lat="45.87632" lon="4.71076">
        <ele>218</ele>
        <time>2018-04-07T10:14:34Z</time>
      </trkpt>
      <trkpt lat="45.87636" lon="4.71074">
        <ele>218</ele>
        <time>2018-04-07T10:14:35Z</time>
      </trkpt>
      <trkpt lat="45.8764" lon="4.71072">
        <ele>218</ele>
        <time>2018-04-07T10:14:36Z</time>
      </trkpt>
      <trkpt lat="45.87645" lon="4.7107">
        <ele>218</ele>
        <time>2018-04-07T10:14:37Z</time>
      </trkpt>
      <trkpt lat="45.8765" lon="4.71069">
        <ele>218</ele>
        <time>2018-04-07T10:14:38Z</time>
      </trkpt>
      <trkpt lat="45.87655" lon="4.71067">
        <ele>218</ele>
        <time>2018-04-07T10:14:39Z</time>
      </trkpt>
      <trkpt lat="45.8766" lon="4.71065">
        <ele>218</ele>
        <time>2018-04-07T10:14:40Z</time>
      </trkpt>
      <trkpt lat="45.87665" lon="4.71062">
        <ele>218</ele>
        <time>2018-04-07T10:14:41Z</time>
      </trkpt>
      <trkpt lat="45.8767" lon="4.7106">
        <ele>220</ele>
        <time>2018-04-07T10:14:42Z</time>
      </trkpt>
      <trkpt lat="45.87675" lon="4.71059">
        <ele>220</ele>
        <time>2018-04-07T10:14:43Z</time>
      </trkpt>
      <trkpt lat="45.8768" lon="4.71057">
        <ele>220</ele>
        <time>2018-04-07T10:14:44Z</time>
      </trkpt>
      <trkpt lat="45.87688" lon="4.71054">
        <ele>220</ele>
        <time>2018-04-07T10:14:46Z</time>
      </trkpt>
      <trkpt lat="45.87693" lon="4.71053">
        <ele>220</ele>
        <time>2018-04-07T10:14:47Z</time>
      </trkpt>
      <trkpt lat="45.87702" lon="4.7105">
        <ele>220</ele>
        <time>2018-04-07T10:14:49Z</time>
      </trkpt>
      <trkpt lat="45.87706" lon="4.71049">
        <ele>220</ele>
        <time>2018-04-07T10:14:50Z</time>
      </trkpt>
      <trkpt lat="45.87714" lon="4.71046">
        <ele>220</ele>
        <time>2018-04-07T10:14:52Z</time>
      </trkpt>
      <trkpt lat="45.87719" lon="4.71045">
        <ele>220</ele>
        <time>2018-04-07T10:14:53Z</time>
      </trkpt>
      <trkpt lat="45.87727" lon="4.71041">
        <ele>220</ele>
        <time>2018-04-07T10:14:54Z</time>
      </trkpt>
      <trkpt lat="45.87732" lon="4.71039">
        <ele>220</ele>
        <time>2018-04-07T10:14:55Z</time>
      </trkpt>
      <trkpt lat="45.8774" lon="4.71035">
        <ele>220</ele>
        <time>2018-04-07T10:14:57Z</time>
      </trkpt>
      <trkpt lat="45.87744" lon="4.71034">
        <ele>220</ele>
        <time>2018-04-07T10:14:58Z</time>
      </trkpt>
      <trkpt lat="45.8775" lon="4.71033">
        <ele>220</ele>
        <time>2018-04-07T10:14:59Z</time>
      </trkpt>
      <trkpt lat="45.87754" lon="4.71031">
        <ele>222</ele>
        <time>2018-04-07T10:15:00Z</time>
      </trkpt>
      <trkpt lat="45.87763" lon="4.71028">
        <ele>222</ele>
        <time>2018-04-07T10:15:02Z</time>
      </trkpt>
      <trkpt lat="45.87767" lon="4.71027">
        <ele>222</ele>
        <time>2018-04-07T10:15:03Z</time>
      </trkpt>
      <trkpt lat="45.87771" lon="4.71025">
        <ele>222</ele>
        <time>2018-04-07T10:15:04Z</time>
      </trkpt>
      <trkpt lat="45.87776" lon="4.71023">
        <ele>222</ele>
        <time>2018-04-07T10:15:05Z</time>
      </trkpt>
      <trkpt lat="45.87784" lon="4.71019">
        <ele>223</ele>
        <time>2018-04-07T10:15:07Z</time>
      </trkpt>
      <trkpt lat="45.87788" lon="4.71018">
        <ele>223</ele>
        <time>2018-04-07T10:15:08Z</time>
      </trkpt>
      <trkpt lat="45.87796" lon="4.71014">
        <ele>223</ele>
        <time>2018-04-07T10:15:10Z</time>
      </trkpt>
      <trkpt lat="45.878" lon="4.71012">
        <ele>223</ele>
        <time>2018-04-07T10:15:11Z</time>
      </trkpt>
      <trkpt lat="45.87808" lon="4.71008">
        <ele>223</ele>
        <time>2018-04-07T10:15:13Z</time>
      </trkpt>
      <trkpt lat="45.87812" lon="4.71006">
        <ele>223</ele>
        <time>2018-04-07T10:15:14Z</time>
      </trkpt>
      <trkpt lat="45.8782" lon="4.71002">
        <ele>224</ele>
        <time>2018-04-07T10:15:16Z</time>
      </trkpt>
      <trkpt lat="45.87825" lon="4.71001">
        <ele>224</ele>
        <time>2018-04-07T10:15:17Z</time>
      </trkpt>
      <trkpt lat="45.87833" lon="4.70997">
        <ele>224</ele>
        <time>2018-04-07T10:15:19Z</time>
      </trkpt>
      <trkpt lat="45.87836" lon="4.70994">
        <ele>224</ele>
        <time>2018-04-07T10:15:20Z</time>
      </trkpt>
      <trkpt lat="45.87844" lon="4.7099">
        <ele>224</ele>
        <time>2018-04-07T10:15:22Z</time>
      </trkpt>
      <trkpt lat="45.87848" lon="4.70988">
        <ele>224</ele>
        <time>2018-04-07T10:15:23Z</time>
      </trkpt>
      <trkpt lat="45.87856" lon="4.70983">
        <ele>224</ele>
        <time>2018-04-07T10:15:25Z</time>
      </trkpt>
      <trkpt lat="45.87859" lon="4.70981">
        <ele>224</ele>
        <time>2018-04-07T10:15:26Z</time>
      </trkpt>
      <trkpt lat="45.87867" lon="4.70976">
        <ele>225</ele>
        <time>2018-04-07T10:15:28Z</time>
      </trkpt>
      <trkpt lat="45.87871" lon="4.70974">
        <ele>225</ele>
        <time>2018-04-07T10:15:29Z</time>
      </trkpt>
      <trkpt lat="45.87879" lon="4.70969">
        <ele>225</ele>
        <time>2018-04-07T10:15:31Z</time>
      </trkpt>
      <trkpt lat="45.87882" lon="4.70966">
        <ele>225</ele>
        <time>2018-04-07T10:15:32Z</time>
      </trkpt>
      <trkpt lat="45.87891" lon="4.70963">
        <ele>225</ele>
        <time>2018-04-07T10:15:34Z</time>
      </trkpt>
      <trkpt lat="45.87894" lon="4.7096">
        <ele>225</ele>
        <time>2018-04-07T10:15:35Z</time>
      </trkpt>
      <trkpt lat="45.87899" lon="4.7096">
        <ele>225</ele>
        <time>2018-04-07T10:15:36Z</time>
      </trkpt>
      <trkpt lat="45.87904" lon="4.70958">
        <ele>225</ele>
        <time>2018-04-07T10:15:37Z</time>
      </trkpt>
      <trkpt lat="45.87912" lon="4.70954">
        <ele>225</ele>
        <time>2018-04-07T10:15:39Z</time>
      </trkpt>
      <trkpt lat="45.87917" lon="4.70952">
        <ele>225</ele>
        <time>2018-04-07T10:15:40Z</time>
      </trkpt>
      <trkpt lat="45.87925" lon="4.70948">
        <ele>225</ele>
        <time>2018-04-07T10:15:42Z</time>
      </trkpt>
      <trkpt lat="45.87929" lon="4.70945">
        <ele>225</ele>
        <time>2018-04-07T10:15:43Z</time>
      </trkpt>
      <trkpt lat="45.87937" lon="4.70941">
        <ele>225</ele>
        <time>2018-04-07T10:15:45Z</time>
      </trkpt>
      <trkpt lat="45.87941" lon="4.70939">
        <ele>225</ele>
        <time>2018-04-07T10:15:46Z</time>
      </trkpt>
      <trkpt lat="45.87949" lon="4.70934">
        <ele>225</ele>
        <time>2018-04-07T10:15:48Z</time>
      </trkpt>
      <trkpt lat="45.87951" lon="4.70931">
        <ele>225</ele>
        <time>2018-04-07T10:15:49Z</time>
      </trkpt>
      <trkpt lat="45.87957" lon="4.70926">
        <ele>225</ele>
        <time>2018-04-07T10:15:51Z</time>
      </trkpt>
      <trkpt lat="45.8796" lon="4.70924">
        <ele>225</ele>
        <time>2018-04-07T10:15:52Z</time>
      </trkpt>
      <trkpt lat="45.87967" lon="4.70919">
        <ele>225</ele>
        <time>2018-04-07T10:15:54Z</time>
      </trkpt>
      <trkpt lat="45.8797" lon="4.70917">
        <ele>225</ele>
        <time>2018-04-07T10:15:55Z</time>
      </trkpt>
      <trkpt lat="45.87977" lon="4.7091">
        <ele>225</ele>
        <time>2018-04-07T10:15:57Z</time>
      </trkpt>
      <trkpt lat="45.87981" lon="4.70907">
        <ele>225</ele>
        <time>2018-04-07T10:15:58Z</time>
      </trkpt>
      <trkpt lat="45.87985" lon="4.70904">
        <ele>225</ele>
        <time>2018-04-07T10:15:59Z</time>
      </trkpt>
      <trkpt lat="45.87989" lon="4.70901">
        <ele>225</ele>
        <time>2018-04-07T10:16:00Z</time>
      </trkpt>
      <trkpt lat="45.87993" lon="4.70897">
        <ele>225</ele>
        <time>2018-04-07T10:16:01Z</time>
      </trkpt>
      <trkpt lat="45.87997" lon="4.70894">
        <ele>225</ele>
        <time>2018-04-07T10:16:02Z</time>
      </trkpt>
      <trkpt lat="45.88001" lon="4.70891">
        <ele>226</ele>
        <time>2018-04-07T10:16:03Z</time>
      </trkpt>
      <trkpt lat="45.88005" lon="4.70888">
        <ele>226</ele>
        <time>2018-04-07T10:16:04Z</time>
      </trkpt>
      <trkpt lat="45.88013" lon="4.70884">
        <ele>226</ele>
        <time>2018-04-07T10:16:06Z</time>
      </trkpt>
      <trkpt lat="45.88017" lon="4.70881">
        <ele>226</ele>
        <time>2018-04-07T10:16:07Z</time>
      </trkpt>
      <trkpt lat="45.88025" lon="4.70876">
        <ele>226</ele>
        <time>2018-04-07T10:16:09Z</time>
      </trkpt>
      <trkpt lat="45.88029" lon="4.70874">
        <ele>226</ele>
        <time>2018-04-07T10:16:10Z</time>
      </trkpt>
      <trkpt lat="45.88037" lon="4.7087">
        <ele>226</ele>
        <time>2018-04-07T10:16:12Z</time>
      </trkpt>
      <trkpt lat="45.88041" lon="4.70868">
        <ele>227</ele>
        <time>2018-04-07T10:16:13Z</time>
      </trkpt>
      <trkpt lat="45.88049" lon="4.70862">
        <ele>227</ele>
        <time>2018-04-07T10:16:15Z</time>
      </trkpt>
      <trkpt lat="45.88053" lon="4.7086">
        <ele>227</ele>
        <time>2018-04-07T10:16:16Z</time>
      </trkpt>
      <trkpt lat="45.88061" lon="4.70855">
        <ele>227</ele>
        <time>2018-04-07T10:16:18Z</time>
      </trkpt>
      <trkpt lat="45.88065" lon="4.70853">
        <ele>227</ele>
        <time>2018-04-07T10:16:19Z</time>
      </trkpt>
      <trkpt lat="45.88072" lon="4.70847">
        <ele>228</ele>
        <time>2018-04-07T10:16:21Z</time>
      </trkpt>
      <trkpt lat="45.88076" lon="4.70845">
        <ele>228</ele>
        <time>2018-04-07T10:16:22Z</time>
      </trkpt>
      <trkpt lat="45.88085" lon="4.70842">
        <ele>229</ele>
        <time>2018-04-07T10:16:24Z</time>
      </trkpt>
      <trkpt lat="45.88089" lon="4.70844">
        <ele>229</ele>
        <time>2018-04-07T10:16:25Z</time>
      </trkpt>
      <trkpt lat="45.88097" lon="4.70847">
        <ele>229</ele>
        <time>2018-04-07T10:16:27Z</time>
      </trkpt>
      <trkpt lat="45.88102" lon="4.70844">
        <ele>229</ele>
        <time>2018-04-07T10:16:28Z</time>
      </trkpt>
      <trkpt lat="45.8811" lon="4.70839">
        <ele>229</ele>
        <time>2018-04-07T10:16:30Z</time>
      </trkpt>
      <trkpt lat="45.88114" lon="4.70835">
        <ele>229</ele>
        <time>2018-04-07T10:16:31Z</time>
      </trkpt>
      <trkpt lat="45.88118" lon="4.70824">
        <ele>230</ele>
        <time>2018-04-07T10:16:33Z</time>
      </trkpt>
      <trkpt lat="45.88119" lon="4.70821">
        <ele>230</ele>
        <time>2018-04-07T10:16:34Z</time>
      </trkpt>
      <trkpt lat="45.88125" lon="4.70812">
        <ele>230</ele>
        <time>2018-04-07T10:16:36Z</time>
      </trkpt>
      <trkpt lat="45.88128" lon="4.70809">
        <ele>230</ele>
        <time>2018-04-07T10:16:37Z</time>
      </trkpt>
      <trkpt lat="45.88133" lon="4.70803">
        <ele>231</ele>
        <time>2018-04-07T10:16:39Z</time>
      </trkpt>
      <trkpt lat="45.88138" lon="4.70799">
        <ele>231</ele>
        <time>2018-04-07T10:16:40Z</time>
      </trkpt>
      <trkpt lat="45.88145" lon="4.70793">
        <ele>231</ele>
        <time>2018-04-07T10:16:42Z</time>
      </trkpt>
      <trkpt lat="45.88148" lon="4.7079">
        <ele>231</ele>
        <time>2018-04-07T10:16:43Z</time>
      </trkpt>
      <trkpt lat="45.88152" lon="4.70786">
        <ele>231</ele>
        <time>2018-04-07T10:16:44Z</time>
      </trkpt>
      <trkpt lat="45.88157" lon="4.70782">
        <ele>231</ele>
        <time>2018-04-07T10:16:45Z</time>
      </trkpt>
      <trkpt lat="45.88161" lon="4.7078">
        <ele>231</ele>
        <time>2018-04-07T10:16:46Z</time>
      </trkpt>
      <trkpt lat="45.88165" lon="4.70777">
        <ele>231</ele>
        <time>2018-04-07T10:16:47Z</time>
      </trkpt>
      <trkpt lat="45.88169" lon="4.70775">
        <ele>232</ele>
        <time>2018-04-07T10:16:48Z</time>
      </trkpt>
      <trkpt lat="45.88173" lon="4.70771">
        <ele>232</ele>
        <time>2018-04-07T10:16:49Z</time>
      </trkpt>
      <trkpt lat="45.88177" lon="4.70769">
        <ele>232</ele>
        <time>2018-04-07T10:16:50Z</time>
      </trkpt>
      <trkpt lat="45.88182" lon="4.70766">
        <ele>232</ele>
        <time>2018-04-07T10:16:51Z</time>
      </trkpt>
      <trkpt lat="45.88186" lon="4.70763">
        <ele>232</ele>
        <time>2018-04-07T10:16:52Z</time>
      </trkpt>
      <trkpt lat="45.88191" lon="4.70759">
        <ele>232</ele>
        <time>2018-04-07T10:16:53Z</time>
      </trkpt>
      <trkpt lat="45.88199" lon="4.70754">
        <ele>232</ele>
        <time>2018-04-07T10:16:55Z</time>
      </trkpt>
      <trkpt lat="45.88203" lon="4.70752">
        <ele>232</ele>
        <time>2018-04-07T10:16:56Z</time>
      </trkpt>
      <trkpt lat="45.8821" lon="4.70747">
        <ele>235</ele>
        <time>2018-04-07T10:16:58Z</time>
      </trkpt>
      <trkpt lat="45.88214" lon="4.70744">
        <ele>235</ele>
        <time>2018-04-07T10:16:59Z</time>
      </trkpt>
      <trkpt lat="45.88218" lon="4.70741">
        <ele>235</ele>
        <time>2018-04-07T10:17:00Z</time>
      </trkpt>
      <trkpt lat="45.88223" lon="4.70738">
        <ele>235</ele>
        <time>2018-04-07T10:17:01Z</time>
      </trkpt>
      <trkpt lat="45.88227" lon="4.70736">
        <ele>235</ele>
        <time>2018-04-07T10:17:02Z</time>
      </trkpt>
      <trkpt lat="45.88232" lon="4.70733">
        <ele>235</ele>
        <time>2018-04-07T10:17:03Z</time>
      </trkpt>
      <trkpt lat="45.88236" lon="4.70729">
        <ele>235</ele>
        <time>2018-04-07T10:17:04Z</time>
      </trkpt>
      <trkpt lat="45.8824" lon="4.70726">
        <ele>235</ele>
        <time>2018-04-07T10:17:05Z</time>
      </trkpt>
      <trkpt lat="45.88245" lon="4.70723">
        <ele>235</ele>
        <time>2018-04-07T10:17:06Z</time>
      </trkpt>
      <trkpt lat="45.88249" lon="4.70719">
        <ele>235</ele>
        <time>2018-04-07T10:17:07Z</time>
      </trkpt>
      <trkpt lat="45.88253" lon="4.70716">
        <ele>234</ele>
        <time>2018-04-07T10:17:08Z</time>
      </trkpt>
      <trkpt lat="45.88257" lon="4.70713">
        <ele>234</ele>
        <time>2018-04-07T10:17:09Z</time>
      </trkpt>
      <trkpt lat="45.88261" lon="4.7071">
        <ele>235</ele>
        <time>2018-04-07T10:17:10Z</time>
      </trkpt>
      <trkpt lat="45.88265" lon="4.70705">
        <ele>235</ele>
        <time>2018-04-07T10:17:11Z</time>
      </trkpt>
      <trkpt lat="45.88269" lon="4.70701">
        <ele>235</ele>
        <time>2018-04-07T10:17:12Z</time>
      </trkpt>
      <trkpt lat="45.88273" lon="4.70697">
        <ele>235</ele>
        <time>2018-04-07T10:17:13Z</time>
      </trkpt>
      <trkpt lat="45.88278" lon="4.70693">
        <ele>235</ele>
        <time>2018-04-07T10:17:14Z</time>
      </trkpt>
      <trkpt lat="45.88282" lon="4.70691">
        <ele>235</ele>
        <time>2018-04-07T10:17:15Z</time>
      </trkpt>
      <trkpt lat="45.88286" lon="4.70687">
        <ele>235</ele>
        <time>2018-04-07T10:17:16Z</time>
      </trkpt>
      <trkpt lat="45.8829" lon="4.70684">
        <ele>235</ele>
        <time>2018-04-07T10:17:17Z</time>
      </trkpt>
      <trkpt lat="45.88294" lon="4.70681">
        <ele>235</ele>
        <time>2018-04-07T10:17:18Z</time>
      </trkpt>
      <trkpt lat="45.88298" lon="4.70677">
        <ele>235</ele>
        <time>2018-04-07T10:17:19Z</time>
      </trkpt>
      <trkpt lat="45.88302" lon="4.70673">
        <ele>235</ele>
        <time>2018-04-07T10:17:20Z</time>
      </trkpt>
      <trkpt lat="45.88306" lon="4.7067">
        <ele>235</ele>
        <time>2018-04-07T10:17:21Z</time>
      </trkpt>
      <trkpt lat="45.8831" lon="4.70666">
        <ele>238</ele>
        <time>2018-04-07T10:17:22Z</time>
      </trkpt>
      <trkpt lat="45.88313" lon="4.70662">
        <ele>238</ele>
        <time>2018-04-07T10:17:23Z</time>
      </trkpt>
      <trkpt lat="45.88319" lon="4.70658">
        <ele>237</ele>
        <time>2018-04-07T10:17:24Z</time>
      </trkpt>
      <trkpt lat="45.88323" lon="4.70655">
        <ele>237</ele>
        <time>2018-04-07T10:17:25Z</time>
      </trkpt>
      <trkpt lat="45.88328" lon="4.70651">
        <ele>237</ele>
        <time>2018-04-07T10:17:26Z</time>
      </trkpt>
      <trkpt lat="45.88331" lon="4.70647">
        <ele>238</ele>
        <time>2018-04-07T10:17:27Z</time>
      </trkpt>
      <trkpt lat="45.88335" lon="4.70643">
        <ele>235</ele>
        <time>2018-04-07T10:17:28Z</time>
      </trkpt>
      <trkpt lat="45.8834" lon="4.7064">
        <ele>235</ele>
        <time>2018-04-07T10:17:29Z</time>
      </trkpt>
      <trkpt lat="45.88345" lon="4.70637">
        <ele>235</ele>
        <time>2018-04-07T10:17:30Z</time>
      </trkpt>
      <trkpt lat="45.88349" lon="4.70634">
        <ele>235</ele>
        <time>2018-04-07T10:17:31Z</time>
      </trkpt>
      <trkpt lat="45.88354" lon="4.7063">
        <ele>235</ele>
        <time>2018-04-07T10:17:32Z</time>
      </trkpt>
      <trkpt lat="45.88358" lon="4.70627">
        <ele>235</ele>
        <time>2018-04-07T10:17:33Z</time>
      </trkpt>
      <trkpt lat="45.88362" lon="4.70626">
        <ele>235</ele>
        <time>2018-04-07T10:17:34Z</time>
      </trkpt>
      <trkpt lat="45.88367" lon="4.70624">
        <ele>235</ele>
        <time>2018-04-07T10:17:35Z</time>
      </trkpt>
      <trkpt lat="45.88371" lon="4.7062">
        <ele>235</ele>
        <time>2018-04-07T10:17:36Z</time>
      </trkpt>
      <trkpt lat="45.88375" lon="4.70617">
        <ele>235</ele>
        <time>2018-04-07T10:17:37Z</time>
      </trkpt>
      <trkpt lat="45.88379" lon="4.70614">
        <ele>235</ele>
        <time>2018-04-07T10:17:38Z</time>
      </trkpt>
      <trkpt lat="45.88384" lon="4.70611">
        <ele>235</ele>
        <time>2018-04-07T10:17:39Z</time>
      </trkpt>
      <trkpt lat="45.88389" lon="4.70607">
        <ele>235</ele>
        <time>2018-04-07T10:17:40Z</time>
      </trkpt>
      <trkpt lat="45.88393" lon="4.70602">
        <ele>235</ele>
        <time>2018-04-07T10:17:41Z</time>
      </trkpt>
      <trkpt lat="45.88399" lon="4.70599">
        <ele>235</ele>
        <time>2018-04-07T10:17:42Z</time>
      </trkpt>
      <trkpt lat="45.88403" lon="4.70596">
        <ele>235</ele>
        <time>2018-04-07T10:17:43Z</time>
      </trkpt>
      <trkpt lat="45.88408" lon="4.70591">
        <ele>235</ele>
        <time>2018-04-07T10:17:44Z</time>
      </trkpt>
      <trkpt lat="45.88413" lon="4.70587">
        <ele>235</ele>
        <time>2018-04-07T10:17:45Z</time>
      </trkpt>
      <trkpt lat="45.88419" lon="4.70583">
        <ele>235</ele>
        <time>2018-04-07T10:17:46Z</time>
      </trkpt>
      <trkpt lat="45.88424" lon="4.70578">
        <ele>235</ele>
        <time>2018-04-07T10:17:47Z</time>
      </trkpt>
      <trkpt lat="45.8843" lon="4.70573">
        <ele>235</ele>
        <time>2018-04-07T10:17:48Z</time>
      </trkpt>
      <trkpt lat="45.88435" lon="4.70568">
        <ele>235</ele>
        <time>2018-04-07T10:17:49Z</time>
      </trkpt>
      <trkpt lat="45.88441" lon="4.70563">
        <ele>234</ele>
        <time>2018-04-07T10:17:50Z</time>
      </trkpt>
      <trkpt lat="45.88445" lon="4.7056">
        <ele>234</ele>
        <time>2018-04-07T10:17:51Z</time>
      </trkpt>
      <trkpt lat="45.88451" lon="4.70556">
        <ele>234</ele>
        <time>2018-04-07T10:17:52Z</time>
      </trkpt>
      <trkpt lat="45.88457" lon="4.7055">
        <ele>234</ele>
        <time>2018-04-07T10:17:53Z</time>
      </trkpt>
      <trkpt lat="45.88462" lon="4.70547">
        <ele>234</ele>
        <time>2018-04-07T10:17:54Z</time>
      </trkpt>
      <trkpt lat="45.88467" lon="4.70544">
        <ele>234</ele>
        <time>2018-04-07T10:17:55Z</time>
      </trkpt>
      <trkpt lat="45.88473" lon="4.70539">
        <ele>234</ele>
        <time>2018-04-07T10:17:56Z</time>
      </trkpt>
      <trkpt lat="45.88478" lon="4.70534">
        <ele>234</ele>
        <time>2018-04-07T10:17:57Z</time>
      </trkpt>
      <trkpt lat="45.88482" lon="4.70533">
        <ele>234</ele>
        <time>2018-04-07T10:17:58Z</time>
      </trkpt>
      <trkpt lat="45.88486" lon="4.7053">
        <ele>234</ele>
        <time>2018-04-07T10:17:59Z</time>
      </trkpt>
      <trkpt lat="45.88493" lon="4.70524">
        <ele>234</ele>
        <time>2018-04-07T10:18:00Z</time>
      </trkpt>
      <trkpt lat="45.88498" lon="4.7052">
        <ele>233</ele>
        <time>2018-04-07T10:18:01Z</time>
      </trkpt>
      <trkpt lat="45.88503" lon="4.70516">
        <ele>231</ele>
        <time>2018-04-07T10:18:02Z</time>
      </trkpt>
      <trkpt lat="45.88508" lon="4.70511">
        <ele>231</ele>
        <time>2018-04-07T10:18:03Z</time>
      </trkpt>
      <trkpt lat="45.88514" lon="4.70508">
        <ele>231</ele>
        <time>2018-04-07T10:18:04Z</time>
      </trkpt>
      <trkpt lat="45.88521" lon="4.70504">
        <ele>230</ele>
        <time>2018-04-07T10:18:05Z</time>
      </trkpt>
      <trkpt lat="45.88525" lon="4.70499">
        <ele>232</ele>
        <time>2018-04-07T10:18:06Z</time>
      </trkpt>
      <trkpt lat="45.8853" lon="4.70495">
        <ele>232</ele>
        <time>2018-04-07T10:18:07Z</time>
      </trkpt>
      <trkpt lat="45.88535" lon="4.70492">
        <ele>232</ele>
        <time>2018-04-07T10:18:08Z</time>
      </trkpt>
      <trkpt lat="45.8854" lon="4.70486">
        <ele>232</ele>
        <time>2018-04-07T10:18:09Z</time>
      </trkpt>
      <trkpt lat="45.88545" lon="4.70482">
        <ele>232</ele>
        <time>2018-04-07T10:18:10Z</time>
      </trkpt>
      <trkpt lat="45.8855" lon="4.70477">
        <ele>232</ele>
        <time>2018-04-07T10:18:11Z</time>
      </trkpt>
      <trkpt lat="45.88556" lon="4.70474">
        <ele>231</ele>
        <time>2018-04-07T10:18:12Z</time>
      </trkpt>
      <trkpt lat="45.88562" lon="4.7047">
        <ele>231</ele>
        <time>2018-04-07T10:18:13Z</time>
      </trkpt>
      <trkpt lat="45.88568" lon="4.70465">
        <ele>231</ele>
        <time>2018-04-07T10:18:14Z</time>
      </trkpt>
      <trkpt lat="45.88573" lon="4.70461">
        <ele>231</ele>
        <time>2018-04-07T10:18:15Z</time>
      </trkpt>
      <trkpt lat="45.88578" lon="4.70458">
        <ele>231</ele>
        <time>2018-04-07T10:18:16Z</time>
      </trkpt>
      <trkpt lat="45.88584" lon="4.70454">
        <ele>228</ele>
        <time>2018-04-07T10:18:17Z</time>
      </trkpt>
      <trkpt lat="45.88589" lon="4.7045">
        <ele>228</ele>
        <time>2018-04-07T10:18:18Z</time>
      </trkpt>
      <trkpt lat="45.88594" lon="4.70447">
        <ele>228</ele>
        <time>2018-04-07T10:18:19Z</time>
      </trkpt>
      <trkpt lat="45.88599" lon="4.70442">
        <ele>228</ele>
        <time>2018-04-07T10:18:20Z</time>
      </trkpt>
      <trkpt lat="45.88605" lon="4.70438">
        <ele>228</ele>
        <time>2018-04-07T10:18:21Z</time>
      </trkpt>
      <trkpt lat="45.8861" lon="4.70433">
        <ele>228</ele>
        <time>2018-04-07T10:18:22Z</time>
      </trkpt>
      <trkpt lat="45.88616" lon="4.70428">
        <ele>228</ele>
        <time>2018-04-07T10:18:23Z</time>
      </trkpt>
      <trkpt lat="45.88621" lon="4.70424">
        <ele>228</ele>
        <time>2018-04-07T10:18:24Z</time>
      </trkpt>
      <trkpt lat="45.88627" lon="4.70419">
        <ele>228</ele>
        <time>2018-04-07T10:18:25Z</time>
      </trkpt>
      <trkpt lat="45.88631" lon="4.70415">
        <ele>230</ele>
        <time>2018-04-07T10:18:26Z</time>
      </trkpt>
      <trkpt lat="45.88637" lon="4.7041">
        <ele>230</ele>
        <time>2018-04-07T10:18:27Z</time>
      </trkpt>
      <trkpt lat="45.88642" lon="4.70405">
        <ele>230</ele>
        <time>2018-04-07T10:18:28Z</time>
      </trkpt>
      <trkpt lat="45.88647" lon="4.70401">
        <ele>230</ele>
        <time>2018-04-07T10:18:29Z</time>
      </trkpt>
      <trkpt lat="45.88652" lon="4.70398">
        <ele>230</ele>
        <time>2018-04-07T10:18:30Z</time>
      </trkpt>
      <trkpt lat="45.88657" lon="4.70394">
        <ele>230</ele>
        <time>2018-04-07T10:18:31Z</time>
      </trkpt>
      <trkpt lat="45.88663" lon="4.70389">
        <ele>230</ele>
        <time>2018-04-07T10:18:32Z</time>
      </trkpt>
      <trkpt lat="45.88668" lon="4.70385">
        <ele>228</ele>
        <time>2018-04-07T10:18:33Z</time>
      </trkpt>
      <trkpt lat="45.88673" lon="4.70381">
        <ele>228</ele>
        <time>2018-04-07T10:18:34Z</time>
      </trkpt>
      <trkpt lat="45.88679" lon="4.70377">
        <ele>228</ele>
        <time>2018-04-07T10:18:35Z</time>
      </trkpt>
      <trkpt lat="45.88685" lon="4.70372">
        <ele>229</ele>
        <time>2018-04-07T10:18:36Z</time>
      </trkpt>
      <trkpt lat="45.88691" lon="4.70367">
        <ele>229</ele>
        <time>2018-04-07T10:18:37Z</time>
      </trkpt>
      <trkpt lat="45.88696" lon="4.70362">
        <ele>229</ele>
        <time>2018-04-07T10:18:38Z</time>
      </trkpt>
      <trkpt lat="45.88702" lon="4.70357">
        <ele>229</ele>
        <time>2018-04-07T10:18:39Z</time>
      </trkpt>
      <trkpt lat="45.88708" lon="4.70352">
        <ele>229</ele>
        <time>2018-04-07T10:18:40Z</time>
      </trkpt>
      <trkpt lat="45.88714" lon="4.70348">
        <ele>229</ele>
        <time>2018-04-07T10:18:41Z</time>
      </trkpt>
      <trkpt lat="45.8872" lon="4.70344">
        <ele>229</ele>
        <time>2018-04-07T10:18:42Z</time>
      </trkpt>
      <trkpt lat="45.88727" lon="4.70337">
        <ele>229</ele>
        <time>2018-04-07T10:18:43Z</time>
      </trkpt>
      <trkpt lat="45.88733" lon="4.70334">
        <ele>229</ele>
        <time>2018-04-07T10:18:44Z</time>
      </trkpt>
      <trkpt lat="45.88738" lon="4.7033">
        <ele>232</ele>
        <time>2018-04-07T10:18:45Z</time>
      </trkpt>
      <trkpt lat="45.88743" lon="4.70325">
        <ele>231</ele>
        <time>2018-04-07T10:18:46Z</time>
      </trkpt>
      <trkpt lat="45.88747" lon="4.70321">
        <ele>232</ele>
        <time>2018-04-07T10:18:47Z</time>
      </trkpt>
      <trkpt lat="45.88753" lon="4.70318">
        <ele>231</ele>
        <time>2018-04-07T10:18:48Z</time>
      </trkpt>
      <trkpt lat="45.88757" lon="4.70314">
        <ele>232</ele>
        <time>2018-04-07T10:18:49Z</time>
      </trkpt>
      <trkpt lat="45.88762" lon="4.7031">
        <ele>232</ele>
        <time>2018-04-07T10:18:50Z</time>
      </trkpt>
      <trkpt lat="45.88766" lon="4.70306">
        <ele>233</ele>
        <time>2018-04-07T10:18:51Z</time>
      </trkpt>
      <trkpt lat="45.88772" lon="4.70303">
        <ele>233</ele>
        <time>2018-04-07T10:18:52Z</time>
      </trkpt>
      <trkpt lat="45.88777" lon="4.70299">
        <ele>233</ele>
        <time>2018-04-07T10:18:53Z</time>
      </trkpt>
      <trkpt lat="45.8878" lon="4.70296">
        <ele>233</ele>
        <time>2018-04-07T10:18:54Z</time>
      </trkpt>
      <trkpt lat="45.88785" lon="4.70292">
        <ele>234</ele>
        <time>2018-04-07T10:18:55Z</time>
      </trkpt>
      <trkpt lat="45.88789" lon="4.70289">
        <ele>234</ele>
        <time>2018-04-07T10:18:56Z</time>
      </trkpt>
      <trkpt lat="45.88794" lon="4.70285">
        <ele>234</ele>
        <time>2018-04-07T10:18:57Z</time>
      </trkpt>
      <trkpt lat="45.88799" lon="4.70282">
        <ele>234</ele>
        <time>2018-04-07T10:18:58Z</time>
      </trkpt>
      <trkpt lat="45.88804" lon="4.70279">
        <ele>234</ele>
        <time>2018-04-07T10:18:59Z</time>
      </trkpt>
      <trkpt lat="45.88809" lon="4.70274">
        <ele>234</ele>
        <time>2018-04-07T10:19:00Z</time>
      </trkpt>
      <trkpt lat="45.88812" lon="4.70269">
        <ele>235</ele>
        <time>2018-04-07T10:19:01Z</time>
      </trkpt>
      <trkpt lat="45.88818" lon="4.70263">
        <ele>235</ele>
        <time>2018-04-07T10:19:02Z</time>
      </trkpt>
      <trkpt lat="45.88823" lon="4.7026">
        <ele>236</ele>
        <time>2018-04-07T10:19:03Z</time>
      </trkpt>
      <trkpt lat="45.88828" lon="4.70256">
        <ele>236</ele>
        <time>2018-04-07T10:19:04Z</time>
      </trkpt>
      <trkpt lat="45.88833" lon="4.70252">
        <ele>237</ele>
        <time>2018-04-07T10:19:05Z</time>
      </trkpt>
      <trkpt lat="45.88839" lon="4.70248">
        <ele>237</ele>
        <time>2018-04-07T10:19:06Z</time>
      </trkpt>
      <trkpt lat="45.88844" lon="4.70244">
        <ele>238</ele>
        <time>2018-04-07T10:19:07Z</time>
      </trkpt>
      <trkpt lat="45.88849" lon="4.7024">
        <ele>238</ele>
        <time>2018-04-07T10:19:08Z</time>
      </trkpt>
      <trkpt lat="45.88854" lon="4.70237">
        <ele>238</ele>
        <time>2018-04-07T10:19:09Z</time>
      </trkpt>
      <trkpt lat="45.88859" lon="4.70234">
        <ele>238</ele>
        <time>2018-04-07T10:19:10Z</time>
      </trkpt>
      <trkpt lat="45.88864" lon="4.70231">
        <ele>238</ele>
        <time>2018-04-07T10:19:11Z</time>
      </trkpt>
      <trkpt lat="45.88868" lon="4.70228">
        <ele>238</ele>
        <time>2018-04-07T10:19:12Z</time>
      </trkpt>
      <trkpt lat="45.88874" lon="4.70228">
        <ele>238</ele>
        <time>2018-04-07T10:19:13Z</time>
      </trkpt>
      <trkpt lat="45.88878" lon="4.70225">
        <ele>238</ele>
        <time>2018-04-07T10:19:14Z</time>
      </trkpt>
      <trkpt lat="45.88883" lon="4.70222">
        <ele>238</ele>
        <time>2018-04-07T10:19:15Z</time>
      </trkpt>
      <trkpt lat="45.88888" lon="4.7022">
        <ele>238</ele>
        <time>2018-04-07T10:19:16Z</time>
      </trkpt>
      <trkpt lat="45.88892" lon="4.70218">
        <ele>238</ele>
        <time>2018-04-07T10:19:17Z</time>
      </trkpt>
      <trkpt lat="45.88898" lon="4.70215">
        <ele>238</ele>
        <time>2018-04-07T10:19:18Z</time>
      </trkpt>
      <trkpt lat="45.88904" lon="4.70212">
        <ele>238</ele>
        <time>2018-04-07T10:19:19Z</time>
      </trkpt>
      <trkpt lat="45.8891" lon="4.70208">
        <ele>238</ele>
        <time>2018-04-07T10:19:20Z</time>
      </trkpt>
      <trkpt lat="45.88915" lon="4.70205">
        <ele>239</ele>
        <time>2018-04-07T10:19:21Z</time>
      </trkpt>
      <trkpt lat="45.88921" lon="4.70202">
        <ele>235</ele>
        <time>2018-04-07T10:19:22Z</time>
      </trkpt>
      <trkpt lat="45.88927" lon="4.70199">
        <ele>235</ele>
        <time>2018-04-07T10:19:23Z</time>
      </trkpt>
      <trkpt lat="45.88932" lon="4.70196">
        <ele>235</ele>
        <time>2018-04-07T10:19:24Z</time>
      </trkpt>
      <trkpt lat="45.88937" lon="4.70194">
        <ele>235</ele>
        <time>2018-04-07T10:19:25Z</time>
      </trkpt>
      <trkpt lat="45.88942" lon="4.7019">
        <ele>235</ele>
        <time>2018-04-07T10:19:26Z</time>
      </trkpt>
      <trkpt lat="45.88947" lon="4.70188">
        <ele>235</ele>
        <time>2018-04-07T10:19:27Z</time>
      </trkpt>
      <trkpt lat="45.88951" lon="4.70185">
        <ele>234</ele>
        <time>2018-04-07T10:19:28Z</time>
      </trkpt>
      <trkpt lat="45.88956" lon="4.70184">
        <ele>234</ele>
        <time>2018-04-07T10:19:29Z</time>
      </trkpt>
      <trkpt lat="45.8896" lon="4.70182">
        <ele>234</ele>
        <time>2018-04-07T10:19:30Z</time>
      </trkpt>
      <trkpt lat="45.88966" lon="4.70179">
        <ele>234</ele>
        <time>2018-04-07T10:19:31Z</time>
      </trkpt>
      <trkpt lat="45.88971" lon="4.70176">
        <ele>233</ele>
        <time>2018-04-07T10:19:32Z</time>
      </trkpt>
      <trkpt lat="45.88976" lon="4.70173">
        <ele>233</ele>
        <time>2018-04-07T10:19:33Z</time>
      </trkpt>
      <trkpt lat="45.88981" lon="4.70168">
        <ele>233</ele>
        <time>2018-04-07T10:19:34Z</time>
      </trkpt>
      <trkpt lat="45.88986" lon="4.70168">
        <ele>233</ele>
        <time>2018-04-07T10:19:35Z</time>
      </trkpt>
      <trkpt lat="45.88991" lon="4.70164">
        <ele>234</ele>
        <time>2018-04-07T10:19:36Z</time>
      </trkpt>
      <trkpt lat="45.88996" lon="4.70161">
        <ele>234</ele>
        <time>2018-04-07T10:19:37Z</time>
      </trkpt>
      <trkpt lat="45.89002" lon="4.70156">
        <ele>232</ele>
        <time>2018-04-07T10:19:38Z</time>
      </trkpt>
      <trkpt lat="45.89007" lon="4.70152">
        <ele>232</ele>
        <time>2018-04-07T10:19:39Z</time>
      </trkpt>
      <trkpt lat="45.89013" lon="4.70149">
        <ele>232</ele>
        <time>2018-04-07T10:19:40Z</time>
      </trkpt>
      <trkpt lat="45.8902" lon="4.70145">
        <ele>231</ele>
        <time>2018-04-07T10:19:41Z</time>
      </trkpt>
      <trkpt lat="45.89026" lon="4.70142">
        <ele>231</ele>
        <time>2018-04-07T10:19:42Z</time>
      </trkpt>
      <trkpt lat="45.89031" lon="4.70139">
        <ele>231</ele>
        <time>2018-04-07T10:19:43Z</time>
      </trkpt>
      <trkpt lat="45.89036" lon="4.70135">
        <ele>231</ele>
        <time>2018-04-07T10:19:44Z</time>
      </trkpt>
      <trkpt lat="45.89042" lon="4.70132">
        <ele>231</ele>
        <time>2018-04-07T10:19:45Z</time>
      </trkpt>
      <trkpt lat="45.89046" lon="4.70129">
        <ele>231</ele>
        <time>2018-04-07T10:19:46Z</time>
      </trkpt>
      <trkpt lat="45.89051" lon="4.70126">
        <ele>231</ele>
        <time>2018-04-07T10:19:47Z</time>
      </trkpt>
      <trkpt lat="45.89055" lon="4.70122">
        <ele>231</ele>
        <time>2018-04-07T10:19:48Z</time>
      </trkpt>
      <trkpt lat="45.8906" lon="4.70119">
        <ele>230</ele>
        <time>2018-04-07T10:19:49Z</time>
      </trkpt>
      <trkpt lat="45.89065" lon="4.70116">
        <ele>230</ele>
        <time>2018-04-07T10:19:50Z</time>
      </trkpt>
      <trkpt lat="45.89069" lon="4.70113">
        <ele>230</ele>
        <time>2018-04-07T10:19:51Z</time>
      </trkpt>
      <trkpt lat="45.89074" lon="4.70111">
        <ele>230</ele>
        <time>2018-04-07T10:19:52Z</time>
      </trkpt>
      <trkpt lat="45.89079" lon="4.70108">
        <ele>230</ele>
        <time>2018-04-07T10:19:53Z</time>
      </trkpt>
      <trkpt lat="45.89083" lon="4.70104">
        <ele>230</ele>
        <time>2018-04-07T10:19:54Z</time>
      </trkpt>
      <trkpt lat="45.89089" lon="4.70102">
        <ele>228</ele>
        <time>2018-04-07T10:19:55Z</time>
      </trkpt>
      <trkpt lat="45.89094" lon="4.70098">
        <ele>228</ele>
        <time>2018-04-07T10:19:56Z</time>
      </trkpt>
      <trkpt lat="45.89099" lon="4.70095">
        <ele>228</ele>
        <time>2018-04-07T10:19:57Z</time>
      </trkpt>
      <trkpt lat="45.89106" lon="4.70092">
        <ele>228</ele>
        <time>2018-04-07T10:19:58Z</time>
      </trkpt>
      <trkpt lat="45.89112" lon="4.70088">
        <ele>228</ele>
        <time>2018-04-07T10:19:59Z</time>
      </trkpt>
      <trkpt lat="45.89117" lon="4.70085">
        <ele>228</ele>
        <time>2018-04-07T10:20:00Z</time>
      </trkpt>
      <trkpt lat="45.89124" lon="4.70081">
        <ele>231</ele>
        <time>2018-04-07T10:20:01Z</time>
      </trkpt>
      <trkpt lat="45.8913" lon="4.70078">
        <ele>231</ele>
        <time>2018-04-07T10:20:02Z</time>
      </trkpt>
      <trkpt lat="45.89135" lon="4.70075">
        <ele>231</ele>
        <time>2018-04-07T10:20:03Z</time>
      </trkpt>
      <trkpt lat="45.89141" lon="4.70072">
        <ele>231</ele>
        <time>2018-04-07T10:20:04Z</time>
      </trkpt>
      <trkpt lat="45.89146" lon="4.70069">
        <ele>230</ele>
        <time>2018-04-07T10:20:05Z</time>
      </trkpt>
      <trkpt lat="45.89151" lon="4.70066">
        <ele>230</ele>
        <time>2018-04-07T10:20:06Z</time>
      </trkpt>
      <trkpt lat="45.89158" lon="4.70063">
        <ele>230</ele>
        <time>2018-04-07T10:20:07Z</time>
      </trkpt>
      <trkpt lat="45.89163" lon="4.70059">
        <ele>231</ele>
        <time>2018-04-07T10:20:08Z</time>
      </trkpt>
      <trkpt lat="45.89169" lon="4.70056">
        <ele>229</ele>
        <time>2018-04-07T10:20:09Z</time>
      </trkpt>
      <trkpt lat="45.89176" lon="4.70053">
        <ele>229</ele>
        <time>2018-04-07T10:20:10Z</time>
      </trkpt>
      <trkpt lat="45.89182" lon="4.70049">
        <ele>229</ele>
        <time>2018-04-07T10:20:11Z</time>
      </trkpt>
      <trkpt lat="45.89188" lon="4.70046">
        <ele>229</ele>
        <time>2018-04-07T10:20:12Z</time>
      </trkpt>
      <trkpt lat="45.89195" lon="4.70043">
        <ele>229</ele>
        <time>2018-04-07T10:20:13Z</time>
      </trkpt>
      <trkpt lat="45.89201" lon="4.70041">
        <ele>229</ele>
        <time>2018-04-07T10:20:14Z</time>
      </trkpt>
      <trkpt lat="45.89207" lon="4.70039">
        <ele>229</ele>
        <time>2018-04-07T10:20:15Z</time>
      </trkpt>
      <trkpt lat="45.89213" lon="4.70037">
        <ele>229</ele>
        <time>2018-04-07T10:20:16Z</time>
      </trkpt>
      <trkpt lat="45.8922" lon="4.70035">
        <ele>228</ele>
        <time>2018-04-07T10:20:17Z</time>
      </trkpt>
      <trkpt lat="45.89226" lon="4.70033">
        <ele>228</ele>
        <time>2018-04-07T10:20:18Z</time>
      </trkpt>
      <trkpt lat="45.89232" lon="4.70031">
        <ele>228</ele>
        <time>2018-04-07T10:20:19Z</time>
      </trkpt>
      <trkpt lat="45.89239" lon="4.70029">
        <ele>228</ele>
        <time>2018-04-07T10:20:20Z</time>
      </trkpt>
      <trkpt lat="45.89246" lon="4.70026">
        <ele>228</ele>
        <time>2018-04-07T10:20:21Z</time>
      </trkpt>
      <trkpt lat="45.89253" lon="4.70024">
        <ele>227</ele>
        <time>2018-04-07T10:20:22Z</time>
      </trkpt>
      <trkpt lat="45.89261" lon="4.70021">
        <ele>227</ele>
        <time>2018-04-07T10:20:23Z</time>
      </trkpt>
      <trkpt lat="45.89267" lon="4.70018">
        <ele>227</ele>
        <time>2018-04-07T10:20:24Z</time>
      </trkpt>
      <trkpt lat="45.89274" lon="4.70016">
        <ele>226</ele>
        <time>2018-04-07T10:20:25Z</time>
      </trkpt>
      <trkpt lat="45.89281" lon="4.70013">
        <ele>226</ele>
        <time>2018-04-07T10:20:26Z</time>
      </trkpt>
      <trkpt lat="45.89287" lon="4.70012">
        <ele>226</ele>
        <time>2018-04-07T10:20:27Z</time>
      </trkpt>
      <trkpt lat="45.89294" lon="4.70009">
        <ele>226</ele>
        <time>2018-04-07T10:20:28Z</time>
      </trkpt>
      <trkpt lat="45.893" lon="4.70007">
        <ele>226</ele>
        <time>2018-04-07T10:20:29Z</time>
      </trkpt>
      <trkpt lat="45.89306" lon="4.70005">
        <ele>226</ele>
        <time>2018-04-07T10:20:30Z</time>
      </trkpt>
      <trkpt lat="45.89312" lon="4.70003">
        <ele>226</ele>
        <time>2018-04-07T10:20:31Z</time>
      </trkpt>
      <trkpt lat="45.89319" lon="4.70001">
        <ele>226</ele>
        <time>2018-04-07T10:20:32Z</time>
      </trkpt>
      <trkpt lat="45.89326" lon="4.7">
        <ele>227</ele>
        <time>2018-04-07T10:20:33Z</time>
      </trkpt>
      <trkpt lat="45.89333" lon="4.69998">
        <ele>226</ele>
        <time>2018-04-07T10:20:34Z</time>
      </trkpt>
      <trkpt lat="45.89339" lon="4.69997">
        <ele>226</ele>
        <time>2018-04-07T10:20:35Z</time>
      </trkpt>
      <trkpt lat="45.89346" lon="4.69996">
        <ele>227</ele>
        <time>2018-04-07T10:20:36Z</time>
      </trkpt>
      <trkpt lat="45.89353" lon="4.69997">
        <ele>227</ele>
        <time>2018-04-07T10:20:37Z</time>
      </trkpt>
      <trkpt lat="45.89361" lon="4.69997">
        <ele>227</ele>
        <time>2018-04-07T10:20:38Z</time>
      </trkpt>
      <trkpt lat="45.89368" lon="4.69999">
        <ele>227</ele>
        <time>2018-04-07T10:20:39Z</time>
      </trkpt>
      <trkpt lat="45.89375" lon="4.70001">
        <ele>225</ele>
        <time>2018-04-07T10:20:40Z</time>
      </trkpt>
      <trkpt lat="45.89382" lon="4.70002">
        <ele>225</ele>
        <time>2018-04-07T10:20:41Z</time>
      </trkpt>
      <trkpt lat="45.89389" lon="4.70003">
        <ele>226</ele>
        <time>2018-04-07T10:20:42Z</time>
      </trkpt>
      <trkpt lat="45.89396" lon="4.70004">
        <ele>226</ele>
        <time>2018-04-07T10:20:43Z</time>
      </trkpt>
      <trkpt lat="45.89404" lon="4.70005">
        <ele>226</ele>
        <time>2018-04-07T10:20:44Z</time>
      </trkpt>
      <trkpt lat="45.89411" lon="4.70007">
        <ele>226</ele>
        <time>2018-04-07T10:20:45Z</time>
      </trkpt>
      <trkpt lat="45.89418" lon="4.70008">
        <ele>226</ele>
        <time>2018-04-07T10:20:46Z</time>
      </trkpt>
      <trkpt lat="45.89426" lon="4.70009">
        <ele>226</ele>
        <time>2018-04-07T10:20:47Z</time>
      </trkpt>
      <trkpt lat="45.89433" lon="4.7001">
        <ele>226</ele>
        <time>2018-04-07T10:20:48Z</time>
      </trkpt>
      <trkpt lat="45.8944" lon="4.70011">
        <ele>225</ele>
        <time>2018-04-07T10:20:49Z</time>
      </trkpt>
      <trkpt lat="45.89448" lon="4.70012">
        <ele>225</ele>
        <time>2018-04-07T10:20:50Z</time>
      </trkpt>
      <trkpt lat="45.89455" lon="4.70013">
        <ele>225</ele>
        <time>2018-04-07T10:20:51Z</time>
      </trkpt>
      <trkpt lat="45.89462" lon="4.70014">
        <ele>225</ele>
        <time>2018-04-07T10:20:52Z</time>
      </trkpt>
      <trkpt lat="45.89468" lon="4.70015">
        <ele>225</ele>
        <time>2018-04-07T10:20:53Z</time>
      </trkpt>
      <trkpt lat="45.89476" lon="4.70017">
        <ele>225</ele>
        <time>2018-04-07T10:20:54Z</time>
      </trkpt>
      <trkpt lat="45.89484" lon="4.70018">
        <ele>224</ele>
        <time>2018-04-07T10:20:55Z</time>
      </trkpt>
      <trkpt lat="45.89493" lon="4.7002">
        <ele>224</ele>
        <time>2018-04-07T10:20:56Z</time>
      </trkpt>
      <trkpt lat="45.895" lon="4.70021">
        <ele>223</ele>
        <time>2018-04-07T10:20:57Z</time>
      </trkpt>
      <trkpt lat="45.89507" lon="4.70022">
        <ele>223</ele>
        <time>2018-04-07T10:20:58Z</time>
      </trkpt>
      <trkpt lat="45.89514" lon="4.70024">
        <ele>223</ele>
        <time>2018-04-07T10:20:59Z</time>
      </trkpt>
      <trkpt lat="45.89522" lon="4.70025">
        <ele>223</ele>
        <time>2018-04-07T10:21:00Z</time>
      </trkpt>
      <trkpt lat="45.8953" lon="4.70026">
        <ele>223</ele>
        <time>2018-04-07T10:21:01Z</time>
      </trkpt>
      <trkpt lat="45.89537" lon="4.70027">
        <ele>223</ele>
        <time>2018-04-07T10:21:02Z</time>
      </trkpt>
      <trkpt lat="45.89545" lon="4.70029">
        <ele>222</ele>
        <time>2018-04-07T10:21:03Z</time>
      </trkpt>
      <trkpt lat="45.89553" lon="4.7003">
        <ele>222</ele>
        <time>2018-04-07T10:21:04Z</time>
      </trkpt>
      <trkpt lat="45.89559" lon="4.7003">
        <ele>222</ele>
        <time>2018-04-07T10:21:05Z</time>
      </trkpt>
      <trkpt lat="45.89567" lon="4.70031">
        <ele>222</ele>
        <time>2018-04-07T10:21:06Z</time>
      </trkpt>
      <trkpt lat="45.89574" lon="4.70033">
        <ele>222</ele>
        <time>2018-04-07T10:21:07Z</time>
      </trkpt>
      <trkpt lat="45.89582" lon="4.70034">
        <ele>222</ele>
        <time>2018-04-07T10:21:08Z</time>
      </trkpt>
      <trkpt lat="45.89589" lon="4.70034">
        <ele>222</ele>
        <time>2018-04-07T10:21:09Z</time>
      </trkpt>
      <trkpt lat="45.89596" lon="4.70035">
        <ele>222</ele>
        <time>2018-04-07T10:21:10Z</time>
      </trkpt>
      <trkpt lat="45.89604" lon="4.70037">
        <ele>222</ele>
        <time>2018-04-07T10:21:11Z</time>
      </trkpt>
      <trkpt lat="45.89612" lon="4.70038">
        <ele>222</ele>
        <time>2018-04-07T10:21:12Z</time>
      </trkpt>
      <trkpt lat="45.89619" lon="4.7004">
        <ele>222</ele>
        <time>2018-04-07T10:21:13Z</time>
      </trkpt>
      <trkpt lat="45.89627" lon="4.70041">
        <ele>222</ele>
        <time>2018-04-07T10:21:14Z</time>
      </trkpt>
      <trkpt lat="45.89634" lon="4.70043">
        <ele>222</ele>
        <time>2018-04-07T10:21:15Z</time>
      </trkpt>
      <trkpt lat="45.89642" lon="4.70044">
        <ele>222</ele>
        <time>2018-04-07T10:21:16Z</time>
      </trkpt>
      <trkpt lat="45.89649" lon="4.70046">
        <ele>222</ele>
        <time>2018-04-07T10:21:17Z</time>
      </trkpt>
      <trkpt lat="45.89657" lon="4.70048">
        <ele>222</ele>
        <time>2018-04-07T10:21:18Z</time>
      </trkpt>
      <trkpt lat="45.89665" lon="4.70049">
        <ele>222</ele>
        <time>2018-04-07T10:21:19Z</time>
      </trkpt>
      <trkpt lat="45.89672" lon="4.7005">
        <ele>222</ele>
        <time>2018-04-07T10:21:20Z</time>
      </trkpt>
      <trkpt lat="45.89679" lon="4.70052">
        <ele>222</ele>
        <time>2018-04-07T10:21:21Z</time>
      </trkpt>
      <trkpt lat="45.89688" lon="4.70053">
        <ele>222</ele>
        <time>2018-04-07T10:21:22Z</time>
      </trkpt>
      <trkpt lat="45.89695" lon="4.70055">
        <ele>222</ele>
        <time>2018-04-07T10:21:23Z</time>
      </trkpt>
      <trkpt lat="45.89703" lon="4.70056">
        <ele>222</ele>
        <time>2018-04-07T10:21:24Z</time>
      </trkpt>
      <trkpt lat="45.89711" lon="4.70058">
        <ele>221</ele>
        <time>2018-04-07T10:21:25Z</time>
      </trkpt>
      <trkpt lat="45.89718" lon="4.70058">
        <ele>221</ele>
        <time>2018-04-07T10:21:26Z</time>
      </trkpt>
      <trkpt lat="45.89726" lon="4.70059">
        <ele>221</ele>
        <time>2018-04-07T10:21:27Z</time>
      </trkpt>
      <trkpt lat="45.89734" lon="4.7006">
        <ele>221</ele>
        <time>2018-04-07T10:21:28Z</time>
      </trkpt>
      <trkpt lat="45.89742" lon="4.70063">
        <ele>221</ele>
        <time>2018-04-07T10:21:29Z</time>
      </trkpt>
      <trkpt lat="45.89749" lon="4.70063">
        <ele>221</ele>
        <time>2018-04-07T10:21:30Z</time>
      </trkpt>
      <trkpt lat="45.89755" lon="4.70063">
        <ele>220</ele>
        <time>2018-04-07T10:21:31Z</time>
      </trkpt>
      <trkpt lat="45.8976" lon="4.70065">
        <ele>220</ele>
        <time>2018-04-07T10:21:32Z</time>
      </trkpt>
      <trkpt lat="45.89768" lon="4.70068">
        <ele>220</ele>
        <time>2018-04-07T10:21:37Z</time>
      </trkpt>
      <trkpt lat="45.89769" lon="4.70068">
        <ele>220</ele>
        <time>2018-04-07T10:21:38Z</time>
      </trkpt>
      <trkpt lat="45.89778" lon="4.7007">
        <ele>221</ele>
        <time>2018-04-07T10:21:48Z</time>
      </trkpt>
      <trkpt lat="45.89779" lon="4.7007">
        <ele>221</ele>
        <time>2018-04-07T10:21:49Z</time>
      </trkpt>
      <trkpt lat="45.89787" lon="4.7007">
        <ele>221</ele>
        <time>2018-04-07T10:21:52Z</time>
      </trkpt>
      <trkpt lat="45.89789" lon="4.7007">
        <ele>221</ele>
        <time>2018-04-07T10:21:53Z</time>
      </trkpt>
      <trkpt lat="45.89798" lon="4.70071">
        <ele>221</ele>
        <time>2018-04-07T10:21:57Z</time>
      </trkpt>
      <trkpt lat="45.89799" lon="4.70071">
        <ele>221</ele>
        <time>2018-04-07T10:21:58Z</time>
      </trkpt>
      <trkpt lat="45.89803" lon="4.70071">
        <ele>221</ele>
        <time>2018-04-07T10:22:11Z</time>
      </trkpt>
      <trkpt lat="45.89808" lon="4.70073">
        <ele>221</ele>
        <time>2018-04-07T10:22:12Z</time>
      </trkpt>
      <trkpt lat="45.89816" lon="4.70074">
        <ele>221</ele>
        <time>2018-04-07T10:22:16Z</time>
      </trkpt>
      <trkpt lat="45.89819" lon="4.70074">
        <ele>221</ele>
        <time>2018-04-07T10:22:17Z</time>
      </trkpt>
      <trkpt lat="45.89822" lon="4.70074">
        <ele>221</ele>
        <time>2018-04-07T10:22:18Z</time>
      </trkpt>
      <trkpt lat="45.89831" lon="4.70075">
        <ele>220</ele>
        <time>2018-04-07T10:22:19Z</time>
      </trkpt>
      <trkpt lat="45.89839" lon="4.70076">
        <ele>221</ele>
        <time>2018-04-07T10:22:21Z</time>
      </trkpt>
      <trkpt lat="45.89844" lon="4.70076">
        <ele>221</ele>
        <time>2018-04-07T10:22:22Z</time>
      </trkpt>
      <trkpt lat="45.89848" lon="4.70077">
        <ele>221</ele>
        <time>2018-04-07T10:22:23Z</time>
      </trkpt>
      <trkpt lat="45.89853" lon="4.70077">
        <ele>221</ele>
        <time>2018-04-07T10:22:24Z</time>
      </trkpt>
      <trkpt lat="45.89858" lon="4.70077">
        <ele>221</ele>
        <time>2018-04-07T10:22:25Z</time>
      </trkpt>
      <trkpt lat="45.89863" lon="4.70078">
        <ele>221</ele>
        <time>2018-04-07T10:22:26Z</time>
      </trkpt>
      <trkpt lat="45.89868" lon="4.70078">
        <ele>221</ele>
        <time>2018-04-07T10:22:27Z</time>
      </trkpt>
      <trkpt lat="45.89874" lon="4.70078">
        <ele>221</ele>
        <time>2018-04-07T10:22:28Z</time>
      </trkpt>
      <trkpt lat="45.89879" lon="4.70079">
        <ele>221</ele>
        <time>2018-04-07T10:22:29Z</time>
      </trkpt>
      <trkpt lat="45.89883" lon="4.70079">
        <ele>221</ele>
        <time>2018-04-07T10:22:30Z</time>
      </trkpt>
      <trkpt lat="45.89892" lon="4.7008">
        <ele>221</ele>
        <time>2018-04-07T10:22:32Z</time>
      </trkpt>
      <trkpt lat="45.89897" lon="4.70081">
        <ele>221</ele>
        <time>2018-04-07T10:22:33Z</time>
      </trkpt>
      <trkpt lat="45.89905" lon="4.70082">
        <ele>221</ele>
        <time>2018-04-07T10:22:35Z</time>
      </trkpt>
      <trkpt lat="45.8991" lon="4.70083">
        <ele>221</ele>
        <time>2018-04-07T10:22:36Z</time>
      </trkpt>
      <trkpt lat="45.89915" lon="4.70084">
        <ele>221</ele>
        <time>2018-04-07T10:22:37Z</time>
      </trkpt>
      <trkpt lat="45.8992" lon="4.70085">
        <ele>221</ele>
        <time>2018-04-07T10:22:38Z</time>
      </trkpt>
      <trkpt lat="45.89925" lon="4.70085">
        <ele>221</ele>
        <time>2018-04-07T10:22:39Z</time>
      </trkpt>
      <trkpt lat="45.8993" lon="4.70085">
        <ele>221</ele>
        <time>2018-04-07T10:22:40Z</time>
      </trkpt>
      <trkpt lat="45.89935" lon="4.70087">
        <ele>221</ele>
        <time>2018-04-07T10:22:41Z</time>
      </trkpt>
      <trkpt lat="45.89941" lon="4.70087">
        <ele>221</ele>
        <time>2018-04-07T10:22:42Z</time>
      </trkpt>
      <trkpt lat="45.89946" lon="4.70087">
        <ele>221</ele>
        <time>2018-04-07T10:22:43Z</time>
      </trkpt>
      <trkpt lat="45.89952" lon="4.70088">
        <ele>221</ele>
        <time>2018-04-07T10:22:44Z</time>
      </trkpt>
      <trkpt lat="45.89957" lon="4.70088">
        <ele>221</ele>
        <time>2018-04-07T10:22:45Z</time>
      </trkpt>
      <trkpt lat="45.89963" lon="4.70088">
        <ele>221</ele>
        <time>2018-04-07T10:22:46Z</time>
      </trkpt>
      <trkpt lat="45.89968" lon="4.70088">
        <ele>221</ele>
        <time>2018-04-07T10:22:47Z</time>
      </trkpt>
      <trkpt lat="45.89974" lon="4.70088">
        <ele>221</ele>
        <time>2018-04-07T10:22:48Z</time>
      </trkpt>
      <trkpt lat="45.89979" lon="4.70088">
        <ele>221</ele>
        <time>2018-04-07T10:22:49Z</time>
      </trkpt>
      <trkpt lat="45.89985" lon="4.70088">
        <ele>222</ele>
        <time>2018-04-07T10:22:50Z</time>
      </trkpt>
      <trkpt lat="45.8999" lon="4.70088">
        <ele>222</ele>
        <time>2018-04-07T10:22:51Z</time>
      </trkpt>
      <trkpt lat="45.89995" lon="4.70089">
        <ele>222</ele>
        <time>2018-04-07T10:22:52Z</time>
      </trkpt>
      <trkpt lat="45.9" lon="4.70088">
        <ele>222</ele>
        <time>2018-04-07T10:22:53Z</time>
      </trkpt>
      <trkpt lat="45.90006" lon="4.70089">
        <ele>222</ele>
        <time>2018-04-07T10:22:54Z</time>
      </trkpt>
      <trkpt lat="45.90011" lon="4.7009">
        <ele>222</ele>
        <time>2018-04-07T10:22:55Z</time>
      </trkpt>
      <trkpt lat="45.90017" lon="4.70091">
        <ele>222</ele>
        <time>2018-04-07T10:22:56Z</time>
      </trkpt>
      <trkpt lat="45.90022" lon="4.70091">
        <ele>222</ele>
        <time>2018-04-07T10:22:57Z</time>
      </trkpt>
      <trkpt lat="45.90028" lon="4.70092">
        <ele>222</ele>
        <time>2018-04-07T10:22:58Z</time>
      </trkpt>
      <trkpt lat="45.90034" lon="4.70092">
        <ele>222</ele>
        <time>2018-04-07T10:22:59Z</time>
      </trkpt>
      <trkpt lat="45.90039" lon="4.70092">
        <ele>222</ele>
        <time>2018-04-07T10:23:00Z</time>
      </trkpt>
      <trkpt lat="45.90044" lon="4.70092">
        <ele>222</ele>
        <time>2018-04-07T10:23:01Z</time>
      </trkpt>
      <trkpt lat="45.90049" lon="4.70092">
        <ele>222</ele>
        <time>2018-04-07T10:23:02Z</time>
      </trkpt>
      <trkpt lat="45.90057" lon="4.70091">
        <ele>223</ele>
        <time>2018-04-07T10:23:04Z</time>
      </trkpt>
      <trkpt lat="45.90061" lon="4.7009">
        <ele>223</ele>
        <time>2018-04-07T10:23:05Z</time>
      </trkpt>
      <trkpt lat="45.9007" lon="4.70091">
        <ele>223</ele>
        <time>2018-04-07T10:23:07Z</time>
      </trkpt>
      <trkpt lat="45.90075" lon="4.70091">
        <ele>223</ele>
        <time>2018-04-07T10:23:08Z</time>
      </trkpt>
      <trkpt lat="45.90084" lon="4.7009">
        <ele>224</ele>
        <time>2018-04-07T10:23:10Z</time>
      </trkpt>
      <trkpt lat="45.90089" lon="4.70089">
        <ele>224</ele>
        <time>2018-04-07T10:23:11Z</time>
      </trkpt>
      <trkpt lat="45.90094" lon="4.70089">
        <ele>224</ele>
        <time>2018-04-07T10:23:12Z</time>
      </trkpt>
      <trkpt lat="45.90098" lon="4.70087">
        <ele>223</ele>
        <time>2018-04-07T10:23:13Z</time>
      </trkpt>
      <trkpt lat="45.90103" lon="4.70085">
        <ele>223</ele>
        <time>2018-04-07T10:23:14Z</time>
      </trkpt>
      <trkpt lat="45.90108" lon="4.70085">
        <ele>223</ele>
        <time>2018-04-07T10:23:15Z</time>
      </trkpt>
      <trkpt lat="45.90113" lon="4.70084">
        <ele>223</ele>
        <time>2018-04-07T10:23:16Z</time>
      </trkpt>
      <trkpt lat="45.90118" lon="4.70083">
        <ele>226</ele>
        <time>2018-04-07T10:23:17Z</time>
      </trkpt>
      <trkpt lat="45.90122" lon="4.70082">
        <ele>226</ele>
        <time>2018-04-07T10:23:18Z</time>
      </trkpt>
      <trkpt lat="45.90127" lon="4.70081">
        <ele>226</ele>
        <time>2018-04-07T10:23:19Z</time>
      </trkpt>
      <trkpt lat="45.90136" lon="4.7008">
        <ele>226</ele>
        <time>2018-04-07T10:23:21Z</time>
      </trkpt>
      <trkpt lat="45.9014" lon="4.70079">
        <ele>226</ele>
        <time>2018-04-07T10:23:22Z</time>
      </trkpt>
      <trkpt lat="45.90145" lon="4.70078">
        <ele>226</ele>
        <time>2018-04-07T10:23:23Z</time>
      </trkpt>
      <trkpt lat="45.90149" lon="4.70078">
        <ele>226</ele>
        <time>2018-04-07T10:23:24Z</time>
      </trkpt>
      <trkpt lat="45.90154" lon="4.70077">
        <ele>226</ele>
        <time>2018-04-07T10:23:25Z</time>
      </trkpt>
      <trkpt lat="45.90159" lon="4.70078">
        <ele>226</ele>
        <time>2018-04-07T10:23:26Z</time>
      </trkpt>
      <trkpt lat="45.90163" lon="4.70077">
        <ele>225</ele>
        <time>2018-04-07T10:23:27Z</time>
      </trkpt>
      <trkpt lat="45.90168" lon="4.70077">
        <ele>225</ele>
        <time>2018-04-07T10:23:28Z</time>
      </trkpt>
      <trkpt lat="45.90174" lon="4.70075">
        <ele>225</ele>
        <time>2018-04-07T10:23:29Z</time>
      </trkpt>
      <trkpt lat="45.90178" lon="4.70075">
        <ele>226</ele>
        <time>2018-04-07T10:23:30Z</time>
      </trkpt>
      <trkpt lat="45.90183" lon="4.70074">
        <ele>226</ele>
        <time>2018-04-07T10:23:31Z</time>
      </trkpt>
      <trkpt lat="45.90188" lon="4.70072">
        <ele>226</ele>
        <time>2018-04-07T10:23:32Z</time>
      </trkpt>
      <trkpt lat="45.90193" lon="4.70071">
        <ele>226</ele>
        <time>2018-04-07T10:23:33Z</time>
      </trkpt>
      <trkpt lat="45.90198" lon="4.7007">
        <ele>226</ele>
        <time>2018-04-07T10:23:34Z</time>
      </trkpt>
      <trkpt lat="45.90203" lon="4.70069">
        <ele>226</ele>
        <time>2018-04-07T10:23:35Z</time>
      </trkpt>
      <trkpt lat="45.90208" lon="4.70068">
        <ele>226</ele>
        <time>2018-04-07T10:23:36Z</time>
      </trkpt>
      <trkpt lat="45.90213" lon="4.70068">
        <ele>226</ele>
        <time>2018-04-07T10:23:37Z</time>
      </trkpt>
      <trkpt lat="45.90218" lon="4.70067">
        <ele>225</ele>
        <time>2018-04-07T10:23:38Z</time>
      </trkpt>
      <trkpt lat="45.90223" lon="4.70067">
        <ele>225</ele>
        <time>2018-04-07T10:23:39Z</time>
      </trkpt>
      <trkpt lat="45.90228" lon="4.70066">
        <ele>225</ele>
        <time>2018-04-07T10:23:40Z</time>
      </trkpt>
      <trkpt lat="45.90237" lon="4.70064">
        <ele>225</ele>
        <time>2018-04-07T10:23:42Z</time>
      </trkpt>
      <trkpt lat="45.90242" lon="4.70063">
        <ele>225</ele>
        <time>2018-04-07T10:23:43Z</time>
      </trkpt>
      <trkpt lat="45.90248" lon="4.70061">
        <ele>225</ele>
        <time>2018-04-07T10:23:44Z</time>
      </trkpt>
      <trkpt lat="45.90253" lon="4.70061">
        <ele>224</ele>
        <time>2018-04-07T10:23:45Z</time>
      </trkpt>
      <trkpt lat="45.90258" lon="4.70061">
        <ele>224</ele>
        <time>2018-04-07T10:23:46Z</time>
      </trkpt>
      <trkpt lat="45.90263" lon="4.7006">
        <ele>224</ele>
        <time>2018-04-07T10:23:47Z</time>
      </trkpt>
      <trkpt lat="45.90269" lon="4.70059">
        <ele>224</ele>
        <time>2018-04-07T10:23:48Z</time>
      </trkpt>
      <trkpt lat="45.90274" lon="4.70058">
        <ele>224</ele>
        <time>2018-04-07T10:23:49Z</time>
      </trkpt>
      <trkpt lat="45.9028" lon="4.70056">
        <ele>224</ele>
        <time>2018-04-07T10:23:50Z</time>
      </trkpt>
      <trkpt lat="45.90285" lon="4.70055">
        <ele>224</ele>
        <time>2018-04-07T10:23:51Z</time>
      </trkpt>
      <trkpt lat="45.9029" lon="4.70053">
        <ele>224</ele>
        <time>2018-04-07T10:23:52Z</time>
      </trkpt>
      <trkpt lat="45.90296" lon="4.70052">
        <ele>224</ele>
        <time>2018-04-07T10:23:53Z</time>
      </trkpt>
      <trkpt lat="45.90303" lon="4.70051">
        <ele>224</ele>
        <time>2018-04-07T10:23:54Z</time>
      </trkpt>
      <trkpt lat="45.90309" lon="4.70049">
        <ele>224</ele>
        <time>2018-04-07T10:23:55Z</time>
      </trkpt>
      <trkpt lat="45.90315" lon="4.70048">
        <ele>224</ele>
        <time>2018-04-07T10:23:56Z</time>
      </trkpt>
      <trkpt lat="45.90321" lon="4.70047">
        <ele>224</ele>
        <time>2018-04-07T10:23:57Z</time>
      </trkpt>
      <trkpt lat="45.90326" lon="4.70048">
        <ele>224</ele>
        <time>2018-04-07T10:23:58Z</time>
      </trkpt>
      <trkpt lat="45.90331" lon="4.70046">
        <ele>224</ele>
        <time>2018-04-07T10:23:59Z</time>
      </trkpt>
      <trkpt lat="45.90337" lon="4.70046">
        <ele>224</ele>
        <time>2018-04-07T10:24:00Z</time>
      </trkpt>
      <trkpt lat="45.90342" lon="4.70045">
        <ele>224</ele>
        <time>2018-04-07T10:24:01Z</time>
      </trkpt>
      <trkpt lat="45.90347" lon="4.70044">
        <ele>224</ele>
        <time>2018-04-07T10:24:02Z</time>
      </trkpt>
      <trkpt lat="45.90352" lon="4.70043">
        <ele>224</ele>
        <time>2018-04-07T10:24:03Z</time>
      </trkpt>
      <trkpt lat="45.90357" lon="4.70043">
        <ele>224</ele>
        <time>2018-04-07T10:24:04Z</time>
      </trkpt>
      <trkpt lat="45.90362" lon="4.70042">
        <ele>224</ele>
        <time>2018-04-07T10:24:05Z</time>
      </trkpt>
      <trkpt lat="45.90367" lon="4.70041">
        <ele>224</ele>
        <time>2018-04-07T10:24:06Z</time>
      </trkpt>
      <trkpt lat="45.90373" lon="4.70041">
        <ele>224</ele>
        <time>2018-04-07T10:24:07Z</time>
      </trkpt>
      <trkpt lat="45.90379" lon="4.7004">
        <ele>224</ele>
        <time>2018-04-07T10:24:08Z</time>
      </trkpt>
      <trkpt lat="45.90384" lon="4.7004">
        <ele>224</ele>
        <time>2018-04-07T10:24:09Z</time>
      </trkpt>
      <trkpt lat="45.90389" lon="4.7004">
        <ele>224</ele>
        <time>2018-04-07T10:24:10Z</time>
      </trkpt>
      <trkpt lat="45.90395" lon="4.70038">
        <ele>225</ele>
        <time>2018-04-07T10:24:11Z</time>
      </trkpt>
      <trkpt lat="45.904" lon="4.70037">
        <ele>225</ele>
        <time>2018-04-07T10:24:12Z</time>
      </trkpt>
      <trkpt lat="45.90405" lon="4.70037">
        <ele>225</ele>
        <time>2018-04-07T10:24:13Z</time>
      </trkpt>
      <trkpt lat="45.90411" lon="4.70036">
        <ele>225</ele>
        <time>2018-04-07T10:24:14Z</time>
      </trkpt>
      <trkpt lat="45.90417" lon="4.70035">
        <ele>225</ele>
        <time>2018-04-07T10:24:15Z</time>
      </trkpt>
      <trkpt lat="45.90423" lon="4.70032">
        <ele>225</ele>
        <time>2018-04-07T10:24:16Z</time>
      </trkpt>
      <trkpt lat="45.90428" lon="4.70032">
        <ele>225</ele>
        <time>2018-04-07T10:24:17Z</time>
      </trkpt>
      <trkpt lat="45.90434" lon="4.70031">
        <ele>225</ele>
        <time>2018-04-07T10:24:18Z</time>
      </trkpt>
      <trkpt lat="45.90439" lon="4.7003">
        <ele>225</ele>
        <time>2018-04-07T10:24:19Z</time>
      </trkpt>
      <trkpt lat="45.90444" lon="4.7003">
        <ele>225</ele>
        <time>2018-04-07T10:24:20Z</time>
      </trkpt>
      <trkpt lat="45.90449" lon="4.70031">
        <ele>225</ele>
        <time>2018-04-07T10:24:21Z</time>
      </trkpt>
      <trkpt lat="45.90455" lon="4.70031">
        <ele>225</ele>
        <time>2018-04-07T10:24:22Z</time>
      </trkpt>
      <trkpt lat="45.90461" lon="4.70032">
        <ele>225</ele>
        <time>2018-04-07T10:24:23Z</time>
      </trkpt>
      <trkpt lat="45.90466" lon="4.70032">
        <ele>225</ele>
        <time>2018-04-07T10:24:24Z</time>
      </trkpt>
      <trkpt lat="45.90472" lon="4.70033">
        <ele>225</ele>
        <time>2018-04-07T10:24:25Z</time>
      </trkpt>
      <trkpt lat="45.90478" lon="4.70034">
        <ele>225</ele>
        <time>2018-04-07T10:24:26Z</time>
      </trkpt>
      <trkpt lat="45.90484" lon="4.70035">
        <ele>225</ele>
        <time>2018-04-07T10:24:27Z</time>
      </trkpt>
      <trkpt lat="45.9049" lon="4.70036">
        <ele>225</ele>
        <time>2018-04-07T10:24:28Z</time>
      </trkpt>
      <trkpt lat="45.90496" lon="4.70037">
        <ele>225</ele>
        <time>2018-04-07T10:24:29Z</time>
      </trkpt>
      <trkpt lat="45.90502" lon="4.70039">
        <ele>224</ele>
        <time>2018-04-07T10:24:30Z</time>
      </trkpt>
      <trkpt lat="45.90508" lon="4.7004">
        <ele>224</ele>
        <time>2018-04-07T10:24:31Z</time>
      </trkpt>
      <trkpt lat="45.90515" lon="4.7004">
        <ele>224</ele>
        <time>2018-04-07T10:24:32Z</time>
      </trkpt>
      <trkpt lat="45.90522" lon="4.70042">
        <ele>224</ele>
        <time>2018-04-07T10:24:33Z</time>
      </trkpt>
      <trkpt lat="45.90528" lon="4.70044">
        <ele>224</ele>
        <time>2018-04-07T10:24:34Z</time>
      </trkpt>
      <trkpt lat="45.90535" lon="4.70046">
        <ele>224</ele>
        <time>2018-04-07T10:24:35Z</time>
      </trkpt>
      <trkpt lat="45.90542" lon="4.70049">
        <ele>224</ele>
        <time>2018-04-07T10:24:36Z</time>
      </trkpt>
      <trkpt lat="45.90549" lon="4.70052">
        <ele>224</ele>
        <time>2018-04-07T10:24:37Z</time>
      </trkpt>
      <trkpt lat="45.90555" lon="4.70054">
        <ele>224</ele>
        <time>2018-04-07T10:24:38Z</time>
      </trkpt>
      <trkpt lat="45.90561" lon="4.70058">
        <ele>223</ele>
        <time>2018-04-07T10:24:39Z</time>
      </trkpt>
      <trkpt lat="45.90568" lon="4.7006">
        <ele>223</ele>
        <time>2018-04-07T10:24:40Z</time>
      </trkpt>
      <trkpt lat="45.90575" lon="4.70065">
        <ele>223</ele>
        <time>2018-04-07T10:24:41Z</time>
      </trkpt>
      <trkpt lat="45.90581" lon="4.70069">
        <ele>222</ele>
        <time>2018-04-07T10:24:42Z</time>
      </trkpt>
      <trkpt lat="45.90588" lon="4.70072">
        <ele>223</ele>
        <time>2018-04-07T10:24:43Z</time>
      </trkpt>
      <trkpt lat="45.90594" lon="4.70074">
        <ele>223</ele>
        <time>2018-04-07T10:24:44Z</time>
      </trkpt>
      <trkpt lat="45.906" lon="4.70078">
        <ele>223</ele>
        <time>2018-04-07T10:24:45Z</time>
      </trkpt>
      <trkpt lat="45.90605" lon="4.70081">
        <ele>223</ele>
        <time>2018-04-07T10:24:46Z</time>
      </trkpt>
      <trkpt lat="45.90611" lon="4.70085">
        <ele>221</ele>
        <time>2018-04-07T10:24:47Z</time>
      </trkpt>
      <trkpt lat="45.90618" lon="4.70088">
        <ele>221</ele>
        <time>2018-04-07T10:24:48Z</time>
      </trkpt>
      <trkpt lat="45.90624" lon="4.70092">
        <ele>221</ele>
        <time>2018-04-07T10:24:49Z</time>
      </trkpt>
      <trkpt lat="45.9063" lon="4.70095">
        <ele>221</ele>
        <time>2018-04-07T10:24:50Z</time>
      </trkpt>
      <trkpt lat="45.90635" lon="4.70098">
        <ele>221</ele>
        <time>2018-04-07T10:24:51Z</time>
      </trkpt>
      <trkpt lat="45.90641" lon="4.70102">
        <ele>221</ele>
        <time>2018-04-07T10:24:52Z</time>
      </trkpt>
      <trkpt lat="45.90647" lon="4.70106">
        <ele>221</ele>
        <time>2018-04-07T10:24:53Z</time>
      </trkpt>
      <trkpt lat="45.90653" lon="4.70109">
        <ele>221</ele>
        <time>2018-04-07T10:24:54Z</time>
      </trkpt>
      <trkpt lat="45.9066" lon="4.70113">
        <ele>221</ele>
        <time>2018-04-07T10:24:55Z</time>
      </trkpt>
      <trkpt lat="45.90665" lon="4.70117">
        <ele>221</ele>
        <time>2018-04-07T10:24:56Z</time>
      </trkpt>
      <trkpt lat="45.90671" lon="4.70122">
        <ele>221</ele>
        <time>2018-04-07T10:24:57Z</time>
      </trkpt>
      <trkpt lat="45.90677" lon="4.70128">
        <ele>221</ele>
        <time>2018-04-07T10:24:58Z</time>
      </trkpt>
      <trkpt lat="45.90682" lon="4.70134">
        <ele>221</ele>
        <time>2018-04-07T10:24:59Z</time>
      </trkpt>
      <trkpt lat="45.90688" lon="4.7014">
        <ele>221</ele>
        <time>2018-04-07T10:25:00Z</time>
      </trkpt>
      <trkpt lat="45.90695" lon="4.70145">
        <ele>220</ele>
        <time>2018-04-07T10:25:01Z</time>
      </trkpt>
      <trkpt lat="45.90702" lon="4.70147">
        <ele>220</ele>
        <time>2018-04-07T10:25:02Z</time>
      </trkpt>
      <trkpt lat="45.90708" lon="4.70146">
        <ele>220</ele>
        <time>2018-04-07T10:25:03Z</time>
      </trkpt>
      <trkpt lat="45.90714" lon="4.70145">
        <ele>220</ele>
        <time>2018-04-07T10:25:04Z</time>
      </trkpt>
      <trkpt lat="45.90723" lon="4.70144">
        <ele>220</ele>
        <time>2018-04-07T10:25:05Z</time>
      </trkpt>
      <trkpt lat="45.90729" lon="4.70145">
        <ele>220</ele>
        <time>2018-04-07T10:25:06Z</time>
      </trkpt>
      <trkpt lat="45.90737" lon="4.70145">
        <ele>220</ele>
        <time>2018-04-07T10:25:07Z</time>
      </trkpt>
      <trkpt lat="45.90745" lon="4.70144">
        <ele>220</ele>
        <time>2018-04-07T10:25:08Z</time>
      </trkpt>
      <trkpt lat="45.90753" lon="4.70144">
        <ele>219</ele>
        <time>2018-04-07T10:25:09Z</time>
      </trkpt>
      <trkpt lat="45.90761" lon="4.70145">
        <ele>219</ele>
        <time>2018-04-07T10:25:10Z</time>
      </trkpt>
      <trkpt lat="45.90769" lon="4.70145">
        <ele>219</ele>
        <time>2018-04-07T10:25:11Z</time>
      </trkpt>
      <trkpt lat="45.90777" lon="4.70144">
        <ele>219</ele>
        <time>2018-04-07T10:25:12Z</time>
      </trkpt>
      <trkpt lat="45.90785" lon="4.70142">
        <ele>219</ele>
        <time>2018-04-07T10:25:13Z</time>
      </trkpt>
      <trkpt lat="45.90793" lon="4.70143">
        <ele>219</ele>
        <time>2018-04-07T10:25:14Z</time>
      </trkpt>
      <trkpt lat="45.90801" lon="4.70142">
        <ele>219</ele>
        <time>2018-04-07T10:25:15Z</time>
      </trkpt>
      <trkpt lat="45.90811" lon="4.70142">
        <ele>219</ele>
        <time>2018-04-07T10:25:16Z</time>
      </trkpt>
      <trkpt lat="45.9082" lon="4.70142">
        <ele>218</ele>
        <time>2018-04-07T10:25:17Z</time>
      </trkpt>
      <trkpt lat="45.90828" lon="4.70141">
        <ele>218</ele>
        <time>2018-04-07T10:25:18Z</time>
      </trkpt>
      <trkpt lat="45.90835" lon="4.7014">
        <ele>218</ele>
        <time>2018-04-07T10:25:19Z</time>
      </trkpt>
      <trkpt lat="45.90844" lon="4.7014">
        <ele>218</ele>
        <time>2018-04-07T10:25:20Z</time>
      </trkpt>
      <trkpt lat="45.90851" lon="4.70139">
        <ele>218</ele>
        <time>2018-04-07T10:25:21Z</time>
      </trkpt>
      <trkpt lat="45.90858" lon="4.70139">
        <ele>218</ele>
        <time>2018-04-07T10:25:22Z</time>
      </trkpt>
      <trkpt lat="45.90865" lon="4.70139">
        <ele>218</ele>
        <time>2018-04-07T10:25:23Z</time>
      </trkpt>
      <trkpt lat="45.90872" lon="4.70138">
        <ele>218</ele>
        <time>2018-04-07T10:25:24Z</time>
      </trkpt>
      <trkpt lat="45.90878" lon="4.70136">
        <ele>218</ele>
        <time>2018-04-07T10:25:25Z</time>
      </trkpt>
      <trkpt lat="45.90885" lon="4.70136">
        <ele>218</ele>
        <time>2018-04-07T10:25:26Z</time>
      </trkpt>
      <trkpt lat="45.90892" lon="4.70136">
        <ele>218</ele>
        <time>2018-04-07T10:25:27Z</time>
      </trkpt>
      <trkpt lat="45.90898" lon="4.70135">
        <ele>218</ele>
        <time>2018-04-07T10:25:28Z</time>
      </trkpt>
      <trkpt lat="45.90905" lon="4.70134">
        <ele>218</ele>
        <time>2018-04-07T10:25:29Z</time>
      </trkpt>
      <trkpt lat="45.90912" lon="4.70134">
        <ele>218</ele>
        <time>2018-04-07T10:25:30Z</time>
      </trkpt>
      <trkpt lat="45.90918" lon="4.70133">
        <ele>219</ele>
        <time>2018-04-07T10:25:31Z</time>
      </trkpt>
      <trkpt lat="45.90923" lon="4.70133">
        <ele>219</ele>
        <time>2018-04-07T10:25:32Z</time>
      </trkpt>
      <trkpt lat="45.9093" lon="4.70134">
        <ele>219</ele>
        <time>2018-04-07T10:25:33Z</time>
      </trkpt>
      <trkpt lat="45.90937" lon="4.70133">
        <ele>219</ele>
        <time>2018-04-07T10:25:34Z</time>
      </trkpt>
      <trkpt lat="45.90942" lon="4.70135">
        <ele>219</ele>
        <time>2018-04-07T10:25:35Z</time>
      </trkpt>
      <trkpt lat="45.90949" lon="4.70136">
        <ele>219</ele>
        <time>2018-04-07T10:25:36Z</time>
      </trkpt>
      <trkpt lat="45.90956" lon="4.70138">
        <ele>219</ele>
        <time>2018-04-07T10:25:37Z</time>
      </trkpt>
      <trkpt lat="45.90963" lon="4.7014">
        <ele>218</ele>
        <time>2018-04-07T10:25:38Z</time>
      </trkpt>
      <trkpt lat="45.90969" lon="4.70141">
        <ele>218</ele>
        <time>2018-04-07T10:25:39Z</time>
      </trkpt>
      <trkpt lat="45.90976" lon="4.70144">
        <ele>218</ele>
        <time>2018-04-07T10:25:40Z</time>
      </trkpt>
      <trkpt lat="45.90983" lon="4.70146">
        <ele>218</ele>
        <time>2018-04-07T10:25:41Z</time>
      </trkpt>
      <trkpt lat="45.9099" lon="4.70149">
        <ele>218</ele>
        <time>2018-04-07T10:25:42Z</time>
      </trkpt>
      <trkpt lat="45.90997" lon="4.70152">
        <ele>217</ele>
        <time>2018-04-07T10:25:43Z</time>
      </trkpt>
      <trkpt lat="45.91004" lon="4.70154">
        <ele>217</ele>
        <time>2018-04-07T10:25:44Z</time>
      </trkpt>
      <trkpt lat="45.91011" lon="4.70156">
        <ele>217</ele>
        <time>2018-04-07T10:25:45Z</time>
      </trkpt>
      <trkpt lat="45.91017" lon="4.70158">
        <ele>218</ele>
        <time>2018-04-07T10:25:46Z</time>
      </trkpt>
      <trkpt lat="45.91023" lon="4.7016">
        <ele>218</ele>
        <time>2018-04-07T10:25:47Z</time>
      </trkpt>
      <trkpt lat="45.9103" lon="4.70162">
        <ele>218</ele>
        <time>2018-04-07T10:25:48Z</time>
      </trkpt>
      <trkpt lat="45.91036" lon="4.70164">
        <ele>218</ele>
        <time>2018-04-07T10:25:49Z</time>
      </trkpt>
      <trkpt lat="45.91043" lon="4.70166">
        <ele>218</ele>
        <time>2018-04-07T10:25:50Z</time>
      </trkpt>
      <trkpt lat="45.9105" lon="4.70168">
        <ele>216</ele>
        <time>2018-04-07T10:25:51Z</time>
      </trkpt>
      <trkpt lat="45.91057" lon="4.7017">
        <ele>216</ele>
        <time>2018-04-07T10:25:52Z</time>
      </trkpt>
      <trkpt lat="45.91063" lon="4.70173">
        <ele>216</ele>
        <time>2018-04-07T10:25:53Z</time>
      </trkpt>
      <trkpt lat="45.91071" lon="4.70175">
        <ele>216</ele>
        <time>2018-04-07T10:25:54Z</time>
      </trkpt>
      <trkpt lat="45.9108" lon="4.70178">
        <ele>216</ele>
        <time>2018-04-07T10:25:55Z</time>
      </trkpt>
      <trkpt lat="45.91088" lon="4.7018">
        <ele>216</ele>
        <time>2018-04-07T10:25:56Z</time>
      </trkpt>
      <trkpt lat="45.91095" lon="4.70183">
        <ele>216</ele>
        <time>2018-04-07T10:25:57Z</time>
      </trkpt>
      <trkpt lat="45.91102" lon="4.70186">
        <ele>215</ele>
        <time>2018-04-07T10:25:58Z</time>
      </trkpt>
      <trkpt lat="45.9111" lon="4.70188">
        <ele>215</ele>
        <time>2018-04-07T10:25:59Z</time>
      </trkpt>
      <trkpt lat="45.91118" lon="4.70192">
        <ele>215</ele>
        <time>2018-04-07T10:26:00Z</time>
      </trkpt>
      <trkpt lat="45.91126" lon="4.70195">
        <ele>215</ele>
        <time>2018-04-07T10:26:01Z</time>
      </trkpt>
      <trkpt lat="45.91135" lon="4.70196">
        <ele>215</ele>
        <time>2018-04-07T10:26:02Z</time>
      </trkpt>
      <trkpt lat="45.91143" lon="4.70198">
        <ele>215</ele>
        <time>2018-04-07T10:26:03Z</time>
      </trkpt>
      <trkpt lat="45.91151" lon="4.70199">
        <ele>215</ele>
        <time>2018-04-07T10:26:04Z</time>
      </trkpt>
      <trkpt lat="45.91158" lon="4.70203">
        <ele>215</ele>
        <time>2018-04-07T10:26:05Z</time>
      </trkpt>
      <trkpt lat="45.91166" lon="4.70205">
        <ele>215</ele>
        <time>2018-04-07T10:26:06Z</time>
      </trkpt>
      <trkpt lat="45.91174" lon="4.70208">
        <ele>214</ele>
        <time>2018-04-07T10:26:07Z</time>
      </trkpt>
      <trkpt lat="45.91182" lon="4.7021">
        <ele>214</ele>
        <time>2018-04-07T10:26:08Z</time>
      </trkpt>
      <trkpt lat="45.91191" lon="4.70211">
        <ele>214</ele>
        <time>2018-04-07T10:26:09Z</time>
      </trkpt>
      <trkpt lat="45.91197" lon="4.70215">
        <ele>214</ele>
        <time>2018-04-07T10:26:10Z</time>
      </trkpt>
      <trkpt lat="45.91204" lon="4.70218">
        <ele>214</ele>
        <time>2018-04-07T10:26:11Z</time>
      </trkpt>
      <trkpt lat="45.91211" lon="4.7022">
        <ele>214</ele>
        <time>2018-04-07T10:26:12Z</time>
      </trkpt>
      <trkpt lat="45.91219" lon="4.70222">
        <ele>213</ele>
        <time>2018-04-07T10:26:13Z</time>
      </trkpt>
      <trkpt lat="45.91228" lon="4.70223">
        <ele>213</ele>
        <time>2018-04-07T10:26:14Z</time>
      </trkpt>
      <trkpt lat="45.91236" lon="4.70227">
        <ele>213</ele>
        <time>2018-04-07T10:26:15Z</time>
      </trkpt>
      <trkpt lat="45.91243" lon="4.70229">
        <ele>213</ele>
        <time>2018-04-07T10:26:16Z</time>
      </trkpt>
      <trkpt lat="45.91253" lon="4.70233">
        <ele>213</ele>
        <time>2018-04-07T10:26:17Z</time>
      </trkpt>
      <trkpt lat="45.91262" lon="4.70236">
        <ele>213</ele>
        <time>2018-04-07T10:26:18Z</time>
      </trkpt>
      <trkpt lat="45.91271" lon="4.70238">
        <ele>213</ele>
        <time>2018-04-07T10:26:19Z</time>
      </trkpt>
      <trkpt lat="45.91278" lon="4.70241">
        <ele>213</ele>
        <time>2018-04-07T10:26:20Z</time>
      </trkpt>
      <trkpt lat="45.91286" lon="4.70244">
        <ele>214</ele>
        <time>2018-04-07T10:26:21Z</time>
      </trkpt>
      <trkpt lat="45.91293" lon="4.70244">
        <ele>214</ele>
        <time>2018-04-07T10:26:22Z</time>
      </trkpt>
      <trkpt lat="45.91302" lon="4.70248">
        <ele>214</ele>
        <time>2018-04-07T10:26:23Z</time>
      </trkpt>
      <trkpt lat="45.9131" lon="4.7025">
        <ele>210</ele>
        <time>2018-04-07T10:26:24Z</time>
      </trkpt>
      <trkpt lat="45.91318" lon="4.70254">
        <ele>211</ele>
        <time>2018-04-07T10:26:25Z</time>
      </trkpt>
      <trkpt lat="45.91324" lon="4.70258">
        <ele>211</ele>
        <time>2018-04-07T10:26:26Z</time>
      </trkpt>
      <trkpt lat="45.91332" lon="4.70261">
        <ele>211</ele>
        <time>2018-04-07T10:26:27Z</time>
      </trkpt>
      <trkpt lat="45.91339" lon="4.70265">
        <ele>211</ele>
        <time>2018-04-07T10:26:28Z</time>
      </trkpt>
      <trkpt lat="45.91347" lon="4.70274">
        <ele>210</ele>
        <time>2018-04-07T10:26:29Z</time>
      </trkpt>
      <trkpt lat="45.91353" lon="4.70279">
        <ele>210</ele>
        <time>2018-04-07T10:26:30Z</time>
      </trkpt>
      <trkpt lat="45.91361" lon="4.70286">
        <ele>210</ele>
        <time>2018-04-07T10:26:31Z</time>
      </trkpt>
      <trkpt lat="45.91368" lon="4.70292">
        <ele>210</ele>
        <time>2018-04-07T10:26:32Z</time>
      </trkpt>
      <trkpt lat="45.91375" lon="4.70297">
        <ele>209</ele>
        <time>2018-04-07T10:26:33Z</time>
      </trkpt>
      <trkpt lat="45.91381" lon="4.70304">
        <ele>209</ele>
        <time>2018-04-07T10:26:34Z</time>
      </trkpt>
      <trkpt lat="45.91387" lon="4.7031">
        <ele>209</ele>
        <time>2018-04-07T10:26:35Z</time>
      </trkpt>
      <trkpt lat="45.91394" lon="4.70316">
        <ele>209</ele>
        <time>2018-04-07T10:26:36Z</time>
      </trkpt>
      <trkpt lat="45.914" lon="4.70322">
        <ele>209</ele>
        <time>2018-04-07T10:26:37Z</time>
      </trkpt>
      <trkpt lat="45.91407" lon="4.70327">
        <ele>209</ele>
        <time>2018-04-07T10:26:38Z</time>
      </trkpt>
      <trkpt lat="45.91415" lon="4.70333">
        <ele>208</ele>
        <time>2018-04-07T10:26:39Z</time>
      </trkpt>
      <trkpt lat="45.91422" lon="4.70338">
        <ele>208</ele>
        <time>2018-04-07T10:26:40Z</time>
      </trkpt>
      <trkpt lat="45.91428" lon="4.70345">
        <ele>207</ele>
        <time>2018-04-07T10:26:41Z</time>
      </trkpt>
      <trkpt lat="45.91434" lon="4.70351">
        <ele>207</ele>
        <time>2018-04-07T10:26:42Z</time>
      </trkpt>
      <trkpt lat="45.91441" lon="4.70357">
        <ele>207</ele>
        <time>2018-04-07T10:26:43Z</time>
      </trkpt>
      <trkpt lat="45.91448" lon="4.70362">
        <ele>206</ele>
        <time>2018-04-07T10:26:44Z</time>
      </trkpt>
      <trkpt lat="45.91457" lon="4.70368">
        <ele>206</ele>
        <time>2018-04-07T10:26:45Z</time>
      </trkpt>
      <trkpt lat="45.91463" lon="4.70373">
        <ele>206</ele>
        <time>2018-04-07T10:26:46Z</time>
      </trkpt>
      <trkpt lat="45.9147" lon="4.70378">
        <ele>206</ele>
        <time>2018-04-07T10:26:47Z</time>
      </trkpt>
      <trkpt lat="45.91477" lon="4.70383">
        <ele>206</ele>
        <time>2018-04-07T10:26:48Z</time>
      </trkpt>
      <trkpt lat="45.91484" lon="4.70388">
        <ele>205</ele>
        <time>2018-04-07T10:26:49Z</time>
      </trkpt>
      <trkpt lat="45.9149" lon="4.70393">
        <ele>205</ele>
        <time>2018-04-07T10:26:50Z</time>
      </trkpt>
      <trkpt lat="45.91496" lon="4.70399">
        <ele>205</ele>
        <time>2018-04-07T10:26:51Z</time>
      </trkpt>
      <trkpt lat="45.91502" lon="4.70405">
        <ele>205</ele>
        <time>2018-04-07T10:26:52Z</time>
      </trkpt>
      <trkpt lat="45.91509" lon="4.7041">
        <ele>204</ele>
        <time>2018-04-07T10:26:53Z</time>
      </trkpt>
      <trkpt lat="45.91515" lon="4.70415">
        <ele>205</ele>
        <time>2018-04-07T10:26:54Z</time>
      </trkpt>
      <trkpt lat="45.91522" lon="4.7042">
        <ele>203</ele>
        <time>2018-04-07T10:26:55Z</time>
      </trkpt>
      <trkpt lat="45.9153" lon="4.70423">
        <ele>203</ele>
        <time>2018-04-07T10:26:56Z</time>
      </trkpt>
      <trkpt lat="45.91537" lon="4.70428">
        <ele>203</ele>
        <time>2018-04-07T10:26:57Z</time>
      </trkpt>
      <trkpt lat="45.91544" lon="4.70434">
        <ele>203</ele>
        <time>2018-04-07T10:26:58Z</time>
      </trkpt>
      <trkpt lat="45.91552" lon="4.70442">
        <ele>203</ele>
        <time>2018-04-07T10:26:59Z</time>
      </trkpt>
      <trkpt lat="45.91559" lon="4.70448">
        <ele>203</ele>
        <time>2018-04-07T10:27:00Z</time>
      </trkpt>
      <trkpt lat="45.91566" lon="4.70454">
        <ele>203</ele>
        <time>2018-04-07T10:27:01Z</time>
      </trkpt>
      <trkpt lat="45.91573" lon="4.70459">
        <ele>203</ele>
        <time>2018-04-07T10:27:02Z</time>
      </trkpt>
      <trkpt lat="45.9158" lon="4.70465">
        <ele>203</ele>
        <time>2018-04-07T10:27:03Z</time>
      </trkpt>
      <trkpt lat="45.91586" lon="4.70469">
        <ele>203</ele>
        <time>2018-04-07T10:27:04Z</time>
      </trkpt>
      <trkpt lat="45.91594" lon="4.70474">
        <ele>202</ele>
        <time>2018-04-07T10:27:05Z</time>
      </trkpt>
      <trkpt lat="45.91601" lon="4.70481">
        <ele>202</ele>
        <time>2018-04-07T10:27:06Z</time>
      </trkpt>
      <trkpt lat="45.91608" lon="4.70486">
        <ele>202</ele>
        <time>2018-04-07T10:27:07Z</time>
      </trkpt>
      <trkpt lat="45.91615" lon="4.70491">
        <ele>202</ele>
        <time>2018-04-07T10:27:08Z</time>
      </trkpt>
      <trkpt lat="45.91623" lon="4.70497">
        <ele>202</ele>
        <time>2018-04-07T10:27:09Z</time>
      </trkpt>
      <trkpt lat="45.9163" lon="4.70504">
        <ele>199</ele>
        <time>2018-04-07T10:27:10Z</time>
      </trkpt>
      <trkpt lat="45.91638" lon="4.7051">
        <ele>199</ele>
        <time>2018-04-07T10:27:11Z</time>
      </trkpt>
      <trkpt lat="45.91645" lon="4.70517">
        <ele>199</ele>
        <time>2018-04-07T10:27:12Z</time>
      </trkpt>
      <trkpt lat="45.91652" lon="4.70523">
        <ele>199</ele>
        <time>2018-04-07T10:27:13Z</time>
      </trkpt>
      <trkpt lat="45.91659" lon="4.70531">
        <ele>198</ele>
        <time>2018-04-07T10:27:14Z</time>
      </trkpt>
      <trkpt lat="45.91666" lon="4.70535">
        <ele>198</ele>
        <time>2018-04-07T10:27:15Z</time>
      </trkpt>
      <trkpt lat="45.91673" lon="4.70541">
        <ele>198</ele>
        <time>2018-04-07T10:27:16Z</time>
      </trkpt>
      <trkpt lat="45.9168" lon="4.70547">
        <ele>198</ele>
        <time>2018-04-07T10:27:17Z</time>
      </trkpt>
      <trkpt lat="45.91687" lon="4.70553">
        <ele>198</ele>
        <time>2018-04-07T10:27:18Z</time>
      </trkpt>
      <trkpt lat="45.91693" lon="4.7056">
        <ele>198</ele>
        <time>2018-04-07T10:27:19Z</time>
      </trkpt>
      <trkpt lat="45.91699" lon="4.70567">
        <ele>197</ele>
        <time>2018-04-07T10:27:20Z</time>
      </trkpt>
      <trkpt lat="45.91705" lon="4.70575">
        <ele>197</ele>
        <time>2018-04-07T10:27:21Z</time>
      </trkpt>
      <trkpt lat="45.91709" lon="4.70583">
        <ele>197</ele>
        <time>2018-04-07T10:27:22Z</time>
      </trkpt>
      <trkpt lat="45.91714" lon="4.7059">
        <ele>195</ele>
        <time>2018-04-07T10:27:23Z</time>
      </trkpt>
      <trkpt lat="45.91721" lon="4.70593">
        <ele>195</ele>
        <time>2018-04-07T10:27:24Z</time>
      </trkpt>
      <trkpt lat="45.91727" lon="4.70593">
        <ele>195</ele>
        <time>2018-04-07T10:27:25Z</time>
      </trkpt>
      <trkpt lat="45.91735" lon="4.70593">
        <ele>196</ele>
        <time>2018-04-07T10:27:26Z</time>
      </trkpt>
      <trkpt lat="45.91742" lon="4.70593">
        <ele>196</ele>
        <time>2018-04-07T10:27:27Z</time>
      </trkpt>
      <trkpt lat="45.9175" lon="4.70596">
        <ele>196</ele>
        <time>2018-04-07T10:27:28Z</time>
      </trkpt>
      <trkpt lat="45.91758" lon="4.70599">
        <ele>195</ele>
        <time>2018-04-07T10:27:29Z</time>
      </trkpt>
      <trkpt lat="45.91765" lon="4.70603">
        <ele>195</ele>
        <time>2018-04-07T10:27:30Z</time>
      </trkpt>
      <trkpt lat="45.91772" lon="4.70607">
        <ele>195</ele>
        <time>2018-04-07T10:27:31Z</time>
      </trkpt>
      <trkpt lat="45.9178" lon="4.7061">
        <ele>195</ele>
        <time>2018-04-07T10:27:32Z</time>
      </trkpt>
      <trkpt lat="45.91787" lon="4.70612">
        <ele>194</ele>
        <time>2018-04-07T10:27:33Z</time>
      </trkpt>
      <trkpt lat="45.91796" lon="4.70613">
        <ele>194</ele>
        <time>2018-04-07T10:27:34Z</time>
      </trkpt>
      <trkpt lat="45.91803" lon="4.70614">
        <ele>194</ele>
        <time>2018-04-07T10:27:35Z</time>
      </trkpt>
      <trkpt lat="45.9181" lon="4.70615">
        <ele>194</ele>
        <time>2018-04-07T10:27:36Z</time>
      </trkpt>
      <trkpt lat="45.91818" lon="4.70616">
        <ele>194</ele>
        <time>2018-04-07T10:27:37Z</time>
      </trkpt>
      <trkpt lat="45.91825" lon="4.70617">
        <ele>194</ele>
        <time>2018-04-07T10:27:38Z</time>
      </trkpt>
      <trkpt lat="45.91833" lon="4.70617">
        <ele>194</ele>
        <time>2018-04-07T10:27:39Z</time>
      </trkpt>
      <trkpt lat="45.91841" lon="4.70618">
        <ele>194</ele>
        <time>2018-04-07T10:27:40Z</time>
      </trkpt>
      <trkpt lat="45.91849" lon="4.70617">
        <ele>194</ele>
        <time>2018-04-07T10:27:41Z</time>
      </trkpt>
      <trkpt lat="45.91856" lon="4.70617">
        <ele>194</ele>
        <time>2018-04-07T10:27:42Z</time>
      </trkpt>
      <trkpt lat="45.91864" lon="4.70617">
        <ele>194</ele>
        <time>2018-04-07T10:27:43Z</time>
      </trkpt>
      <trkpt lat="45.91871" lon="4.70617">
        <ele>194</ele>
        <time>2018-04-07T10:27:44Z</time>
      </trkpt>
      <trkpt lat="45.91878" lon="4.70617">
        <ele>194</ele>
        <time>2018-04-07T10:27:45Z</time>
      </trkpt>
      <trkpt lat="45.91885" lon="4.70617">
        <ele>194</ele>
        <time>2018-04-07T10:27:46Z</time>
      </trkpt>
      <trkpt lat="45.91892" lon="4.70617">
        <ele>194</ele>
        <time>2018-04-07T10:27:47Z</time>
      </trkpt>
      <trkpt lat="45.91899" lon="4.70616">
        <ele>194</ele>
        <time>2018-04-07T10:27:48Z</time>
      </trkpt>
      <trkpt lat="45.91905" lon="4.70616">
        <ele>194</ele>
        <time>2018-04-07T10:27:49Z</time>
      </trkpt>
      <trkpt lat="45.91913" lon="4.70616">
        <ele>194</ele>
        <time>2018-04-07T10:27:50Z</time>
      </trkpt>
      <trkpt lat="45.91919" lon="4.70614">
        <ele>194</ele>
        <time>2018-04-07T10:27:51Z</time>
      </trkpt>
      <trkpt lat="45.91927" lon="4.70614">
        <ele>194</ele>
        <time>2018-04-07T10:27:52Z</time>
      </trkpt>
      <trkpt lat="45.91934" lon="4.70614">
        <ele>194</ele>
        <time>2018-04-07T10:27:53Z</time>
      </trkpt>
      <trkpt lat="45.91941" lon="4.70613">
        <ele>194</ele>
        <time>2018-04-07T10:27:54Z</time>
      </trkpt>
      <trkpt lat="45.91949" lon="4.70612">
        <ele>194</ele>
        <time>2018-04-07T10:27:55Z</time>
      </trkpt>
      <trkpt lat="45.91956" lon="4.7061">
        <ele>194</ele>
        <time>2018-04-07T10:27:56Z</time>
      </trkpt>
      <trkpt lat="45.91964" lon="4.70609">
        <ele>194</ele>
        <time>2018-04-07T10:27:57Z</time>
      </trkpt>
      <trkpt lat="45.91971" lon="4.70607">
        <ele>194</ele>
        <time>2018-04-07T10:27:58Z</time>
      </trkpt>
      <trkpt lat="45.91979" lon="4.70607">
        <ele>194</ele>
        <time>2018-04-07T10:27:59Z</time>
      </trkpt>
      <trkpt lat="45.91986" lon="4.70605">
        <ele>194</ele>
        <time>2018-04-07T10:28:00Z</time>
      </trkpt>
      <trkpt lat="45.91994" lon="4.70604">
        <ele>194</ele>
        <time>2018-04-07T10:28:01Z</time>
      </trkpt>
      <trkpt lat="45.92" lon="4.70603">
        <ele>194</ele>
        <time>2018-04-07T10:28:02Z</time>
      </trkpt>
      <trkpt lat="45.92009" lon="4.70603">
        <ele>194</ele>
        <time>2018-04-07T10:28:03Z</time>
      </trkpt>
      <trkpt lat="45.92016" lon="4.70602">
        <ele>194</ele>
        <time>2018-04-07T10:28:04Z</time>
      </trkpt>
      <trkpt lat="45.92023" lon="4.70602">
        <ele>194</ele>
        <time>2018-04-07T10:28:05Z</time>
      </trkpt>
      <trkpt lat="45.92031" lon="4.706">
        <ele>194</ele>
        <time>2018-04-07T10:28:06Z</time>
      </trkpt>
      <trkpt lat="45.92039" lon="4.706">
        <ele>193</ele>
        <time>2018-04-07T10:28:07Z</time>
      </trkpt>
      <trkpt lat="45.92046" lon="4.706">
        <ele>193</ele>
        <time>2018-04-07T10:28:08Z</time>
      </trkpt>
      <trkpt lat="45.92054" lon="4.70599">
        <ele>193</ele>
        <time>2018-04-07T10:28:09Z</time>
      </trkpt>
      <trkpt lat="45.92061" lon="4.70599">
        <ele>193</ele>
        <time>2018-04-07T10:28:10Z</time>
      </trkpt>
      <trkpt lat="45.92069" lon="4.70598">
        <ele>193</ele>
        <time>2018-04-07T10:28:11Z</time>
      </trkpt>
      <trkpt lat="45.92077" lon="4.70598">
        <ele>194</ele>
        <time>2018-04-07T10:28:12Z</time>
      </trkpt>
      <trkpt lat="45.92085" lon="4.70596">
        <ele>193</ele>
        <time>2018-04-07T10:28:13Z</time>
      </trkpt>
      <trkpt lat="45.92092" lon="4.70595">
        <ele>193</ele>
        <time>2018-04-07T10:28:14Z</time>
      </trkpt>
      <trkpt lat="45.921" lon="4.70595">
        <ele>192</ele>
        <time>2018-04-07T10:28:15Z</time>
      </trkpt>
      <trkpt lat="45.92107" lon="4.70595">
        <ele>192</ele>
        <time>2018-04-07T10:28:16Z</time>
      </trkpt>
      <trkpt lat="45.92114" lon="4.70594">
        <ele>192</ele>
        <time>2018-04-07T10:28:17Z</time>
      </trkpt>
      <trkpt lat="45.92122" lon="4.70592">
        <ele>191</ele>
        <time>2018-04-07T10:28:18Z</time>
      </trkpt>
      <trkpt lat="45.9213" lon="4.70591">
        <ele>191</ele>
        <time>2018-04-07T10:28:19Z</time>
      </trkpt>
      <trkpt lat="45.92138" lon="4.70591">
        <ele>191</ele>
        <time>2018-04-07T10:28:20Z</time>
      </trkpt>
      <trkpt lat="45.92146" lon="4.70589">
        <ele>191</ele>
        <time>2018-04-07T10:28:21Z</time>
      </trkpt>
      <trkpt lat="45.92153" lon="4.70589">
        <ele>190</ele>
        <time>2018-04-07T10:28:22Z</time>
      </trkpt>
      <trkpt lat="45.92161" lon="4.70589">
        <ele>190</ele>
        <time>2018-04-07T10:28:23Z</time>
      </trkpt>
      <trkpt lat="45.92167" lon="4.70589">
        <ele>190</ele>
        <time>2018-04-07T10:28:24Z</time>
      </trkpt>
      <trkpt lat="45.92174" lon="4.7059">
        <ele>191</ele>
        <time>2018-04-07T10:28:25Z</time>
      </trkpt>
      <trkpt lat="45.92181" lon="4.70591">
        <ele>191</ele>
        <time>2018-04-07T10:28:26Z</time>
      </trkpt>
      <trkpt lat="45.92188" lon="4.70592">
        <ele>191</ele>
        <time>2018-04-07T10:28:27Z</time>
      </trkpt>
      <trkpt lat="45.92194" lon="4.70592">
        <ele>192</ele>
        <time>2018-04-07T10:28:28Z</time>
      </trkpt>
      <trkpt lat="45.92201" lon="4.70593">
        <ele>192</ele>
        <time>2018-04-07T10:28:29Z</time>
      </trkpt>
      <trkpt lat="45.92207" lon="4.70595">
        <ele>192</ele>
        <time>2018-04-07T10:28:30Z</time>
      </trkpt>
      <trkpt lat="45.92213" lon="4.70596">
        <ele>193</ele>
        <time>2018-04-07T10:28:31Z</time>
      </trkpt>
      <trkpt lat="45.92219" lon="4.70597">
        <ele>193</ele>
        <time>2018-04-07T10:28:32Z</time>
      </trkpt>
      <trkpt lat="45.92226" lon="4.70597">
        <ele>193</ele>
        <time>2018-04-07T10:28:33Z</time>
      </trkpt>
      <trkpt lat="45.92234" lon="4.70598">
        <ele>194</ele>
        <time>2018-04-07T10:28:34Z</time>
      </trkpt>
      <trkpt lat="45.9224" lon="4.706">
        <ele>194</ele>
        <time>2018-04-07T10:28:35Z</time>
      </trkpt>
      <trkpt lat="45.92247" lon="4.70601">
        <ele>194</ele>
        <time>2018-04-07T10:28:36Z</time>
      </trkpt>
      <trkpt lat="45.92254" lon="4.70603">
        <ele>196</ele>
        <time>2018-04-07T10:28:37Z</time>
      </trkpt>
      <trkpt lat="45.9226" lon="4.70606">
        <ele>196</ele>
        <time>2018-04-07T10:28:38Z</time>
      </trkpt>
      <trkpt lat="45.92266" lon="4.70609">
        <ele>196</ele>
        <time>2018-04-07T10:28:39Z</time>
      </trkpt>
      <trkpt lat="45.92271" lon="4.70613">
        <ele>196</ele>
        <time>2018-04-07T10:28:40Z</time>
      </trkpt>
      <trkpt lat="45.92277" lon="4.70616">
        <ele>196</ele>
        <time>2018-04-07T10:28:41Z</time>
      </trkpt>
      <trkpt lat="45.92282" lon="4.70619">
        <ele>196</ele>
        <time>2018-04-07T10:28:42Z</time>
      </trkpt>
      <trkpt lat="45.92288" lon="4.70622">
        <ele>196</ele>
        <time>2018-04-07T10:28:43Z</time>
      </trkpt>
      <trkpt lat="45.92294" lon="4.70624">
        <ele>196</ele>
        <time>2018-04-07T10:28:44Z</time>
      </trkpt>
      <trkpt lat="45.923" lon="4.70627">
        <ele>196</ele>
        <time>2018-04-07T10:28:45Z</time>
      </trkpt>
      <trkpt lat="45.92306" lon="4.7063">
        <ele>196</ele>
        <time>2018-04-07T10:28:46Z</time>
      </trkpt>
      <trkpt lat="45.92316" lon="4.70635">
        <ele>196</ele>
        <time>2018-04-07T10:28:47Z</time>
      </trkpt>
      <trkpt lat="45.92321" lon="4.70639">
        <ele>196</ele>
        <time>2018-04-07T10:28:48Z</time>
      </trkpt>
      <trkpt lat="45.92326" lon="4.70642">
        <ele>196</ele>
        <time>2018-04-07T10:28:49Z</time>
      </trkpt>
      <trkpt lat="45.92333" lon="4.70646">
        <ele>196</ele>
        <time>2018-04-07T10:28:50Z</time>
      </trkpt>
      <trkpt lat="45.92338" lon="4.70649">
        <ele>196</ele>
        <time>2018-04-07T10:28:51Z</time>
      </trkpt>
      <trkpt lat="45.92344" lon="4.70652">
        <ele>196</ele>
        <time>2018-04-07T10:28:52Z</time>
      </trkpt>
      <trkpt lat="45.92349" lon="4.70655">
        <ele>196</ele>
        <time>2018-04-07T10:28:53Z</time>
      </trkpt>
      <trkpt lat="45.92355" lon="4.70658">
        <ele>196</ele>
        <time>2018-04-07T10:28:54Z</time>
      </trkpt>
      <trkpt lat="45.9236" lon="4.70661">
        <ele>196</ele>
        <time>2018-04-07T10:28:55Z</time>
      </trkpt>
      <trkpt lat="45.92366" lon="4.70664">
        <ele>196</ele>
        <time>2018-04-07T10:28:56Z</time>
      </trkpt>
      <trkpt lat="45.92371" lon="4.70666">
        <ele>196</ele>
        <time>2018-04-07T10:28:57Z</time>
      </trkpt>
      <trkpt lat="45.92376" lon="4.70669">
        <ele>194</ele>
        <time>2018-04-07T10:28:58Z</time>
      </trkpt>
      <trkpt lat="45.92383" lon="4.70674">
        <ele>194</ele>
        <time>2018-04-07T10:28:59Z</time>
      </trkpt>
      <trkpt lat="45.92388" lon="4.70677">
        <ele>194</ele>
        <time>2018-04-07T10:29:00Z</time>
      </trkpt>
      <trkpt lat="45.92394" lon="4.70681">
        <ele>194</ele>
        <time>2018-04-07T10:29:01Z</time>
      </trkpt>
      <trkpt lat="45.924" lon="4.70684">
        <ele>194</ele>
        <time>2018-04-07T10:29:02Z</time>
      </trkpt>
      <trkpt lat="45.92406" lon="4.70688">
        <ele>194</ele>
        <time>2018-04-07T10:29:03Z</time>
      </trkpt>
      <trkpt lat="45.92412" lon="4.7069">
        <ele>194</ele>
        <time>2018-04-07T10:29:04Z</time>
      </trkpt>
      <trkpt lat="45.92419" lon="4.70693">
        <ele>195</ele>
        <time>2018-04-07T10:29:05Z</time>
      </trkpt>
      <trkpt lat="45.92425" lon="4.70696">
        <ele>195</ele>
        <time>2018-04-07T10:29:06Z</time>
      </trkpt>
      <trkpt lat="45.9243" lon="4.70699">
        <ele>195</ele>
        <time>2018-04-07T10:29:07Z</time>
      </trkpt>
      <trkpt lat="45.92434" lon="4.70701">
        <ele>194</ele>
        <time>2018-04-07T10:29:08Z</time>
      </trkpt>
      <trkpt lat="45.9244" lon="4.70705">
        <ele>194</ele>
        <time>2018-04-07T10:29:09Z</time>
      </trkpt>
      <trkpt lat="45.92446" lon="4.70709">
        <ele>194</ele>
        <time>2018-04-07T10:29:10Z</time>
      </trkpt>
      <trkpt lat="45.92452" lon="4.70713">
        <ele>194</ele>
        <time>2018-04-07T10:29:11Z</time>
      </trkpt>
      <trkpt lat="45.92458" lon="4.70717">
        <ele>194</ele>
        <time>2018-04-07T10:29:12Z</time>
      </trkpt>
      <trkpt lat="45.92464" lon="4.7072">
        <ele>194</ele>
        <time>2018-04-07T10:29:13Z</time>
      </trkpt>
      <trkpt lat="45.92469" lon="4.70723">
        <ele>194</ele>
        <time>2018-04-07T10:29:14Z</time>
      </trkpt>
      <trkpt lat="45.92475" lon="4.70727">
        <ele>194</ele>
        <time>2018-04-07T10:29:15Z</time>
      </trkpt>
      <trkpt lat="45.92482" lon="4.7073">
        <ele>194</ele>
        <time>2018-04-07T10:29:16Z</time>
      </trkpt>
      <trkpt lat="45.92487" lon="4.70733">
        <ele>194</ele>
        <time>2018-04-07T10:29:17Z</time>
      </trkpt>
      <trkpt lat="45.92493" lon="4.70736">
        <ele>194</ele>
        <time>2018-04-07T10:29:18Z</time>
      </trkpt>
      <trkpt lat="45.92498" lon="4.70739">
        <ele>194</ele>
        <time>2018-04-07T10:29:19Z</time>
      </trkpt>
      <trkpt lat="45.92504" lon="4.70742">
        <ele>195</ele>
        <time>2018-04-07T10:29:20Z</time>
      </trkpt>
      <trkpt lat="45.92509" lon="4.70746">
        <ele>195</ele>
        <time>2018-04-07T10:29:21Z</time>
      </trkpt>
      <trkpt lat="45.92514" lon="4.70749">
        <ele>195</ele>
        <time>2018-04-07T10:29:22Z</time>
      </trkpt>
      <trkpt lat="45.92519" lon="4.70752">
        <ele>195</ele>
        <time>2018-04-07T10:29:23Z</time>
      </trkpt>
      <trkpt lat="45.92524" lon="4.70755">
        <ele>195</ele>
        <time>2018-04-07T10:29:24Z</time>
      </trkpt>
      <trkpt lat="45.92529" lon="4.70759">
        <ele>195</ele>
        <time>2018-04-07T10:29:25Z</time>
      </trkpt>
      <trkpt lat="45.92534" lon="4.70762">
        <ele>195</ele>
        <time>2018-04-07T10:29:26Z</time>
      </trkpt>
      <trkpt lat="45.92538" lon="4.70763">
        <ele>195</ele>
        <time>2018-04-07T10:29:27Z</time>
      </trkpt>
      <trkpt lat="45.92542" lon="4.70766">
        <ele>195</ele>
        <time>2018-04-07T10:29:28Z</time>
      </trkpt>
      <trkpt lat="45.92547" lon="4.70769">
        <ele>195</ele>
        <time>2018-04-07T10:29:29Z</time>
      </trkpt>
      <trkpt lat="45.92551" lon="4.70773">
        <ele>196</ele>
        <time>2018-04-07T10:29:30Z</time>
      </trkpt>
      <trkpt lat="45.92556" lon="4.70777">
        <ele>196</ele>
        <time>2018-04-07T10:29:31Z</time>
      </trkpt>
      <trkpt lat="45.9256" lon="4.7078">
        <ele>196</ele>
        <time>2018-04-07T10:29:32Z</time>
      </trkpt>
      <trkpt lat="45.92565" lon="4.70783">
        <ele>196</ele>
        <time>2018-04-07T10:29:33Z</time>
      </trkpt>
      <trkpt lat="45.92571" lon="4.70787">
        <ele>196</ele>
        <time>2018-04-07T10:29:34Z</time>
      </trkpt>
      <trkpt lat="45.92575" lon="4.7079">
        <ele>196</ele>
        <time>2018-04-07T10:29:35Z</time>
      </trkpt>
      <trkpt lat="45.9258" lon="4.70794">
        <ele>196</ele>
        <time>2018-04-07T10:29:36Z</time>
      </trkpt>
      <trkpt lat="45.92584" lon="4.70797">
        <ele>198</ele>
        <time>2018-04-07T10:29:37Z</time>
      </trkpt>
      <trkpt lat="45.92589" lon="4.70801">
        <ele>198</ele>
        <time>2018-04-07T10:29:38Z</time>
      </trkpt>
      <trkpt lat="45.92593" lon="4.70805">
        <ele>198</ele>
        <time>2018-04-07T10:29:39Z</time>
      </trkpt>
      <trkpt lat="45.92597" lon="4.70808">
        <ele>198</ele>
        <time>2018-04-07T10:29:40Z</time>
      </trkpt>
      <trkpt lat="45.92601" lon="4.70812">
        <ele>198</ele>
        <time>2018-04-07T10:29:41Z</time>
      </trkpt>
      <trkpt lat="45.92605" lon="4.70815">
        <ele>198</ele>
        <time>2018-04-07T10:29:42Z</time>
      </trkpt>
      <trkpt lat="45.92609" lon="4.7082">
        <ele>198</ele>
        <time>2018-04-07T10:29:43Z</time>
      </trkpt>
      <trkpt lat="45.92613" lon="4.70824">
        <ele>198</ele>
        <time>2018-04-07T10:29:44Z</time>
      </trkpt>
      <trkpt lat="45.92618" lon="4.70827">
        <ele>199</ele>
        <time>2018-04-07T10:29:45Z</time>
      </trkpt>
      <trkpt lat="45.92622" lon="4.7083">
        <ele>199</ele>
        <time>2018-04-07T10:29:46Z</time>
      </trkpt>
      <trkpt lat="45.92627" lon="4.70834">
        <ele>198</ele>
        <time>2018-04-07T10:29:47Z</time>
      </trkpt>
      <trkpt lat="45.9263" lon="4.70838">
        <ele>198</ele>
        <time>2018-04-07T10:29:48Z</time>
      </trkpt>
      <trkpt lat="45.92634" lon="4.70843">
        <ele>198</ele>
        <time>2018-04-07T10:29:49Z</time>
      </trkpt>
      <trkpt lat="45.92638" lon="4.70847">
        <ele>198</ele>
        <time>2018-04-07T10:29:50Z</time>
      </trkpt>
      <trkpt lat="45.92643" lon="4.70851">
        <ele>198</ele>
        <time>2018-04-07T10:29:51Z</time>
      </trkpt>
      <trkpt lat="45.92646" lon="4.70855">
        <ele>198</ele>
        <time>2018-04-07T10:29:52Z</time>
      </trkpt>
      <trkpt lat="45.9265" lon="4.70859">
        <ele>198</ele>
        <time>2018-04-07T10:29:53Z</time>
      </trkpt>
      <trkpt lat="45.92656" lon="4.70867">
        <ele>198</ele>
        <time>2018-04-07T10:29:55Z</time>
      </trkpt>
      <trkpt lat="45.9266" lon="4.70872">
        <ele>198</ele>
        <time>2018-04-07T10:29:56Z</time>
      </trkpt>
      <trkpt lat="45.92665" lon="4.70877">
        <ele>197</ele>
        <time>2018-04-07T10:29:57Z</time>
      </trkpt>
      <trkpt lat="45.92669" lon="4.70881">
        <ele>198</ele>
        <time>2018-04-07T10:29:58Z</time>
      </trkpt>
      <trkpt lat="45.92673" lon="4.70885">
        <ele>198</ele>
        <time>2018-04-07T10:29:59Z</time>
      </trkpt>
      <trkpt lat="45.92679" lon="4.70889">
        <ele>198</ele>
        <time>2018-04-07T10:30:00Z</time>
      </trkpt>
      <trkpt lat="45.92683" lon="4.70893">
        <ele>198</ele>
        <time>2018-04-07T10:30:01Z</time>
      </trkpt>
      <trkpt lat="45.92688" lon="4.70896">
        <ele>197</ele>
        <time>2018-04-07T10:30:02Z</time>
      </trkpt>
      <trkpt lat="45.92696" lon="4.70901">
        <ele>197</ele>
        <time>2018-04-07T10:30:04Z</time>
      </trkpt>
      <trkpt lat="45.927" lon="4.70904">
        <ele>197</ele>
        <time>2018-04-07T10:30:05Z</time>
      </trkpt>
      <trkpt lat="45.92705" lon="4.70907">
        <ele>197</ele>
        <time>2018-04-07T10:30:06Z</time>
      </trkpt>
      <trkpt lat="45.92709" lon="4.7091">
        <ele>197</ele>
        <time>2018-04-07T10:30:07Z</time>
      </trkpt>
      <trkpt lat="45.92714" lon="4.70911">
        <ele>197</ele>
        <time>2018-04-07T10:30:08Z</time>
      </trkpt>
      <trkpt lat="45.92718" lon="4.70914">
        <ele>197</ele>
        <time>2018-04-07T10:30:09Z</time>
      </trkpt>
      <trkpt lat="45.92724" lon="4.70916">
        <ele>197</ele>
        <time>2018-04-07T10:30:10Z</time>
      </trkpt>
      <trkpt lat="45.92729" lon="4.70918">
        <ele>195</ele>
        <time>2018-04-07T10:30:11Z</time>
      </trkpt>
      <trkpt lat="45.92734" lon="4.7092">
        <ele>195</ele>
        <time>2018-04-07T10:30:12Z</time>
      </trkpt>
      <trkpt lat="45.92739" lon="4.70922">
        <ele>195</ele>
        <time>2018-04-07T10:30:13Z</time>
      </trkpt>
      <trkpt lat="45.92745" lon="4.70923">
        <ele>195</ele>
        <time>2018-04-07T10:30:14Z</time>
      </trkpt>
      <trkpt lat="45.9275" lon="4.70921">
        <ele>196</ele>
        <time>2018-04-07T10:30:15Z</time>
      </trkpt>
      <trkpt lat="45.92755" lon="4.70922">
        <ele>196</ele>
        <time>2018-04-07T10:30:16Z</time>
      </trkpt>
      <trkpt lat="45.9276" lon="4.70923">
        <ele>196</ele>
        <time>2018-04-07T10:30:17Z</time>
      </trkpt>
      <trkpt lat="45.92765" lon="4.70924">
        <ele>196</ele>
        <time>2018-04-07T10:30:18Z</time>
      </trkpt>
      <trkpt lat="45.9277" lon="4.70924">
        <ele>196</ele>
        <time>2018-04-07T10:30:19Z</time>
      </trkpt>
      <trkpt lat="45.92775" lon="4.70925">
        <ele>196</ele>
        <time>2018-04-07T10:30:20Z</time>
      </trkpt>
      <trkpt lat="45.92779" lon="4.70926">
        <ele>196</ele>
        <time>2018-04-07T10:30:21Z</time>
      </trkpt>
      <trkpt lat="45.92788" lon="4.70927">
        <ele>196</ele>
        <time>2018-04-07T10:30:23Z</time>
      </trkpt>
      <trkpt lat="45.92793" lon="4.70929">
        <ele>196</ele>
        <time>2018-04-07T10:30:24Z</time>
      </trkpt>
      <trkpt lat="45.92799" lon="4.70931">
        <ele>196</ele>
        <time>2018-04-07T10:30:25Z</time>
      </trkpt>
      <trkpt lat="45.92804" lon="4.70934">
        <ele>197</ele>
        <time>2018-04-07T10:30:26Z</time>
      </trkpt>
      <trkpt lat="45.92808" lon="4.70937">
        <ele>197</ele>
        <time>2018-04-07T10:30:27Z</time>
      </trkpt>
      <trkpt lat="45.92813" lon="4.70942">
        <ele>197</ele>
        <time>2018-04-07T10:30:28Z</time>
      </trkpt>
      <trkpt lat="45.92818" lon="4.70944">
        <ele>197</ele>
        <time>2018-04-07T10:30:29Z</time>
      </trkpt>
      <trkpt lat="45.92824" lon="4.70943">
        <ele>197</ele>
        <time>2018-04-07T10:30:30Z</time>
      </trkpt>
      <trkpt lat="45.92829" lon="4.70941">
        <ele>197</ele>
        <time>2018-04-07T10:30:31Z</time>
      </trkpt>
      <trkpt lat="45.92834" lon="4.70939">
        <ele>198</ele>
        <time>2018-04-07T10:30:32Z</time>
      </trkpt>
      <trkpt lat="45.92839" lon="4.70937">
        <ele>198</ele>
        <time>2018-04-07T10:30:33Z</time>
      </trkpt>
      <trkpt lat="45.92844" lon="4.70937">
        <ele>198</ele>
        <time>2018-04-07T10:30:34Z</time>
      </trkpt>
      <trkpt lat="45.9285" lon="4.70939">
        <ele>198</ele>
        <time>2018-04-07T10:30:35Z</time>
      </trkpt>
      <trkpt lat="45.92856" lon="4.7094">
        <ele>198</ele>
        <time>2018-04-07T10:30:36Z</time>
      </trkpt>
      <trkpt lat="45.92861" lon="4.70943">
        <ele>198</ele>
        <time>2018-04-07T10:30:37Z</time>
      </trkpt>
      <trkpt lat="45.92868" lon="4.70943">
        <ele>198</ele>
        <time>2018-04-07T10:30:38Z</time>
      </trkpt>
      <trkpt lat="45.92874" lon="4.70945">
        <ele>198</ele>
        <time>2018-04-07T10:30:39Z</time>
      </trkpt>
      <trkpt lat="45.9288" lon="4.70946">
        <ele>198</ele>
        <time>2018-04-07T10:30:40Z</time>
      </trkpt>
      <trkpt lat="45.92887" lon="4.70948">
        <ele>198</ele>
        <time>2018-04-07T10:30:41Z</time>
      </trkpt>
      <trkpt lat="45.92893" lon="4.7095">
        <ele>198</ele>
        <time>2018-04-07T10:30:42Z</time>
      </trkpt>
      <trkpt lat="45.92899" lon="4.70953">
        <ele>198</ele>
        <time>2018-04-07T10:30:43Z</time>
      </trkpt>
      <trkpt lat="45.92906" lon="4.70955">
        <ele>198</ele>
        <time>2018-04-07T10:30:44Z</time>
      </trkpt>
      <trkpt lat="45.92914" lon="4.70956">
        <ele>198</ele>
        <time>2018-04-07T10:30:45Z</time>
      </trkpt>
      <trkpt lat="45.9292" lon="4.70957">
        <ele>198</ele>
        <time>2018-04-07T10:30:46Z</time>
      </trkpt>
      <trkpt lat="45.92927" lon="4.70959">
        <ele>198</ele>
        <time>2018-04-07T10:30:47Z</time>
      </trkpt>
      <trkpt lat="45.92934" lon="4.70961">
        <ele>198</ele>
        <time>2018-04-07T10:30:48Z</time>
      </trkpt>
      <trkpt lat="45.92942" lon="4.70962">
        <ele>198</ele>
        <time>2018-04-07T10:30:49Z</time>
      </trkpt>
      <trkpt lat="45.92949" lon="4.70963">
        <ele>198</ele>
        <time>2018-04-07T10:30:50Z</time>
      </trkpt>
      <trkpt lat="45.92956" lon="4.70964">
        <ele>198</ele>
        <time>2018-04-07T10:30:51Z</time>
      </trkpt>
      <trkpt lat="45.92965" lon="4.70966">
        <ele>198</ele>
        <time>2018-04-07T10:30:52Z</time>
      </trkpt>
      <trkpt lat="45.92971" lon="4.70968">
        <ele>198</ele>
        <time>2018-04-07T10:30:53Z</time>
      </trkpt>
      <trkpt lat="45.92978" lon="4.70969">
        <ele>198</ele>
        <time>2018-04-07T10:30:54Z</time>
      </trkpt>
      <trkpt lat="45.92984" lon="4.70972">
        <ele>198</ele>
        <time>2018-04-07T10:30:55Z</time>
      </trkpt>
      <trkpt lat="45.92992" lon="4.70975">
        <ele>198</ele>
        <time>2018-04-07T10:30:56Z</time>
      </trkpt>
      <trkpt lat="45.92999" lon="4.70977">
        <ele>198</ele>
        <time>2018-04-07T10:30:57Z</time>
      </trkpt>
      <trkpt lat="45.93006" lon="4.7098">
        <ele>198</ele>
        <time>2018-04-07T10:30:58Z</time>
      </trkpt>
      <trkpt lat="45.93012" lon="4.70982">
        <ele>198</ele>
        <time>2018-04-07T10:30:59Z</time>
      </trkpt>
      <trkpt lat="45.93019" lon="4.70985">
        <ele>198</ele>
        <time>2018-04-07T10:31:00Z</time>
      </trkpt>
      <trkpt lat="45.93025" lon="4.70989">
        <ele>198</ele>
        <time>2018-04-07T10:31:01Z</time>
      </trkpt>
      <trkpt lat="45.93031" lon="4.70994">
        <ele>198</ele>
        <time>2018-04-07T10:31:02Z</time>
      </trkpt>
      <trkpt lat="45.93037" lon="4.70998">
        <ele>198</ele>
        <time>2018-04-07T10:31:03Z</time>
      </trkpt>
      <trkpt lat="45.93044" lon="4.71003">
        <ele>197</ele>
        <time>2018-04-07T10:31:04Z</time>
      </trkpt>
      <trkpt lat="45.9305" lon="4.71008">
        <ele>197</ele>
        <time>2018-04-07T10:31:05Z</time>
      </trkpt>
      <trkpt lat="45.93056" lon="4.71012">
        <ele>197</ele>
        <time>2018-04-07T10:31:06Z</time>
      </trkpt>
      <trkpt lat="45.93062" lon="4.71017">
        <ele>197</ele>
        <time>2018-04-07T10:31:07Z</time>
      </trkpt>
      <trkpt lat="45.93068" lon="4.71023">
        <ele>197</ele>
        <time>2018-04-07T10:31:08Z</time>
      </trkpt>
      <trkpt lat="45.93074" lon="4.71029">
        <ele>197</ele>
        <time>2018-04-07T10:31:09Z</time>
      </trkpt>
      <trkpt lat="45.9308" lon="4.71037">
        <ele>196</ele>
        <time>2018-04-07T10:31:10Z</time>
      </trkpt>
      <trkpt lat="45.93086" lon="4.71045">
        <ele>196</ele>
        <time>2018-04-07T10:31:11Z</time>
      </trkpt>
      <trkpt lat="45.93091" lon="4.71053">
        <ele>196</ele>
        <time>2018-04-07T10:31:12Z</time>
      </trkpt>
      <trkpt lat="45.93097" lon="4.71062">
        <ele>195</ele>
        <time>2018-04-07T10:31:13Z</time>
      </trkpt>
      <trkpt lat="45.93103" lon="4.71071">
        <ele>195</ele>
        <time>2018-04-07T10:31:14Z</time>
      </trkpt>
      <trkpt lat="45.93109" lon="4.71079">
        <ele>195</ele>
        <time>2018-04-07T10:31:15Z</time>
      </trkpt>
      <trkpt lat="45.93113" lon="4.71087">
        <ele>193</ele>
        <time>2018-04-07T10:31:16Z</time>
      </trkpt>
      <trkpt lat="45.93118" lon="4.71097">
        <ele>193</ele>
        <time>2018-04-07T10:31:17Z</time>
      </trkpt>
      <trkpt lat="45.93123" lon="4.71104">
        <ele>192</ele>
        <time>2018-04-07T10:31:18Z</time>
      </trkpt>
      <trkpt lat="45.93128" lon="4.71114">
        <ele>192</ele>
        <time>2018-04-07T10:31:19Z</time>
      </trkpt>
      <trkpt lat="45.93132" lon="4.71124">
        <ele>192</ele>
        <time>2018-04-07T10:31:20Z</time>
      </trkpt>
      <trkpt lat="45.93136" lon="4.71135">
        <ele>192</ele>
        <time>2018-04-07T10:31:21Z</time>
      </trkpt>
      <trkpt lat="45.93142" lon="4.71145">
        <ele>191</ele>
        <time>2018-04-07T10:31:22Z</time>
      </trkpt>
      <trkpt lat="45.93149" lon="4.71156">
        <ele>191</ele>
        <time>2018-04-07T10:31:23Z</time>
      </trkpt>
      <trkpt lat="45.93153" lon="4.71166">
        <ele>191</ele>
        <time>2018-04-07T10:31:24Z</time>
      </trkpt>
      <trkpt lat="45.93157" lon="4.71175">
        <ele>190</ele>
        <time>2018-04-07T10:31:25Z</time>
      </trkpt>
      <trkpt lat="45.93161" lon="4.71185">
        <ele>190</ele>
        <time>2018-04-07T10:31:26Z</time>
      </trkpt>
      <trkpt lat="45.93165" lon="4.71195">
        <ele>190</ele>
        <time>2018-04-07T10:31:27Z</time>
      </trkpt>
      <trkpt lat="45.93172" lon="4.71205">
        <ele>190</ele>
        <time>2018-04-07T10:31:28Z</time>
      </trkpt>
      <trkpt lat="45.93176" lon="4.71214">
        <ele>190</ele>
        <time>2018-04-07T10:31:29Z</time>
      </trkpt>
      <trkpt lat="45.93181" lon="4.71224">
        <ele>190</ele>
        <time>2018-04-07T10:31:30Z</time>
      </trkpt>
      <trkpt lat="45.93186" lon="4.71234">
        <ele>190</ele>
        <time>2018-04-07T10:31:31Z</time>
      </trkpt>
      <trkpt lat="45.9319" lon="4.71244">
        <ele>190</ele>
        <time>2018-04-07T10:31:32Z</time>
      </trkpt>
      <trkpt lat="45.93194" lon="4.71254">
        <ele>189</ele>
        <time>2018-04-07T10:31:33Z</time>
      </trkpt>
      <trkpt lat="45.93198" lon="4.71264">
        <ele>189</ele>
        <time>2018-04-07T10:31:34Z</time>
      </trkpt>
      <trkpt lat="45.93202" lon="4.71274">
        <ele>188</ele>
        <time>2018-04-07T10:31:35Z</time>
      </trkpt>
      <trkpt lat="45.93207" lon="4.71285">
        <ele>188</ele>
        <time>2018-04-07T10:31:36Z</time>
      </trkpt>
      <trkpt lat="45.93211" lon="4.71295">
        <ele>188</ele>
        <time>2018-04-07T10:31:37Z</time>
      </trkpt>
      <trkpt lat="45.93215" lon="4.71305">
        <ele>188</ele>
        <time>2018-04-07T10:31:38Z</time>
      </trkpt>
      <trkpt lat="45.93219" lon="4.71315">
        <ele>187</ele>
        <time>2018-04-07T10:31:39Z</time>
      </trkpt>
      <trkpt lat="45.93224" lon="4.71325">
        <ele>187</ele>
        <time>2018-04-07T10:31:40Z</time>
      </trkpt>
      <trkpt lat="45.93228" lon="4.71335">
        <ele>186</ele>
        <time>2018-04-07T10:31:41Z</time>
      </trkpt>
      <trkpt lat="45.93232" lon="4.71345">
        <ele>186</ele>
        <time>2018-04-07T10:31:42Z</time>
      </trkpt>
      <trkpt lat="45.93236" lon="4.71354">
        <ele>186</ele>
        <time>2018-04-07T10:31:43Z</time>
      </trkpt>
      <trkpt lat="45.9324" lon="4.71364">
        <ele>186</ele>
        <time>2018-04-07T10:31:44Z</time>
      </trkpt>
      <trkpt lat="45.93245" lon="4.71373">
        <ele>186</ele>
        <time>2018-04-07T10:31:45Z</time>
      </trkpt>
      <trkpt lat="45.93249" lon="4.71384">
        <ele>186</ele>
        <time>2018-04-07T10:31:46Z</time>
      </trkpt>
      <trkpt lat="45.93253" lon="4.71394">
        <ele>186</ele>
        <time>2018-04-07T10:31:47Z</time>
      </trkpt>
      <trkpt lat="45.93258" lon="4.71404">
        <ele>186</ele>
        <time>2018-04-07T10:31:48Z</time>
      </trkpt>
      <trkpt lat="45.93263" lon="4.71414">
        <ele>186</ele>
        <time>2018-04-07T10:31:49Z</time>
      </trkpt>
      <trkpt lat="45.93267" lon="4.71425">
        <ele>186</ele>
        <time>2018-04-07T10:31:50Z</time>
      </trkpt>
      <trkpt lat="45.93272" lon="4.71433">
        <ele>185</ele>
        <time>2018-04-07T10:31:51Z</time>
      </trkpt>
      <trkpt lat="45.93275" lon="4.71443">
        <ele>185</ele>
        <time>2018-04-07T10:31:52Z</time>
      </trkpt>
      <trkpt lat="45.9328" lon="4.71451">
        <ele>185</ele>
        <time>2018-04-07T10:31:53Z</time>
      </trkpt>
      <trkpt lat="45.93283" lon="4.71459">
        <ele>185</ele>
        <time>2018-04-07T10:31:54Z</time>
      </trkpt>
      <trkpt lat="45.93286" lon="4.71466">
        <ele>185</ele>
        <time>2018-04-07T10:31:55Z</time>
      </trkpt>
      <trkpt lat="45.9329" lon="4.71475">
        <ele>185</ele>
        <time>2018-04-07T10:31:56Z</time>
      </trkpt>
      <trkpt lat="45.93294" lon="4.71483">
        <ele>185</ele>
        <time>2018-04-07T10:31:57Z</time>
      </trkpt>
      <trkpt lat="45.93299" lon="4.71491">
        <ele>185</ele>
        <time>2018-04-07T10:31:58Z</time>
      </trkpt>
      <trkpt lat="45.93302" lon="4.715">
        <ele>184</ele>
        <time>2018-04-07T10:31:59Z</time>
      </trkpt>
      <trkpt lat="45.93306" lon="4.71507">
        <ele>184</ele>
        <time>2018-04-07T10:32:00Z</time>
      </trkpt>
      <trkpt lat="45.93309" lon="4.71514">
        <ele>184</ele>
        <time>2018-04-07T10:32:01Z</time>
      </trkpt>
      <trkpt lat="45.93312" lon="4.7152">
        <ele>184</ele>
        <time>2018-04-07T10:32:02Z</time>
      </trkpt>
      <trkpt lat="45.93316" lon="4.71528">
        <ele>184</ele>
        <time>2018-04-07T10:32:03Z</time>
      </trkpt>
      <trkpt lat="45.93319" lon="4.71537">
        <ele>184</ele>
        <time>2018-04-07T10:32:04Z</time>
      </trkpt>
      <trkpt lat="45.93321" lon="4.71546">
        <ele>184</ele>
        <time>2018-04-07T10:32:05Z</time>
      </trkpt>
      <trkpt lat="45.93325" lon="4.71555">
        <ele>184</ele>
        <time>2018-04-07T10:32:06Z</time>
      </trkpt>
      <trkpt lat="45.93329" lon="4.71565">
        <ele>185</ele>
        <time>2018-04-07T10:32:07Z</time>
      </trkpt>
      <trkpt lat="45.93333" lon="4.71575">
        <ele>185</ele>
        <time>2018-04-07T10:32:08Z</time>
      </trkpt>
      <trkpt lat="45.93337" lon="4.71584">
        <ele>185</ele>
        <time>2018-04-07T10:32:09Z</time>
      </trkpt>
      <trkpt lat="45.93341" lon="4.71592">
        <ele>185</ele>
        <time>2018-04-07T10:32:10Z</time>
      </trkpt>
      <trkpt lat="45.93342" lon="4.71599">
        <ele>185</ele>
        <time>2018-04-07T10:32:11Z</time>
      </trkpt>
      <trkpt lat="45.93346" lon="4.71607">
        <ele>185</ele>
        <time>2018-04-07T10:32:12Z</time>
      </trkpt>
      <trkpt lat="45.93349" lon="4.71615">
        <ele>185</ele>
        <time>2018-04-07T10:32:13Z</time>
      </trkpt>
      <trkpt lat="45.93352" lon="4.71622">
        <ele>185</ele>
        <time>2018-04-07T10:32:14Z</time>
      </trkpt>
      <trkpt lat="45.93355" lon="4.7163">
        <ele>185</ele>
        <time>2018-04-07T10:32:15Z</time>
      </trkpt>
      <trkpt lat="45.93358" lon="4.71637">
        <ele>185</ele>
        <time>2018-04-07T10:32:16Z</time>
      </trkpt>
      <trkpt lat="45.93361" lon="4.71643">
        <ele>185</ele>
        <time>2018-04-07T10:32:17Z</time>
      </trkpt>
      <trkpt lat="45.93366" lon="4.7165">
        <ele>185</ele>
        <time>2018-04-07T10:32:18Z</time>
      </trkpt>
      <trkpt lat="45.93371" lon="4.71658">
        <ele>185</ele>
        <time>2018-04-07T10:32:19Z</time>
      </trkpt>
      <trkpt lat="45.93375" lon="4.71666">
        <ele>185</ele>
        <time>2018-04-07T10:32:20Z</time>
      </trkpt>
      <trkpt lat="45.9338" lon="4.71675">
        <ele>185</ele>
        <time>2018-04-07T10:32:21Z</time>
      </trkpt>
      <trkpt lat="45.93384" lon="4.71684">
        <ele>185</ele>
        <time>2018-04-07T10:32:22Z</time>
      </trkpt>
      <trkpt lat="45.93387" lon="4.71692">
        <ele>184</ele>
        <time>2018-04-07T10:32:23Z</time>
      </trkpt>
      <trkpt lat="45.93391" lon="4.717">
        <ele>184</ele>
        <time>2018-04-07T10:32:24Z</time>
      </trkpt>
      <trkpt lat="45.93394" lon="4.71709">
        <ele>184</ele>
        <time>2018-04-07T10:32:25Z</time>
      </trkpt>
      <trkpt lat="45.93398" lon="4.71716">
        <ele>184</ele>
        <time>2018-04-07T10:32:26Z</time>
      </trkpt>
      <trkpt lat="45.93402" lon="4.71727">
        <ele>184</ele>
        <time>2018-04-07T10:32:27Z</time>
      </trkpt>
      <trkpt lat="45.93406" lon="4.71736">
        <ele>184</ele>
        <time>2018-04-07T10:32:28Z</time>
      </trkpt>
      <trkpt lat="45.93409" lon="4.71744">
        <ele>183</ele>
        <time>2018-04-07T10:32:29Z</time>
      </trkpt>
      <trkpt lat="45.93412" lon="4.71752">
        <ele>183</ele>
        <time>2018-04-07T10:32:30Z</time>
      </trkpt>
      <trkpt lat="45.93416" lon="4.7176">
        <ele>183</ele>
        <time>2018-04-07T10:32:31Z</time>
      </trkpt>
      <trkpt lat="45.9342" lon="4.71769">
        <ele>182</ele>
        <time>2018-04-07T10:32:32Z</time>
      </trkpt>
      <trkpt lat="45.93423" lon="4.71778">
        <ele>182</ele>
        <time>2018-04-07T10:32:33Z</time>
      </trkpt>
      <trkpt lat="45.93427" lon="4.71786">
        <ele>182</ele>
        <time>2018-04-07T10:32:34Z</time>
      </trkpt>
      <trkpt lat="45.93431" lon="4.71795">
        <ele>182</ele>
        <time>2018-04-07T10:32:35Z</time>
      </trkpt>
      <trkpt lat="45.93435" lon="4.71804">
        <ele>182</ele>
        <time>2018-04-07T10:32:36Z</time>
      </trkpt>
      <trkpt lat="45.9344" lon="4.71813">
        <ele>182</ele>
        <time>2018-04-07T10:32:37Z</time>
      </trkpt>
      <trkpt lat="45.93445" lon="4.71823">
        <ele>182</ele>
        <time>2018-04-07T10:32:38Z</time>
      </trkpt>
      <trkpt lat="45.9345" lon="4.71832">
        <ele>182</ele>
        <time>2018-04-07T10:32:39Z</time>
      </trkpt>
      <trkpt lat="45.93456" lon="4.7184">
        <ele>181</ele>
        <time>2018-04-07T10:32:40Z</time>
      </trkpt>
      <trkpt lat="45.93462" lon="4.71846">
        <ele>181</ele>
        <time>2018-04-07T10:32:41Z</time>
      </trkpt>
      <trkpt lat="45.9347" lon="4.7185">
        <ele>180</ele>
        <time>2018-04-07T10:32:42Z</time>
      </trkpt>
      <trkpt lat="45.93478" lon="4.71853">
        <ele>180</ele>
        <time>2018-04-07T10:32:43Z</time>
      </trkpt>
      <trkpt lat="45.93485" lon="4.71852">
        <ele>180</ele>
        <time>2018-04-07T10:32:44Z</time>
      </trkpt>
      <trkpt lat="45.93494" lon="4.71853">
        <ele>180</ele>
        <time>2018-04-07T10:32:45Z</time>
      </trkpt>
      <trkpt lat="45.93503" lon="4.71853">
        <ele>179</ele>
        <time>2018-04-07T10:32:46Z</time>
      </trkpt>
      <trkpt lat="45.93511" lon="4.7185">
        <ele>179</ele>
        <time>2018-04-07T10:32:47Z</time>
      </trkpt>
      <trkpt lat="45.93516" lon="4.71845">
        <ele>179</ele>
        <time>2018-04-07T10:32:48Z</time>
      </trkpt>
      <trkpt lat="45.93524" lon="4.71844">
        <ele>179</ele>
        <time>2018-04-07T10:32:49Z</time>
      </trkpt>
      <trkpt lat="45.93532" lon="4.71843">
        <ele>179</ele>
        <time>2018-04-07T10:32:50Z</time>
      </trkpt>
      <trkpt lat="45.9354" lon="4.7184">
        <ele>179</ele>
        <time>2018-04-07T10:32:51Z</time>
      </trkpt>
      <trkpt lat="45.93547" lon="4.71837">
        <ele>179</ele>
        <time>2018-04-07T10:32:52Z</time>
      </trkpt>
      <trkpt lat="45.93555" lon="4.71836">
        <ele>179</ele>
        <time>2018-04-07T10:32:53Z</time>
      </trkpt>
      <trkpt lat="45.93565" lon="4.71835">
        <ele>179</ele>
        <time>2018-04-07T10:32:54Z</time>
      </trkpt>
      <trkpt lat="45.93572" lon="4.71833">
        <ele>180</ele>
        <time>2018-04-07T10:32:55Z</time>
      </trkpt>
      <trkpt lat="45.93579" lon="4.7183">
        <ele>180</ele>
        <time>2018-04-07T10:32:56Z</time>
      </trkpt>
      <trkpt lat="45.93589" lon="4.7183">
        <ele>180</ele>
        <time>2018-04-07T10:32:57Z</time>
      </trkpt>
      <trkpt lat="45.93597" lon="4.71827">
        <ele>179</ele>
        <time>2018-04-07T10:32:58Z</time>
      </trkpt>
      <trkpt lat="45.93605" lon="4.71824">
        <ele>179</ele>
        <time>2018-04-07T10:32:59Z</time>
      </trkpt>
      <trkpt lat="45.93612" lon="4.71818">
        <ele>179</ele>
        <time>2018-04-07T10:33:00Z</time>
      </trkpt>
      <trkpt lat="45.93615" lon="4.71809">
        <ele>179</ele>
        <time>2018-04-07T10:33:01Z</time>
      </trkpt>
      <trkpt lat="45.93622" lon="4.71805">
        <ele>179</ele>
        <time>2018-04-07T10:33:02Z</time>
      </trkpt>
      <trkpt lat="45.93629" lon="4.71801">
        <ele>179</ele>
        <time>2018-04-07T10:33:03Z</time>
      </trkpt>
      <trkpt lat="45.93636" lon="4.71799">
        <ele>179</ele>
        <time>2018-04-07T10:33:04Z</time>
      </trkpt>
      <trkpt lat="45.93643" lon="4.71795">
        <ele>179</ele>
        <time>2018-04-07T10:33:05Z</time>
      </trkpt>
      <trkpt lat="45.9365" lon="4.71793">
        <ele>179</ele>
        <time>2018-04-07T10:33:06Z</time>
      </trkpt>
      <trkpt lat="45.93654" lon="4.71791">
        <ele>179</ele>
        <time>2018-04-07T10:33:07Z</time>
      </trkpt>
      <trkpt lat="45.93661" lon="4.71788">
        <ele>179</ele>
        <time>2018-04-07T10:33:08Z</time>
      </trkpt>
      <trkpt lat="45.93669" lon="4.71786">
        <ele>177</ele>
        <time>2018-04-07T10:33:09Z</time>
      </trkpt>
      <trkpt lat="45.93676" lon="4.71783">
        <ele>177</ele>
        <time>2018-04-07T10:33:10Z</time>
      </trkpt>
      <trkpt lat="45.93682" lon="4.71782">
        <ele>177</ele>
        <time>2018-04-07T10:33:11Z</time>
      </trkpt>
      <trkpt lat="45.93689" lon="4.71779">
        <ele>177</ele>
        <time>2018-04-07T10:33:15Z</time>
      </trkpt>
      <trkpt lat="45.93691" lon="4.71779">
        <ele>177</ele>
        <time>2018-04-07T10:33:16Z</time>
      </trkpt>
      <trkpt lat="45.93699" lon="4.71782">
        <ele>177</ele>
        <time>2018-04-07T10:33:21Z</time>
      </trkpt>
      <trkpt lat="45.937" lon="4.71783">
        <ele>177</ele>
        <time>2018-04-07T10:33:22Z</time>
      </trkpt>
      <trkpt lat="45.93706" lon="4.71789">
        <ele>176</ele>
        <time>2018-04-07T10:33:26Z</time>
      </trkpt>
      <trkpt lat="45.93707" lon="4.71791">
        <ele>176</ele>
        <time>2018-04-07T10:33:27Z</time>
      </trkpt>
      <trkpt lat="45.93708" lon="4.71795">
        <ele>176</ele>
        <time>2018-04-07T10:33:28Z</time>
      </trkpt>
      <trkpt lat="45.9371" lon="4.71807">
        <ele>176</ele>
        <time>2018-04-07T10:33:29Z</time>
      </trkpt>
      <trkpt lat="45.93707" lon="4.71819">
        <ele>176</ele>
        <time>2018-04-07T10:33:31Z</time>
      </trkpt>
      <trkpt lat="45.93702" lon="4.71824">
        <ele>176</ele>
        <time>2018-04-07T10:33:32Z</time>
      </trkpt>
      <trkpt lat="45.93701" lon="4.7183">
        <ele>176</ele>
        <time>2018-04-07T10:33:33Z</time>
      </trkpt>
      <trkpt lat="45.93699" lon="4.71837">
        <ele>175</ele>
        <time>2018-04-07T10:33:34Z</time>
      </trkpt>
      <trkpt lat="45.93696" lon="4.71843">
        <ele>175</ele>
        <time>2018-04-07T10:33:35Z</time>
      </trkpt>
      <trkpt lat="45.93693" lon="4.7185">
        <ele>175</ele>
        <time>2018-04-07T10:33:36Z</time>
      </trkpt>
      <trkpt lat="45.93691" lon="4.71856">
        <ele>175</ele>
        <time>2018-04-07T10:33:37Z</time>
      </trkpt>
      <trkpt lat="45.93689" lon="4.71864">
        <ele>175</ele>
        <time>2018-04-07T10:33:38Z</time>
      </trkpt>
      <trkpt lat="45.93685" lon="4.71871">
        <ele>175</ele>
        <time>2018-04-07T10:33:39Z</time>
      </trkpt>
      <trkpt lat="45.93685" lon="4.71878">
        <ele>175</ele>
        <time>2018-04-07T10:33:40Z</time>
      </trkpt>
      <trkpt lat="45.93682" lon="4.71885">
        <ele>175</ele>
        <time>2018-04-07T10:33:41Z</time>
      </trkpt>
      <trkpt lat="45.93678" lon="4.71893">
        <ele>175</ele>
        <time>2018-04-07T10:33:42Z</time>
      </trkpt>
      <trkpt lat="45.93676" lon="4.71899">
        <ele>175</ele>
        <time>2018-04-07T10:33:43Z</time>
      </trkpt>
      <trkpt lat="45.93672" lon="4.71905">
        <ele>175</ele>
        <time>2018-04-07T10:33:44Z</time>
      </trkpt>
      <trkpt lat="45.93668" lon="4.71916">
        <ele>175</ele>
        <time>2018-04-07T10:33:47Z</time>
      </trkpt>
      <trkpt lat="45.93667" lon="4.71918">
        <ele>175</ele>
        <time>2018-04-07T10:33:48Z</time>
      </trkpt>
      <trkpt lat="45.93661" lon="4.71927">
        <ele>175</ele>
        <time>2018-04-07T10:34:07Z</time>
      </trkpt>
      <trkpt lat="45.9366" lon="4.71929">
        <ele>175</ele>
        <time>2018-04-07T10:34:08Z</time>
      </trkpt>
      <trkpt lat="45.93655" lon="4.71939">
        <ele>175</ele>
        <time>2018-04-07T10:34:14Z</time>
      </trkpt>
      <trkpt lat="45.93654" lon="4.71942">
        <ele>175</ele>
        <time>2018-04-07T10:34:15Z</time>
      </trkpt>
      <trkpt lat="45.93653" lon="4.71945">
        <ele>175</ele>
        <time>2018-04-07T10:34:16Z</time>
      </trkpt>
      <trkpt lat="45.93648" lon="4.71956">
        <ele>175</ele>
        <time>2018-04-07T10:34:17Z</time>
      </trkpt>
      <trkpt lat="45.93645" lon="4.71968">
        <ele>175</ele>
        <time>2018-04-07T10:34:19Z</time>
      </trkpt>
      <trkpt lat="45.93645" lon="4.71976">
        <ele>175</ele>
        <time>2018-04-07T10:34:20Z</time>
      </trkpt>
      <trkpt lat="45.93641" lon="4.71983">
        <ele>175</ele>
        <time>2018-04-07T10:34:21Z</time>
      </trkpt>
      <trkpt lat="45.93639" lon="4.71989">
        <ele>175</ele>
        <time>2018-04-07T10:34:22Z</time>
      </trkpt>
      <trkpt lat="45.93637" lon="4.71995">
        <ele>175</ele>
        <time>2018-04-07T10:34:23Z</time>
      </trkpt>
      <trkpt lat="45.93635" lon="4.72002">
        <ele>174</ele>
        <time>2018-04-07T10:34:24Z</time>
      </trkpt>
      <trkpt lat="45.93632" lon="4.72008">
        <ele>174</ele>
        <time>2018-04-07T10:34:25Z</time>
      </trkpt>
      <trkpt lat="45.9363" lon="4.72013">
        <ele>175</ele>
        <time>2018-04-07T10:34:26Z</time>
      </trkpt>
      <trkpt lat="45.93627" lon="4.72019">
        <ele>175</ele>
        <time>2018-04-07T10:34:27Z</time>
      </trkpt>
      <trkpt lat="45.93625" lon="4.72026">
        <ele>175</ele>
        <time>2018-04-07T10:34:28Z</time>
      </trkpt>
      <trkpt lat="45.93624" lon="4.72037">
        <ele>175</ele>
        <time>2018-04-07T10:34:29Z</time>
      </trkpt>
      <trkpt lat="45.93622" lon="4.72044">
        <ele>175</ele>
        <time>2018-04-07T10:34:30Z</time>
      </trkpt>
      <trkpt lat="45.9362" lon="4.72051">
        <ele>175</ele>
        <time>2018-04-07T10:34:31Z</time>
      </trkpt>
      <trkpt lat="45.93618" lon="4.72058">
        <ele>175</ele>
        <time>2018-04-07T10:34:32Z</time>
      </trkpt>
      <trkpt lat="45.93615" lon="4.72063">
        <ele>175</ele>
        <time>2018-04-07T10:34:33Z</time>
      </trkpt>
      <trkpt lat="45.93615" lon="4.72074">
        <ele>175</ele>
        <time>2018-04-07T10:34:34Z</time>
      </trkpt>
      <trkpt lat="45.93612" lon="4.72081">
        <ele>175</ele>
        <time>2018-04-07T10:34:35Z</time>
      </trkpt>
      <trkpt lat="45.93609" lon="4.72088">
        <ele>174</ele>
        <time>2018-04-07T10:34:36Z</time>
      </trkpt>
      <trkpt lat="45.93603" lon="4.72093">
        <ele>174</ele>
        <time>2018-04-07T10:34:37Z</time>
      </trkpt>
      <trkpt lat="45.93601" lon="4.72097">
        <ele>174</ele>
        <time>2018-04-07T10:34:38Z</time>
      </trkpt>
      <trkpt lat="45.93597" lon="4.72101">
        <ele>174</ele>
        <time>2018-04-07T10:34:39Z</time>
      </trkpt>
      <trkpt lat="45.93593" lon="4.72106">
        <ele>174</ele>
        <time>2018-04-07T10:34:40Z</time>
      </trkpt>
      <trkpt lat="45.9359" lon="4.72111">
        <ele>174</ele>
        <time>2018-04-07T10:34:41Z</time>
      </trkpt>
      <trkpt lat="45.93589" lon="4.72119">
        <ele>174</ele>
        <time>2018-04-07T10:34:42Z</time>
      </trkpt>
      <trkpt lat="45.93585" lon="4.72125">
        <ele>174</ele>
        <time>2018-04-07T10:34:43Z</time>
      </trkpt>
      <trkpt lat="45.93582" lon="4.72131">
        <ele>174</ele>
        <time>2018-04-07T10:34:44Z</time>
      </trkpt>
      <trkpt lat="45.93579" lon="4.72136">
        <ele>174</ele>
        <time>2018-04-07T10:34:45Z</time>
      </trkpt>
      <trkpt lat="45.93578" lon="4.72143">
        <ele>174</ele>
        <time>2018-04-07T10:34:46Z</time>
      </trkpt>
      <trkpt lat="45.93578" lon="4.7215">
        <ele>174</ele>
        <time>2018-04-07T10:34:47Z</time>
      </trkpt>
      <trkpt lat="45.93578" lon="4.72157">
        <ele>174</ele>
        <time>2018-04-07T10:34:48Z</time>
      </trkpt>
      <trkpt lat="45.93575" lon="4.72163">
        <ele>173</ele>
        <time>2018-04-07T10:34:49Z</time>
      </trkpt>
      <trkpt lat="45.93573" lon="4.72168">
        <ele>173</ele>
        <time>2018-04-07T10:34:50Z</time>
      </trkpt>
      <trkpt lat="45.9357" lon="4.72174">
        <ele>173</ele>
        <time>2018-04-07T10:34:51Z</time>
      </trkpt>
      <trkpt lat="45.93568" lon="4.7218">
        <ele>173</ele>
        <time>2018-04-07T10:34:52Z</time>
      </trkpt>
      <trkpt lat="45.93565" lon="4.72186">
        <ele>173</ele>
        <time>2018-04-07T10:34:53Z</time>
      </trkpt>
      <trkpt lat="45.93564" lon="4.72196">
        <ele>173</ele>
        <time>2018-04-07T10:34:54Z</time>
      </trkpt>
      <trkpt lat="45.93562" lon="4.72202">
        <ele>173</ele>
        <time>2018-04-07T10:34:55Z</time>
      </trkpt>
      <trkpt lat="45.93555" lon="4.72207">
        <ele>173</ele>
        <time>2018-04-07T10:34:56Z</time>
      </trkpt>
      <trkpt lat="45.93553" lon="4.72212">
        <ele>173</ele>
        <time>2018-04-07T10:34:57Z</time>
      </trkpt>
      <trkpt lat="45.9355" lon="4.72218">
        <ele>173</ele>
        <time>2018-04-07T10:34:58Z</time>
      </trkpt>
      <trkpt lat="45.93548" lon="4.72224">
        <ele>172</ele>
        <time>2018-04-07T10:34:59Z</time>
      </trkpt>
      <trkpt lat="45.93546" lon="4.7223">
        <ele>172</ele>
        <time>2018-04-07T10:35:00Z</time>
      </trkpt>
      <trkpt lat="45.93544" lon="4.72236">
        <ele>172</ele>
        <time>2018-04-07T10:35:01Z</time>
      </trkpt>
      <trkpt lat="45.93541" lon="4.72241">
        <ele>172</ele>
        <time>2018-04-07T10:35:02Z</time>
      </trkpt>
      <trkpt lat="45.93537" lon="4.72252">
        <ele>172</ele>
        <time>2018-04-07T10:35:04Z</time>
      </trkpt>
      <trkpt lat="45.93535" lon="4.72258">
        <ele>172</ele>
        <time>2018-04-07T10:35:05Z</time>
      </trkpt>
      <trkpt lat="45.93532" lon="4.72264">
        <ele>172</ele>
        <time>2018-04-07T10:35:06Z</time>
      </trkpt>
      <trkpt lat="45.9353" lon="4.72269">
        <ele>172</ele>
        <time>2018-04-07T10:35:07Z</time>
      </trkpt>
      <trkpt lat="45.93526" lon="4.7228">
        <ele>172</ele>
        <time>2018-04-07T10:35:09Z</time>
      </trkpt>
      <trkpt lat="45.93524" lon="4.72287">
        <ele>172</ele>
        <time>2018-04-07T10:35:10Z</time>
      </trkpt>
      <trkpt lat="45.93521" lon="4.72292">
        <ele>172</ele>
        <time>2018-04-07T10:35:11Z</time>
      </trkpt>
      <trkpt lat="45.93518" lon="4.72298">
        <ele>172</ele>
        <time>2018-04-07T10:35:12Z</time>
      </trkpt>
      <trkpt lat="45.93515" lon="4.72304">
        <ele>173</ele>
        <time>2018-04-07T10:35:13Z</time>
      </trkpt>
      <trkpt lat="45.93511" lon="4.72309">
        <ele>173</ele>
        <time>2018-04-07T10:35:14Z</time>
      </trkpt>
      <trkpt lat="45.93507" lon="4.72314">
        <ele>173</ele>
        <time>2018-04-07T10:35:15Z</time>
      </trkpt>
      <trkpt lat="45.93503" lon="4.72319">
        <ele>173</ele>
        <time>2018-04-07T10:35:16Z</time>
      </trkpt>
      <trkpt lat="45.93499" lon="4.72325">
        <ele>173</ele>
        <time>2018-04-07T10:35:17Z</time>
      </trkpt>
      <trkpt lat="45.93495" lon="4.7233">
        <ele>173</ele>
        <time>2018-04-07T10:35:18Z</time>
      </trkpt>
      <trkpt lat="45.93491" lon="4.72336">
        <ele>173</ele>
        <time>2018-04-07T10:35:19Z</time>
      </trkpt>
      <trkpt lat="45.93487" lon="4.72342">
        <ele>173</ele>
        <time>2018-04-07T10:35:20Z</time>
      </trkpt>
      <trkpt lat="45.93483" lon="4.72345">
        <ele>173</ele>
        <time>2018-04-07T10:35:21Z</time>
      </trkpt>
      <trkpt lat="45.9348" lon="4.72356">
        <ele>173</ele>
        <time>2018-04-07T10:35:22Z</time>
      </trkpt>
      <trkpt lat="45.93477" lon="4.72361">
        <ele>173</ele>
        <time>2018-04-07T10:35:23Z</time>
      </trkpt>
      <trkpt lat="45.93474" lon="4.72366">
        <ele>173</ele>
        <time>2018-04-07T10:35:24Z</time>
      </trkpt>
      <trkpt lat="45.9347" lon="4.7237">
        <ele>173</ele>
        <time>2018-04-07T10:35:25Z</time>
      </trkpt>
      <trkpt lat="45.93466" lon="4.72373">
        <ele>173</ele>
        <time>2018-04-07T10:35:26Z</time>
      </trkpt>
      <trkpt lat="45.93462" lon="4.72376">
        <ele>173</ele>
        <time>2018-04-07T10:35:27Z</time>
      </trkpt>
      <trkpt lat="45.93458" lon="4.7238">
        <ele>173</ele>
        <time>2018-04-07T10:35:28Z</time>
      </trkpt>
      <trkpt lat="45.93454" lon="4.72382">
        <ele>173</ele>
        <time>2018-04-07T10:35:29Z</time>
      </trkpt>
      <trkpt lat="45.9345" lon="4.72386">
        <ele>173</ele>
        <time>2018-04-07T10:35:30Z</time>
      </trkpt>
      <trkpt lat="45.93447" lon="4.72391">
        <ele>173</ele>
        <time>2018-04-07T10:35:31Z</time>
      </trkpt>
      <trkpt lat="45.93442" lon="4.72394">
        <ele>173</ele>
        <time>2018-04-07T10:35:32Z</time>
      </trkpt>
      <trkpt lat="45.93434" lon="4.72397">
        <ele>173</ele>
        <time>2018-04-07T10:35:34Z</time>
      </trkpt>
      <trkpt lat="45.9343" lon="4.72398">
        <ele>174</ele>
        <time>2018-04-07T10:35:35Z</time>
      </trkpt>
      <trkpt lat="45.93425" lon="4.724">
        <ele>174</ele>
        <time>2018-04-07T10:35:36Z</time>
      </trkpt>
      <trkpt lat="45.93419" lon="4.72399">
        <ele>174</ele>
        <time>2018-04-07T10:35:37Z</time>
      </trkpt>
      <trkpt lat="45.93411" lon="4.72403">
        <ele>174</ele>
        <time>2018-04-07T10:35:39Z</time>
      </trkpt>
      <trkpt lat="45.93408" lon="4.72404">
        <ele>174</ele>
        <time>2018-04-07T10:35:40Z</time>
      </trkpt>
      <trkpt lat="45.93403" lon="4.72404">
        <ele>174</ele>
        <time>2018-04-07T10:35:41Z</time>
      </trkpt>
      <trkpt lat="45.93397" lon="4.72403">
        <ele>174</ele>
        <time>2018-04-07T10:35:42Z</time>
      </trkpt>
      <trkpt lat="45.93392" lon="4.72403">
        <ele>174</ele>
        <time>2018-04-07T10:35:43Z</time>
      </trkpt>
      <trkpt lat="45.93388" lon="4.72402">
        <ele>174</ele>
        <time>2018-04-07T10:35:44Z</time>
      </trkpt>
      <trkpt lat="45.93384" lon="4.72404">
        <ele>174</ele>
        <time>2018-04-07T10:35:45Z</time>
      </trkpt>
      <trkpt lat="45.93382" lon="4.72412">
        <ele>174</ele>
        <time>2018-04-07T10:35:46Z</time>
      </trkpt>
      <trkpt lat="45.9338" lon="4.72417">
        <ele>173</ele>
        <time>2018-04-07T10:35:47Z</time>
      </trkpt>
      <trkpt lat="45.93381" lon="4.72425">
        <ele>173</ele>
        <time>2018-04-07T10:35:48Z</time>
      </trkpt>
      <trkpt lat="45.93386" lon="4.72436">
        <ele>173</ele>
        <time>2018-04-07T10:35:50Z</time>
      </trkpt>
      <trkpt lat="45.93387" lon="4.72443">
        <ele>173</ele>
        <time>2018-04-07T10:35:51Z</time>
      </trkpt>
      <trkpt lat="45.93388" lon="4.72451">
        <ele>173</ele>
        <time>2018-04-07T10:35:52Z</time>
      </trkpt>
      <trkpt lat="45.93387" lon="4.72457">
        <ele>173</ele>
        <time>2018-04-07T10:35:53Z</time>
      </trkpt>
      <trkpt lat="45.93383" lon="4.72468">
        <ele>173</ele>
        <time>2018-04-07T10:35:55Z</time>
      </trkpt>
      <trkpt lat="45.93379" lon="4.72472">
        <ele>173</ele>
        <time>2018-04-07T10:35:56Z</time>
      </trkpt>
      <trkpt lat="45.93375" lon="4.72476">
        <ele>173</ele>
        <time>2018-04-07T10:35:57Z</time>
      </trkpt>
      <trkpt lat="45.93371" lon="4.7248">
        <ele>173</ele>
        <time>2018-04-07T10:35:58Z</time>
      </trkpt>
      <trkpt lat="45.93367" lon="4.72485">
        <ele>173</ele>
        <time>2018-04-07T10:35:59Z</time>
      </trkpt>
      <trkpt lat="45.93364" lon="4.72489">
        <ele>173</ele>
        <time>2018-04-07T10:36:00Z</time>
      </trkpt>
      <trkpt lat="45.93357" lon="4.72497">
        <ele>173</ele>
        <time>2018-04-07T10:36:02Z</time>
      </trkpt>
      <trkpt lat="45.93354" lon="4.72501">
        <ele>172</ele>
        <time>2018-04-07T10:36:03Z</time>
      </trkpt>
      <trkpt lat="45.93351" lon="4.72506">
        <ele>172</ele>
        <time>2018-04-07T10:36:04Z</time>
      </trkpt>
      <trkpt lat="45.93348" lon="4.72512">
        <ele>172</ele>
        <time>2018-04-07T10:36:05Z</time>
      </trkpt>
      <trkpt lat="45.93344" lon="4.72516">
        <ele>172</ele>
        <time>2018-04-07T10:36:06Z</time>
      </trkpt>
      <trkpt lat="45.9334" lon="4.72521">
        <ele>172</ele>
        <time>2018-04-07T10:36:07Z</time>
      </trkpt>
      <trkpt lat="45.93336" lon="4.72525">
        <ele>172</ele>
        <time>2018-04-07T10:36:08Z</time>
      </trkpt>
      <trkpt lat="45.93333" lon="4.72529">
        <ele>172</ele>
        <time>2018-04-07T10:36:09Z</time>
      </trkpt>
      <trkpt lat="45.9333" lon="4.72534">
        <ele>172</ele>
        <time>2018-04-07T10:36:10Z</time>
      </trkpt>
      <trkpt lat="45.93326" lon="4.72538">
        <ele>172</ele>
        <time>2018-04-07T10:36:11Z</time>
      </trkpt>
      <trkpt lat="45.93319" lon="4.72543">
        <ele>172</ele>
        <time>2018-04-07T10:36:13Z</time>
      </trkpt>
      <trkpt lat="45.93314" lon="4.72549">
        <ele>172</ele>
        <time>2018-04-07T10:36:14Z</time>
      </trkpt>
      <trkpt lat="45.93311" lon="4.72553">
        <ele>172</ele>
        <time>2018-04-07T10:36:15Z</time>
      </trkpt>
      <trkpt lat="45.93307" lon="4.72557">
        <ele>172</ele>
        <time>2018-04-07T10:36:16Z</time>
      </trkpt>
      <trkpt lat="45.93299" lon="4.72564">
        <ele>172</ele>
        <time>2018-04-07T10:36:18Z</time>
      </trkpt>
      <trkpt lat="45.93296" lon="4.72569">
        <ele>172</ele>
        <time>2018-04-07T10:36:19Z</time>
      </trkpt>
      <trkpt lat="45.93293" lon="4.72572">
        <ele>172</ele>
        <time>2018-04-07T10:36:20Z</time>
      </trkpt>
      <trkpt lat="45.93289" lon="4.72577">
        <ele>171</ele>
        <time>2018-04-07T10:36:21Z</time>
      </trkpt>
      <trkpt lat="45.93284" lon="4.72581">
        <ele>171</ele>
        <time>2018-04-07T10:36:22Z</time>
      </trkpt>
      <trkpt lat="45.93281" lon="4.72586">
        <ele>170</ele>
        <time>2018-04-07T10:36:23Z</time>
      </trkpt>
      <trkpt lat="45.93277" lon="4.7259">
        <ele>170</ele>
        <time>2018-04-07T10:36:24Z</time>
      </trkpt>
      <trkpt lat="45.93273" lon="4.72594">
        <ele>170</ele>
        <time>2018-04-07T10:36:25Z</time>
      </trkpt>
      <trkpt lat="45.9327" lon="4.72601">
        <ele>170</ele>
        <time>2018-04-07T10:36:26Z</time>
      </trkpt>
      <trkpt lat="45.93266" lon="4.72605">
        <ele>170</ele>
        <time>2018-04-07T10:36:27Z</time>
      </trkpt>
      <trkpt lat="45.93263" lon="4.72609">
        <ele>170</ele>
        <time>2018-04-07T10:36:28Z</time>
      </trkpt>
      <trkpt lat="45.93259" lon="4.72614">
        <ele>170</ele>
        <time>2018-04-07T10:36:29Z</time>
      </trkpt>
      <trkpt lat="45.93255" lon="4.72618">
        <ele>170</ele>
        <time>2018-04-07T10:36:30Z</time>
      </trkpt>
      <trkpt lat="45.9325" lon="4.72621">
        <ele>170</ele>
        <time>2018-04-07T10:36:31Z</time>
      </trkpt>
      <trkpt lat="45.93245" lon="4.72624">
        <ele>170</ele>
        <time>2018-04-07T10:36:32Z</time>
      </trkpt>
      <trkpt lat="45.93241" lon="4.72628">
        <ele>170</ele>
        <time>2018-04-07T10:36:33Z</time>
      </trkpt>
      <trkpt lat="45.9324" lon="4.72635">
        <ele>170</ele>
        <time>2018-04-07T10:36:34Z</time>
      </trkpt>
      <trkpt lat="45.93236" lon="4.7264">
        <ele>170</ele>
        <time>2018-04-07T10:36:35Z</time>
      </trkpt>
      <trkpt lat="45.93233" lon="4.72644">
        <ele>170</ele>
        <time>2018-04-07T10:36:36Z</time>
      </trkpt>
      <trkpt lat="45.93229" lon="4.72648">
        <ele>170</ele>
        <time>2018-04-07T10:36:37Z</time>
      </trkpt>
      <trkpt lat="45.93226" lon="4.72653">
        <ele>170</ele>
        <time>2018-04-07T10:36:38Z</time>
      </trkpt>
      <trkpt lat="45.93222" lon="4.72658">
        <ele>170</ele>
        <time>2018-04-07T10:36:39Z</time>
      </trkpt>
      <trkpt lat="45.93218" lon="4.72663">
        <ele>170</ele>
        <time>2018-04-07T10:36:40Z</time>
      </trkpt>
      <trkpt lat="45.93215" lon="4.72666">
        <ele>170</ele>
        <time>2018-04-07T10:36:41Z</time>
      </trkpt>
      <trkpt lat="45.93209" lon="4.72672">
        <ele>169</ele>
        <time>2018-04-07T10:36:42Z</time>
      </trkpt>
      <trkpt lat="45.93205" lon="4.72677">
        <ele>169</ele>
        <time>2018-04-07T10:36:43Z</time>
      </trkpt>
      <trkpt lat="45.93201" lon="4.72681">
        <ele>169</ele>
        <time>2018-04-07T10:36:44Z</time>
      </trkpt>
      <trkpt lat="45.93198" lon="4.72686">
        <ele>169</ele>
        <time>2018-04-07T10:36:45Z</time>
      </trkpt>
      <trkpt lat="45.93195" lon="4.72691">
        <ele>169</ele>
        <time>2018-04-07T10:36:46Z</time>
      </trkpt>
      <trkpt lat="45.93191" lon="4.72695">
        <ele>169</ele>
        <time>2018-04-07T10:36:47Z</time>
      </trkpt>
      <trkpt lat="45.93188" lon="4.72699">
        <ele>169</ele>
        <time>2018-04-07T10:36:48Z</time>
      </trkpt>
      <trkpt lat="45.93183" lon="4.72703">
        <ele>169</ele>
        <time>2018-04-07T10:36:49Z</time>
      </trkpt>
      <trkpt lat="45.9318" lon="4.72707">
        <ele>169</ele>
        <time>2018-04-07T10:36:50Z</time>
      </trkpt>
      <trkpt lat="45.93176" lon="4.72711">
        <ele>169</ele>
        <time>2018-04-07T10:36:51Z</time>
      </trkpt>
      <trkpt lat="45.93173" lon="4.72716">
        <ele>170</ele>
        <time>2018-04-07T10:36:52Z</time>
      </trkpt>
      <trkpt lat="45.93168" lon="4.7272">
        <ele>170</ele>
        <time>2018-04-07T10:36:53Z</time>
      </trkpt>
      <trkpt lat="45.93165" lon="4.72724">
        <ele>170</ele>
        <time>2018-04-07T10:36:54Z</time>
      </trkpt>
      <trkpt lat="45.9316" lon="4.72728">
        <ele>170</ele>
        <time>2018-04-07T10:36:55Z</time>
      </trkpt>
      <trkpt lat="45.93156" lon="4.72731">
        <ele>170</ele>
        <time>2018-04-07T10:36:56Z</time>
      </trkpt>
      <trkpt lat="45.93151" lon="4.72736">
        <ele>170</ele>
        <time>2018-04-07T10:36:57Z</time>
      </trkpt>
      <trkpt lat="45.93147" lon="4.7274">
        <ele>170</ele>
        <time>2018-04-07T10:36:58Z</time>
      </trkpt>
      <trkpt lat="45.93144" lon="4.72745">
        <ele>170</ele>
        <time>2018-04-07T10:36:59Z</time>
      </trkpt>
      <trkpt lat="45.93141" lon="4.7275">
        <ele>170</ele>
        <time>2018-04-07T10:37:00Z</time>
      </trkpt>
      <trkpt lat="45.93138" lon="4.72755">
        <ele>171</ele>
        <time>2018-04-07T10:37:01Z</time>
      </trkpt>
      <trkpt lat="45.93134" lon="4.72759">
        <ele>171</ele>
        <time>2018-04-07T10:37:02Z</time>
      </trkpt>
      <trkpt lat="45.9313" lon="4.72763">
        <ele>171</ele>
        <time>2018-04-07T10:37:03Z</time>
      </trkpt>
      <trkpt lat="45.93126" lon="4.72768">
        <ele>171</ele>
        <time>2018-04-07T10:37:04Z</time>
      </trkpt>
      <trkpt lat="45.93123" lon="4.72774">
        <ele>171</ele>
        <time>2018-04-07T10:37:05Z</time>
      </trkpt>
      <trkpt lat="45.93119" lon="4.72779">
        <ele>171</ele>
        <time>2018-04-07T10:37:06Z</time>
      </trkpt>
      <trkpt lat="45.93115" lon="4.72784">
        <ele>171</ele>
        <time>2018-04-07T10:37:07Z</time>
      </trkpt>
      <trkpt lat="45.93112" lon="4.72789">
        <ele>171</ele>
        <time>2018-04-07T10:37:08Z</time>
      </trkpt>
      <trkpt lat="45.93109" lon="4.72794">
        <ele>171</ele>
        <time>2018-04-07T10:37:09Z</time>
      </trkpt>
      <trkpt lat="45.93104" lon="4.72798">
        <ele>171</ele>
        <time>2018-04-07T10:37:10Z</time>
      </trkpt>
      <trkpt lat="45.93099" lon="4.72802">
        <ele>171</ele>
        <time>2018-04-07T10:37:11Z</time>
      </trkpt>
      <trkpt lat="45.93095" lon="4.72807">
        <ele>172</ele>
        <time>2018-04-07T10:37:12Z</time>
      </trkpt>
      <trkpt lat="45.93092" lon="4.72811">
        <ele>172</ele>
        <time>2018-04-07T10:37:13Z</time>
      </trkpt>
      <trkpt lat="45.93085" lon="4.72818">
        <ele>172</ele>
        <time>2018-04-07T10:37:15Z</time>
      </trkpt>
      <trkpt lat="45.93059" lon="4.72869">
        <ele>172</ele>
        <time>2018-04-07T10:37:24Z</time>
      </trkpt>
      <trkpt lat="45.93057" lon="4.72868">
        <ele>172</ele>
        <time>2018-04-07T10:37:25Z</time>
      </trkpt>
      <trkpt lat="45.93047" lon="4.72865">
        <ele>172</ele>
        <time>2018-04-07T10:37:26Z</time>
      </trkpt>
      <trkpt lat="45.93039" lon="4.7287">
        <ele>172</ele>
        <time>2018-04-07T10:37:28Z</time>
      </trkpt>
      <trkpt lat="45.93038" lon="4.72876">
        <ele>172</ele>
        <time>2018-04-07T10:37:29Z</time>
      </trkpt>
      <trkpt lat="45.93034" lon="4.72879">
        <ele>172</ele>
        <time>2018-04-07T10:37:30Z</time>
      </trkpt>
      <trkpt lat="45.93029" lon="4.72885">
        <ele>172</ele>
        <time>2018-04-07T10:37:31Z</time>
      </trkpt>
      <trkpt lat="45.93026" lon="4.72889">
        <ele>172</ele>
        <time>2018-04-07T10:37:32Z</time>
      </trkpt>
      <trkpt lat="45.93023" lon="4.72893">
        <ele>172</ele>
        <time>2018-04-07T10:37:33Z</time>
      </trkpt>
      <trkpt lat="45.93016" lon="4.72901">
        <ele>172</ele>
        <time>2018-04-07T10:37:35Z</time>
      </trkpt>
      <trkpt lat="45.93013" lon="4.72904">
        <ele>172</ele>
        <time>2018-04-07T10:37:36Z</time>
      </trkpt>
      <trkpt lat="45.93009" lon="4.72909">
        <ele>171</ele>
        <time>2018-04-07T10:37:37Z</time>
      </trkpt>
      <trkpt lat="45.93006" lon="4.72913">
        <ele>171</ele>
        <time>2018-04-07T10:37:38Z</time>
      </trkpt>
      <trkpt lat="45.93001" lon="4.72921">
        <ele>171</ele>
        <time>2018-04-07T10:37:40Z</time>
      </trkpt>
      <trkpt lat="45.92998" lon="4.72925">
        <ele>171</ele>
        <time>2018-04-07T10:37:41Z</time>
      </trkpt>
      <trkpt lat="45.92995" lon="4.72929">
        <ele>171</ele>
        <time>2018-04-07T10:37:42Z</time>
      </trkpt>
      <trkpt lat="45.92992" lon="4.72935">
        <ele>171</ele>
        <time>2018-04-07T10:37:43Z</time>
      </trkpt>
      <trkpt lat="45.92986" lon="4.72942">
        <ele>171</ele>
        <time>2018-04-07T10:37:45Z</time>
      </trkpt>
      <trkpt lat="45.92984" lon="4.72948">
        <ele>171</ele>
        <time>2018-04-07T10:37:46Z</time>
      </trkpt>
      <trkpt lat="45.92977" lon="4.72955">
        <ele>171</ele>
        <time>2018-04-07T10:37:48Z</time>
      </trkpt>
      <trkpt lat="45.92974" lon="4.72957">
        <ele>171</ele>
        <time>2018-04-07T10:37:49Z</time>
      </trkpt>
      <trkpt lat="45.92968" lon="4.72965">
        <ele>171</ele>
        <time>2018-04-07T10:37:53Z</time>
      </trkpt>
      <trkpt lat="45.92966" lon="4.72968">
        <ele>171</ele>
        <time>2018-04-07T10:37:54Z</time>
      </trkpt>
      <trkpt lat="45.9296" lon="4.72975">
        <ele>171</ele>
        <time>2018-04-07T10:37:55Z</time>
      </trkpt>
      <trkpt lat="45.92957" lon="4.72979">
        <ele>171</ele>
        <time>2018-04-07T10:37:56Z</time>
      </trkpt>
      <trkpt lat="45.92953" lon="4.72982">
        <ele>171</ele>
        <time>2018-04-07T10:37:58Z</time>
      </trkpt>
      <trkpt lat="45.92948" lon="4.72988">
        <ele>171</ele>
        <time>2018-04-07T10:37:59Z</time>
      </trkpt>
      <trkpt lat="45.92943" lon="4.72995">
        <ele>171</ele>
        <time>2018-04-07T10:38:01Z</time>
      </trkpt>
      <trkpt lat="45.9294" lon="4.72999">
        <ele>171</ele>
        <time>2018-04-07T10:38:02Z</time>
      </trkpt>
      <trkpt lat="45.92934" lon="4.73006">
        <ele>171</ele>
        <time>2018-04-07T10:38:04Z</time>
      </trkpt>
      <trkpt lat="45.92931" lon="4.73009">
        <ele>171</ele>
        <time>2018-04-07T10:38:05Z</time>
      </trkpt>
      <trkpt lat="45.92925" lon="4.73017">
        <ele>172</ele>
        <time>2018-04-07T10:38:07Z</time>
      </trkpt>
      <trkpt lat="45.92923" lon="4.73021">
        <ele>172</ele>
        <time>2018-04-07T10:38:08Z</time>
      </trkpt>
      <trkpt lat="45.92916" lon="4.73028">
        <ele>172</ele>
        <time>2018-04-07T10:38:11Z</time>
      </trkpt>
      <trkpt lat="45.92914" lon="4.73031">
        <ele>172</ele>
        <time>2018-04-07T10:38:12Z</time>
      </trkpt>
      <trkpt lat="45.92908" lon="4.7304">
        <ele>172</ele>
        <time>2018-04-07T10:38:15Z</time>
      </trkpt>
      <trkpt lat="45.92905" lon="4.73043">
        <ele>172</ele>
        <time>2018-04-07T10:38:16Z</time>
      </trkpt>
      <trkpt lat="45.92899" lon="4.73052">
        <ele>172</ele>
        <time>2018-04-07T10:38:17Z</time>
      </trkpt>
      <trkpt lat="45.92893" lon="4.7306">
        <ele>172</ele>
        <time>2018-04-07T10:38:19Z</time>
      </trkpt>
      <trkpt lat="45.9289" lon="4.73063">
        <ele>172</ele>
        <time>2018-04-07T10:38:20Z</time>
      </trkpt>
      <trkpt lat="45.92883" lon="4.73071">
        <ele>172</ele>
        <time>2018-04-07T10:38:22Z</time>
      </trkpt>
      <trkpt lat="45.9288" lon="4.73075">
        <ele>172</ele>
        <time>2018-04-07T10:38:23Z</time>
      </trkpt>
      <trkpt lat="45.92875" lon="4.73082">
        <ele>172</ele>
        <time>2018-04-07T10:38:25Z</time>
      </trkpt>
      <trkpt lat="45.92871" lon="4.73086">
        <ele>172</ele>
        <time>2018-04-07T10:38:26Z</time>
      </trkpt>
      <trkpt lat="45.92865" lon="4.73093">
        <ele>172</ele>
        <time>2018-04-07T10:38:28Z</time>
      </trkpt>
      <trkpt lat="45.92862" lon="4.73096">
        <ele>171</ele>
        <time>2018-04-07T10:38:29Z</time>
      </trkpt>
      <trkpt lat="45.92855" lon="4.73103">
        <ele>171</ele>
        <time>2018-04-07T10:38:31Z</time>
      </trkpt>
      <trkpt lat="45.92852" lon="4.73105">
        <ele>171</ele>
        <time>2018-04-07T10:38:32Z</time>
      </trkpt>
      <trkpt lat="45.92845" lon="4.73101">
        <ele>171</ele>
        <time>2018-04-07T10:38:34Z</time>
      </trkpt>
      <trkpt lat="45.92843" lon="4.73095">
        <ele>171</ele>
        <time>2018-04-07T10:38:35Z</time>
      </trkpt>
      <trkpt lat="45.92846" lon="4.73083">
        <ele>171</ele>
        <time>2018-04-07T10:38:36Z</time>
      </trkpt>
      <trkpt lat="45.92844" lon="4.73076">
        <ele>171</ele>
        <time>2018-04-07T10:38:37Z</time>
      </trkpt>
      <trkpt lat="45.92843" lon="4.73069">
        <ele>171</ele>
        <time>2018-04-07T10:38:38Z</time>
      </trkpt>
      <trkpt lat="45.92842" lon="4.73063">
        <ele>171</ele>
        <time>2018-04-07T10:38:39Z</time>
      </trkpt>
      <trkpt lat="45.92841" lon="4.73051">
        <ele>171</ele>
        <time>2018-04-07T10:38:41Z</time>
      </trkpt>
      <trkpt lat="45.9284" lon="4.73046">
        <ele>171</ele>
        <time>2018-04-07T10:38:42Z</time>
      </trkpt>
      <trkpt lat="45.92838" lon="4.73036">
        <ele>171</ele>
        <time>2018-04-07T10:38:44Z</time>
      </trkpt>
      <trkpt lat="45.92839" lon="4.7303">
        <ele>171</ele>
        <time>2018-04-07T10:38:45Z</time>
      </trkpt>
      <trkpt lat="45.92837" lon="4.73019">
        <ele>171</ele>
        <time>2018-04-07T10:38:47Z</time>
      </trkpt>
      <trkpt lat="45.92836" lon="4.73014">
        <ele>171</ele>
        <time>2018-04-07T10:38:48Z</time>
      </trkpt>
      <trkpt lat="45.92834" lon="4.73002">
        <ele>170</ele>
        <time>2018-04-07T10:38:50Z</time>
      </trkpt>
      <trkpt lat="45.92834" lon="4.72995">
        <ele>170</ele>
        <time>2018-04-07T10:38:51Z</time>
      </trkpt>
      <trkpt lat="45.92833" lon="4.72983">
        <ele>170</ele>
        <time>2018-04-07T10:38:53Z</time>
      </trkpt>
      <trkpt lat="45.92833" lon="4.72978">
        <ele>170</ele>
        <time>2018-04-07T10:38:54Z</time>
      </trkpt>
      <trkpt lat="45.92833" lon="4.72966">
        <ele>170</ele>
        <time>2018-04-07T10:38:56Z</time>
      </trkpt>
      <trkpt lat="45.92833" lon="4.72961">
        <ele>170</ele>
        <time>2018-04-07T10:38:57Z</time>
      </trkpt>
      <trkpt lat="45.92833" lon="4.72949">
        <ele>170</ele>
        <time>2018-04-07T10:38:59Z</time>
      </trkpt>
      <trkpt lat="45.92832" lon="4.72943">
        <ele>170</ele>
        <time>2018-04-07T10:39:00Z</time>
      </trkpt>
      <trkpt lat="45.9283" lon="4.72932">
        <ele>170</ele>
        <time>2018-04-07T10:39:02Z</time>
      </trkpt>
      <trkpt lat="45.92829" lon="4.72926">
        <ele>170</ele>
        <time>2018-04-07T10:39:03Z</time>
      </trkpt>
      <trkpt lat="45.92826" lon="4.72915">
        <ele>170</ele>
        <time>2018-04-07T10:39:05Z</time>
      </trkpt>
      <trkpt lat="45.92825" lon="4.72909">
        <ele>170</ele>
        <time>2018-04-07T10:39:06Z</time>
      </trkpt>
      <trkpt lat="45.92823" lon="4.72898">
        <ele>170</ele>
        <time>2018-04-07T10:39:08Z</time>
      </trkpt>
      <trkpt lat="45.92821" lon="4.72892">
        <ele>170</ele>
        <time>2018-04-07T10:39:09Z</time>
      </trkpt>
      <trkpt lat="45.9282" lon="4.72881">
        <ele>170</ele>
        <time>2018-04-07T10:39:11Z</time>
      </trkpt>
      <trkpt lat="45.92818" lon="4.72875">
        <ele>170</ele>
        <time>2018-04-07T10:39:12Z</time>
      </trkpt>
      <trkpt lat="45.92817" lon="4.72869">
        <ele>170</ele>
        <time>2018-04-07T10:39:13Z</time>
      </trkpt>
      <trkpt lat="45.92813" lon="4.72863">
        <ele>170</ele>
        <time>2018-04-07T10:39:14Z</time>
      </trkpt>
      <trkpt lat="45.92811" lon="4.72857">
        <ele>170</ele>
        <time>2018-04-07T10:39:15Z</time>
      </trkpt>
      <trkpt lat="45.9281" lon="4.7285">
        <ele>170</ele>
        <time>2018-04-07T10:39:16Z</time>
      </trkpt>
      <trkpt lat="45.92809" lon="4.72843">
        <ele>170</ele>
        <time>2018-04-07T10:39:17Z</time>
      </trkpt>
      <trkpt lat="45.92809" lon="4.72836">
        <ele>170</ele>
        <time>2018-04-07T10:39:18Z</time>
      </trkpt>
      <trkpt lat="45.92808" lon="4.72828">
        <ele>171</ele>
        <time>2018-04-07T10:39:19Z</time>
      </trkpt>
      <trkpt lat="45.92807" lon="4.7282">
        <ele>171</ele>
        <time>2018-04-07T10:39:20Z</time>
      </trkpt>
      <trkpt lat="45.92806" lon="4.72808">
        <ele>171</ele>
        <time>2018-04-07T10:39:22Z</time>
      </trkpt>
      <trkpt lat="45.92803" lon="4.728">
        <ele>171</ele>
        <time>2018-04-07T10:39:23Z</time>
      </trkpt>
      <trkpt lat="45.92798" lon="4.72791">
        <ele>171</ele>
        <time>2018-04-07T10:39:25Z</time>
      </trkpt>
      <trkpt lat="45.92797" lon="4.7279">
        <ele>171</ele>
        <time>2018-04-07T10:39:26Z</time>
      </trkpt>
      <trkpt lat="45.92788" lon="4.72791">
        <ele>170</ele>
        <time>2018-04-07T10:39:28Z</time>
      </trkpt>
      <trkpt lat="45.92784" lon="4.72794">
        <ele>170</ele>
        <time>2018-04-07T10:39:29Z</time>
      </trkpt>
      <trkpt lat="45.92776" lon="4.728">
        <ele>170</ele>
        <time>2018-04-07T10:39:31Z</time>
      </trkpt>
      <trkpt lat="45.92772" lon="4.72803">
        <ele>170</ele>
        <time>2018-04-07T10:39:32Z</time>
      </trkpt>
      <trkpt lat="45.92767" lon="4.7281">
        <ele>170</ele>
        <time>2018-04-07T10:39:34Z</time>
      </trkpt>
      <trkpt lat="45.92763" lon="4.72812">
        <ele>170</ele>
        <time>2018-04-07T10:39:35Z</time>
      </trkpt>
      <trkpt lat="45.92756" lon="4.72817">
        <ele>170</ele>
        <time>2018-04-07T10:39:37Z</time>
      </trkpt>
      <trkpt lat="45.92752" lon="4.72819">
        <ele>170</ele>
        <time>2018-04-07T10:39:38Z</time>
      </trkpt>
      <trkpt lat="45.92745" lon="4.72825">
        <ele>169</ele>
        <time>2018-04-07T10:39:40Z</time>
      </trkpt>
      <trkpt lat="45.92741" lon="4.72828">
        <ele>169</ele>
        <time>2018-04-07T10:39:41Z</time>
      </trkpt>
      <trkpt lat="45.92734" lon="4.72835">
        <ele>169</ele>
        <time>2018-04-07T10:39:43Z</time>
      </trkpt>
      <trkpt lat="45.9273" lon="4.72837">
        <ele>169</ele>
        <time>2018-04-07T10:39:44Z</time>
      </trkpt>
      <trkpt lat="45.92722" lon="4.72843">
        <ele>169</ele>
        <time>2018-04-07T10:39:46Z</time>
      </trkpt>
      <trkpt lat="45.92718" lon="4.72846">
        <ele>169</ele>
        <time>2018-04-07T10:39:47Z</time>
      </trkpt>
      <trkpt lat="45.9271" lon="4.72851">
        <ele>169</ele>
        <time>2018-04-07T10:39:49Z</time>
      </trkpt>
      <trkpt lat="45.92706" lon="4.72854">
        <ele>169</ele>
        <time>2018-04-07T10:39:50Z</time>
      </trkpt>
      <trkpt lat="45.92702" lon="4.72857">
        <ele>169</ele>
        <time>2018-04-07T10:39:51Z</time>
      </trkpt>
      <trkpt lat="45.92698" lon="4.72859">
        <ele>169</ele>
        <time>2018-04-07T10:39:52Z</time>
      </trkpt>
      <trkpt lat="45.92691" lon="4.72866">
        <ele>169</ele>
        <time>2018-04-07T10:39:54Z</time>
      </trkpt>
      <trkpt lat="45.92688" lon="4.72869">
        <ele>169</ele>
        <time>2018-04-07T10:39:55Z</time>
      </trkpt>
      <trkpt lat="45.92681" lon="4.72875">
        <ele>169</ele>
        <time>2018-04-07T10:39:57Z</time>
      </trkpt>
      <trkpt lat="45.92677" lon="4.72878">
        <ele>170</ele>
        <time>2018-04-07T10:39:58Z</time>
      </trkpt>
      <trkpt lat="45.92673" lon="4.72881">
        <ele>170</ele>
        <time>2018-04-07T10:39:59Z</time>
      </trkpt>
      <trkpt lat="45.92669" lon="4.72884">
        <ele>170</ele>
        <time>2018-04-07T10:40:00Z</time>
      </trkpt>
      <trkpt lat="45.92665" lon="4.72887">
        <ele>169</ele>
        <time>2018-04-07T10:40:01Z</time>
      </trkpt>
      <trkpt lat="45.92661" lon="4.72891">
        <ele>169</ele>
        <time>2018-04-07T10:40:02Z</time>
      </trkpt>
      <trkpt lat="45.92653" lon="4.72898">
        <ele>170</ele>
        <time>2018-04-07T10:40:04Z</time>
      </trkpt>
      <trkpt lat="45.92649" lon="4.72901">
        <ele>170</ele>
        <time>2018-04-07T10:40:05Z</time>
      </trkpt>
      <trkpt lat="45.92642" lon="4.72907">
        <ele>169</ele>
        <time>2018-04-07T10:40:07Z</time>
      </trkpt>
      <trkpt lat="45.92638" lon="4.72911">
        <ele>169</ele>
        <time>2018-04-07T10:40:08Z</time>
      </trkpt>
      <trkpt lat="45.92631" lon="4.72917">
        <ele>169</ele>
        <time>2018-04-07T10:40:10Z</time>
      </trkpt>
      <trkpt lat="45.92627" lon="4.7292">
        <ele>170</ele>
        <time>2018-04-07T10:40:11Z</time>
      </trkpt>
      <trkpt lat="45.9262" lon="4.72927">
        <ele>169</ele>
        <time>2018-04-07T10:40:13Z</time>
      </trkpt>
      <trkpt lat="45.92617" lon="4.7293">
        <ele>169</ele>
        <time>2018-04-07T10:40:14Z</time>
      </trkpt>
      <trkpt lat="45.92609" lon="4.72935">
        <ele>169</ele>
        <time>2018-04-07T10:40:16Z</time>
      </trkpt>
      <trkpt lat="45.92605" lon="4.72939">
        <ele>169</ele>
        <time>2018-04-07T10:40:17Z</time>
      </trkpt>
      <trkpt lat="45.92601" lon="4.72943">
        <ele>169</ele>
        <time>2018-04-07T10:40:18Z</time>
      </trkpt>
      <trkpt lat="45.92598" lon="4.72946">
        <ele>169</ele>
        <time>2018-04-07T10:40:19Z</time>
      </trkpt>
      <trkpt lat="45.92591" lon="4.72955">
        <ele>169</ele>
        <time>2018-04-07T10:40:21Z</time>
      </trkpt>
      <trkpt lat="45.92588" lon="4.72959">
        <ele>169</ele>
        <time>2018-04-07T10:40:22Z</time>
      </trkpt>
      <trkpt lat="45.92581" lon="4.72966">
        <ele>169</ele>
        <time>2018-04-07T10:40:24Z</time>
      </trkpt>
      <trkpt lat="45.92578" lon="4.7297">
        <ele>169</ele>
        <time>2018-04-07T10:40:25Z</time>
      </trkpt>
      <trkpt lat="45.9257" lon="4.72976">
        <ele>169</ele>
        <time>2018-04-07T10:40:27Z</time>
      </trkpt>
      <trkpt lat="45.92567" lon="4.72979">
        <ele>169</ele>
        <time>2018-04-07T10:40:28Z</time>
      </trkpt>
      <trkpt lat="45.92559" lon="4.72986">
        <ele>169</ele>
        <time>2018-04-07T10:40:30Z</time>
      </trkpt>
      <trkpt lat="45.92555" lon="4.72989">
        <ele>169</ele>
        <time>2018-04-07T10:40:31Z</time>
      </trkpt>
      <trkpt lat="45.92548" lon="4.72995">
        <ele>169</ele>
        <time>2018-04-07T10:40:33Z</time>
      </trkpt>
      <trkpt lat="45.92545" lon="4.72999">
        <ele>169</ele>
        <time>2018-04-07T10:40:34Z</time>
      </trkpt>
      <trkpt lat="45.92539" lon="4.73005">
        <ele>169</ele>
        <time>2018-04-07T10:40:36Z</time>
      </trkpt>
      <trkpt lat="45.92536" lon="4.73008">
        <ele>169</ele>
        <time>2018-04-07T10:40:37Z</time>
      </trkpt>
      <trkpt lat="45.92529" lon="4.73013">
        <ele>169</ele>
        <time>2018-04-07T10:40:39Z</time>
      </trkpt>
      <trkpt lat="45.92525" lon="4.73017">
        <ele>169</ele>
        <time>2018-04-07T10:40:40Z</time>
      </trkpt>
      <trkpt lat="45.92519" lon="4.73024">
        <ele>169</ele>
        <time>2018-04-07T10:40:42Z</time>
      </trkpt>
      <trkpt lat="45.92516" lon="4.73028">
        <ele>169</ele>
        <time>2018-04-07T10:40:43Z</time>
      </trkpt>
      <trkpt lat="45.92509" lon="4.73034">
        <ele>169</ele>
        <time>2018-04-07T10:40:45Z</time>
      </trkpt>
      <trkpt lat="45.92506" lon="4.73037">
        <ele>169</ele>
        <time>2018-04-07T10:40:46Z</time>
      </trkpt>
      <trkpt lat="45.92499" lon="4.73043">
        <ele>170</ele>
        <time>2018-04-07T10:40:48Z</time>
      </trkpt>
      <trkpt lat="45.92496" lon="4.73045">
        <ele>170</ele>
        <time>2018-04-07T10:40:49Z</time>
      </trkpt>
      <trkpt lat="45.9249" lon="4.73051">
        <ele>170</ele>
        <time>2018-04-07T10:40:51Z</time>
      </trkpt>
      <trkpt lat="45.92487" lon="4.73054">
        <ele>170</ele>
        <time>2018-04-07T10:40:52Z</time>
      </trkpt>
      <trkpt lat="45.92482" lon="4.73058">
        <ele>170</ele>
        <time>2018-04-07T10:40:54Z</time>
      </trkpt>
      <trkpt lat="45.92477" lon="4.73062">
        <ele>170</ele>
        <time>2018-04-07T10:40:55Z</time>
      </trkpt>
      <trkpt lat="45.9247" lon="4.73067">
        <ele>170</ele>
        <time>2018-04-07T10:40:57Z</time>
      </trkpt>
      <trkpt lat="45.92467" lon="4.7307">
        <ele>170</ele>
        <time>2018-04-07T10:40:58Z</time>
      </trkpt>
      <trkpt lat="45.9246" lon="4.73077">
        <ele>170</ele>
        <time>2018-04-07T10:41:01Z</time>
      </trkpt>
      <trkpt lat="45.92458" lon="4.73079">
        <ele>170</ele>
        <time>2018-04-07T10:41:02Z</time>
      </trkpt>
      <trkpt lat="45.92451" lon="4.73085">
        <ele>170</ele>
        <time>2018-04-07T10:41:05Z</time>
      </trkpt>
      <trkpt lat="45.92449" lon="4.73088">
        <ele>170</ele>
        <time>2018-04-07T10:41:06Z</time>
      </trkpt>
      <trkpt lat="45.92443" lon="4.73093">
        <ele>170</ele>
        <time>2018-04-07T10:41:08Z</time>
      </trkpt>
      <trkpt lat="45.92441" lon="4.73096">
        <ele>170</ele>
        <time>2018-04-07T10:41:09Z</time>
      </trkpt>
      <trkpt lat="45.92435" lon="4.73101">
        <ele>170</ele>
        <time>2018-04-07T10:41:11Z</time>
      </trkpt>
      <trkpt lat="45.92432" lon="4.73104">
        <ele>170</ele>
        <time>2018-04-07T10:41:12Z</time>
      </trkpt>
      <trkpt lat="45.92425" lon="4.7311">
        <ele>170</ele>
        <time>2018-04-07T10:41:15Z</time>
      </trkpt>
      <trkpt lat="45.92422" lon="4.73112">
        <ele>170</ele>
        <time>2018-04-07T10:41:16Z</time>
      </trkpt>
      <trkpt lat="45.92415" lon="4.7312">
        <ele>171</ele>
        <time>2018-04-07T10:41:19Z</time>
      </trkpt>
      <trkpt lat="45.92414" lon="4.73124">
        <ele>171</ele>
        <time>2018-04-07T10:41:20Z</time>
      </trkpt>
      <trkpt lat="45.92412" lon="4.73128">
        <ele>171</ele>
        <time>2018-04-07T10:41:21Z</time>
      </trkpt>
      <trkpt lat="45.92409" lon="4.7314">
        <ele>171</ele>
        <time>2018-04-07T10:41:22Z</time>
      </trkpt>
      <trkpt lat="45.92409" lon="4.73151">
        <ele>171</ele>
        <time>2018-04-07T10:41:25Z</time>
      </trkpt>
      <trkpt lat="45.92409" lon="4.73154">
        <ele>170</ele>
        <time>2018-04-07T10:41:26Z</time>
      </trkpt>
      <trkpt lat="45.92409" lon="4.73164">
        <ele>170</ele>
        <time>2018-04-07T10:41:27Z</time>
      </trkpt>
      <trkpt lat="45.92409" lon="4.73169">
        <ele>170</ele>
        <time>2018-04-07T10:41:28Z</time>
      </trkpt>
      <trkpt lat="45.92409" lon="4.73182">
        <ele>171</ele>
        <time>2018-04-07T10:41:30Z</time>
      </trkpt>
      <trkpt lat="45.92409" lon="4.73188">
        <ele>171</ele>
        <time>2018-04-07T10:41:31Z</time>
      </trkpt>
      <trkpt lat="45.92409" lon="4.73195">
        <ele>171</ele>
        <time>2018-04-07T10:41:32Z</time>
      </trkpt>
      <trkpt lat="45.9241" lon="4.73201">
        <ele>171</ele>
        <time>2018-04-07T10:41:33Z</time>
      </trkpt>
      <trkpt lat="45.9241" lon="4.73214">
        <ele>171</ele>
        <time>2018-04-07T10:41:35Z</time>
      </trkpt>
      <trkpt lat="45.92411" lon="4.7322">
        <ele>171</ele>
        <time>2018-04-07T10:41:36Z</time>
      </trkpt>
      <trkpt lat="45.92411" lon="4.73232">
        <ele>171</ele>
        <time>2018-04-07T10:41:38Z</time>
      </trkpt>
      <trkpt lat="45.92412" lon="4.73238">
        <ele>171</ele>
        <time>2018-04-07T10:41:39Z</time>
      </trkpt>
      <trkpt lat="45.92413" lon="4.73249">
        <ele>171</ele>
        <time>2018-04-07T10:41:41Z</time>
      </trkpt>
      <trkpt lat="45.92413" lon="4.73255">
        <ele>171</ele>
        <time>2018-04-07T10:41:42Z</time>
      </trkpt>
      <trkpt lat="45.92413" lon="4.73267">
        <ele>171</ele>
        <time>2018-04-07T10:41:44Z</time>
      </trkpt>
      <trkpt lat="45.92412" lon="4.73273">
        <ele>171</ele>
        <time>2018-04-07T10:41:45Z</time>
      </trkpt>
      <trkpt lat="45.92412" lon="4.7328">
        <ele>171</ele>
        <time>2018-04-07T10:41:46Z</time>
      </trkpt>
      <trkpt lat="45.92413" lon="4.73286">
        <ele>171</ele>
        <time>2018-04-07T10:41:47Z</time>
      </trkpt>
      <trkpt lat="45.92413" lon="4.73293">
        <ele>171</ele>
        <time>2018-04-07T10:41:48Z</time>
      </trkpt>
      <trkpt lat="45.92413" lon="4.733">
        <ele>171</ele>
        <time>2018-04-07T10:41:49Z</time>
      </trkpt>
      <trkpt lat="45.92414" lon="4.73312">
        <ele>171</ele>
        <time>2018-04-07T10:41:51Z</time>
      </trkpt>
      <trkpt lat="45.92414" lon="4.73318">
        <ele>171</ele>
        <time>2018-04-07T10:41:52Z</time>
      </trkpt>
      <trkpt lat="45.92415" lon="4.73329">
        <ele>171</ele>
        <time>2018-04-07T10:41:54Z</time>
      </trkpt>
      <trkpt lat="45.92416" lon="4.73335">
        <ele>171</ele>
        <time>2018-04-07T10:41:55Z</time>
      </trkpt>
      <trkpt lat="45.92418" lon="4.73347">
        <ele>171</ele>
        <time>2018-04-07T10:41:57Z</time>
      </trkpt>
      <trkpt lat="45.92419" lon="4.73353">
        <ele>171</ele>
        <time>2018-04-07T10:41:58Z</time>
      </trkpt>
      <trkpt lat="45.92421" lon="4.73364">
        <ele>172</ele>
        <time>2018-04-07T10:42:00Z</time>
      </trkpt>
      <trkpt lat="45.92422" lon="4.7337">
        <ele>172</ele>
        <time>2018-04-07T10:42:01Z</time>
      </trkpt>
      <trkpt lat="45.92424" lon="4.73381">
        <ele>172</ele>
        <time>2018-04-07T10:42:03Z</time>
      </trkpt>
      <trkpt lat="45.92426" lon="4.73388">
        <ele>172</ele>
        <time>2018-04-07T10:42:04Z</time>
      </trkpt>
      <trkpt lat="45.92428" lon="4.734">
        <ele>172</ele>
        <time>2018-04-07T10:42:06Z</time>
      </trkpt>
      <trkpt lat="45.92431" lon="4.73404">
        <ele>172</ele>
        <time>2018-04-07T10:42:07Z</time>
      </trkpt>
      <trkpt lat="45.92438" lon="4.73411">
        <ele>172</ele>
        <time>2018-04-07T10:42:09Z</time>
      </trkpt>
      <trkpt lat="45.92442" lon="4.73415">
        <ele>172</ele>
        <time>2018-04-07T10:42:10Z</time>
      </trkpt>
      <trkpt lat="45.92449" lon="4.73421">
        <ele>173</ele>
        <time>2018-04-07T10:42:12Z</time>
      </trkpt>
      <trkpt lat="45.92453" lon="4.73424">
        <ele>173</ele>
        <time>2018-04-07T10:42:13Z</time>
      </trkpt>
      <trkpt lat="45.92456" lon="4.73428">
        <ele>173</ele>
        <time>2018-04-07T10:42:14Z</time>
      </trkpt>
      <trkpt lat="45.9246" lon="4.73432">
        <ele>173</ele>
        <time>2018-04-07T10:42:15Z</time>
      </trkpt>
      <trkpt lat="45.92463" lon="4.73437">
        <ele>173</ele>
        <time>2018-04-07T10:42:16Z</time>
      </trkpt>
      <trkpt lat="45.92466" lon="4.73443">
        <ele>173</ele>
        <time>2018-04-07T10:42:17Z</time>
      </trkpt>
      <trkpt lat="45.92469" lon="4.73455">
        <ele>173</ele>
        <time>2018-04-07T10:42:19Z</time>
      </trkpt>
      <trkpt lat="45.92469" lon="4.73461">
        <ele>173</ele>
        <time>2018-04-07T10:42:20Z</time>
      </trkpt>
      <trkpt lat="45.92469" lon="4.73473">
        <ele>173</ele>
        <time>2018-04-07T10:42:22Z</time>
      </trkpt>
      <trkpt lat="45.92469" lon="4.7348">
        <ele>173</ele>
        <time>2018-04-07T10:42:23Z</time>
      </trkpt>
      <trkpt lat="45.92469" lon="4.73487">
        <ele>173</ele>
        <time>2018-04-07T10:42:24Z</time>
      </trkpt>
      <trkpt lat="45.92469" lon="4.73493">
        <ele>173</ele>
        <time>2018-04-07T10:42:25Z</time>
      </trkpt>
      <trkpt lat="45.92468" lon="4.73506">
        <ele>174</ele>
        <time>2018-04-07T10:42:27Z</time>
      </trkpt>
      <trkpt lat="45.92468" lon="4.73512">
        <ele>174</ele>
        <time>2018-04-07T10:42:28Z</time>
      </trkpt>
      <trkpt lat="45.92468" lon="4.73524">
        <ele>174</ele>
        <time>2018-04-07T10:42:30Z</time>
      </trkpt>
      <trkpt lat="45.92468" lon="4.7353">
        <ele>174</ele>
        <time>2018-04-07T10:42:31Z</time>
      </trkpt>
      <trkpt lat="45.92468" lon="4.73539">
        <ele>174</ele>
        <time>2018-04-07T10:42:33Z</time>
      </trkpt>
      <trkpt lat="45.92468" lon="4.73546">
        <ele>173</ele>
        <time>2018-04-07T10:42:34Z</time>
      </trkpt>
      <trkpt lat="45.92468" lon="4.73558">
        <ele>173</ele>
        <time>2018-04-07T10:42:36Z</time>
      </trkpt>
      <trkpt lat="45.92468" lon="4.73565">
        <ele>173</ele>
        <time>2018-04-07T10:42:37Z</time>
      </trkpt>
      <trkpt lat="45.92468" lon="4.73571">
        <ele>173</ele>
        <time>2018-04-07T10:42:38Z</time>
      </trkpt>
      <trkpt lat="45.92469" lon="4.73578">
        <ele>173</ele>
        <time>2018-04-07T10:42:39Z</time>
      </trkpt>
      <trkpt lat="45.92469" lon="4.73584">
        <ele>174</ele>
        <time>2018-04-07T10:42:40Z</time>
      </trkpt>
      <trkpt lat="45.92469" lon="4.73591">
        <ele>174</ele>
        <time>2018-04-07T10:42:41Z</time>
      </trkpt>
      <trkpt lat="45.92468" lon="4.73598">
        <ele>174</ele>
        <time>2018-04-07T10:42:42Z</time>
      </trkpt>
      <trkpt lat="45.92468" lon="4.73605">
        <ele>174</ele>
        <time>2018-04-07T10:42:43Z</time>
      </trkpt>
      <trkpt lat="45.92468" lon="4.73612">
        <ele>174</ele>
        <time>2018-04-07T10:42:44Z</time>
      </trkpt>
      <trkpt lat="45.9247" lon="4.7362">
        <ele>174</ele>
        <time>2018-04-07T10:42:45Z</time>
      </trkpt>
      <trkpt lat="45.92471" lon="4.73626">
        <ele>174</ele>
        <time>2018-04-07T10:42:46Z</time>
      </trkpt>
      <trkpt lat="45.92471" lon="4.73634">
        <ele>174</ele>
        <time>2018-04-07T10:42:47Z</time>
      </trkpt>
      <trkpt lat="45.92471" lon="4.73642">
        <ele>174</ele>
        <time>2018-04-07T10:42:48Z</time>
      </trkpt>
      <trkpt lat="45.92471" lon="4.73649">
        <ele>174</ele>
        <time>2018-04-07T10:42:49Z</time>
      </trkpt>
      <trkpt lat="45.9247" lon="4.73656">
        <ele>174</ele>
        <time>2018-04-07T10:42:50Z</time>
      </trkpt>
      <trkpt lat="45.92469" lon="4.73663">
        <ele>174</ele>
        <time>2018-04-07T10:42:51Z</time>
      </trkpt>
      <trkpt lat="45.92467" lon="4.73675">
        <ele>174</ele>
        <time>2018-04-07T10:42:53Z</time>
      </trkpt>
      <trkpt lat="45.92466" lon="4.7368">
        <ele>174</ele>
        <time>2018-04-07T10:42:54Z</time>
      </trkpt>
      <trkpt lat="45.92463" lon="4.73692">
        <ele>174</ele>
        <time>2018-04-07T10:42:56Z</time>
      </trkpt>
      <trkpt lat="45.92462" lon="4.73698">
        <ele>174</ele>
        <time>2018-04-07T10:42:57Z</time>
      </trkpt>
      <trkpt lat="45.92463" lon="4.73708">
        <ele>174</ele>
        <time>2018-04-07T10:43:23Z</time>
      </trkpt>
      <trkpt lat="45.92463" lon="4.73708">
        <ele>174</ele>
        <time>2018-04-07T10:43:24Z</time>
      </trkpt>
      <trkpt lat="45.92461" lon="4.73711">
        <ele>174</ele>
        <time>2018-04-07T10:43:37.388Z</time>
      </trkpt>
    </trkseg>
  </trk>
</gpx>